<?xml version='1.0' encoding='UTF-8'?><gpx version="1.1" creator="JPX - https://github.com/jenetics/jpx" xmlns="http://www.topografix.com/GPX/1/1"><trk><trkseg><trkpt lat="45.9949779" lon="11.7596646"><ele>604.0</ele><time>2026-04-05T08:38:10.318Z</time></trkpt><trkpt lat="45.9949201" lon="11.7597259"><ele>604.0</ele><time>2026-04-05T08:38:14.35Z</time></trkpt><trkpt lat="45.9948919" lon="11.7596435"><ele>604.0</ele><time>2026-04-05T08:38:19.336Z</time></trkpt><trkpt lat="45.995009" lon="11.7596362"><ele>604.0</ele><time>2026-04-05T08:38:30.351Z</time></trkpt><trkpt lat="45.9949749" lon="11.759733"><ele>604.0</ele><time>2026-04-05T08:40:20.356Z</time></trkpt><trkpt lat="45.9949412" lon="11.7598857"><ele>604.0</ele><time>2026-04-05T08:40:23.399Z</time></trkpt><trkpt lat="45.9948851" lon="11.7599549"><ele>604.0</ele><time>2026-04-05T08:40:26.298Z</time></trkpt><trkpt lat="45.9948216" lon="11.7599597"><ele>604.0</ele><time>2026-04-05T08:40:28.384Z</time></trkpt><trkpt lat="45.994783" lon="11.7598463"><ele>604.0</ele><time>2026-04-05T08:40:31.399Z</time></trkpt><trkpt lat="45.9947783" lon="11.7597338"><ele>604.0</ele><time>2026-04-05T08:40:33.37Z</time></trkpt><trkpt lat="45.9947872" lon="11.7596062"><ele>604.0</ele><time>2026-04-05T08:40:35.341Z</time></trkpt><trkpt lat="45.9947795" lon="11.7594698"><ele>604.0</ele><time>2026-04-05T08:40:37.429Z</time></trkpt><trkpt lat="45.9947428" lon="11.7593393"><ele>604.8</ele><time>2026-04-05T08:40:39.399Z</time></trkpt><trkpt lat="45.9947004" lon="11.7591917"><ele>605.5999999999999</ele><time>2026-04-05T08:40:41.37Z</time></trkpt><trkpt lat="45.9946637" lon="11.7590584"><ele>606.4</ele><time>2026-04-05T08:40:43.33Z</time></trkpt><trkpt lat="45.9946388" lon="11.7589228"><ele>607.1999999999999</ele><time>2026-04-05T08:40:45.43Z</time></trkpt><trkpt lat="45.9946129" lon="11.7588028"><ele>608.0</ele><time>2026-04-05T08:40:47.248Z</time></trkpt><trkpt lat="45.9945871" lon="11.7586759"><ele>608.0</ele><time>2026-04-05T08:40:49.249Z</time></trkpt><trkpt lat="45.9945573" lon="11.758548"><ele>608.0</ele><time>2026-04-05T08:40:51.248Z</time></trkpt><trkpt lat="45.9945198" lon="11.7584252"><ele>608.0</ele><time>2026-04-05T08:40:53.249Z</time></trkpt><trkpt lat="45.9944726" lon="11.7582915"><ele>608.0</ele><time>2026-04-05T08:40:55.248Z</time></trkpt><trkpt lat="45.9944241" lon="11.7581593"><ele>608.0</ele><time>2026-04-05T08:40:57.248Z</time></trkpt><trkpt lat="45.9943792" lon="11.7580223"><ele>609.75</ele><time>2026-04-05T08:40:59.248Z</time></trkpt><trkpt lat="45.9943308" lon="11.757868"><ele>611.5</ele><time>2026-04-05T08:41:01.249Z</time></trkpt><trkpt lat="45.9942762" lon="11.7577097"><ele>613.25</ele><time>2026-04-05T08:41:03.248Z</time></trkpt><trkpt lat="45.9942236" lon="11.7575527"><ele>615.0</ele><time>2026-04-05T08:41:05.249Z</time></trkpt><trkpt lat="45.9941827" lon="11.7573892"><ele>613.8333333333334</ele><time>2026-04-05T08:41:07.248Z</time></trkpt><trkpt lat="45.9941504" lon="11.7572216"><ele>612.6666666666666</ele><time>2026-04-05T08:41:09.248Z</time></trkpt><trkpt lat="45.9941422" lon="11.7571306"><ele>611.5</ele><time>2026-04-05T08:41:10.248Z</time></trkpt><trkpt lat="45.9941408" lon="11.7570359"><ele>610.3333333333333</ele><time>2026-04-05T08:41:11.248Z</time></trkpt><trkpt lat="45.9941438" lon="11.7569406"><ele>609.1666666666666</ele><time>2026-04-05T08:41:12.248Z</time></trkpt><trkpt lat="45.994149" lon="11.7568448"><ele>608.0</ele><time>2026-04-05T08:41:13.248Z</time></trkpt><trkpt lat="45.9941543" lon="11.7567474"><ele>608.0</ele><time>2026-04-05T08:41:14.249Z</time></trkpt><trkpt lat="45.9941596" lon="11.7566516"><ele>608.0</ele><time>2026-04-05T08:41:15.249Z</time></trkpt><trkpt lat="45.9941644" lon="11.7565562"><ele>608.0</ele><time>2026-04-05T08:41:16.249Z</time></trkpt><trkpt lat="45.9941701" lon="11.7564623"><ele>608.0</ele><time>2026-04-05T08:41:17.248Z</time></trkpt><trkpt lat="45.994175" lon="11.7563695"><ele>608.0</ele><time>2026-04-05T08:41:18.248Z</time></trkpt><trkpt lat="45.9941832" lon="11.756278"><ele>608.0</ele><time>2026-04-05T08:41:19.249Z</time></trkpt><trkpt lat="45.9942025" lon="11.7561854"><ele>608.0</ele><time>2026-04-05T08:41:20.25Z</time></trkpt><trkpt lat="45.9942302" lon="11.7560907"><ele>614.8</ele><time>2026-04-05T08:41:21.249Z</time></trkpt><trkpt lat="45.9942575" lon="11.7559963"><ele>621.5999999999999</ele><time>2026-04-05T08:41:22.249Z</time></trkpt><trkpt lat="45.9942763" lon="11.7559031"><ele>628.4000000000001</ele><time>2026-04-05T08:41:23.248Z</time></trkpt><trkpt lat="45.9943105" lon="11.7557558"><ele>635.2</ele><time>2026-04-05T08:41:25.248Z</time></trkpt><trkpt lat="45.9943901" lon="11.7556353"><ele>642.0</ele><time>2026-04-05T08:41:27.249Z</time></trkpt><trkpt lat="45.9944645" lon="11.7555069"><ele>641.9999999999999</ele><time>2026-04-05T08:41:29.248Z</time></trkpt><trkpt lat="45.9944721" lon="11.7554103"><ele>642.0</ele><time>2026-04-05T08:41:30.248Z</time></trkpt><trkpt lat="45.9944645" lon="11.7553164"><ele>642.0</ele><time>2026-04-05T08:41:31.248Z</time></trkpt><trkpt lat="45.9944492" lon="11.7552216"><ele>642.0</ele><time>2026-04-05T08:41:32.248Z</time></trkpt><trkpt lat="45.9944535" lon="11.7551248"><ele>642.0</ele><time>2026-04-05T08:41:33.249Z</time></trkpt><trkpt lat="45.9944628" lon="11.7550264"><ele>641.9999999999999</ele><time>2026-04-05T08:41:34.249Z</time></trkpt><trkpt lat="45.9944707" lon="11.7549263"><ele>642.0</ele><time>2026-04-05T08:41:35.248Z</time></trkpt><trkpt lat="45.9944714" lon="11.7548192"><ele>641.8571428571428</ele><time>2026-04-05T08:41:36.249Z</time></trkpt><trkpt lat="45.9944639" lon="11.7547153"><ele>641.7142857142857</ele><time>2026-04-05T08:41:37.25Z</time></trkpt><trkpt lat="45.9944485" lon="11.7546162"><ele>641.5714285714286</ele><time>2026-04-05T08:41:38.249Z</time></trkpt><trkpt lat="45.9944301" lon="11.75452"><ele>641.4285714285713</ele><time>2026-04-05T08:41:39.249Z</time></trkpt><trkpt lat="45.9944178" lon="11.7544213"><ele>641.2857142857142</ele><time>2026-04-05T08:41:40.249Z</time></trkpt><trkpt lat="45.9944142" lon="11.754323"><ele>641.1428571428571</ele><time>2026-04-05T08:41:41.249Z</time></trkpt><trkpt lat="45.9944146" lon="11.75422"><ele>641.0</ele><time>2026-04-05T08:41:42.249Z</time></trkpt><trkpt lat="45.9944173" lon="11.7541163"><ele>642.0</ele><time>2026-04-05T08:41:43.248Z</time></trkpt><trkpt lat="45.9944192" lon="11.7540089"><ele>643.0</ele><time>2026-04-05T08:41:44.249Z</time></trkpt><trkpt lat="45.9944158" lon="11.7539035"><ele>644.0</ele><time>2026-04-05T08:41:45.249Z</time></trkpt><trkpt lat="45.99441" lon="11.7537982"><ele>645.0</ele><time>2026-04-05T08:41:46.248Z</time></trkpt><trkpt lat="45.994406" lon="11.7536908"><ele>646.0</ele><time>2026-04-05T08:41:47.25Z</time></trkpt><trkpt lat="45.994403" lon="11.7535834"><ele>647.0</ele><time>2026-04-05T08:41:48.249Z</time></trkpt><trkpt lat="45.9944006" lon="11.7534771"><ele>648.0</ele><time>2026-04-05T08:41:49.25Z</time></trkpt><trkpt lat="45.9944007" lon="11.7533728"><ele>649.1428571428571</ele><time>2026-04-05T08:41:50.249Z</time></trkpt><trkpt lat="45.9944047" lon="11.7532702"><ele>650.2857142857142</ele><time>2026-04-05T08:41:51.25Z</time></trkpt><trkpt lat="45.9944105" lon="11.7531695"><ele>651.4285714285713</ele><time>2026-04-05T08:41:52.25Z</time></trkpt><trkpt lat="45.9944172" lon="11.7530676"><ele>652.5714285714286</ele><time>2026-04-05T08:41:53.25Z</time></trkpt><trkpt lat="45.9944259" lon="11.7529641"><ele>653.7142857142857</ele><time>2026-04-05T08:41:54.248Z</time></trkpt><trkpt lat="45.9944364" lon="11.7528581"><ele>654.8571428571428</ele><time>2026-04-05T08:41:55.249Z</time></trkpt><trkpt lat="45.9944514" lon="11.7527548"><ele>656.0</ele><time>2026-04-05T08:41:56.25Z</time></trkpt><trkpt lat="45.994466" lon="11.7526482"><ele>656.0</ele><time>2026-04-05T08:41:57.25Z</time></trkpt><trkpt lat="45.9944774" lon="11.7525391"><ele>656.0</ele><time>2026-04-05T08:41:58.249Z</time></trkpt><trkpt lat="45.9944882" lon="11.7524326"><ele>656.0</ele><time>2026-04-05T08:41:59.25Z</time></trkpt><trkpt lat="45.9944997" lon="11.7523251"><ele>656.0</ele><time>2026-04-05T08:42:00.249Z</time></trkpt><trkpt lat="45.9945149" lon="11.7522176"><ele>656.0</ele><time>2026-04-05T08:42:01.25Z</time></trkpt><trkpt lat="45.9945361" lon="11.7521074"><ele>656.0</ele><time>2026-04-05T08:42:02.25Z</time></trkpt><trkpt lat="45.9945603" lon="11.7519956"><ele>656.0</ele><time>2026-04-05T08:42:03.25Z</time></trkpt><trkpt lat="45.9945886" lon="11.7518801"><ele>656.0</ele><time>2026-04-05T08:42:04.249Z</time></trkpt><trkpt lat="45.9946143" lon="11.7517704"><ele>656.0</ele><time>2026-04-05T08:42:05.25Z</time></trkpt><trkpt lat="45.9946393" lon="11.751657"><ele>656.0</ele><time>2026-04-05T08:42:06.25Z</time></trkpt><trkpt lat="45.994667" lon="11.751535"><ele>656.0</ele><time>2026-04-05T08:42:07.249Z</time></trkpt><trkpt lat="45.994698" lon="11.7514116"><ele>656.0</ele><time>2026-04-05T08:42:08.25Z</time></trkpt><trkpt lat="45.9947289" lon="11.7512921"><ele>655.5</ele><time>2026-04-05T08:42:09.25Z</time></trkpt><trkpt lat="45.9947585" lon="11.7511756"><ele>655.0</ele><time>2026-04-05T08:42:10.249Z</time></trkpt><trkpt lat="45.9947871" lon="11.7510573"><ele>654.5</ele><time>2026-04-05T08:42:11.25Z</time></trkpt><trkpt lat="45.9948136" lon="11.7509473"><ele>654.0</ele><time>2026-04-05T08:42:12.25Z</time></trkpt><trkpt lat="45.994843" lon="11.7508455"><ele>653.5</ele><time>2026-04-05T08:42:13.249Z</time></trkpt><trkpt lat="45.9948795" lon="11.750742"><ele>653.0</ele><time>2026-04-05T08:42:14.25Z</time></trkpt><trkpt lat="45.9949179" lon="11.7506518"><ele>651.2</ele><time>2026-04-05T08:42:15.25Z</time></trkpt><trkpt lat="45.9949708" lon="11.7505324"><ele>649.4</ele><time>2026-04-05T08:42:17.25Z</time></trkpt><trkpt lat="45.995014" lon="11.7504199"><ele>647.6</ele><time>2026-04-05T08:42:21.25Z</time></trkpt><trkpt lat="45.9950501" lon="11.7503153"><ele>645.8000000000001</ele><time>2026-04-05T08:42:23.25Z</time></trkpt><trkpt lat="45.995092" lon="11.7501698"><ele>644.0</ele><time>2026-04-05T08:42:25.25Z</time></trkpt><trkpt lat="45.995099" lon="11.7499689"><ele>652.0</ele><time>2026-04-05T08:42:27.25Z</time></trkpt><trkpt lat="45.9950975" lon="11.7498533"><ele>660.0</ele><time>2026-04-05T08:42:28.25Z</time></trkpt><trkpt lat="45.9950986" lon="11.7497359"><ele>668.0</ele><time>2026-04-05T08:42:29.249Z</time></trkpt><trkpt lat="45.9951065" lon="11.7496126"><ele>676.0</ele><time>2026-04-05T08:42:30.249Z</time></trkpt><trkpt lat="45.9951171" lon="11.7494924"><ele>684.0</ele><time>2026-04-05T08:42:31.25Z</time></trkpt><trkpt lat="45.9951254" lon="11.7493717"><ele>692.0</ele><time>2026-04-05T08:42:32.249Z</time></trkpt><trkpt lat="45.9951406" lon="11.7492563"><ele>692.0</ele><time>2026-04-05T08:42:33.249Z</time></trkpt><trkpt lat="45.9951633" lon="11.7491421"><ele>692.0</ele><time>2026-04-05T08:42:34.25Z</time></trkpt><trkpt lat="45.9951906" lon="11.7490325"><ele>692.0</ele><time>2026-04-05T08:42:35.249Z</time></trkpt><trkpt lat="45.9952221" lon="11.7489266"><ele>692.0</ele><time>2026-04-05T08:42:36.25Z</time></trkpt><trkpt lat="45.9952589" lon="11.7488271"><ele>692.0</ele><time>2026-04-05T08:42:37.249Z</time></trkpt><trkpt lat="45.9953017" lon="11.7487258"><ele>692.0</ele><time>2026-04-05T08:42:38.251Z</time></trkpt><trkpt lat="45.9953463" lon="11.7486288"><ele>689.0</ele><time>2026-04-05T08:42:39.251Z</time></trkpt><trkpt lat="45.9953879" lon="11.7485326"><ele>686.0</ele><time>2026-04-05T08:42:40.249Z</time></trkpt><trkpt lat="45.9954291" lon="11.7484316"><ele>683.0</ele><time>2026-04-05T08:42:41.249Z</time></trkpt><trkpt lat="45.9954738" lon="11.7483307"><ele>680.0</ele><time>2026-04-05T08:42:42.249Z</time></trkpt><trkpt lat="45.9955174" lon="11.748232"><ele>677.0</ele><time>2026-04-05T08:42:43.251Z</time></trkpt><trkpt lat="45.9955596" lon="11.7481365"><ele>674.0</ele><time>2026-04-05T08:42:44.251Z</time></trkpt><trkpt lat="45.9956026" lon="11.7480446"><ele>674.0</ele><time>2026-04-05T08:42:45.251Z</time></trkpt><trkpt lat="45.9956536" lon="11.7479496"><ele>674.0</ele><time>2026-04-05T08:42:46.25Z</time></trkpt><trkpt lat="45.9957084" lon="11.7478635"><ele>674.0</ele><time>2026-04-05T08:42:47.249Z</time></trkpt><trkpt lat="45.9957638" lon="11.7477819"><ele>674.0</ele><time>2026-04-05T08:42:48.25Z</time></trkpt><trkpt lat="45.9958198" lon="11.7477017"><ele>674.0</ele><time>2026-04-05T08:42:49.25Z</time></trkpt><trkpt lat="45.9958733" lon="11.7476277"><ele>674.0</ele><time>2026-04-05T08:42:50.25Z</time></trkpt><trkpt lat="45.99593" lon="11.7475551"><ele>674.0</ele><time>2026-04-05T08:42:51.25Z</time></trkpt><trkpt lat="45.9959876" lon="11.7474792"><ele>674.0</ele><time>2026-04-05T08:42:52.251Z</time></trkpt><trkpt lat="45.9960492" lon="11.7474012"><ele>674.0</ele><time>2026-04-05T08:42:53.251Z</time></trkpt><trkpt lat="45.996109" lon="11.7473244"><ele>674.0</ele><time>2026-04-05T08:42:54.251Z</time></trkpt><trkpt lat="45.9961669" lon="11.7472499"><ele>674.0</ele><time>2026-04-05T08:42:55.251Z</time></trkpt><trkpt lat="45.9962317" lon="11.7471845"><ele>674.0</ele><time>2026-04-05T08:42:56.251Z</time></trkpt><trkpt lat="45.996298" lon="11.7471298"><ele>674.0</ele><time>2026-04-05T08:42:57.25Z</time></trkpt><trkpt lat="45.9963681" lon="11.7470843"><ele>674.0</ele><time>2026-04-05T08:42:58.249Z</time></trkpt><trkpt lat="45.9964344" lon="11.7470435"><ele>674.0</ele><time>2026-04-05T08:42:59.251Z</time></trkpt><trkpt lat="45.996538" lon="11.7469806"><ele>674.0</ele><time>2026-04-05T08:43:01.25Z</time></trkpt><trkpt lat="45.9966239" lon="11.7469458"><ele>674.0</ele><time>2026-04-05T08:43:03.25Z</time></trkpt><trkpt lat="45.9966946" lon="11.7469488"><ele>674.0</ele><time>2026-04-05T08:43:05.25Z</time></trkpt><trkpt lat="45.9967899" lon="11.746986"><ele>675.5</ele><time>2026-04-05T08:43:08.25Z</time></trkpt><trkpt lat="45.9968573" lon="11.7470312"><ele>677.0</ele><time>2026-04-05T08:43:10.251Z</time></trkpt><trkpt lat="45.9969298" lon="11.7470841"><ele>678.5</ele><time>2026-04-05T08:43:12.251Z</time></trkpt><trkpt lat="45.9970232" lon="11.7471482"><ele>680.0</ele><time>2026-04-05T08:43:14.25Z</time></trkpt><trkpt lat="45.9971379" lon="11.7471926"><ele>681.5</ele><time>2026-04-05T08:43:16.251Z</time></trkpt><trkpt lat="45.9972073" lon="11.7471861"><ele>683.0</ele><time>2026-04-05T08:43:17.25Z</time></trkpt><trkpt lat="45.9972642" lon="11.7470911"><ele>683.0</ele><time>2026-04-05T08:43:19.251Z</time></trkpt><trkpt lat="45.9972874" lon="11.7470009"><ele>683.0</ele><time>2026-04-05T08:43:20.251Z</time></trkpt><trkpt lat="45.9972982" lon="11.7469007"><ele>683.0</ele><time>2026-04-05T08:43:21.251Z</time></trkpt><trkpt lat="45.9973263" lon="11.7467974"><ele>683.0</ele><time>2026-04-05T08:43:22.25Z</time></trkpt><trkpt lat="45.9973624" lon="11.7466916"><ele>683.0</ele><time>2026-04-05T08:43:23.25Z</time></trkpt><trkpt lat="45.9974026" lon="11.7465805"><ele>683.0</ele><time>2026-04-05T08:43:24.25Z</time></trkpt><trkpt lat="45.9974521" lon="11.7464591"><ele>681.6666666666666</ele><time>2026-04-05T08:43:25.25Z</time></trkpt><trkpt lat="45.9974977" lon="11.7463564"><ele>680.3333333333333</ele><time>2026-04-05T08:43:26.25Z</time></trkpt><trkpt lat="45.9975415" lon="11.7462574"><ele>679.0</ele><time>2026-04-05T08:43:27.251Z</time></trkpt><trkpt lat="45.9975842" lon="11.7461526"><ele>677.6666666666666</ele><time>2026-04-05T08:43:28.25Z</time></trkpt><trkpt lat="45.997625" lon="11.7460576"><ele>676.3333333333334</ele><time>2026-04-05T08:43:29.25Z</time></trkpt><trkpt lat="45.9976657" lon="11.7459655"><ele>675.0</ele><time>2026-04-05T08:43:30.25Z</time></trkpt><trkpt lat="45.9977081" lon="11.7458747"><ele>675.0</ele><time>2026-04-05T08:43:31.251Z</time></trkpt><trkpt lat="45.9977436" lon="11.7457944"><ele>675.0</ele><time>2026-04-05T08:43:32.25Z</time></trkpt><trkpt lat="45.9977774" lon="11.7457023"><ele>675.0</ele><time>2026-04-05T08:43:33.251Z</time></trkpt><trkpt lat="45.9978045" lon="11.7455984"><ele>675.0</ele><time>2026-04-05T08:43:34.251Z</time></trkpt><trkpt lat="45.9978249" lon="11.7454967"><ele>675.0</ele><time>2026-04-05T08:43:35.25Z</time></trkpt><trkpt lat="45.9978371" lon="11.7453922"><ele>675.0</ele><time>2026-04-05T08:43:36.251Z</time></trkpt><trkpt lat="45.9978423" lon="11.7452805"><ele>675.0</ele><time>2026-04-05T08:43:37.25Z</time></trkpt><trkpt lat="45.9978473" lon="11.7451699"><ele>676.4285714285714</ele><time>2026-04-05T08:43:38.251Z</time></trkpt><trkpt lat="45.9978578" lon="11.7450655"><ele>677.8571428571429</ele><time>2026-04-05T08:43:39.251Z</time></trkpt><trkpt lat="45.9978819" lon="11.7449726"><ele>679.2857142857142</ele><time>2026-04-05T08:43:40.251Z</time></trkpt><trkpt lat="45.9979263" lon="11.7448928"><ele>680.7142857142858</ele><time>2026-04-05T08:43:41.251Z</time></trkpt><trkpt lat="45.997988" lon="11.7448259"><ele>682.1428571428572</ele><time>2026-04-05T08:43:42.251Z</time></trkpt><trkpt lat="45.9980576" lon="11.7447688"><ele>683.5714285714286</ele><time>2026-04-05T08:43:43.251Z</time></trkpt><trkpt lat="45.9981256" lon="11.7447162"><ele>685.0</ele><time>2026-04-05T08:43:44.251Z</time></trkpt><trkpt lat="45.9981925" lon="11.7446686"><ele>685.0</ele><time>2026-04-05T08:43:45.251Z</time></trkpt><trkpt lat="45.9982585" lon="11.7446197"><ele>685.0</ele><time>2026-04-05T08:43:46.251Z</time></trkpt><trkpt lat="45.99832" lon="11.7445629"><ele>685.0</ele><time>2026-04-05T08:43:47.25Z</time></trkpt><trkpt lat="45.9983693" lon="11.7444924"><ele>685.0</ele><time>2026-04-05T08:43:48.251Z</time></trkpt><trkpt lat="45.9984068" lon="11.7444052"><ele>685.0</ele><time>2026-04-05T08:43:49.25Z</time></trkpt><trkpt lat="45.9984362" lon="11.7443067"><ele>685.0</ele><time>2026-04-05T08:43:50.25Z</time></trkpt><trkpt lat="45.9984545" lon="11.7442016"><ele>685.0</ele><time>2026-04-05T08:43:51.251Z</time></trkpt><trkpt lat="45.99847" lon="11.7441039"><ele>684.5</ele><time>2026-04-05T08:43:52.252Z</time></trkpt><trkpt lat="45.9984866" lon="11.7440102"><ele>684.0</ele><time>2026-04-05T08:43:53.252Z</time></trkpt><trkpt lat="45.9985058" lon="11.7439196"><ele>683.5</ele><time>2026-04-05T08:43:54.252Z</time></trkpt><trkpt lat="45.9985253" lon="11.7438308"><ele>683.0</ele><time>2026-04-05T08:43:55.251Z</time></trkpt><trkpt lat="45.998565" lon="11.7436624"><ele>682.5</ele><time>2026-04-05T08:43:57.252Z</time></trkpt><trkpt lat="45.9986047" lon="11.7434896"><ele>682.0</ele><time>2026-04-05T08:43:59.251Z</time></trkpt><trkpt lat="45.9986242" lon="11.7433975"><ele>682.0</ele><time>2026-04-05T08:44:00.252Z</time></trkpt><trkpt lat="45.9986447" lon="11.7432984"><ele>682.0</ele><time>2026-04-05T08:44:01.252Z</time></trkpt><trkpt lat="45.9986651" lon="11.7431978"><ele>682.0</ele><time>2026-04-05T08:44:02.251Z</time></trkpt><trkpt lat="45.9986892" lon="11.7430941"><ele>682.0</ele><time>2026-04-05T08:44:03.252Z</time></trkpt><trkpt lat="45.9987258" lon="11.7430005"><ele>682.0</ele><time>2026-04-05T08:44:04.252Z</time></trkpt><trkpt lat="45.9987746" lon="11.7429217"><ele>682.0</ele><time>2026-04-05T08:44:05.251Z</time></trkpt><trkpt lat="45.9988245" lon="11.7428649"><ele>682.0</ele><time>2026-04-05T08:44:06.251Z</time></trkpt><trkpt lat="45.9988915" lon="11.7428112"><ele>685.8333333333334</ele><time>2026-04-05T08:44:08.251Z</time></trkpt><trkpt lat="45.998867" lon="11.7427121"><ele>689.6666666666667</ele><time>2026-04-05T08:44:11.251Z</time></trkpt><trkpt lat="45.9988124" lon="11.7426361"><ele>693.5</ele><time>2026-04-05T08:44:13.251Z</time></trkpt><trkpt lat="45.998718" lon="11.7425575"><ele>697.3333333333334</ele><time>2026-04-05T08:44:16.251Z</time></trkpt><trkpt lat="45.9986505" lon="11.7425383"><ele>701.1666666666666</ele><time>2026-04-05T08:44:17.251Z</time></trkpt><trkpt lat="45.9985744" lon="11.7424905"><ele>705.0</ele><time>2026-04-05T08:44:18.251Z</time></trkpt><trkpt lat="45.9985018" lon="11.7424489"><ele>705.0</ele><time>2026-04-05T08:44:19.251Z</time></trkpt><trkpt lat="45.9983923" lon="11.7423575"><ele>705.0</ele><time>2026-04-05T08:44:21.252Z</time></trkpt><trkpt lat="45.9983178" lon="11.7422552"><ele>705.0</ele><time>2026-04-05T08:44:23.251Z</time></trkpt><trkpt lat="45.9982707" lon="11.7421222"><ele>705.0</ele><time>2026-04-05T08:44:25.252Z</time></trkpt><trkpt lat="45.9982214" lon="11.7419564"><ele>705.6666666666666</ele><time>2026-04-05T08:44:27.252Z</time></trkpt><trkpt lat="45.9981982" lon="11.7418668"><ele>706.3333333333334</ele><time>2026-04-05T08:44:28.252Z</time></trkpt><trkpt lat="45.9981808" lon="11.7417638"><ele>707.0</ele><time>2026-04-05T08:44:29.252Z</time></trkpt><trkpt lat="45.9981552" lon="11.7416081"><ele>707.6666666666667</ele><time>2026-04-05T08:44:31.251Z</time></trkpt><trkpt lat="45.9981504" lon="11.741466"><ele>708.3333333333334</ele><time>2026-04-05T08:44:33.251Z</time></trkpt><trkpt lat="45.9981393" lon="11.7413352"><ele>709.0</ele><time>2026-04-05T08:44:35.251Z</time></trkpt><trkpt lat="45.9981238" lon="11.7412324"><ele>709.0000000000001</ele><time>2026-04-05T08:44:37.251Z</time></trkpt><trkpt lat="45.998081" lon="11.7411604"><ele>709.0</ele><time>2026-04-05T08:44:40.251Z</time></trkpt><trkpt lat="45.9980288" lon="11.7410891"><ele>709.0</ele><time>2026-04-05T08:44:42.251Z</time></trkpt><trkpt lat="45.9979688" lon="11.7410125"><ele>709.0</ele><time>2026-04-05T08:44:45.252Z</time></trkpt><trkpt lat="45.9978937" lon="11.7410082"><ele>709.0</ele><time>2026-04-05T08:45:01.253Z</time></trkpt><trkpt lat="45.99795" lon="11.7410547"><ele>709.0000000000001</ele><time>2026-04-05T08:45:14.252Z</time></trkpt><trkpt lat="45.9980386" lon="11.7410698"><ele>709.0</ele><time>2026-04-05T08:45:17.252Z</time></trkpt><trkpt lat="45.9980688" lon="11.7411707"><ele>709.0</ele><time>2026-04-05T08:45:20.253Z</time></trkpt><trkpt lat="45.9980752" lon="11.7412967"><ele>709.0</ele><time>2026-04-05T08:45:22.252Z</time></trkpt><trkpt lat="45.9980911" lon="11.7413891"><ele>709.0</ele><time>2026-04-05T08:45:23.252Z</time></trkpt><trkpt lat="45.9981006" lon="11.7414906"><ele>709.0</ele><time>2026-04-05T08:45:24.253Z</time></trkpt><trkpt lat="45.9981278" lon="11.7416659"><ele>709.0</ele><time>2026-04-05T08:45:26.252Z</time></trkpt><trkpt lat="45.9981681" lon="11.7418363"><ele>708.4285714285714</ele><time>2026-04-05T08:45:28.253Z</time></trkpt><trkpt lat="45.9981869" lon="11.7419344"><ele>707.8571428571429</ele><time>2026-04-05T08:45:29.252Z</time></trkpt><trkpt lat="45.9982092" lon="11.7420332"><ele>707.2857142857142</ele><time>2026-04-05T08:45:30.252Z</time></trkpt><trkpt lat="45.9982447" lon="11.7421241"><ele>706.7142857142858</ele><time>2026-04-05T08:45:31.252Z</time></trkpt><trkpt lat="45.9982789" lon="11.7422189"><ele>706.1428571428571</ele><time>2026-04-05T08:45:32.253Z</time></trkpt><trkpt lat="45.9983175" lon="11.7423095"><ele>705.5714285714286</ele><time>2026-04-05T08:45:33.252Z</time></trkpt><trkpt lat="45.9983621" lon="11.7423976"><ele>705.0</ele><time>2026-04-05T08:45:34.253Z</time></trkpt><trkpt lat="45.9984463" lon="11.7425226"><ele>705.0</ele><time>2026-04-05T08:45:36.252Z</time></trkpt><trkpt lat="45.9985149" lon="11.7426078"><ele>705.0</ele><time>2026-04-05T08:45:37.253Z</time></trkpt><trkpt lat="45.9985874" lon="11.7426623"><ele>705.0</ele><time>2026-04-05T08:45:38.253Z</time></trkpt><trkpt lat="45.9986599" lon="11.7427062"><ele>705.0</ele><time>2026-04-05T08:45:39.252Z</time></trkpt><trkpt lat="45.9987709" lon="11.7427619"><ele>705.0</ele><time>2026-04-05T08:45:41.253Z</time></trkpt><trkpt lat="45.9988254" lon="11.7428281"><ele>705.0</ele><time>2026-04-05T08:45:52.252Z</time></trkpt><trkpt lat="45.9987767" lon="11.7428928"><ele>701.7142857142857</ele><time>2026-04-05T08:45:54.252Z</time></trkpt><trkpt lat="45.9987298" lon="11.7429622"><ele>698.4285714285714</ele><time>2026-04-05T08:45:55.252Z</time></trkpt><trkpt lat="45.9986679" lon="11.7430455"><ele>695.1428571428571</ele><time>2026-04-05T08:45:56.254Z</time></trkpt><trkpt lat="45.9986245" lon="11.743126"><ele>691.8571428571429</ele><time>2026-04-05T08:45:57.254Z</time></trkpt><trkpt lat="45.9985923" lon="11.7432213"><ele>688.5714285714286</ele><time>2026-04-05T08:45:58.252Z</time></trkpt><trkpt lat="45.9985725" lon="11.7433173"><ele>685.2857142857142</ele><time>2026-04-05T08:45:59.252Z</time></trkpt><trkpt lat="45.9985591" lon="11.7434093"><ele>682.0</ele><time>2026-04-05T08:46:00.252Z</time></trkpt><trkpt lat="45.998546" lon="11.7435004"><ele>681.7142857142857</ele><time>2026-04-05T08:46:01.253Z</time></trkpt><trkpt lat="45.9985285" lon="11.7435933"><ele>681.4285714285714</ele><time>2026-04-05T08:46:02.253Z</time></trkpt><trkpt lat="45.9985088" lon="11.7436867"><ele>681.1428571428571</ele><time>2026-04-05T08:46:03.253Z</time></trkpt><trkpt lat="45.9984849" lon="11.7437791"><ele>680.8571428571429</ele><time>2026-04-05T08:46:04.254Z</time></trkpt><trkpt lat="45.9984616" lon="11.7438692"><ele>680.5714285714286</ele><time>2026-04-05T08:46:05.253Z</time></trkpt><trkpt lat="45.9984384" lon="11.7439811"><ele>680.2857142857143</ele><time>2026-04-05T08:46:06.253Z</time></trkpt><trkpt lat="45.9984194" lon="11.7441009"><ele>680.0</ele><time>2026-04-05T08:46:07.253Z</time></trkpt><trkpt lat="45.9984019" lon="11.744219"><ele>680.0</ele><time>2026-04-05T08:46:08.252Z</time></trkpt><trkpt lat="45.9983801" lon="11.7443316"><ele>680.0</ele><time>2026-04-05T08:46:09.254Z</time></trkpt><trkpt lat="45.9983482" lon="11.74444"><ele>680.0</ele><time>2026-04-05T08:46:10.253Z</time></trkpt><trkpt lat="45.9983115" lon="11.7445436"><ele>680.0</ele><time>2026-04-05T08:46:11.252Z</time></trkpt><trkpt lat="45.9982556" lon="11.7446306"><ele>680.0</ele><time>2026-04-05T08:46:12.252Z</time></trkpt><trkpt lat="45.9981849" lon="11.7446983"><ele>680.0</ele><time>2026-04-05T08:46:13.254Z</time></trkpt><trkpt lat="45.9981048" lon="11.7447517"><ele>680.8333333333333</ele><time>2026-04-05T08:46:14.254Z</time></trkpt><trkpt lat="45.9980236" lon="11.744806"><ele>681.6666666666666</ele><time>2026-04-05T08:46:15.254Z</time></trkpt><trkpt lat="45.9979453" lon="11.7448653"><ele>682.5</ele><time>2026-04-05T08:46:16.253Z</time></trkpt><trkpt lat="45.997871" lon="11.744936"><ele>683.3333333333334</ele><time>2026-04-05T08:46:17.253Z</time></trkpt><trkpt lat="45.9978096" lon="11.7450213"><ele>684.1666666666667</ele><time>2026-04-05T08:46:18.254Z</time></trkpt><trkpt lat="45.9977738" lon="11.7451276"><ele>685.0</ele><time>2026-04-05T08:46:19.253Z</time></trkpt><trkpt lat="45.9977569" lon="11.7452557"><ele>683.0</ele><time>2026-04-05T08:46:20.253Z</time></trkpt><trkpt lat="45.9977599" lon="11.7453937"><ele>681.0</ele><time>2026-04-05T08:46:21.254Z</time></trkpt><trkpt lat="45.997762" lon="11.7455324"><ele>679.0</ele><time>2026-04-05T08:46:22.253Z</time></trkpt><trkpt lat="45.9977489" lon="11.7456615"><ele>677.0</ele><time>2026-04-05T08:46:23.253Z</time></trkpt><trkpt lat="45.9977155" lon="11.7457699"><ele>675.0</ele><time>2026-04-05T08:46:24.254Z</time></trkpt><trkpt lat="45.9976655" lon="11.7458797"><ele>675.0</ele><time>2026-04-05T08:46:25.254Z</time></trkpt><trkpt lat="45.9976148" lon="11.7459936"><ele>675.0</ele><time>2026-04-05T08:46:26.253Z</time></trkpt><trkpt lat="45.9975686" lon="11.7461152"><ele>675.0</ele><time>2026-04-05T08:46:27.254Z</time></trkpt><trkpt lat="45.9975193" lon="11.7462299"><ele>675.0</ele><time>2026-04-05T08:46:28.254Z</time></trkpt><trkpt lat="45.9974696" lon="11.7463477"><ele>675.0</ele><time>2026-04-05T08:46:29.253Z</time></trkpt><trkpt lat="45.9974181" lon="11.7464647"><ele>676.6</ele><time>2026-04-05T08:46:30.254Z</time></trkpt><trkpt lat="45.9973662" lon="11.746574"><ele>678.2</ele><time>2026-04-05T08:46:31.253Z</time></trkpt><trkpt lat="45.9973167" lon="11.7466743"><ele>679.8</ele><time>2026-04-05T08:46:32.253Z</time></trkpt><trkpt lat="45.9972804" lon="11.7467683"><ele>681.4</ele><time>2026-04-05T08:46:33.254Z</time></trkpt><trkpt lat="45.9972638" lon="11.746938"><ele>683.0</ele><time>2026-04-05T08:46:35.253Z</time></trkpt><trkpt lat="45.9972721" lon="11.747072"><ele>683.0</ele><time>2026-04-05T08:46:37.254Z</time></trkpt><trkpt lat="45.9972181" lon="11.7469684"><ele>683.0</ele><time>2026-04-05T08:46:42.253Z</time></trkpt><trkpt lat="45.997222" lon="11.7467943"><ele>683.0</ele><time>2026-04-05T08:46:44.253Z</time></trkpt><trkpt lat="45.9972222" lon="11.7467003"><ele>683.0</ele><time>2026-04-05T08:46:45.254Z</time></trkpt><trkpt lat="45.9971383" lon="11.7466303"><ele>683.0</ele><time>2026-04-05T08:46:47.253Z</time></trkpt><trkpt lat="45.9970245" lon="11.7465509"><ele>680.1666666666666</ele><time>2026-04-05T08:46:49.253Z</time></trkpt><trkpt lat="45.9969698" lon="11.746499"><ele>677.3333333333333</ele><time>2026-04-05T08:46:50.254Z</time></trkpt><trkpt lat="45.9968871" lon="11.7464564"><ele>674.5</ele><time>2026-04-05T08:46:52.254Z</time></trkpt><trkpt lat="45.9968642" lon="11.7463699"><ele>671.6666666666666</ele><time>2026-04-05T08:46:55.253Z</time></trkpt><trkpt lat="45.9969495" lon="11.7462975"><ele>668.8333333333334</ele><time>2026-04-05T08:46:58.253Z</time></trkpt><trkpt lat="45.9970049" lon="11.7462498"><ele>666.0</ele><time>2026-04-05T08:46:59.254Z</time></trkpt><trkpt lat="45.9970613" lon="11.7461876"><ele>666.0</ele><time>2026-04-05T08:47:00.254Z</time></trkpt><trkpt lat="45.9971051" lon="11.7461214"><ele>666.0</ele><time>2026-04-05T08:47:01.254Z</time></trkpt><trkpt lat="45.9971458" lon="11.74598"><ele>666.0</ele><time>2026-04-05T08:47:03.253Z</time></trkpt><trkpt lat="45.9971796" lon="11.7458639"><ele>666.0</ele><time>2026-04-05T08:47:11.253Z</time></trkpt><trkpt lat="45.9972386" lon="11.745752"><ele>666.0</ele><time>2026-04-05T08:47:13.254Z</time></trkpt><trkpt lat="45.997271" lon="11.7456555"><ele>666.0</ele><time>2026-04-05T08:47:15.254Z</time></trkpt><trkpt lat="45.9972861" lon="11.7455501"><ele>664.5999999999999</ele><time>2026-04-05T08:47:20.254Z</time></trkpt><trkpt lat="45.9972719" lon="11.7454182"><ele>663.2</ele><time>2026-04-05T08:47:24.255Z</time></trkpt><trkpt lat="45.9972583" lon="11.7452913"><ele>661.8</ele><time>2026-04-05T08:47:26.255Z</time></trkpt><trkpt lat="45.9972439" lon="11.7451575"><ele>660.4000000000001</ele><time>2026-04-05T08:47:28.254Z</time></trkpt><trkpt lat="45.9972248" lon="11.7450228"><ele>659.0</ele><time>2026-04-05T08:47:30.254Z</time></trkpt><trkpt lat="45.9971957" lon="11.744895"><ele>657.8000000000001</ele><time>2026-04-05T08:47:32.254Z</time></trkpt><trkpt lat="45.9972014" lon="11.7447808"><ele>656.6</ele><time>2026-04-05T08:47:34.254Z</time></trkpt><trkpt lat="45.9972247" lon="11.7446313"><ele>655.4</ele><time>2026-04-05T08:47:37.254Z</time></trkpt><trkpt lat="45.9972777" lon="11.7444947"><ele>654.2</ele><time>2026-04-05T08:47:39.254Z</time></trkpt><trkpt lat="45.9973403" lon="11.7443458"><ele>653.0</ele><time>2026-04-05T08:47:41.254Z</time></trkpt><trkpt lat="45.9973737" lon="11.7442548"><ele>651.1666666666666</ele><time>2026-04-05T08:47:42.255Z</time></trkpt><trkpt lat="45.9974048" lon="11.7441718"><ele>649.3333333333333</ele><time>2026-04-05T08:47:43.254Z</time></trkpt><trkpt lat="45.9974357" lon="11.7440881"><ele>647.5</ele><time>2026-04-05T08:47:44.254Z</time></trkpt><trkpt lat="45.9974652" lon="11.7439493"><ele>645.6666666666666</ele><time>2026-04-05T08:47:46.254Z</time></trkpt><trkpt lat="45.9974495" lon="11.7438271"><ele>643.8333333333334</ele><time>2026-04-05T08:47:48.255Z</time></trkpt><trkpt lat="45.9974253" lon="11.7437281"><ele>642.0</ele><time>2026-04-05T08:47:50.255Z</time></trkpt><trkpt lat="45.9973609" lon="11.7436071"><ele>642.6666666666666</ele><time>2026-04-05T08:47:52.254Z</time></trkpt><trkpt lat="45.9973348" lon="11.7435229"><ele>643.3333333333334</ele><time>2026-04-05T08:47:53.254Z</time></trkpt><trkpt lat="45.997253" lon="11.7434424"><ele>644.0</ele><time>2026-04-05T08:47:55.254Z</time></trkpt><trkpt lat="45.9971871" lon="11.7434275"><ele>644.6666666666667</ele><time>2026-04-05T08:48:30.256Z</time></trkpt><trkpt lat="45.9970937" lon="11.7433503"><ele>645.3333333333334</ele><time>2026-04-05T08:48:32.255Z</time></trkpt><trkpt lat="45.9970146" lon="11.7432631"><ele>646.0</ele><time>2026-04-05T08:48:34.255Z</time></trkpt><trkpt lat="45.9969471" lon="11.743187"><ele>646.0</ele><time>2026-04-05T08:48:36.255Z</time></trkpt><trkpt lat="45.9968825" lon="11.7431442"><ele>646.0</ele><time>2026-04-05T08:48:38.255Z</time></trkpt><trkpt lat="45.9968175" lon="11.7431493"><ele>646.0</ele><time>2026-04-05T08:48:40.256Z</time></trkpt><trkpt lat="45.9967649" lon="11.7432348"><ele>646.0</ele><time>2026-04-05T08:48:43.255Z</time></trkpt><trkpt lat="45.9967377" lon="11.7433304"><ele>646.0</ele><time>2026-04-05T08:48:45.256Z</time></trkpt><trkpt lat="45.9967225" lon="11.7434791"><ele>646.0</ele><time>2026-04-05T08:48:47.256Z</time></trkpt><trkpt lat="45.9967598" lon="11.7435652"><ele>645.3333333333334</ele><time>2026-04-05T08:48:49.255Z</time></trkpt><trkpt lat="45.9968429" lon="11.7436343"><ele>644.6666666666667</ele><time>2026-04-05T08:48:51.255Z</time></trkpt><trkpt lat="45.9969259" lon="11.7436887"><ele>644.0</ele><time>2026-04-05T08:48:53.256Z</time></trkpt><trkpt lat="45.9969891" lon="11.7437899"><ele>643.3333333333334</ele><time>2026-04-05T08:48:55.255Z</time></trkpt><trkpt lat="45.9970216" lon="11.7438753"><ele>642.6666666666666</ele><time>2026-04-05T08:48:56.255Z</time></trkpt><trkpt lat="45.9970396" lon="11.7439743"><ele>642.0</ele><time>2026-04-05T08:48:57.256Z</time></trkpt><trkpt lat="45.9970443" lon="11.7440686"><ele>642.0</ele><time>2026-04-05T08:48:58.255Z</time></trkpt><trkpt lat="45.9970266" lon="11.7442098"><ele>642.0</ele><time>2026-04-05T08:49:00.255Z</time></trkpt><trkpt lat="45.9969687" lon="11.7443063"><ele>642.0</ele><time>2026-04-05T08:49:02.256Z</time></trkpt><trkpt lat="45.9969006" lon="11.7443999"><ele>642.0</ele><time>2026-04-05T08:49:04.256Z</time></trkpt><trkpt lat="45.9968647" lon="11.7444888"><ele>642.0</ele><time>2026-04-05T08:49:05.256Z</time></trkpt><trkpt lat="45.996846" lon="11.7445939"><ele>642.0</ele><time>2026-04-05T08:49:06.255Z</time></trkpt><trkpt lat="45.9968164" lon="11.7447481"><ele>644.2</ele><time>2026-04-05T08:49:08.255Z</time></trkpt><trkpt lat="45.9967829" lon="11.7448806"><ele>646.4000000000001</ele><time>2026-04-05T08:49:10.256Z</time></trkpt><trkpt lat="45.996788" lon="11.7450342"><ele>648.5999999999999</ele><time>2026-04-05T08:49:13.257Z</time></trkpt><trkpt lat="45.9968395" lon="11.745164"><ele>650.8</ele><time>2026-04-05T08:49:15.255Z</time></trkpt><trkpt lat="45.9968395" lon="11.7453108"><ele>653.0</ele><time>2026-04-05T08:49:17.257Z</time></trkpt><trkpt lat="45.9967912" lon="11.7454464"><ele>653.0</ele><time>2026-04-05T08:49:19.256Z</time></trkpt><trkpt lat="45.9967565" lon="11.745323"><ele>653.0</ele><time>2026-04-05T08:49:32.257Z</time></trkpt><trkpt lat="45.9967116" lon="11.7451547"><ele>653.0</ele><time>2026-04-05T08:49:34.257Z</time></trkpt><trkpt lat="45.9966957" lon="11.7450433"><ele>653.0</ele><time>2026-04-05T08:49:35.256Z</time></trkpt><trkpt lat="45.9967022" lon="11.7449522"><ele>653.0</ele><time>2026-04-05T08:49:36.257Z</time></trkpt><trkpt lat="45.9967154" lon="11.7448572"><ele>653.0</ele><time>2026-04-05T08:49:37.256Z</time></trkpt><trkpt lat="45.9967384" lon="11.744767"><ele>653.0</ele><time>2026-04-05T08:49:38.256Z</time></trkpt><trkpt lat="45.996777" lon="11.7446734"><ele>653.0</ele><time>2026-04-05T08:49:39.257Z</time></trkpt><trkpt lat="45.9968209" lon="11.7445638"><ele>653.0</ele><time>2026-04-05T08:49:40.256Z</time></trkpt><trkpt lat="45.9968606" lon="11.7444807"><ele>653.0</ele><time>2026-04-05T08:49:41.257Z</time></trkpt><trkpt lat="45.9968916" lon="11.7443982"><ele>653.0</ele><time>2026-04-05T08:49:42.257Z</time></trkpt><trkpt lat="45.996921" lon="11.744269"><ele>653.0</ele><time>2026-04-05T08:49:44.256Z</time></trkpt><trkpt lat="45.9969305" lon="11.7441699"><ele>651.1666666666666</ele><time>2026-04-05T08:49:46.257Z</time></trkpt><trkpt lat="45.9968959" lon="11.7440878"><ele>649.3333333333333</ele><time>2026-04-05T08:49:49.257Z</time></trkpt><trkpt lat="45.9968581" lon="11.7439933"><ele>647.5</ele><time>2026-04-05T08:49:58.257Z</time></trkpt><trkpt lat="45.9968011" lon="11.7438901"><ele>645.6666666666666</ele><time>2026-04-05T08:50:10.256Z</time></trkpt><trkpt lat="45.9967251" lon="11.7438115"><ele>643.8333333333334</ele><time>2026-04-05T08:50:12.256Z</time></trkpt><trkpt lat="45.996671" lon="11.7437307"><ele>642.0</ele><time>2026-04-05T08:50:14.257Z</time></trkpt><trkpt lat="45.9966423" lon="11.7436236"><ele>642.8</ele><time>2026-04-05T08:50:17.256Z</time></trkpt><trkpt lat="45.9967076" lon="11.743523"><ele>643.6</ele><time>2026-04-05T08:50:20.257Z</time></trkpt><trkpt lat="45.9966426" lon="11.7434717"><ele>644.4</ele><time>2026-04-05T08:50:23.257Z</time></trkpt><trkpt lat="45.9965495" lon="11.7435215"><ele>645.1999999999999</ele><time>2026-04-05T08:50:25.257Z</time></trkpt><trkpt lat="45.996428" lon="11.743588"><ele>646.0</ele><time>2026-04-05T08:50:27.257Z</time></trkpt><trkpt lat="45.9963621" lon="11.743593"><ele>642.0</ele><time>2026-04-05T08:50:28.256Z</time></trkpt><trkpt lat="45.9962481" lon="11.7435467"><ele>638.0</ele><time>2026-04-05T08:50:30.257Z</time></trkpt><trkpt lat="45.9962187" lon="11.743439"><ele>634.0</ele><time>2026-04-05T08:50:32.257Z</time></trkpt><trkpt lat="45.9961542" lon="11.7433555"><ele>630.0</ele><time>2026-04-05T08:50:34.256Z</time></trkpt><trkpt lat="45.9960381" lon="11.7433515"><ele>626.0</ele><time>2026-04-05T08:50:36.258Z</time></trkpt><trkpt lat="45.9959614" lon="11.7433267"><ele>626.0</ele><time>2026-04-05T08:50:38.258Z</time></trkpt><trkpt lat="45.9959966" lon="11.7432493"><ele>626.0</ele><time>2026-04-05T08:50:40.258Z</time></trkpt><trkpt lat="45.9961065" lon="11.7432"><ele>626.0</ele><time>2026-04-05T08:50:42.257Z</time></trkpt><trkpt lat="45.9961756" lon="11.7431907"><ele>626.0</ele><time>2026-04-05T08:50:43.258Z</time></trkpt><trkpt lat="45.9962657" lon="11.74319"><ele>626.0</ele><time>2026-04-05T08:50:45.257Z</time></trkpt><trkpt lat="45.996276" lon="11.7430883"><ele>626.0</ele><time>2026-04-05T08:50:48.258Z</time></trkpt><trkpt lat="45.9961629" lon="11.7429967"><ele>626.0</ele><time>2026-04-05T08:50:50.258Z</time></trkpt><trkpt lat="45.9961131" lon="11.7429367"><ele>626.0</ele><time>2026-04-05T08:50:52.258Z</time></trkpt><trkpt lat="45.9960894" lon="11.7428394"><ele>626.0</ele><time>2026-04-05T08:50:55.258Z</time></trkpt><trkpt lat="45.9960132" lon="11.742817"><ele>626.0</ele><time>2026-04-05T08:50:58.259Z</time></trkpt><trkpt lat="45.995911" lon="11.7427681"><ele>626.0</ele><time>2026-04-05T08:51:00.257Z</time></trkpt><trkpt lat="45.9958271" lon="11.7427032"><ele>626.0</ele><time>2026-04-05T08:51:02.258Z</time></trkpt><trkpt lat="45.9957547" lon="11.7426274"><ele>621.6</ele><time>2026-04-05T08:51:04.257Z</time></trkpt><trkpt lat="45.9956686" lon="11.7425645"><ele>617.2</ele><time>2026-04-05T08:51:06.258Z</time></trkpt><trkpt lat="45.9955738" lon="11.742534"><ele>612.8</ele><time>2026-04-05T08:51:08.258Z</time></trkpt><trkpt lat="45.9954695" lon="11.7425143"><ele>608.4</ele><time>2026-04-05T08:51:10.257Z</time></trkpt><trkpt lat="45.9953521" lon="11.7425229"><ele>604.0</ele><time>2026-04-05T08:51:12.257Z</time></trkpt><trkpt lat="45.9952266" lon="11.74256"><ele>604.0</ele><time>2026-04-05T08:51:14.258Z</time></trkpt><trkpt lat="45.9951579" lon="11.7425849"><ele>604.0</ele><time>2026-04-05T08:51:15.259Z</time></trkpt><trkpt lat="45.9950912" lon="11.7426201"><ele>604.0</ele><time>2026-04-05T08:51:16.258Z</time></trkpt><trkpt lat="45.9950299" lon="11.7426509"><ele>604.0</ele><time>2026-04-05T08:51:17.258Z</time></trkpt><trkpt lat="45.9949055" lon="11.7426996"><ele>604.0</ele><time>2026-04-05T08:51:19.258Z</time></trkpt><trkpt lat="45.9947922" lon="11.7427542"><ele>600.0</ele><time>2026-04-05T08:51:21.258Z</time></trkpt><trkpt lat="45.9947026" lon="11.7427762"><ele>596.0</ele><time>2026-04-05T08:51:23.259Z</time></trkpt><trkpt lat="45.994636" lon="11.7427374"><ele>592.0</ele><time>2026-04-05T08:51:29.257Z</time></trkpt><trkpt lat="45.9946204" lon="11.7426067"><ele>588.0</ele><time>2026-04-05T08:51:31.259Z</time></trkpt><trkpt lat="45.994612" lon="11.7424974"><ele>584.0</ele><time>2026-04-05T08:51:32.258Z</time></trkpt><trkpt lat="45.9945997" lon="11.7424057"><ele>580.0</ele><time>2026-04-05T08:51:33.258Z</time></trkpt><trkpt lat="45.9945651" lon="11.7422663"><ele>580.0</ele><time>2026-04-05T08:51:35.259Z</time></trkpt><trkpt lat="45.9945424" lon="11.7420993"><ele>580.0</ele><time>2026-04-05T08:51:37.259Z</time></trkpt><trkpt lat="45.9945339" lon="11.7419813"><ele>580.0</ele><time>2026-04-05T08:51:39.258Z</time></trkpt><trkpt lat="45.9945019" lon="11.741855"><ele>580.0</ele><time>2026-04-05T08:51:48.258Z</time></trkpt><trkpt lat="45.9944765" lon="11.741762"><ele>580.0</ele><time>2026-04-05T08:51:50.259Z</time></trkpt><trkpt lat="45.9944357" lon="11.741643"><ele>581.4285714285714</ele><time>2026-04-05T08:51:52.258Z</time></trkpt><trkpt lat="45.9944009" lon="11.7415349"><ele>582.8571428571429</ele><time>2026-04-05T08:51:54.258Z</time></trkpt><trkpt lat="45.9943519" lon="11.741466"><ele>584.2857142857143</ele><time>2026-04-05T08:51:56.258Z</time></trkpt><trkpt lat="45.9943264" lon="11.7413685"><ele>585.7142857142858</ele><time>2026-04-05T08:51:59.258Z</time></trkpt><trkpt lat="45.9943223" lon="11.7412657"><ele>587.1428571428571</ele><time>2026-04-05T08:52:03.258Z</time></trkpt><trkpt lat="45.9942732" lon="11.7411774"><ele>588.5714285714287</ele><time>2026-04-05T08:56:28.263Z</time></trkpt><trkpt lat="45.9942634" lon="11.74108"><ele>590.0</ele><time>2026-04-05T08:56:30.262Z</time></trkpt><trkpt lat="45.9942398" lon="11.740937"><ele>593.0</ele><time>2026-04-05T08:56:32.263Z</time></trkpt><trkpt lat="45.9942226" lon="11.7407537"><ele>596.0</ele><time>2026-04-05T08:56:34.262Z</time></trkpt><trkpt lat="45.9942057" lon="11.74066"><ele>599.0</ele><time>2026-04-05T08:56:35.262Z</time></trkpt><trkpt lat="45.9941901" lon="11.7405676"><ele>602.0</ele><time>2026-04-05T08:56:36.264Z</time></trkpt><trkpt lat="45.9941362" lon="11.7403988"><ele>605.0</ele><time>2026-04-05T08:56:38.262Z</time></trkpt><trkpt lat="45.9941057" lon="11.7402937"><ele>600.3333333333333</ele><time>2026-04-05T08:56:39.264Z</time></trkpt><trkpt lat="45.9940762" lon="11.7401736"><ele>595.6666666666666</ele><time>2026-04-05T08:56:40.263Z</time></trkpt><trkpt lat="45.9940447" lon="11.7400351"><ele>591.0</ele><time>2026-04-05T08:56:41.262Z</time></trkpt><trkpt lat="45.9940138" lon="11.7399198"><ele>586.3333333333334</ele><time>2026-04-05T08:56:42.262Z</time></trkpt><trkpt lat="45.9939965" lon="11.7398319"><ele>581.6666666666667</ele><time>2026-04-05T08:56:43.263Z</time></trkpt><trkpt lat="45.9939515" lon="11.7397351"><ele>577.0</ele><time>2026-04-05T08:56:46.264Z</time></trkpt><trkpt lat="45.9938791" lon="11.7397538"><ele>577.0</ele><time>2026-04-05T08:56:48.262Z</time></trkpt><trkpt lat="45.9938175" lon="11.7397937"><ele>577.0</ele><time>2026-04-05T08:56:49.263Z</time></trkpt><trkpt lat="45.9937544" lon="11.7398221"><ele>577.0</ele><time>2026-04-05T08:56:50.264Z</time></trkpt><trkpt lat="45.9936532" lon="11.7398648"><ele>577.0</ele><time>2026-04-05T08:56:52.263Z</time></trkpt><trkpt lat="45.9936128" lon="11.7399486"><ele>577.0</ele><time>2026-04-05T08:56:55.263Z</time></trkpt><trkpt lat="45.9936078" lon="11.7398398"><ele>577.0</ele><time>2026-04-05T08:56:59.263Z</time></trkpt><trkpt lat="45.9935743" lon="11.7396654"><ele>577.0</ele><time>2026-04-05T08:57:01.263Z</time></trkpt><trkpt lat="45.9935381" lon="11.7395677"><ele>577.0</ele><time>2026-04-05T08:57:02.264Z</time></trkpt><trkpt lat="45.993489" lon="11.7394763"><ele>577.0</ele><time>2026-04-05T08:57:03.264Z</time></trkpt><trkpt lat="45.9934334" lon="11.7393837"><ele>577.0</ele><time>2026-04-05T08:57:04.263Z</time></trkpt><trkpt lat="45.9933822" lon="11.7392982"><ele>577.0</ele><time>2026-04-05T08:57:05.263Z</time></trkpt><trkpt lat="45.9933077" lon="11.739168"><ele>577.0</ele><time>2026-04-05T08:57:07.263Z</time></trkpt><trkpt lat="45.9932673" lon="11.7390019"><ele>575.0</ele><time>2026-04-05T08:57:09.264Z</time></trkpt><trkpt lat="45.993241" lon="11.7389118"><ele>573.0</ele><time>2026-04-05T08:57:10.263Z</time></trkpt><trkpt lat="45.9932099" lon="11.738807"><ele>571.0</ele><time>2026-04-05T08:57:11.264Z</time></trkpt><trkpt lat="45.9931763" lon="11.7386927"><ele>569.0</ele><time>2026-04-05T08:57:12.263Z</time></trkpt><trkpt lat="45.9931373" lon="11.738592"><ele>567.0</ele><time>2026-04-05T08:57:14.264Z</time></trkpt><trkpt lat="45.9932286" lon="11.7385326"><ele>565.0</ele><time>2026-04-05T08:57:17.263Z</time></trkpt><trkpt lat="45.9932545" lon="11.7384219"><ele>565.0</ele><time>2026-04-05T08:57:19.263Z</time></trkpt><trkpt lat="45.9931816" lon="11.738267"><ele>565.0</ele><time>2026-04-05T08:57:21.264Z</time></trkpt><trkpt lat="45.9931189" lon="11.7381916"><ele>565.0</ele><time>2026-04-05T08:57:22.263Z</time></trkpt><trkpt lat="45.9930659" lon="11.7381204"><ele>565.0</ele><time>2026-04-05T08:57:23.264Z</time></trkpt><trkpt lat="45.9930199" lon="11.7380542"><ele>565.0</ele><time>2026-04-05T08:57:24.263Z</time></trkpt><trkpt lat="45.9929733" lon="11.7379367"><ele>565.0</ele><time>2026-04-05T08:57:26.263Z</time></trkpt><trkpt lat="45.9929664" lon="11.7378415"><ele>566.3333333333334</ele><time>2026-04-05T08:57:27.264Z</time></trkpt><trkpt lat="45.9929528" lon="11.7377151"><ele>567.6666666666667</ele><time>2026-04-05T08:57:28.264Z</time></trkpt><trkpt lat="45.9929244" lon="11.7376"><ele>569.0</ele><time>2026-04-05T08:57:29.263Z</time></trkpt><trkpt lat="45.9928831" lon="11.7375017"><ele>570.3333333333334</ele><time>2026-04-05T08:57:30.265Z</time></trkpt><trkpt lat="45.9928414" lon="11.7374038"><ele>571.6666666666666</ele><time>2026-04-05T08:57:31.264Z</time></trkpt><trkpt lat="45.9927752" lon="11.7373057"><ele>573.0</ele><time>2026-04-05T08:57:33.264Z</time></trkpt><trkpt lat="45.9927203" lon="11.7373741"><ele>573.0</ele><time>2026-04-05T08:57:55.264Z</time></trkpt><trkpt lat="45.9926675" lon="11.7372651"><ele>573.0</ele><time>2026-04-05T08:57:57.264Z</time></trkpt><trkpt lat="45.9926114" lon="11.737125"><ele>573.0</ele><time>2026-04-05T08:57:59.264Z</time></trkpt><trkpt lat="45.9925692" lon="11.7370232"><ele>573.0</ele><time>2026-04-05T08:58:01.264Z</time></trkpt><trkpt lat="45.992565" lon="11.7368787"><ele>573.0</ele><time>2026-04-05T08:58:03.266Z</time></trkpt><trkpt lat="45.992587" lon="11.736778"><ele>574.1999999999999</ele><time>2026-04-05T08:58:05.264Z</time></trkpt><trkpt lat="45.9926128" lon="11.7366887"><ele>575.4</ele><time>2026-04-05T08:58:08.264Z</time></trkpt><trkpt lat="45.9925173" lon="11.7367517"><ele>576.5999999999999</ele><time>2026-04-05T08:58:13.264Z</time></trkpt><trkpt lat="45.9924419" lon="11.7368683"><ele>577.8</ele><time>2026-04-05T08:58:15.264Z</time></trkpt><trkpt lat="45.9923986" lon="11.7370063"><ele>579.0</ele><time>2026-04-05T08:58:17.264Z</time></trkpt><trkpt lat="45.9923929" lon="11.7371508"><ele>572.5</ele><time>2026-04-05T08:58:19.264Z</time></trkpt><trkpt lat="45.9923931" lon="11.7373272"><ele>566.0</ele><time>2026-04-05T08:58:21.265Z</time></trkpt><trkpt lat="45.9923884" lon="11.7374343"><ele>559.5</ele><time>2026-04-05T08:58:22.264Z</time></trkpt><trkpt lat="45.9923851" lon="11.7375495"><ele>553.0</ele><time>2026-04-05T08:58:23.265Z</time></trkpt><trkpt lat="45.9923777" lon="11.7376522"><ele>546.5</ele><time>2026-04-05T08:58:24.264Z</time></trkpt><trkpt lat="45.9923587" lon="11.7377492"><ele>540.0</ele><time>2026-04-05T08:58:25.264Z</time></trkpt><trkpt lat="45.9923234" lon="11.7378286"><ele>539.6666666666666</ele><time>2026-04-05T08:58:26.265Z</time></trkpt><trkpt lat="45.9922771" lon="11.737933"><ele>539.3333333333334</ele><time>2026-04-05T08:58:27.266Z</time></trkpt><trkpt lat="45.9922141" lon="11.7380498"><ele>539.0</ele><time>2026-04-05T08:58:28.265Z</time></trkpt><trkpt lat="45.9921533" lon="11.7381684"><ele>538.6666666666667</ele><time>2026-04-05T08:58:29.264Z</time></trkpt><trkpt lat="45.9921026" lon="11.738266"><ele>538.3333333333334</ele><time>2026-04-05T08:58:30.264Z</time></trkpt><trkpt lat="45.9920502" lon="11.7383403"><ele>538.0</ele><time>2026-04-05T08:58:31.264Z</time></trkpt><trkpt lat="45.9919899" lon="11.7383839"><ele>538.0</ele><time>2026-04-05T08:58:32.265Z</time></trkpt><trkpt lat="45.9919112" lon="11.7384109"><ele>538.0</ele><time>2026-04-05T08:58:33.264Z</time></trkpt><trkpt lat="45.991827" lon="11.7384388"><ele>538.0</ele><time>2026-04-05T08:58:34.264Z</time></trkpt><trkpt lat="45.9917519" lon="11.7384856"><ele>538.0</ele><time>2026-04-05T08:58:35.265Z</time></trkpt><trkpt lat="45.9916738" lon="11.7385349"><ele>538.0</ele><time>2026-04-05T08:58:36.265Z</time></trkpt><trkpt lat="45.9916" lon="11.7385768"><ele>538.0</ele><time>2026-04-05T08:58:37.264Z</time></trkpt><trkpt lat="45.9915257" lon="11.7386161"><ele>536.3333333333334</ele><time>2026-04-05T08:58:38.264Z</time></trkpt><trkpt lat="45.9914594" lon="11.7386774"><ele>534.6666666666667</ele><time>2026-04-05T08:58:39.266Z</time></trkpt><trkpt lat="45.9913874" lon="11.7387606"><ele>533.0</ele><time>2026-04-05T08:58:40.265Z</time></trkpt><trkpt lat="45.9913117" lon="11.7388455"><ele>531.3333333333334</ele><time>2026-04-05T08:58:41.264Z</time></trkpt><trkpt lat="45.9912519" lon="11.738911"><ele>529.6666666666666</ele><time>2026-04-05T08:58:42.265Z</time></trkpt><trkpt lat="45.9912185" lon="11.7390092"><ele>528.0</ele><time>2026-04-05T08:58:44.264Z</time></trkpt><trkpt lat="45.9912344" lon="11.7391699"><ele>528.0</ele><time>2026-04-05T08:58:46.265Z</time></trkpt><trkpt lat="45.9912425" lon="11.7392797"><ele>528.0</ele><time>2026-04-05T08:58:47.264Z</time></trkpt><trkpt lat="45.9912442" lon="11.7393817"><ele>528.0</ele><time>2026-04-05T08:58:48.266Z</time></trkpt><trkpt lat="45.9912382" lon="11.7394858"><ele>528.0</ele><time>2026-04-05T08:58:49.264Z</time></trkpt><trkpt lat="45.9912126" lon="11.7396175"><ele>528.0</ele><time>2026-04-05T08:58:51.264Z</time></trkpt><trkpt lat="45.9911344" lon="11.7397351"><ele>528.0</ele><time>2026-04-05T08:58:53.266Z</time></trkpt><trkpt lat="45.9910852" lon="11.7397919"><ele>526.5</ele><time>2026-04-05T08:58:54.265Z</time></trkpt><trkpt lat="45.9910156" lon="11.7398807"><ele>525.0</ele><time>2026-04-05T08:58:56.265Z</time></trkpt><trkpt lat="45.9909166" lon="11.7399396"><ele>523.5</ele><time>2026-04-05T08:58:58.267Z</time></trkpt><trkpt lat="45.9908474" lon="11.7399667"><ele>522.0</ele><time>2026-04-05T08:58:59.266Z</time></trkpt><trkpt lat="45.990772" lon="11.7400077"><ele>520.5</ele><time>2026-04-05T08:59:00.266Z</time></trkpt><trkpt lat="45.9906908" lon="11.7400513"><ele>519.0</ele><time>2026-04-05T08:59:01.265Z</time></trkpt><trkpt lat="45.9906021" lon="11.7401032"><ele>516.0</ele><time>2026-04-05T08:59:02.264Z</time></trkpt><trkpt lat="45.9905155" lon="11.7401698"><ele>513.0</ele><time>2026-04-05T08:59:03.265Z</time></trkpt><trkpt lat="45.9904272" lon="11.7402664"><ele>510.0</ele><time>2026-04-05T08:59:04.265Z</time></trkpt><trkpt lat="45.9903451" lon="11.7403722"><ele>507.0</ele><time>2026-04-05T08:59:05.265Z</time></trkpt><trkpt lat="45.9902836" lon="11.7404982"><ele>504.0</ele><time>2026-04-05T08:59:06.266Z</time></trkpt><trkpt lat="45.9902455" lon="11.740643"><ele>504.0</ele><time>2026-04-05T08:59:07.266Z</time></trkpt><trkpt lat="45.9902367" lon="11.7408079"><ele>504.0</ele><time>2026-04-05T08:59:08.266Z</time></trkpt><trkpt lat="45.9902436" lon="11.7409864"><ele>504.0</ele><time>2026-04-05T08:59:09.265Z</time></trkpt><trkpt lat="45.9902598" lon="11.7411619"><ele>504.0</ele><time>2026-04-05T08:59:10.264Z</time></trkpt><trkpt lat="45.9902708" lon="11.7413248"><ele>503.0</ele><time>2026-04-05T08:59:11.265Z</time></trkpt><trkpt lat="45.9902851" lon="11.7414944"><ele>502.0</ele><time>2026-04-05T08:59:12.266Z</time></trkpt><trkpt lat="45.9902922" lon="11.7416642"><ele>501.0</ele><time>2026-04-05T08:59:13.266Z</time></trkpt><trkpt lat="45.9902959" lon="11.7418347"><ele>500.0</ele><time>2026-04-05T08:59:14.266Z</time></trkpt><trkpt lat="45.990303" lon="11.742005"><ele>499.3333333333333</ele><time>2026-04-05T08:59:15.266Z</time></trkpt><trkpt lat="45.990308" lon="11.7421433"><ele>498.66666666666663</ele><time>2026-04-05T08:59:16.265Z</time></trkpt><trkpt lat="45.9903108" lon="11.7422599"><ele>498.0</ele><time>2026-04-05T08:59:17.265Z</time></trkpt><trkpt lat="45.9903079" lon="11.7423536"><ele>497.33333333333337</ele><time>2026-04-05T08:59:18.265Z</time></trkpt><trkpt lat="45.9902811" lon="11.7424526"><ele>496.6666666666667</ele><time>2026-04-05T08:59:20.265Z</time></trkpt><trkpt lat="45.9902065" lon="11.7425067"><ele>496.0</ele><time>2026-04-05T08:59:22.266Z</time></trkpt><trkpt lat="45.9900607" lon="11.7425438"><ele>496.0</ele><time>2026-04-05T08:59:24.265Z</time></trkpt><trkpt lat="45.9899651" lon="11.7425519"><ele>496.0</ele><time>2026-04-05T08:59:25.265Z</time></trkpt><trkpt lat="45.9898731" lon="11.7425657"><ele>496.0</ele><time>2026-04-05T08:59:26.265Z</time></trkpt><trkpt lat="45.989801" lon="11.7425977"><ele>496.0</ele><time>2026-04-05T08:59:27.266Z</time></trkpt><trkpt lat="45.9896986" lon="11.742668"><ele>496.0</ele><time>2026-04-05T08:59:29.266Z</time></trkpt><trkpt lat="45.9896254" lon="11.7427833"><ele>496.0</ele><time>2026-04-05T08:59:31.266Z</time></trkpt><trkpt lat="45.9895999" lon="11.7429761"><ele>496.0</ele><time>2026-04-05T08:59:33.265Z</time></trkpt><trkpt lat="45.9896069" lon="11.7431041"><ele>496.0</ele><time>2026-04-05T08:59:34.265Z</time></trkpt><trkpt lat="45.9896232" lon="11.743222"><ele>496.0</ele><time>2026-04-05T08:59:35.266Z</time></trkpt><trkpt lat="45.9896509" lon="11.7433485"><ele>496.0</ele><time>2026-04-05T08:59:36.265Z</time></trkpt><trkpt lat="45.9896738" lon="11.7434664"><ele>494.83333333333337</ele><time>2026-04-05T08:59:37.265Z</time></trkpt><trkpt lat="45.9896914" lon="11.743603"><ele>493.6666666666667</ele><time>2026-04-05T08:59:38.266Z</time></trkpt><trkpt lat="45.9897018" lon="11.7437334"><ele>492.5</ele><time>2026-04-05T08:59:39.266Z</time></trkpt><trkpt lat="45.9897104" lon="11.7438613"><ele>491.33333333333337</ele><time>2026-04-05T08:59:40.266Z</time></trkpt><trkpt lat="45.9897186" lon="11.7439775"><ele>490.1666666666667</ele><time>2026-04-05T08:59:41.265Z</time></trkpt><trkpt lat="45.9897255" lon="11.744079"><ele>489.0</ele><time>2026-04-05T08:59:42.265Z</time></trkpt><trkpt lat="45.9897314" lon="11.7441817"><ele>489.0</ele><time>2026-04-05T08:59:43.265Z</time></trkpt><trkpt lat="45.9897348" lon="11.7442914"><ele>489.0</ele><time>2026-04-05T08:59:44.265Z</time></trkpt><trkpt lat="45.9897405" lon="11.7443952"><ele>489.0</ele><time>2026-04-05T08:59:45.265Z</time></trkpt><trkpt lat="45.9897604" lon="11.7445106"><ele>489.0</ele><time>2026-04-05T08:59:46.266Z</time></trkpt><trkpt lat="45.9897887" lon="11.7446268"><ele>489.0</ele><time>2026-04-05T08:59:47.267Z</time></trkpt><trkpt lat="45.9898174" lon="11.74474"><ele>489.0</ele><time>2026-04-05T08:59:48.266Z</time></trkpt><trkpt lat="45.9898426" lon="11.7448547"><ele>487.8571428571429</ele><time>2026-04-05T08:59:49.266Z</time></trkpt><trkpt lat="45.9898627" lon="11.7449615"><ele>486.7142857142858</ele><time>2026-04-05T08:59:50.265Z</time></trkpt><trkpt lat="45.9898808" lon="11.7450647"><ele>485.57142857142856</ele><time>2026-04-05T08:59:51.266Z</time></trkpt><trkpt lat="45.9898993" lon="11.7451693"><ele>484.42857142857144</ele><time>2026-04-05T08:59:52.266Z</time></trkpt><trkpt lat="45.9899166" lon="11.7452732"><ele>483.2857142857143</ele><time>2026-04-05T08:59:53.265Z</time></trkpt><trkpt lat="45.9899323" lon="11.7453724"><ele>482.1428571428571</ele><time>2026-04-05T08:59:54.266Z</time></trkpt><trkpt lat="45.9899462" lon="11.7454662"><ele>480.99999999999994</ele><time>2026-04-05T08:59:55.265Z</time></trkpt><trkpt lat="45.9899623" lon="11.7455631"><ele>480.0</ele><time>2026-04-05T08:59:56.266Z</time></trkpt><trkpt lat="45.989995" lon="11.7457352"><ele>479.0</ele><time>2026-04-05T08:59:58.265Z</time></trkpt><trkpt lat="45.9900189" lon="11.7458866"><ele>478.0</ele><time>2026-04-05T09:00:00.265Z</time></trkpt><trkpt lat="45.9900165" lon="11.7460684"><ele>477.0</ele><time>2026-04-05T09:00:03.265Z</time></trkpt><trkpt lat="45.99" lon="11.7461643"><ele>476.0</ele><time>2026-04-05T09:00:04.265Z</time></trkpt><trkpt lat="45.9899758" lon="11.7462552"><ele>474.99999999999994</ele><time>2026-04-05T09:00:05.266Z</time></trkpt><trkpt lat="45.9899405" lon="11.7463604"><ele>474.0</ele><time>2026-04-05T09:00:06.267Z</time></trkpt><trkpt lat="45.9898964" lon="11.7464491"><ele>473.0</ele><time>2026-04-05T09:00:07.266Z</time></trkpt><trkpt lat="45.98981" lon="11.7465283"><ele>472.0</ele><time>2026-04-05T09:00:08.266Z</time></trkpt><trkpt lat="45.9897432" lon="11.7465904"><ele>470.99999999999994</ele><time>2026-04-05T09:00:09.266Z</time></trkpt><trkpt lat="45.9896861" lon="11.746653"><ele>470.0</ele><time>2026-04-05T09:00:10.267Z</time></trkpt><trkpt lat="45.9896313" lon="11.7467102"><ele>470.0</ele><time>2026-04-05T09:00:11.266Z</time></trkpt><trkpt lat="45.9895739" lon="11.7468412"><ele>470.0</ele><time>2026-04-05T09:00:13.267Z</time></trkpt><trkpt lat="45.9895598" lon="11.7469318"><ele>470.0</ele><time>2026-04-05T09:00:14.266Z</time></trkpt><trkpt lat="45.9895466" lon="11.7470268"><ele>470.0</ele><time>2026-04-05T09:00:15.267Z</time></trkpt><trkpt lat="45.9894589" lon="11.747161"><ele>470.0</ele><time>2026-04-05T09:00:17.267Z</time></trkpt><trkpt lat="45.9893826" lon="11.7472137"><ele>469.99999999999994</ele><time>2026-04-05T09:00:18.266Z</time></trkpt><trkpt lat="45.9892977" lon="11.7472767"><ele>470.0</ele><time>2026-04-05T09:00:19.266Z</time></trkpt><trkpt lat="45.9892295" lon="11.747329"><ele>470.0</ele><time>2026-04-05T09:00:20.267Z</time></trkpt><trkpt lat="45.9891657" lon="11.7473879"><ele>470.0</ele><time>2026-04-05T09:00:21.267Z</time></trkpt><trkpt lat="45.9891028" lon="11.7474466"><ele>469.99999999999994</ele><time>2026-04-05T09:00:22.267Z</time></trkpt><trkpt lat="45.9890347" lon="11.7475138"><ele>470.0</ele><time>2026-04-05T09:00:23.266Z</time></trkpt><trkpt lat="45.9889564" lon="11.7475766"><ele>470.0</ele><time>2026-04-05T09:00:24.266Z</time></trkpt><trkpt lat="45.9888727" lon="11.7476381"><ele>470.0</ele><time>2026-04-05T09:00:25.266Z</time></trkpt><trkpt lat="45.9887871" lon="11.7476988"><ele>470.0</ele><time>2026-04-05T09:00:26.266Z</time></trkpt><trkpt lat="45.9886983" lon="11.7477609"><ele>470.0</ele><time>2026-04-05T09:00:27.266Z</time></trkpt><trkpt lat="45.988607" lon="11.7478231"><ele>470.0</ele><time>2026-04-05T09:00:28.266Z</time></trkpt><trkpt lat="45.9885154" lon="11.7478878"><ele>470.8</ele><time>2026-04-05T09:00:29.266Z</time></trkpt><trkpt lat="45.9884254" lon="11.7479548"><ele>471.6</ele><time>2026-04-05T09:00:30.267Z</time></trkpt><trkpt lat="45.9883358" lon="11.7480246"><ele>472.4</ele><time>2026-04-05T09:00:31.266Z</time></trkpt><trkpt lat="45.9882418" lon="11.7480922"><ele>473.2</ele><time>2026-04-05T09:00:32.266Z</time></trkpt><trkpt lat="45.9881484" lon="11.7481597"><ele>474.0</ele><time>2026-04-05T09:00:33.267Z</time></trkpt><trkpt lat="45.9880497" lon="11.7482313"><ele>471.6</ele><time>2026-04-05T09:00:34.266Z</time></trkpt><trkpt lat="45.987959" lon="11.7483088"><ele>469.2</ele><time>2026-04-05T09:00:35.266Z</time></trkpt><trkpt lat="45.9878683" lon="11.7483762"><ele>466.80000000000007</ele><time>2026-04-05T09:00:36.267Z</time></trkpt><trkpt lat="45.9877833" lon="11.74844"><ele>464.40000000000003</ele><time>2026-04-05T09:00:37.266Z</time></trkpt><trkpt lat="45.9877073" lon="11.7485015"><ele>462.0</ele><time>2026-04-05T09:00:38.267Z</time></trkpt><trkpt lat="45.987645" lon="11.748562"><ele>460.0</ele><time>2026-04-05T09:00:39.266Z</time></trkpt><trkpt lat="45.9875938" lon="11.7486265"><ele>458.00000000000006</ele><time>2026-04-05T09:00:40.267Z</time></trkpt><trkpt lat="45.9875375" lon="11.7487248"><ele>456.00000000000006</ele><time>2026-04-05T09:00:42.266Z</time></trkpt><trkpt lat="45.9874981" lon="11.748986"><ele>454.0</ele><time>2026-04-05T09:00:59.267Z</time></trkpt><trkpt lat="45.9874715" lon="11.7490796"><ele>452.0</ele><time>2026-04-05T09:01:00.267Z</time></trkpt><trkpt lat="45.987433" lon="11.749179"><ele>450.20000000000005</ele><time>2026-04-05T09:01:01.268Z</time></trkpt><trkpt lat="45.9873906" lon="11.7492791"><ele>448.40000000000003</ele><time>2026-04-05T09:01:02.267Z</time></trkpt><trkpt lat="45.987341" lon="11.7493629"><ele>446.59999999999997</ele><time>2026-04-05T09:01:03.266Z</time></trkpt><trkpt lat="45.987295" lon="11.7494367"><ele>444.79999999999995</ele><time>2026-04-05T09:01:04.267Z</time></trkpt><trkpt lat="45.9871882" lon="11.749542"><ele>443.0</ele><time>2026-04-05T09:01:06.267Z</time></trkpt><trkpt lat="45.9870805" lon="11.749632"><ele>440.99999999999994</ele><time>2026-04-05T09:01:08.268Z</time></trkpt><trkpt lat="45.9870116" lon="11.7496979"><ele>439.0</ele><time>2026-04-05T09:01:09.266Z</time></trkpt><trkpt lat="45.9869576" lon="11.7497475"><ele>437.0</ele><time>2026-04-05T09:01:10.266Z</time></trkpt><trkpt lat="45.9868492" lon="11.7497909"><ele>435.0</ele><time>2026-04-05T09:01:12.267Z</time></trkpt><trkpt lat="45.9867845" lon="11.7497859"><ele>432.99999999999994</ele><time>2026-04-05T09:01:13.266Z</time></trkpt><trkpt lat="45.9867056" lon="11.7497756"><ele>431.0</ele><time>2026-04-05T09:01:14.268Z</time></trkpt><trkpt lat="45.98661" lon="11.7497642"><ele>430.99999999999994</ele><time>2026-04-05T09:01:15.267Z</time></trkpt><trkpt lat="45.9865148" lon="11.7497609"><ele>431.0</ele><time>2026-04-05T09:01:16.268Z</time></trkpt><trkpt lat="45.9864289" lon="11.7497727"><ele>431.0</ele><time>2026-04-05T09:01:17.267Z</time></trkpt><trkpt lat="45.9863517" lon="11.7497819"><ele>431.0</ele><time>2026-04-05T09:01:18.266Z</time></trkpt><trkpt lat="45.9862773" lon="11.7497619"><ele>430.99999999999994</ele><time>2026-04-05T09:01:19.267Z</time></trkpt><trkpt lat="45.9862091" lon="11.7497451"><ele>431.0</ele><time>2026-04-05T09:01:20.267Z</time></trkpt><trkpt lat="45.9861438" lon="11.7497588"><ele>431.0</ele><time>2026-04-05T09:01:21.267Z</time></trkpt><trkpt lat="45.9860894" lon="11.7498045"><ele>431.0</ele><time>2026-04-05T09:01:22.268Z</time></trkpt><trkpt lat="45.9860064" lon="11.7499341"><ele>431.0</ele><time>2026-04-05T09:01:24.268Z</time></trkpt><trkpt lat="45.9859195" lon="11.7500283"><ele>431.0</ele><time>2026-04-05T09:01:26.267Z</time></trkpt><trkpt lat="45.9857858" lon="11.7500776"><ele>431.0</ele><time>2026-04-05T09:01:28.267Z</time></trkpt><trkpt lat="45.9857" lon="11.7500928"><ele>429.16666666666663</ele><time>2026-04-05T09:01:29.268Z</time></trkpt><trkpt lat="45.9856136" lon="11.7500872"><ele>427.3333333333333</ele><time>2026-04-05T09:01:30.267Z</time></trkpt><trkpt lat="45.9855482" lon="11.7500861"><ele>425.5</ele><time>2026-04-05T09:01:31.267Z</time></trkpt><trkpt lat="45.985457" lon="11.7500723"><ele>423.66666666666663</ele><time>2026-04-05T09:01:33.267Z</time></trkpt><trkpt lat="45.9853443" lon="11.7499784"><ele>421.8333333333333</ele><time>2026-04-05T09:01:35.268Z</time></trkpt><trkpt lat="45.985282" lon="11.7499313"><ele>420.0</ele><time>2026-04-05T09:01:36.267Z</time></trkpt><trkpt lat="45.9851803" lon="11.7498538"><ele>420.0</ele><time>2026-04-05T09:01:38.268Z</time></trkpt><trkpt lat="45.9851374" lon="11.7497739"><ele>420.0</ele><time>2026-04-05T09:01:39.267Z</time></trkpt><trkpt lat="45.9851008" lon="11.7496766"><ele>420.0</ele><time>2026-04-05T09:01:40.267Z</time></trkpt><trkpt lat="45.9850689" lon="11.74956"><ele>420.0</ele><time>2026-04-05T09:01:41.267Z</time></trkpt><trkpt lat="45.9850361" lon="11.7494366"><ele>420.0</ele><time>2026-04-05T09:01:42.267Z</time></trkpt><trkpt lat="45.9850048" lon="11.7493234"><ele>420.0</ele><time>2026-04-05T09:01:43.267Z</time></trkpt><trkpt lat="45.9849873" lon="11.7492233"><ele>420.4</ele><time>2026-04-05T09:01:44.267Z</time></trkpt><trkpt lat="45.9850009" lon="11.7490798"><ele>420.8</ele><time>2026-04-05T09:01:46.268Z</time></trkpt><trkpt lat="45.9850295" lon="11.7489932"><ele>421.20000000000005</ele><time>2026-04-05T09:01:48.268Z</time></trkpt><trkpt lat="45.9849618" lon="11.7489614"><ele>421.6</ele><time>2026-04-05T09:01:56.267Z</time></trkpt><trkpt lat="45.9848135" lon="11.748982"><ele>422.0</ele><time>2026-04-05T09:01:58.268Z</time></trkpt><trkpt lat="45.9847368" lon="11.7490061"><ele>418.16666666666663</ele><time>2026-04-05T09:01:59.268Z</time></trkpt><trkpt lat="45.984675" lon="11.7490405"><ele>414.3333333333333</ele><time>2026-04-05T09:02:00.267Z</time></trkpt><trkpt lat="45.9845801" lon="11.7491207"><ele>410.5</ele><time>2026-04-05T09:02:02.267Z</time></trkpt><trkpt lat="45.9845149" lon="11.7491717"><ele>406.66666666666663</ele><time>2026-04-05T09:02:03.268Z</time></trkpt><trkpt lat="45.9844561" lon="11.7492238"><ele>402.8333333333333</ele><time>2026-04-05T09:02:04.268Z</time></trkpt><trkpt lat="45.9844" lon="11.7492801"><ele>399.0</ele><time>2026-04-05T09:02:05.269Z</time></trkpt><trkpt lat="45.984327" lon="11.7494004"><ele>398.79999999999995</ele><time>2026-04-05T09:02:07.269Z</time></trkpt><trkpt lat="45.9842661" lon="11.7495045"><ele>398.59999999999997</ele><time>2026-04-05T09:02:09.268Z</time></trkpt><trkpt lat="45.9841959" lon="11.749618"><ele>398.4</ele><time>2026-04-05T09:02:11.268Z</time></trkpt><trkpt lat="45.9841404" lon="11.7496617"><ele>398.2</ele><time>2026-04-05T09:02:13.269Z</time></trkpt><trkpt lat="45.9841082" lon="11.7495647"><ele>398.0</ele><time>2026-04-05T09:02:15.268Z</time></trkpt><trkpt lat="45.9840885" lon="11.7493982"><ele>393.59999999999997</ele><time>2026-04-05T09:02:17.267Z</time></trkpt><trkpt lat="45.9840802" lon="11.7493025"><ele>389.2</ele><time>2026-04-05T09:02:19.268Z</time></trkpt><trkpt lat="45.9840438" lon="11.7491741"><ele>384.8</ele><time>2026-04-05T09:02:22.269Z</time></trkpt><trkpt lat="45.9839663" lon="11.7490805"><ele>380.4</ele><time>2026-04-05T09:02:24.268Z</time></trkpt><trkpt lat="45.9838373" lon="11.7490495"><ele>376.0</ele><time>2026-04-05T09:02:26.269Z</time></trkpt><trkpt lat="45.9837521" lon="11.7490475"><ele>376.0</ele><time>2026-04-05T09:02:27.269Z</time></trkpt><trkpt lat="45.9836816" lon="11.7490564"><ele>376.0</ele><time>2026-04-05T09:02:28.268Z</time></trkpt><trkpt lat="45.9836174" lon="11.7490656"><ele>376.0</ele><time>2026-04-05T09:02:29.268Z</time></trkpt><trkpt lat="45.983551" lon="11.7490771"><ele>376.0</ele><time>2026-04-05T09:02:30.27Z</time></trkpt><trkpt lat="45.9834785" lon="11.7490956"><ele>376.0</ele><time>2026-04-05T09:02:31.269Z</time></trkpt><trkpt lat="45.9834044" lon="11.7491205"><ele>376.0</ele><time>2026-04-05T09:02:32.268Z</time></trkpt><trkpt lat="45.9833146" lon="11.7491507"><ele>376.0</ele><time>2026-04-05T09:02:33.268Z</time></trkpt><trkpt lat="45.9832329" lon="11.7491855"><ele>374.16666666666663</ele><time>2026-04-05T09:02:34.269Z</time></trkpt><trkpt lat="45.9831574" lon="11.7492269"><ele>372.3333333333333</ele><time>2026-04-05T09:02:35.269Z</time></trkpt><trkpt lat="45.9830955" lon="11.749288"><ele>370.5</ele><time>2026-04-05T09:02:36.269Z</time></trkpt><trkpt lat="45.9830313" lon="11.7493427"><ele>368.6666666666667</ele><time>2026-04-05T09:02:37.269Z</time></trkpt><trkpt lat="45.9829686" lon="11.7493741"><ele>366.83333333333337</ele><time>2026-04-05T09:02:38.269Z</time></trkpt><trkpt lat="45.9829076" lon="11.7494003"><ele>365.0</ele><time>2026-04-05T09:02:39.269Z</time></trkpt><trkpt lat="45.9828017" lon="11.7495127"><ele>365.0</ele><time>2026-04-05T09:02:41.269Z</time></trkpt><trkpt lat="45.982758" lon="11.7495945"><ele>365.0</ele><time>2026-04-05T09:02:42.269Z</time></trkpt><trkpt lat="45.9827091" lon="11.7496541"><ele>365.0</ele><time>2026-04-05T09:02:43.268Z</time></trkpt><trkpt lat="45.9825904" lon="11.7496862"><ele>365.0</ele><time>2026-04-05T09:02:45.269Z</time></trkpt><trkpt lat="45.9825168" lon="11.7496775"><ele>365.0</ele><time>2026-04-05T09:02:46.268Z</time></trkpt><trkpt lat="45.9824407" lon="11.7496453"><ele>365.0</ele><time>2026-04-05T09:02:47.268Z</time></trkpt><trkpt lat="45.9823631" lon="11.7496174"><ele>363.33333333333337</ele><time>2026-04-05T09:02:48.269Z</time></trkpt><trkpt lat="45.982281" lon="11.7495987"><ele>361.6666666666667</ele><time>2026-04-05T09:02:49.269Z</time></trkpt><trkpt lat="45.9822086" lon="11.7496008"><ele>360.0</ele><time>2026-04-05T09:02:50.269Z</time></trkpt><trkpt lat="45.9821309" lon="11.7496084"><ele>358.3333333333333</ele><time>2026-04-05T09:02:52.269Z</time></trkpt><trkpt lat="45.9821617" lon="11.7495172"><ele>356.66666666666663</ele><time>2026-04-05T09:02:58.269Z</time></trkpt><trkpt lat="45.9822345" lon="11.7494437"><ele>355.0</ele><time>2026-04-05T09:03:00.269Z</time></trkpt><trkpt lat="45.9822696" lon="11.7493477"><ele>353.5</ele><time>2026-04-05T09:03:01.269Z</time></trkpt><trkpt lat="45.9823055" lon="11.7492278"><ele>352.0</ele><time>2026-04-05T09:03:02.268Z</time></trkpt><trkpt lat="45.9823398" lon="11.7491128"><ele>350.5</ele><time>2026-04-05T09:03:03.268Z</time></trkpt><trkpt lat="45.982367" lon="11.7489937"><ele>349.0</ele><time>2026-04-05T09:03:05.269Z</time></trkpt><trkpt lat="45.9823272" lon="11.7489209"><ele>347.5</ele><time>2026-04-05T09:03:08.269Z</time></trkpt><trkpt lat="45.9822631" lon="11.7488864"><ele>346.0</ele><time>2026-04-05T09:03:10.268Z</time></trkpt><trkpt lat="45.9821973" lon="11.748908"><ele>346.0</ele><time>2026-04-05T09:03:13.269Z</time></trkpt><trkpt lat="45.9821364" lon="11.7488497"><ele>346.0</ele><time>2026-04-05T09:03:15.268Z</time></trkpt><trkpt lat="45.9820975" lon="11.7487269"><ele>346.0</ele><time>2026-04-05T09:03:17.269Z</time></trkpt><trkpt lat="45.9820824" lon="11.748637"><ele>346.0</ele><time>2026-04-05T09:03:18.269Z</time></trkpt><trkpt lat="45.9820621" lon="11.7485342"><ele>346.0</ele><time>2026-04-05T09:03:19.27Z</time></trkpt><trkpt lat="45.9820337" lon="11.7484456"><ele>346.0</ele><time>2026-04-05T09:03:20.269Z</time></trkpt><trkpt lat="45.9819715" lon="11.748306"><ele>343.66666666666663</ele><time>2026-04-05T09:03:22.268Z</time></trkpt><trkpt lat="45.981948" lon="11.7481354"><ele>341.3333333333333</ele><time>2026-04-05T09:03:24.27Z</time></trkpt><trkpt lat="45.9819538" lon="11.7480294"><ele>339.0</ele><time>2026-04-05T09:03:25.27Z</time></trkpt><trkpt lat="45.9819756" lon="11.7479312"><ele>336.6666666666667</ele><time>2026-04-05T09:03:26.27Z</time></trkpt><trkpt lat="45.9820028" lon="11.7478291"><ele>334.33333333333337</ele><time>2026-04-05T09:03:27.27Z</time></trkpt><trkpt lat="45.9820232" lon="11.7477228"><ele>332.0</ele><time>2026-04-05T09:03:28.269Z</time></trkpt><trkpt lat="45.9820369" lon="11.7476143"><ele>331.83333333333337</ele><time>2026-04-05T09:03:29.27Z</time></trkpt><trkpt lat="45.9820459" lon="11.747502"><ele>331.6666666666667</ele><time>2026-04-05T09:03:30.27Z</time></trkpt><trkpt lat="45.9820514" lon="11.7473873"><ele>331.5</ele><time>2026-04-05T09:03:31.269Z</time></trkpt><trkpt lat="45.9820545" lon="11.7472562"><ele>331.3333333333333</ele><time>2026-04-05T09:03:32.269Z</time></trkpt><trkpt lat="45.9820536" lon="11.7471165"><ele>331.16666666666663</ele><time>2026-04-05T09:03:33.269Z</time></trkpt><trkpt lat="45.9820491" lon="11.7469712"><ele>331.0</ele><time>2026-04-05T09:03:34.269Z</time></trkpt><trkpt lat="45.9820412" lon="11.7468346"><ele>331.0</ele><time>2026-04-05T09:03:35.27Z</time></trkpt><trkpt lat="45.9820385" lon="11.7467149"><ele>331.0</ele><time>2026-04-05T09:03:36.27Z</time></trkpt><trkpt lat="45.9820479" lon="11.7465995"><ele>331.0</ele><time>2026-04-05T09:03:37.269Z</time></trkpt><trkpt lat="45.9820698" lon="11.7464875"><ele>331.0</ele><time>2026-04-05T09:03:38.27Z</time></trkpt><trkpt lat="45.9821067" lon="11.746377"><ele>331.0</ele><time>2026-04-05T09:03:39.27Z</time></trkpt><trkpt lat="45.9821485" lon="11.7462466"><ele>331.0</ele><time>2026-04-05T09:03:40.269Z</time></trkpt><trkpt lat="45.9821968" lon="11.746109"><ele>332.75</ele><time>2026-04-05T09:03:41.269Z</time></trkpt><trkpt lat="45.9822526" lon="11.7459697"><ele>334.5</ele><time>2026-04-05T09:03:42.27Z</time></trkpt><trkpt lat="45.9823062" lon="11.7458308"><ele>336.25</ele><time>2026-04-05T09:03:43.27Z</time></trkpt><trkpt lat="45.9823621" lon="11.7456769"><ele>338.0</ele><time>2026-04-05T09:03:44.27Z</time></trkpt><trkpt lat="45.9824245" lon="11.7455196"><ele>338.0</ele><time>2026-04-05T09:03:45.269Z</time></trkpt><trkpt lat="45.9824907" lon="11.7453776"><ele>338.0</ele><time>2026-04-05T09:03:46.269Z</time></trkpt><trkpt lat="45.9825604" lon="11.7452498"><ele>338.0</ele><time>2026-04-05T09:03:47.27Z</time></trkpt><trkpt lat="45.9826273" lon="11.7451252"><ele>338.0</ele><time>2026-04-05T09:03:48.27Z</time></trkpt><trkpt lat="45.9826861" lon="11.7449871"><ele>337.2</ele><time>2026-04-05T09:03:49.269Z</time></trkpt><trkpt lat="45.9827314" lon="11.7448473"><ele>336.4</ele><time>2026-04-05T09:03:50.27Z</time></trkpt><trkpt lat="45.9827788" lon="11.7446984"><ele>335.59999999999997</ele><time>2026-04-05T09:03:51.269Z</time></trkpt><trkpt lat="45.9828132" lon="11.7445495"><ele>334.79999999999995</ele><time>2026-04-05T09:03:52.27Z</time></trkpt><trkpt lat="45.9828432" lon="11.7444005"><ele>334.0</ele><time>2026-04-05T09:03:53.27Z</time></trkpt><trkpt lat="45.9828736" lon="11.7442499"><ele>336.0</ele><time>2026-04-05T09:03:54.269Z</time></trkpt><trkpt lat="45.982915" lon="11.7440984"><ele>338.0</ele><time>2026-04-05T09:03:55.27Z</time></trkpt><trkpt lat="45.9829732" lon="11.7439577"><ele>340.0</ele><time>2026-04-05T09:03:56.269Z</time></trkpt><trkpt lat="45.9830421" lon="11.7438375"><ele>342.0</ele><time>2026-04-05T09:03:57.27Z</time></trkpt><trkpt lat="45.983104" lon="11.7437297"><ele>344.0</ele><time>2026-04-05T09:03:58.269Z</time></trkpt><trkpt lat="45.9831674" lon="11.7436094"><ele>343.4</ele><time>2026-04-05T09:03:59.269Z</time></trkpt><trkpt lat="45.9832217" lon="11.743469"><ele>342.79999999999995</ele><time>2026-04-05T09:04:00.269Z</time></trkpt><trkpt lat="45.9832546" lon="11.7433301"><ele>342.20000000000005</ele><time>2026-04-05T09:04:01.27Z</time></trkpt><trkpt lat="45.9833037" lon="11.7431789"><ele>341.6</ele><time>2026-04-05T09:04:02.269Z</time></trkpt><trkpt lat="45.9833458" lon="11.7430318"><ele>341.0</ele><time>2026-04-05T09:04:03.269Z</time></trkpt><trkpt lat="45.9833823" lon="11.7428802"><ele>341.0</ele><time>2026-04-05T09:04:04.27Z</time></trkpt><trkpt lat="45.9834127" lon="11.7427347"><ele>341.0</ele><time>2026-04-05T09:04:05.269Z</time></trkpt><trkpt lat="45.9834462" lon="11.7426041"><ele>341.0</ele><time>2026-04-05T09:04:06.269Z</time></trkpt><trkpt lat="45.9834852" lon="11.7424948"><ele>341.0</ele><time>2026-04-05T09:04:07.27Z</time></trkpt><trkpt lat="45.9835198" lon="11.7423906"><ele>341.0</ele><time>2026-04-05T09:04:08.27Z</time></trkpt><trkpt lat="45.9835396" lon="11.7422889"><ele>341.0</ele><time>2026-04-05T09:04:09.269Z</time></trkpt><trkpt lat="45.9835369" lon="11.742172"><ele>342.83333333333337</ele><time>2026-04-05T09:04:10.271Z</time></trkpt><trkpt lat="45.9835385" lon="11.7420605"><ele>344.6666666666667</ele><time>2026-04-05T09:04:11.271Z</time></trkpt><trkpt lat="45.983559" lon="11.7419593"><ele>346.5</ele><time>2026-04-05T09:04:12.27Z</time></trkpt><trkpt lat="45.9836382" lon="11.7418316"><ele>348.3333333333333</ele><time>2026-04-05T09:04:14.271Z</time></trkpt><trkpt lat="45.9836715" lon="11.741746"><ele>350.16666666666663</ele><time>2026-04-05T09:04:15.27Z</time></trkpt><trkpt lat="45.9837009" lon="11.7416467"><ele>352.0</ele><time>2026-04-05T09:04:16.271Z</time></trkpt><trkpt lat="45.9837207" lon="11.7415573"><ele>354.16666666666663</ele><time>2026-04-05T09:04:17.27Z</time></trkpt><trkpt lat="45.983731" lon="11.7414657"><ele>356.3333333333333</ele><time>2026-04-05T09:04:18.27Z</time></trkpt><trkpt lat="45.9837247" lon="11.7413568"><ele>358.5</ele><time>2026-04-05T09:04:19.27Z</time></trkpt><trkpt lat="45.9836945" lon="11.7412566"><ele>360.6666666666667</ele><time>2026-04-05T09:04:20.27Z</time></trkpt><trkpt lat="45.9836151" lon="11.741143"><ele>362.83333333333337</ele><time>2026-04-05T09:04:22.271Z</time></trkpt><trkpt lat="45.9835615" lon="11.7410933"><ele>365.0</ele><time>2026-04-05T09:04:24.269Z</time></trkpt><trkpt lat="45.9835087" lon="11.7409858"><ele>367.6666666666667</ele><time>2026-04-05T09:04:27.27Z</time></trkpt><trkpt lat="45.9834793" lon="11.740901"><ele>370.33333333333337</ele><time>2026-04-05T09:04:29.27Z</time></trkpt><trkpt lat="45.9835221" lon="11.7408072"><ele>373.0</ele><time>2026-04-05T09:04:32.27Z</time></trkpt><trkpt lat="45.9835689" lon="11.740695"><ele>375.6666666666667</ele><time>2026-04-05T09:04:34.271Z</time></trkpt><trkpt lat="45.9836156" lon="11.7405745"><ele>378.3333333333333</ele><time>2026-04-05T09:04:36.27Z</time></trkpt><trkpt lat="45.9836696" lon="11.7405101"><ele>381.0</ele><time>2026-04-05T09:04:38.271Z</time></trkpt><trkpt lat="45.983737" lon="11.7404245"><ele>381.0</ele><time>2026-04-05T09:04:40.27Z</time></trkpt><trkpt lat="45.9837896" lon="11.740323"><ele>381.0</ele><time>2026-04-05T09:04:43.27Z</time></trkpt><trkpt lat="45.983842" lon="11.7402097"><ele>381.0</ele><time>2026-04-05T09:04:46.27Z</time></trkpt><trkpt lat="45.9838935" lon="11.7401327"><ele>381.0</ele><time>2026-04-05T09:04:48.27Z</time></trkpt><trkpt lat="45.9839562" lon="11.7400452"><ele>381.0</ele><time>2026-04-05T09:04:50.271Z</time></trkpt><trkpt lat="45.9840291" lon="11.7399692"><ele>381.0</ele><time>2026-04-05T09:04:52.271Z</time></trkpt><trkpt lat="45.9840833" lon="11.7399205"><ele>383.0</ele><time>2026-04-05T09:04:54.271Z</time></trkpt><trkpt lat="45.9841437" lon="11.7400112"><ele>385.0</ele><time>2026-04-05T09:04:59.27Z</time></trkpt><trkpt lat="45.9842355" lon="11.7399825"><ele>387.0</ele><time>2026-04-05T09:05:02.271Z</time></trkpt><trkpt lat="45.984294" lon="11.7399416"><ele>389.0</ele><time>2026-04-05T09:05:11.27Z</time></trkpt><trkpt lat="45.9843603" lon="11.7398716"><ele>391.0</ele><time>2026-04-05T09:05:13.272Z</time></trkpt><trkpt lat="45.9844459" lon="11.739803"><ele>393.0</ele><time>2026-04-05T09:05:16.271Z</time></trkpt><trkpt lat="45.9845096" lon="11.7396924"><ele>386.2</ele><time>2026-04-05T09:05:18.27Z</time></trkpt><trkpt lat="45.9845793" lon="11.7395988"><ele>379.4</ele><time>2026-04-05T09:05:20.27Z</time></trkpt><trkpt lat="45.9846552" lon="11.7395856"><ele>372.59999999999997</ele><time>2026-04-05T09:05:22.271Z</time></trkpt><trkpt lat="45.9847448" lon="11.739601"><ele>365.79999999999995</ele><time>2026-04-05T09:05:24.271Z</time></trkpt><trkpt lat="45.9848316" lon="11.7396302"><ele>359.0</ele><time>2026-04-05T09:05:26.271Z</time></trkpt><trkpt lat="45.9849386" lon="11.7396394"><ele>359.6666666666667</ele><time>2026-04-05T09:05:29.272Z</time></trkpt><trkpt lat="45.9850326" lon="11.7396679"><ele>360.33333333333337</ele><time>2026-04-05T09:05:31.272Z</time></trkpt><trkpt lat="45.9851136" lon="11.7397574"><ele>361.0</ele><time>2026-04-05T09:05:33.272Z</time></trkpt><trkpt lat="45.9851701" lon="11.7398458"><ele>361.6666666666667</ele><time>2026-04-05T09:05:34.27Z</time></trkpt><trkpt lat="45.9852179" lon="11.7399115"><ele>362.3333333333333</ele><time>2026-04-05T09:05:35.271Z</time></trkpt><trkpt lat="45.9852921" lon="11.7399916"><ele>363.0</ele><time>2026-04-05T09:05:37.271Z</time></trkpt><trkpt lat="45.9853415" lon="11.7400618"><ele>363.0</ele><time>2026-04-05T09:05:39.272Z</time></trkpt><trkpt lat="45.9854126" lon="11.740093"><ele>363.0</ele><time>2026-04-05T09:05:45.272Z</time></trkpt><trkpt lat="45.9855234" lon="11.7400943"><ele>363.0</ele><time>2026-04-05T09:05:47.272Z</time></trkpt><trkpt lat="45.9855964" lon="11.7400813"><ele>363.0</ele><time>2026-04-05T09:05:49.271Z</time></trkpt><trkpt lat="45.9856813" lon="11.7400151"><ele>363.0</ele><time>2026-04-05T09:05:51.271Z</time></trkpt><trkpt lat="45.9857442" lon="11.7399318"><ele>363.0</ele><time>2026-04-05T09:05:52.271Z</time></trkpt><trkpt lat="45.9858191" lon="11.7398115"><ele>362.1666666666667</ele><time>2026-04-05T09:05:53.271Z</time></trkpt><trkpt lat="45.9858916" lon="11.7396864"><ele>361.3333333333333</ele><time>2026-04-05T09:05:54.272Z</time></trkpt><trkpt lat="45.9859474" lon="11.7395837"><ele>360.5</ele><time>2026-04-05T09:05:55.272Z</time></trkpt><trkpt lat="45.9859923" lon="11.7394974"><ele>359.66666666666663</ele><time>2026-04-05T09:05:56.271Z</time></trkpt><trkpt lat="45.9860518" lon="11.7394268"><ele>358.8333333333333</ele><time>2026-04-05T09:05:57.272Z</time></trkpt><trkpt lat="45.9861264" lon="11.7393569"><ele>358.0</ele><time>2026-04-05T09:05:58.271Z</time></trkpt><trkpt lat="45.9861985" lon="11.7392965"><ele>358.0</ele><time>2026-04-05T09:05:59.272Z</time></trkpt><trkpt lat="45.9862665" lon="11.7392439"><ele>358.0</ele><time>2026-04-05T09:06:00.271Z</time></trkpt><trkpt lat="45.9863324" lon="11.7392108"><ele>358.0</ele><time>2026-04-05T09:06:01.271Z</time></trkpt><trkpt lat="45.9864041" lon="11.7392009"><ele>358.0</ele><time>2026-04-05T09:06:02.272Z</time></trkpt><trkpt lat="45.9864724" lon="11.7392026"><ele>358.0</ele><time>2026-04-05T09:06:03.272Z</time></trkpt><trkpt lat="45.9865833" lon="11.7391109"><ele>358.0</ele><time>2026-04-05T09:06:05.272Z</time></trkpt><trkpt lat="45.9866343" lon="11.7390356"><ele>355.66666666666663</ele><time>2026-04-05T09:06:06.271Z</time></trkpt><trkpt lat="45.9866829" lon="11.7389494"><ele>353.3333333333333</ele><time>2026-04-05T09:06:07.271Z</time></trkpt><trkpt lat="45.9867203" lon="11.7388371"><ele>351.0</ele><time>2026-04-05T09:06:08.272Z</time></trkpt><trkpt lat="45.9867414" lon="11.738724"><ele>348.6666666666667</ele><time>2026-04-05T09:06:09.273Z</time></trkpt><trkpt lat="45.9867484" lon="11.7386159"><ele>346.33333333333337</ele><time>2026-04-05T09:06:10.273Z</time></trkpt><trkpt lat="45.9867485" lon="11.7385141"><ele>344.0</ele><time>2026-04-05T09:06:11.271Z</time></trkpt><trkpt lat="45.986745" lon="11.7383845"><ele>343.4</ele><time>2026-04-05T09:06:13.273Z</time></trkpt><trkpt lat="45.9867539" lon="11.7382171"><ele>342.79999999999995</ele><time>2026-04-05T09:06:16.271Z</time></trkpt><trkpt lat="45.9867424" lon="11.7381039"><ele>342.20000000000005</ele><time>2026-04-05T09:06:17.272Z</time></trkpt><trkpt lat="45.9867227" lon="11.7379816"><ele>341.6</ele><time>2026-04-05T09:06:18.272Z</time></trkpt><trkpt lat="45.9866947" lon="11.7378388"><ele>341.0</ele><time>2026-04-05T09:06:19.271Z</time></trkpt><trkpt lat="45.9866613" lon="11.737687"><ele>342.4</ele><time>2026-04-05T09:06:20.272Z</time></trkpt><trkpt lat="45.9866265" lon="11.7375354"><ele>343.8</ele><time>2026-04-05T09:06:21.272Z</time></trkpt><trkpt lat="45.9865896" lon="11.7373849"><ele>345.2</ele><time>2026-04-05T09:06:22.271Z</time></trkpt><trkpt lat="45.9865512" lon="11.7372355"><ele>346.59999999999997</ele><time>2026-04-05T09:06:23.273Z</time></trkpt><trkpt lat="45.9865099" lon="11.7370887"><ele>348.0</ele><time>2026-04-05T09:06:24.272Z</time></trkpt><trkpt lat="45.9864647" lon="11.7369448"><ele>347.4</ele><time>2026-04-05T09:06:25.272Z</time></trkpt><trkpt lat="45.9864214" lon="11.7368044"><ele>346.79999999999995</ele><time>2026-04-05T09:06:26.272Z</time></trkpt><trkpt lat="45.9863791" lon="11.7366668"><ele>346.2</ele><time>2026-04-05T09:06:27.272Z</time></trkpt><trkpt lat="45.9863341" lon="11.7365284"><ele>345.6</ele><time>2026-04-05T09:06:28.273Z</time></trkpt><trkpt lat="45.98629" lon="11.7363934"><ele>345.0</ele><time>2026-04-05T09:06:29.272Z</time></trkpt><trkpt lat="45.9862536" lon="11.7362564"><ele>345.0</ele><time>2026-04-05T09:06:30.273Z</time></trkpt><trkpt lat="45.98624" lon="11.736122"><ele>345.0</ele><time>2026-04-05T09:06:31.273Z</time></trkpt><trkpt lat="45.9862435" lon="11.7359874"><ele>345.0</ele><time>2026-04-05T09:06:32.273Z</time></trkpt><trkpt lat="45.986267" lon="11.7358582"><ele>345.0</ele><time>2026-04-05T09:06:33.273Z</time></trkpt><trkpt lat="45.9863117" lon="11.735735"><ele>345.0</ele><time>2026-04-05T09:06:34.273Z</time></trkpt><trkpt lat="45.9863769" lon="11.7356222"><ele>344.8</ele><time>2026-04-05T09:06:35.271Z</time></trkpt><trkpt lat="45.9864568" lon="11.7355255"><ele>344.6</ele><time>2026-04-05T09:06:36.273Z</time></trkpt><trkpt lat="45.9865474" lon="11.7354506"><ele>344.4</ele><time>2026-04-05T09:06:37.273Z</time></trkpt><trkpt lat="45.98665" lon="11.7353911"><ele>344.2</ele><time>2026-04-05T09:06:38.271Z</time></trkpt><trkpt lat="45.9867551" lon="11.7353475"><ele>344.0</ele><time>2026-04-05T09:06:39.272Z</time></trkpt><trkpt lat="45.9868648" lon="11.7353069"><ele>344.0</ele><time>2026-04-05T09:06:40.273Z</time></trkpt><trkpt lat="45.9869758" lon="11.7352661"><ele>344.0</ele><time>2026-04-05T09:06:41.272Z</time></trkpt><trkpt lat="45.9870794" lon="11.735224"><ele>344.0</ele><time>2026-04-05T09:06:42.272Z</time></trkpt><trkpt lat="45.9871739" lon="11.735181"><ele>344.0</ele><time>2026-04-05T09:06:43.273Z</time></trkpt><trkpt lat="45.9872641" lon="11.7351304"><ele>344.0</ele><time>2026-04-05T09:06:44.273Z</time></trkpt><trkpt lat="45.9873488" lon="11.7350681"><ele>346.0</ele><time>2026-04-05T09:06:45.272Z</time></trkpt><trkpt lat="45.987426" lon="11.7349791"><ele>348.0</ele><time>2026-04-05T09:06:46.273Z</time></trkpt><trkpt lat="45.9874878" lon="11.734863"><ele>350.0</ele><time>2026-04-05T09:06:47.272Z</time></trkpt><trkpt lat="45.9875315" lon="11.7347217"><ele>352.0</ele><time>2026-04-05T09:06:48.273Z</time></trkpt><trkpt lat="45.9875538" lon="11.7345719"><ele>354.0</ele><time>2026-04-05T09:06:49.272Z</time></trkpt><trkpt lat="45.9875585" lon="11.7344061"><ele>357.25</ele><time>2026-04-05T09:06:50.273Z</time></trkpt><trkpt lat="45.9875538" lon="11.7342273"><ele>360.5</ele><time>2026-04-05T09:06:51.273Z</time></trkpt><trkpt lat="45.9875481" lon="11.7340473"><ele>363.75</ele><time>2026-04-05T09:06:52.273Z</time></trkpt><trkpt lat="45.9875489" lon="11.73387"><ele>367.0</ele><time>2026-04-05T09:06:53.273Z</time></trkpt><trkpt lat="45.9875524" lon="11.7337019"><ele>367.0</ele><time>2026-04-05T09:06:54.272Z</time></trkpt><trkpt lat="45.9875575" lon="11.7335321"><ele>367.0</ele><time>2026-04-05T09:06:55.273Z</time></trkpt><trkpt lat="45.9875626" lon="11.7333656"><ele>367.0</ele><time>2026-04-05T09:06:56.272Z</time></trkpt><trkpt lat="45.9875675" lon="11.7332078"><ele>367.0</ele><time>2026-04-05T09:06:57.273Z</time></trkpt><trkpt lat="45.9875716" lon="11.7330472"><ele>367.0</ele><time>2026-04-05T09:06:58.273Z</time></trkpt><trkpt lat="45.9875757" lon="11.732883"><ele>367.0</ele><time>2026-04-05T09:06:59.272Z</time></trkpt><trkpt lat="45.9875777" lon="11.7327229"><ele>367.0</ele><time>2026-04-05T09:07:00.272Z</time></trkpt><trkpt lat="45.987579" lon="11.7325595"><ele>367.0</ele><time>2026-04-05T09:07:01.272Z</time></trkpt><trkpt lat="45.9875812" lon="11.7323958"><ele>367.0</ele><time>2026-04-05T09:07:02.272Z</time></trkpt><trkpt lat="45.9875834" lon="11.7322341"><ele>367.0</ele><time>2026-04-05T09:07:03.272Z</time></trkpt><trkpt lat="45.9875867" lon="11.7320781"><ele>367.0</ele><time>2026-04-05T09:07:04.272Z</time></trkpt><trkpt lat="45.9875895" lon="11.7319187"><ele>367.0</ele><time>2026-04-05T09:07:05.272Z</time></trkpt><trkpt lat="45.9875927" lon="11.7317691"><ele>367.0</ele><time>2026-04-05T09:07:06.273Z</time></trkpt><trkpt lat="45.9875985" lon="11.731639"><ele>367.16666666666663</ele><time>2026-04-05T09:07:07.272Z</time></trkpt><trkpt lat="45.9876075" lon="11.7315193"><ele>367.3333333333333</ele><time>2026-04-05T09:07:08.272Z</time></trkpt><trkpt lat="45.9876117" lon="11.7313975"><ele>367.5</ele><time>2026-04-05T09:07:09.274Z</time></trkpt><trkpt lat="45.9876121" lon="11.7312706"><ele>367.6666666666667</ele><time>2026-04-05T09:07:10.273Z</time></trkpt><trkpt lat="45.9876134" lon="11.7311451"><ele>367.83333333333337</ele><time>2026-04-05T09:07:11.273Z</time></trkpt><trkpt lat="45.9876173" lon="11.7310258"><ele>368.0</ele><time>2026-04-05T09:07:12.273Z</time></trkpt><trkpt lat="45.987623" lon="11.7309168"><ele>368.33333333333337</ele><time>2026-04-05T09:07:13.274Z</time></trkpt><trkpt lat="45.9876274" lon="11.7308188"><ele>368.6666666666667</ele><time>2026-04-05T09:07:14.272Z</time></trkpt><trkpt lat="45.9876152" lon="11.7306909"><ele>369.0</ele><time>2026-04-05T09:07:16.273Z</time></trkpt><trkpt lat="45.9875453" lon="11.7306677"><ele>369.3333333333333</ele><time>2026-04-05T09:07:18.272Z</time></trkpt><trkpt lat="45.9874392" lon="11.7307287"><ele>369.66666666666663</ele><time>2026-04-05T09:07:20.272Z</time></trkpt><trkpt lat="45.9873744" lon="11.7307614"><ele>370.0</ele><time>2026-04-05T09:07:21.273Z</time></trkpt><trkpt lat="45.9873036" lon="11.730797"><ele>367.0</ele><time>2026-04-05T09:07:22.273Z</time></trkpt><trkpt lat="45.987217" lon="11.7308339"><ele>364.0</ele><time>2026-04-05T09:07:23.273Z</time></trkpt><trkpt lat="45.9871161" lon="11.7308673"><ele>361.0</ele><time>2026-04-05T09:07:24.272Z</time></trkpt><trkpt lat="45.9870056" lon="11.7309005"><ele>358.0</ele><time>2026-04-05T09:07:25.273Z</time></trkpt><trkpt lat="45.9869021" lon="11.7309369"><ele>355.0</ele><time>2026-04-05T09:07:26.272Z</time></trkpt><trkpt lat="45.9868142" lon="11.7309703"><ele>355.0</ele><time>2026-04-05T09:07:27.274Z</time></trkpt><trkpt lat="45.9867395" lon="11.7309962"><ele>355.0</ele><time>2026-04-05T09:07:28.272Z</time></trkpt><trkpt lat="45.9866695" lon="11.7310102"><ele>355.0</ele><time>2026-04-05T09:07:29.274Z</time></trkpt><trkpt lat="45.9866053" lon="11.7310152"><ele>355.0</ele><time>2026-04-05T09:07:30.272Z</time></trkpt><trkpt lat="45.9865414" lon="11.7310192"><ele>355.0</ele><time>2026-04-05T09:07:31.273Z</time></trkpt><trkpt lat="45.98641" lon="11.7310289"><ele>355.0</ele><time>2026-04-05T09:07:33.273Z</time></trkpt><trkpt lat="45.9863442" lon="11.73103"><ele>356.4</ele><time>2026-04-05T09:07:34.272Z</time></trkpt><trkpt lat="45.9862801" lon="11.7310217"><ele>357.8</ele><time>2026-04-05T09:07:35.273Z</time></trkpt><trkpt lat="45.9861498" lon="11.7309529"><ele>359.20000000000005</ele><time>2026-04-05T09:07:37.272Z</time></trkpt><trkpt lat="45.9860825" lon="11.7309203"><ele>360.6</ele><time>2026-04-05T09:07:38.272Z</time></trkpt><trkpt lat="45.9860064" lon="11.7308986"><ele>362.0</ele><time>2026-04-05T09:07:39.274Z</time></trkpt><trkpt lat="45.9858964" lon="11.7308282"><ele>366.6666666666667</ele><time>2026-04-05T09:07:41.274Z</time></trkpt><trkpt lat="45.9858435" lon="11.7307683"><ele>371.33333333333337</ele><time>2026-04-05T09:07:42.273Z</time></trkpt><trkpt lat="45.9857936" lon="11.7307095"><ele>376.0</ele><time>2026-04-05T09:07:43.274Z</time></trkpt><trkpt lat="45.9856924" lon="11.7305804"><ele>380.6666666666667</ele><time>2026-04-05T09:07:45.273Z</time></trkpt><trkpt lat="45.9856418" lon="11.730512"><ele>385.3333333333333</ele><time>2026-04-05T09:07:46.273Z</time></trkpt><trkpt lat="45.9855824" lon="11.7304321"><ele>390.0</ele><time>2026-04-05T09:07:48.274Z</time></trkpt><trkpt lat="45.9855365" lon="11.7303549"><ele>390.0</ele><time>2026-04-05T09:07:51.273Z</time></trkpt><trkpt lat="45.9854828" lon="11.7302688"><ele>390.0</ele><time>2026-04-05T09:07:53.273Z</time></trkpt><trkpt lat="45.9854392" lon="11.7301606"><ele>390.0</ele><time>2026-04-05T09:07:55.273Z</time></trkpt><trkpt lat="45.9854095" lon="11.7300538"><ele>390.0</ele><time>2026-04-05T09:07:57.273Z</time></trkpt><trkpt lat="45.985424" lon="11.7299532"><ele>390.0</ele><time>2026-04-05T09:08:10.274Z</time></trkpt><trkpt lat="45.9854459" lon="11.7298212"><ele>390.0</ele><time>2026-04-05T09:08:12.274Z</time></trkpt><trkpt lat="45.9854622" lon="11.7297161"><ele>389.8333333333333</ele><time>2026-04-05T09:08:13.273Z</time></trkpt><trkpt lat="45.9854782" lon="11.7296197"><ele>389.66666666666663</ele><time>2026-04-05T09:08:14.274Z</time></trkpt><trkpt lat="45.9854927" lon="11.729481"><ele>389.5</ele><time>2026-04-05T09:08:16.273Z</time></trkpt><trkpt lat="45.9854623" lon="11.7293523"><ele>389.3333333333333</ele><time>2026-04-05T09:08:18.273Z</time></trkpt><trkpt lat="45.9854126" lon="11.7292943"><ele>389.16666666666663</ele><time>2026-04-05T09:08:19.273Z</time></trkpt><trkpt lat="45.985343" lon="11.7292356"><ele>389.0</ele><time>2026-04-05T09:08:20.273Z</time></trkpt><trkpt lat="45.9852701" lon="11.7291817"><ele>387.8333333333333</ele><time>2026-04-05T09:08:21.274Z</time></trkpt><trkpt lat="45.985209" lon="11.7291238"><ele>386.66666666666663</ele><time>2026-04-05T09:08:22.273Z</time></trkpt><trkpt lat="45.9851394" lon="11.7290363"><ele>385.5</ele><time>2026-04-05T09:08:24.274Z</time></trkpt><trkpt lat="45.9851001" lon="11.7289407"><ele>384.3333333333333</ele><time>2026-04-05T09:08:26.273Z</time></trkpt><trkpt lat="45.9851022" lon="11.7288223"><ele>383.16666666666663</ele><time>2026-04-05T09:08:29.273Z</time></trkpt><trkpt lat="45.9851067" lon="11.728706"><ele>382.0</ele><time>2026-04-05T09:08:31.275Z</time></trkpt><trkpt lat="45.9851077" lon="11.7285957"><ele>380.0</ele><time>2026-04-05T09:08:33.273Z</time></trkpt><trkpt lat="45.9851402" lon="11.7284774"><ele>378.0</ele><time>2026-04-05T09:08:39.274Z</time></trkpt><trkpt lat="45.9852057" lon="11.7283852"><ele>376.0</ele><time>2026-04-05T09:08:41.274Z</time></trkpt><trkpt lat="45.9852471" lon="11.7282794"><ele>374.0</ele><time>2026-04-05T09:08:45.273Z</time></trkpt><trkpt lat="45.9852777" lon="11.7281675"><ele>372.0</ele><time>2026-04-05T09:08:59.275Z</time></trkpt><trkpt lat="45.9853675" lon="11.7281062"><ele>370.0</ele><time>2026-04-05T09:09:01.274Z</time></trkpt><trkpt lat="45.9854558" lon="11.7280539"><ele>370.0</ele><time>2026-04-05T09:09:03.274Z</time></trkpt><trkpt lat="45.9855231" lon="11.7279789"><ele>370.0</ele><time>2026-04-05T09:09:10.274Z</time></trkpt><trkpt lat="45.9856194" lon="11.7278937"><ele>370.0</ele><time>2026-04-05T09:09:12.275Z</time></trkpt><trkpt lat="45.9856928" lon="11.7278174"><ele>370.0</ele><time>2026-04-05T09:09:14.275Z</time></trkpt><trkpt lat="45.9857212" lon="11.7279134"><ele>370.0</ele><time>2026-04-05T09:09:17.274Z</time></trkpt><trkpt lat="45.9856514" lon="11.7279922"><ele>370.0</ele><time>2026-04-05T09:09:20.274Z</time></trkpt><trkpt lat="45.9855559" lon="11.728035"><ele>370.0</ele><time>2026-04-05T09:09:23.274Z</time></trkpt><trkpt lat="45.985426" lon="11.7280974"><ele>370.0</ele><time>2026-04-05T09:09:25.275Z</time></trkpt><trkpt lat="45.9853371" lon="11.7281381"><ele>370.0</ele><time>2026-04-05T09:09:26.274Z</time></trkpt><trkpt lat="45.9852643" lon="11.7281737"><ele>370.0</ele><time>2026-04-05T09:09:27.275Z</time></trkpt><trkpt lat="45.9852148" lon="11.7282475"><ele>370.0</ele><time>2026-04-05T09:09:29.276Z</time></trkpt><trkpt lat="45.9852215" lon="11.7283663"><ele>370.0</ele><time>2026-04-05T09:09:31.274Z</time></trkpt><trkpt lat="45.9851386" lon="11.7284723"><ele>370.0</ele><time>2026-04-05T09:09:34.276Z</time></trkpt><trkpt lat="45.9850832" lon="11.7285218"><ele>370.0</ele><time>2026-04-05T09:09:35.274Z</time></trkpt><trkpt lat="45.9850135" lon="11.728629"><ele>370.0</ele><time>2026-04-05T09:09:37.276Z</time></trkpt><trkpt lat="45.985" lon="11.7287216"><ele>370.0</ele><time>2026-04-05T09:09:39.275Z</time></trkpt><trkpt lat="45.9850204" lon="11.7288155"><ele>370.0</ele><time>2026-04-05T09:09:40.275Z</time></trkpt><trkpt lat="45.9850904" lon="11.7288309"><ele>370.0</ele><time>2026-04-05T09:09:41.276Z</time></trkpt><trkpt lat="45.9851607" lon="11.728796"><ele>370.0</ele><time>2026-04-05T09:09:42.274Z</time></trkpt><trkpt lat="45.9852458" lon="11.728722"><ele>370.0</ele><time>2026-04-05T09:09:43.276Z</time></trkpt><trkpt lat="45.9853248" lon="11.7286335"><ele>370.0</ele><time>2026-04-05T09:09:44.275Z</time></trkpt><trkpt lat="45.9854026" lon="11.7285653"><ele>370.0</ele><time>2026-04-05T09:09:45.276Z</time></trkpt><trkpt lat="45.9854803" lon="11.7285171"><ele>370.0</ele><time>2026-04-05T09:09:47.274Z</time></trkpt><trkpt lat="45.9855289" lon="11.7284529"><ele>370.0</ele><time>2026-04-05T09:09:49.275Z</time></trkpt><trkpt lat="45.9855546" lon="11.7283125"><ele>370.0</ele><time>2026-04-05T09:09:51.275Z</time></trkpt><trkpt lat="45.9855879" lon="11.7282151"><ele>370.0</ele><time>2026-04-05T09:09:53.275Z</time></trkpt><trkpt lat="45.985676" lon="11.7281739"><ele>370.0</ele><time>2026-04-05T09:09:55.276Z</time></trkpt><trkpt lat="45.9857937" lon="11.7281232"><ele>370.0</ele><time>2026-04-05T09:09:57.275Z</time></trkpt><trkpt lat="45.9858598" lon="11.7281014"><ele>370.0</ele><time>2026-04-05T09:09:58.277Z</time></trkpt><trkpt lat="45.9859362" lon="11.7280668"><ele>370.0</ele><time>2026-04-05T09:10:00.275Z</time></trkpt><trkpt lat="45.9859286" lon="11.7279765"><ele>370.0</ele><time>2026-04-05T09:10:04.276Z</time></trkpt><trkpt lat="45.9858634" lon="11.7279239"><ele>370.0</ele><time>2026-04-05T09:10:14.275Z</time></trkpt><trkpt lat="45.9857745" lon="11.7279974"><ele>370.0</ele><time>2026-04-05T09:10:16.275Z</time></trkpt><trkpt lat="45.9857088" lon="11.7280383"><ele>370.0</ele><time>2026-04-05T09:10:19.276Z</time></trkpt><trkpt lat="45.9857042" lon="11.7279427"><ele>370.0</ele><time>2026-04-05T09:10:22.276Z</time></trkpt><trkpt lat="45.9857649" lon="11.7278758"><ele>370.0</ele><time>2026-04-05T09:10:24.276Z</time></trkpt><trkpt lat="45.9857599" lon="11.7277675"><ele>370.0</ele><time>2026-04-05T09:10:29.276Z</time></trkpt><trkpt lat="45.9856722" lon="11.7277145"><ele>370.0</ele><time>2026-04-05T09:10:33.276Z</time></trkpt><trkpt lat="45.9855472" lon="11.7276475"><ele>370.0</ele><time>2026-04-05T09:10:35.276Z</time></trkpt><trkpt lat="45.9854352" lon="11.727589"><ele>370.0</ele><time>2026-04-05T09:10:37.276Z</time></trkpt><trkpt lat="45.9853905" lon="11.727689"><ele>370.0</ele><time>2026-04-05T09:10:39.275Z</time></trkpt><trkpt lat="45.9853647" lon="11.7277741"><ele>370.0</ele><time>2026-04-05T09:10:40.276Z</time></trkpt><trkpt lat="45.9852958" lon="11.7278852"><ele>370.0</ele><time>2026-04-05T09:10:42.276Z</time></trkpt><trkpt lat="45.9852208" lon="11.7278906"><ele>370.0</ele><time>2026-04-05T09:10:44.275Z</time></trkpt><trkpt lat="45.9851567" lon="11.7278958"><ele>370.0</ele><time>2026-04-05T09:10:46.275Z</time></trkpt><trkpt lat="45.9850689" lon="11.72795"><ele>370.0</ele><time>2026-04-05T09:10:54.276Z</time></trkpt><trkpt lat="45.9850179" lon="11.7280143"><ele>370.0</ele><time>2026-04-05T09:10:55.277Z</time></trkpt><trkpt lat="45.9849378" lon="11.7281356"><ele>370.0</ele><time>2026-04-05T09:10:57.277Z</time></trkpt><trkpt lat="45.9848724" lon="11.7282161"><ele>370.0</ele><time>2026-04-05T09:10:59.276Z</time></trkpt><trkpt lat="45.9848693" lon="11.7283398"><ele>370.0</ele><time>2026-04-05T09:11:02.276Z</time></trkpt><trkpt lat="45.9849526" lon="11.7284205"><ele>370.0</ele><time>2026-04-05T09:11:06.277Z</time></trkpt><trkpt lat="45.9850373" lon="11.7284807"><ele>370.0</ele><time>2026-04-05T09:11:08.276Z</time></trkpt><trkpt lat="45.9851052" lon="11.7284694"><ele>370.0</ele><time>2026-04-05T09:11:09.276Z</time></trkpt><trkpt lat="45.9852079" lon="11.7283862"><ele>370.0</ele><time>2026-04-05T09:11:11.277Z</time></trkpt><trkpt lat="45.9852677" lon="11.7282592"><ele>370.0</ele><time>2026-04-05T09:11:13.276Z</time></trkpt><trkpt lat="45.9852727" lon="11.7281387"><ele>370.0</ele><time>2026-04-05T09:11:15.277Z</time></trkpt><trkpt lat="45.985178" lon="11.7280724"><ele>370.0</ele><time>2026-04-05T09:11:17.276Z</time></trkpt><trkpt lat="45.9851145" lon="11.7281119"><ele>370.0</ele><time>2026-04-05T09:11:18.277Z</time></trkpt><trkpt lat="45.9850643" lon="11.7281791"><ele>370.0</ele><time>2026-04-05T09:11:19.277Z</time></trkpt><trkpt lat="45.9850108" lon="11.7282674"><ele>370.0</ele><time>2026-04-05T09:11:20.277Z</time></trkpt><trkpt lat="45.9850091" lon="11.7281372"><ele>370.0</ele><time>2026-04-05T09:11:25.277Z</time></trkpt><trkpt lat="45.9850835" lon="11.7280832"><ele>370.0</ele><time>2026-04-05T09:11:26.276Z</time></trkpt><trkpt lat="45.9851771" lon="11.7280422"><ele>370.0</ele><time>2026-04-05T09:11:27.276Z</time></trkpt><trkpt lat="45.9852711" lon="11.7280339"><ele>370.0</ele><time>2026-04-05T09:11:28.277Z</time></trkpt><trkpt lat="45.9853613" lon="11.7279818"><ele>370.0</ele><time>2026-04-05T09:11:29.277Z</time></trkpt><trkpt lat="45.9854308" lon="11.7279216"><ele>370.0</ele><time>2026-04-05T09:11:30.276Z</time></trkpt><trkpt lat="45.9854882" lon="11.7278475"><ele>370.0</ele><time>2026-04-05T09:11:31.276Z</time></trkpt><trkpt lat="45.985537" lon="11.7277697"><ele>370.0</ele><time>2026-04-05T09:11:32.276Z</time></trkpt><trkpt lat="45.9856183" lon="11.7277271"><ele>370.0</ele><time>2026-04-05T09:11:34.277Z</time></trkpt><trkpt lat="45.9856404" lon="11.7278155"><ele>370.0</ele><time>2026-04-05T09:11:36.276Z</time></trkpt><trkpt lat="45.9855567" lon="11.72791"><ele>370.0</ele><time>2026-04-05T09:11:38.276Z</time></trkpt><trkpt lat="45.9854889" lon="11.7279553"><ele>370.0</ele><time>2026-04-05T09:11:39.277Z</time></trkpt><trkpt lat="45.985422" lon="11.7279966"><ele>370.0</ele><time>2026-04-05T09:11:40.276Z</time></trkpt><trkpt lat="45.9855072" lon="11.7279989"><ele>370.0</ele><time>2026-04-05T09:11:50.276Z</time></trkpt><trkpt lat="45.9855601" lon="11.727884"><ele>370.0</ele><time>2026-04-05T09:11:53.277Z</time></trkpt><trkpt lat="45.9856222" lon="11.727795"><ele>370.0</ele><time>2026-04-05T09:11:55.277Z</time></trkpt><trkpt lat="45.9855754" lon="11.7277244"><ele>370.0</ele><time>2026-04-05T09:11:57.276Z</time></trkpt><trkpt lat="45.9855119" lon="11.7277307"><ele>370.0</ele><time>2026-04-05T09:11:58.276Z</time></trkpt><trkpt lat="45.9854473" lon="11.7278004"><ele>370.0</ele><time>2026-04-05T09:11:59.277Z</time></trkpt><trkpt lat="45.9853757" lon="11.7279073"><ele>370.0</ele><time>2026-04-05T09:12:00.276Z</time></trkpt><trkpt lat="45.9852978" lon="11.7280003"><ele>370.0</ele><time>2026-04-05T09:12:01.278Z</time></trkpt><trkpt lat="45.9852272" lon="11.7280551"><ele>370.0</ele><time>2026-04-05T09:12:02.277Z</time></trkpt><trkpt lat="45.9851442" lon="11.7280839"><ele>370.0</ele><time>2026-04-05T09:12:03.277Z</time></trkpt><trkpt lat="45.9850546" lon="11.7281117"><ele>370.0</ele><time>2026-04-05T09:12:04.277Z</time></trkpt><trkpt lat="45.9849699" lon="11.7281447"><ele>370.0</ele><time>2026-04-05T09:12:05.278Z</time></trkpt><trkpt lat="45.9849051" lon="11.7282423"><ele>370.0</ele><time>2026-04-05T09:12:07.277Z</time></trkpt><trkpt lat="45.9849521" lon="11.7283157"><ele>370.0</ele><time>2026-04-05T09:12:09.277Z</time></trkpt><trkpt lat="45.9850464" lon="11.7282408"><ele>370.0</ele><time>2026-04-05T09:12:12.277Z</time></trkpt><trkpt lat="45.985151" lon="11.7281136"><ele>370.0</ele><time>2026-04-05T09:12:13.277Z</time></trkpt><trkpt lat="45.9852388" lon="11.7281281"><ele>370.0</ele><time>2026-04-05T09:12:15.277Z</time></trkpt><trkpt lat="45.9852392" lon="11.7282503"><ele>370.0</ele><time>2026-04-05T09:12:17.277Z</time></trkpt><trkpt lat="45.9852197" lon="11.7283398"><ele>370.0</ele><time>2026-04-05T09:12:18.277Z</time></trkpt><trkpt lat="45.9851832" lon="11.7284217"><ele>370.0</ele><time>2026-04-05T09:12:19.278Z</time></trkpt><trkpt lat="45.9851318" lon="11.7284918"><ele>370.0</ele><time>2026-04-05T09:12:20.278Z</time></trkpt><trkpt lat="45.9850678" lon="11.7285428"><ele>370.0</ele><time>2026-04-05T09:12:21.277Z</time></trkpt><trkpt lat="45.9849679" lon="11.7284677"><ele>370.0</ele><time>2026-04-05T09:12:23.277Z</time></trkpt><trkpt lat="45.9848969" lon="11.7283658"><ele>370.0</ele><time>2026-04-05T09:12:25.277Z</time></trkpt><trkpt lat="45.9848825" lon="11.7282311"><ele>370.0</ele><time>2026-04-05T09:12:27.277Z</time></trkpt><trkpt lat="45.9849428" lon="11.7281278"><ele>370.0</ele><time>2026-04-05T09:12:30.277Z</time></trkpt><trkpt lat="45.9850083" lon="11.7280705"><ele>370.0</ele><time>2026-04-05T09:12:31.277Z</time></trkpt><trkpt lat="45.9850981" lon="11.7279835"><ele>370.0</ele><time>2026-04-05T09:12:32.277Z</time></trkpt><trkpt lat="45.9851876" lon="11.7279178"><ele>370.0</ele><time>2026-04-05T09:12:33.277Z</time></trkpt><trkpt lat="45.9852603" lon="11.7278931"><ele>370.0</ele><time>2026-04-05T09:12:34.277Z</time></trkpt><trkpt lat="45.9853363" lon="11.727881"><ele>370.0</ele><time>2026-04-05T09:12:35.277Z</time></trkpt><trkpt lat="45.9854256" lon="11.7278237"><ele>370.0</ele><time>2026-04-05T09:12:37.277Z</time></trkpt><trkpt lat="45.9854591" lon="11.7276543"><ele>370.0</ele><time>2026-04-05T09:12:39.278Z</time></trkpt><trkpt lat="45.9854956" lon="11.7275675"><ele>370.0</ele><time>2026-04-05T09:12:41.277Z</time></trkpt><trkpt lat="45.9855705" lon="11.7276274"><ele>369.99999999999994</ele><time>2026-04-05T09:12:43.279Z</time></trkpt><trkpt lat="45.9856307" lon="11.7276807"><ele>370.0</ele><time>2026-04-05T09:12:44.278Z</time></trkpt><trkpt lat="45.9856985" lon="11.7277093"><ele>370.0</ele><time>2026-04-05T09:12:45.278Z</time></trkpt><trkpt lat="45.98577" lon="11.727744"><ele>370.0</ele><time>2026-04-05T09:12:47.279Z</time></trkpt><trkpt lat="45.985793" lon="11.7278612"><ele>370.0</ele><time>2026-04-05T09:12:50.277Z</time></trkpt><trkpt lat="45.9857758" lon="11.7279537"><ele>369.99999999999994</ele><time>2026-04-05T09:12:53.279Z</time></trkpt><trkpt lat="45.9857585" lon="11.7280625"><ele>370.0</ele><time>2026-04-05T09:12:56.278Z</time></trkpt><trkpt lat="45.98572" lon="11.7281371"><ele>370.0</ele><time>2026-04-05T09:12:58.277Z</time></trkpt><trkpt lat="45.9856568" lon="11.7282011"><ele>370.0</ele><time>2026-04-05T09:13:01.277Z</time></trkpt><trkpt lat="45.9855604" lon="11.7282184"><ele>370.0</ele><time>2026-04-05T09:13:04.279Z</time></trkpt><trkpt lat="45.9855135" lon="11.7283029"><ele>370.0</ele><time>2026-04-05T09:13:07.278Z</time></trkpt><trkpt lat="45.9855102" lon="11.7284204"><ele>370.0</ele><time>2026-04-05T09:13:10.278Z</time></trkpt><trkpt lat="45.9854609" lon="11.7284985"><ele>370.0</ele><time>2026-04-05T09:13:12.278Z</time></trkpt><trkpt lat="45.9853735" lon="11.7285359"><ele>372.4</ele><time>2026-04-05T09:13:14.278Z</time></trkpt><trkpt lat="45.9852589" lon="11.7286379"><ele>374.8</ele><time>2026-04-05T09:13:16.278Z</time></trkpt><trkpt lat="45.9851719" lon="11.728754"><ele>377.20000000000005</ele><time>2026-04-05T09:13:18.279Z</time></trkpt><trkpt lat="45.9851327" lon="11.7288392"><ele>379.6</ele><time>2026-04-05T09:13:20.278Z</time></trkpt><trkpt lat="45.985088" lon="11.7289058"><ele>382.0</ele><time>2026-04-05T09:13:23.278Z</time></trkpt><trkpt lat="45.9851053" lon="11.7290124"><ele>382.0</ele><time>2026-04-05T09:13:25.278Z</time></trkpt><trkpt lat="45.9851628" lon="11.7291008"><ele>382.0</ele><time>2026-04-05T09:13:27.278Z</time></trkpt><trkpt lat="45.9852681" lon="11.7292002"><ele>382.0</ele><time>2026-04-05T09:13:41.279Z</time></trkpt><trkpt lat="45.9853326" lon="11.7292697"><ele>382.0</ele><time>2026-04-05T09:13:42.279Z</time></trkpt><trkpt lat="45.9853946" lon="11.7293564"><ele>382.0</ele><time>2026-04-05T09:13:43.279Z</time></trkpt><trkpt lat="45.9854421" lon="11.7295159"><ele>383.16666666666663</ele><time>2026-04-05T09:13:45.28Z</time></trkpt><trkpt lat="45.985426" lon="11.729691"><ele>384.3333333333333</ele><time>2026-04-05T09:13:47.278Z</time></trkpt><trkpt lat="45.9854128" lon="11.7297967"><ele>385.5</ele><time>2026-04-05T09:13:48.279Z</time></trkpt><trkpt lat="45.9853889" lon="11.7298974"><ele>386.66666666666663</ele><time>2026-04-05T09:13:49.279Z</time></trkpt><trkpt lat="45.9853196" lon="11.7299279"><ele>387.8333333333333</ele><time>2026-04-05T09:14:00.279Z</time></trkpt><trkpt lat="45.9852607" lon="11.7298467"><ele>389.0</ele><time>2026-04-05T09:14:02.279Z</time></trkpt><trkpt lat="45.98518" lon="11.7297601"><ele>388.99999999999994</ele><time>2026-04-05T09:14:04.278Z</time></trkpt><trkpt lat="45.9850981" lon="11.7296855"><ele>389.0</ele><time>2026-04-05T09:14:06.279Z</time></trkpt><trkpt lat="45.9850312" lon="11.7296111"><ele>389.0</ele><time>2026-04-05T09:14:08.279Z</time></trkpt><trkpt lat="45.9849725" lon="11.7295506"><ele>389.0</ele><time>2026-04-05T09:14:10.28Z</time></trkpt><trkpt lat="45.9848948" lon="11.7295128"><ele>388.99999999999994</ele><time>2026-04-05T09:14:12.279Z</time></trkpt><trkpt lat="45.9848148" lon="11.7294684"><ele>389.0</ele><time>2026-04-05T09:14:14.28Z</time></trkpt><trkpt lat="45.9847569" lon="11.7294167"><ele>390.66666666666663</ele><time>2026-04-05T09:14:16.28Z</time></trkpt><trkpt lat="45.984693" lon="11.7293858"><ele>392.3333333333333</ele><time>2026-04-05T09:14:18.28Z</time></trkpt><trkpt lat="45.9846183" lon="11.729374"><ele>394.0</ele><time>2026-04-05T09:14:20.279Z</time></trkpt><trkpt lat="45.9845549" lon="11.7293573"><ele>395.66666666666663</ele><time>2026-04-05T09:14:22.279Z</time></trkpt><trkpt lat="45.9844788" lon="11.7293214"><ele>397.3333333333333</ele><time>2026-04-05T09:14:24.279Z</time></trkpt><trkpt lat="45.9843839" lon="11.7292689"><ele>399.0</ele><time>2026-04-05T09:14:26.28Z</time></trkpt><trkpt lat="45.9842894" lon="11.7292245"><ele>399.0</ele><time>2026-04-05T09:14:28.28Z</time></trkpt><trkpt lat="45.9842496" lon="11.7291274"><ele>399.0</ele><time>2026-04-05T09:14:31.279Z</time></trkpt><trkpt lat="45.9842082" lon="11.729052"><ele>399.0</ele><time>2026-04-05T09:14:33.28Z</time></trkpt><trkpt lat="45.9841478" lon="11.7289423"><ele>399.0</ele><time>2026-04-05T09:14:36.28Z</time></trkpt><trkpt lat="45.9840868" lon="11.7288426"><ele>399.0</ele><time>2026-04-05T09:14:38.279Z</time></trkpt><trkpt lat="45.9840133" lon="11.7287352"><ele>399.0</ele><time>2026-04-05T09:14:40.279Z</time></trkpt><trkpt lat="45.9839458" lon="11.7286594"><ele>403.4</ele><time>2026-04-05T09:14:42.28Z</time></trkpt><trkpt lat="45.9838956" lon="11.7285708"><ele>407.79999999999995</ele><time>2026-04-05T09:14:44.279Z</time></trkpt><trkpt lat="45.9838353" lon="11.7284872"><ele>412.20000000000005</ele><time>2026-04-05T09:14:46.28Z</time></trkpt><trkpt lat="45.9837717" lon="11.7283921"><ele>416.6</ele><time>2026-04-05T09:14:48.279Z</time></trkpt><trkpt lat="45.9837047" lon="11.7282898"><ele>421.0</ele><time>2026-04-05T09:14:50.279Z</time></trkpt><trkpt lat="45.9836276" lon="11.7281924"><ele>421.00000000000006</ele><time>2026-04-05T09:14:52.279Z</time></trkpt><trkpt lat="45.9835491" lon="11.7281059"><ele>421.0</ele><time>2026-04-05T09:14:54.279Z</time></trkpt><trkpt lat="45.9834983" lon="11.7280518"><ele>421.0</ele><time>2026-04-05T09:14:56.281Z</time></trkpt><trkpt lat="45.9834168" lon="11.7280162"><ele>421.0</ele><time>2026-04-05T09:14:58.28Z</time></trkpt><trkpt lat="45.9833592" lon="11.7279767"><ele>421.0</ele><time>2026-04-05T09:15:01.28Z</time></trkpt><trkpt lat="45.9833445" lon="11.727887"><ele>421.00000000000006</ele><time>2026-04-05T09:15:11.28Z</time></trkpt><trkpt lat="45.9833119" lon="11.7277971"><ele>421.0</ele><time>2026-04-05T09:15:13.28Z</time></trkpt><trkpt lat="45.9832538" lon="11.7277358"><ele>429.00000000000006</ele><time>2026-04-05T09:15:15.28Z</time></trkpt><trkpt lat="45.9831846" lon="11.7277854"><ele>437.0</ele><time>2026-04-05T09:15:20.281Z</time></trkpt><trkpt lat="45.9831085" lon="11.7278661"><ele>445.0</ele><time>2026-04-05T09:15:22.28Z</time></trkpt><trkpt lat="45.9830189" lon="11.7279442"><ele>453.0</ele><time>2026-04-05T09:15:24.28Z</time></trkpt><trkpt lat="45.982951" lon="11.7279634"><ele>461.00000000000006</ele><time>2026-04-05T09:15:25.28Z</time></trkpt><trkpt lat="45.9828741" lon="11.7279709"><ele>469.0</ele><time>2026-04-05T09:15:28.281Z</time></trkpt><trkpt lat="45.9827925" lon="11.7279669"><ele>469.00000000000006</ele><time>2026-04-05T09:15:30.28Z</time></trkpt><trkpt lat="45.9827244" lon="11.7279443"><ele>469.0</ele><time>2026-04-05T09:15:32.28Z</time></trkpt><trkpt lat="45.9826565" lon="11.7278954"><ele>469.0</ele><time>2026-04-05T09:15:34.281Z</time></trkpt><trkpt lat="45.9825981" lon="11.7278116"><ele>469.0</ele><time>2026-04-05T09:15:36.28Z</time></trkpt><trkpt lat="45.9825567" lon="11.7277251"><ele>469.00000000000006</ele><time>2026-04-05T09:15:38.28Z</time></trkpt><trkpt lat="45.9824968" lon="11.727562"><ele>469.0</ele><time>2026-04-05T09:15:40.28Z</time></trkpt><trkpt lat="45.9824353" lon="11.7274551"><ele>471.7142857142857</ele><time>2026-04-05T09:15:42.28Z</time></trkpt><trkpt lat="45.9823824" lon="11.7273888"><ele>474.42857142857144</ele><time>2026-04-05T09:15:45.28Z</time></trkpt><trkpt lat="45.9823064" lon="11.7274144"><ele>477.1428571428571</ele><time>2026-04-05T09:15:57.281Z</time></trkpt><trkpt lat="45.982276" lon="11.7275128"><ele>479.85714285714283</ele><time>2026-04-05T09:16:01.28Z</time></trkpt><trkpt lat="45.9822083" lon="11.7274908"><ele>482.57142857142856</ele><time>2026-04-05T09:16:07.28Z</time></trkpt><trkpt lat="45.9821427" lon="11.7274388"><ele>485.2857142857142</ele><time>2026-04-05T09:16:10.281Z</time></trkpt><trkpt lat="45.9820663" lon="11.7274264"><ele>487.99999999999994</ele><time>2026-04-05T09:16:12.28Z</time></trkpt><trkpt lat="45.9819776" lon="11.7273571"><ele>487.99999999999994</ele><time>2026-04-05T09:16:14.281Z</time></trkpt><trkpt lat="45.981871" lon="11.7273225"><ele>488.0</ele><time>2026-04-05T09:16:16.281Z</time></trkpt><trkpt lat="45.9817977" lon="11.727297"><ele>488.0</ele><time>2026-04-05T09:16:18.282Z</time></trkpt><trkpt lat="45.9817783" lon="11.7272074"><ele>488.0</ele><time>2026-04-05T09:16:27.281Z</time></trkpt><trkpt lat="45.9817191" lon="11.7271527"><ele>487.99999999999994</ele><time>2026-04-05T09:16:31.281Z</time></trkpt><trkpt lat="45.9816542" lon="11.7271164"><ele>488.0</ele><time>2026-04-05T09:16:33.282Z</time></trkpt><trkpt lat="45.9815851" lon="11.7270696"><ele>492.16666666666663</ele><time>2026-04-05T09:16:35.282Z</time></trkpt><trkpt lat="45.9815265" lon="11.7270151"><ele>496.3333333333333</ele><time>2026-04-05T09:16:37.281Z</time></trkpt><trkpt lat="45.9814617" lon="11.7270179"><ele>500.5</ele><time>2026-04-05T09:16:39.281Z</time></trkpt><trkpt lat="45.9813927" lon="11.7270134"><ele>504.66666666666663</ele><time>2026-04-05T09:16:41.281Z</time></trkpt><trkpt lat="45.9813199" lon="11.7270425"><ele>508.8333333333333</ele><time>2026-04-05T09:16:43.281Z</time></trkpt><trkpt lat="45.981217" lon="11.7270837"><ele>513.0</ele><time>2026-04-05T09:16:45.282Z</time></trkpt><trkpt lat="45.9811395" lon="11.727108"><ele>513.0</ele><time>2026-04-05T09:16:47.281Z</time></trkpt><trkpt lat="45.9810775" lon="11.7271973"><ele>513.0</ele><time>2026-04-05T09:16:51.281Z</time></trkpt><trkpt lat="45.9810272" lon="11.7272612"><ele>513.0</ele><time>2026-04-05T09:16:54.283Z</time></trkpt><trkpt lat="45.9809774" lon="11.7273513"><ele>513.0</ele><time>2026-04-05T09:16:56.281Z</time></trkpt><trkpt lat="45.9810206" lon="11.7274918"><ele>513.0</ele><time>2026-04-05T09:16:58.281Z</time></trkpt><trkpt lat="45.9810718" lon="11.7275554"><ele>513.0</ele><time>2026-04-05T09:16:59.282Z</time></trkpt><trkpt lat="45.9811583" lon="11.7275856"><ele>513.0000000000001</ele><time>2026-04-05T09:17:01.282Z</time></trkpt><trkpt lat="45.9812291" lon="11.7276233"><ele>513.0</ele><time>2026-04-05T09:17:03.283Z</time></trkpt><trkpt lat="45.9812821" lon="11.7276759"><ele>513.0</ele><time>2026-04-05T09:17:05.282Z</time></trkpt><trkpt lat="45.9813599" lon="11.7277326"><ele>513.0</ele><time>2026-04-05T09:17:13.282Z</time></trkpt><trkpt lat="45.9814149" lon="11.7277862"><ele>513.0</ele><time>2026-04-05T09:17:17.282Z</time></trkpt><trkpt lat="45.9814752" lon="11.7278397"><ele>513.0000000000001</ele><time>2026-04-05T09:17:37.283Z</time></trkpt><trkpt lat="45.9815417" lon="11.7278913"><ele>513.0</ele><time>2026-04-05T09:17:39.283Z</time></trkpt><trkpt lat="45.9816329" lon="11.7279292"><ele>512.3333333333334</ele><time>2026-04-05T09:17:41.282Z</time></trkpt><trkpt lat="45.9816948" lon="11.7279555"><ele>511.66666666666663</ele><time>2026-04-05T09:17:42.283Z</time></trkpt><trkpt lat="45.9818045" lon="11.7280217"><ele>511.0</ele><time>2026-04-05T09:17:44.282Z</time></trkpt><trkpt lat="45.9818634" lon="11.7280583"><ele>510.3333333333333</ele><time>2026-04-05T09:17:45.283Z</time></trkpt><trkpt lat="45.9819298" lon="11.7281076"><ele>509.66666666666663</ele><time>2026-04-05T09:17:46.283Z</time></trkpt><trkpt lat="45.9820099" lon="11.7281947"><ele>509.0</ele><time>2026-04-05T09:17:48.283Z</time></trkpt><trkpt lat="45.9820689" lon="11.7282693"><ele>508.99999999999994</ele><time>2026-04-05T09:17:49.283Z</time></trkpt><trkpt lat="45.9821196" lon="11.7283534"><ele>509.0</ele><time>2026-04-05T09:17:50.283Z</time></trkpt><trkpt lat="45.9821926" lon="11.7284645"><ele>509.0</ele><time>2026-04-05T09:17:52.282Z</time></trkpt><trkpt lat="45.9822177" lon="11.7285795"><ele>509.0</ele><time>2026-04-05T09:17:54.283Z</time></trkpt><trkpt lat="45.9822237" lon="11.7287297"><ele>508.99999999999994</ele><time>2026-04-05T09:17:56.283Z</time></trkpt><trkpt lat="45.9822384" lon="11.7288254"><ele>509.0</ele><time>2026-04-05T09:17:57.282Z</time></trkpt><trkpt lat="45.9822579" lon="11.7289172"><ele>511.0</ele><time>2026-04-05T09:17:58.282Z</time></trkpt><trkpt lat="45.9822974" lon="11.7290482"><ele>513.0</ele><time>2026-04-05T09:17:59.283Z</time></trkpt><trkpt lat="45.9823388" lon="11.7291797"><ele>515.0</ele><time>2026-04-05T09:18:00.283Z</time></trkpt><trkpt lat="45.9823744" lon="11.7293213"><ele>517.0</ele><time>2026-04-05T09:18:01.282Z</time></trkpt><trkpt lat="45.9824125" lon="11.7294684"><ele>519.0</ele><time>2026-04-05T09:18:02.283Z</time></trkpt><trkpt lat="45.9824492" lon="11.7295719"><ele>521.3333333333334</ele><time>2026-04-05T09:18:03.283Z</time></trkpt><trkpt lat="45.9824796" lon="11.729699"><ele>523.6666666666666</ele><time>2026-04-05T09:18:05.283Z</time></trkpt><trkpt lat="45.9824802" lon="11.7298416"><ele>526.0</ele><time>2026-04-05T09:18:07.282Z</time></trkpt><trkpt lat="45.9824609" lon="11.7299392"><ele>528.3333333333333</ele><time>2026-04-05T09:18:09.283Z</time></trkpt><trkpt lat="45.9824996" lon="11.7300119"><ele>530.6666666666666</ele><time>2026-04-05T09:18:14.284Z</time></trkpt><trkpt lat="45.9825991" lon="11.7300799"><ele>533.0</ele><time>2026-04-05T09:18:16.284Z</time></trkpt><trkpt lat="45.9826941" lon="11.7301728"><ele>529.1666666666666</ele><time>2026-04-05T09:18:18.282Z</time></trkpt><trkpt lat="45.9827463" lon="11.7302504"><ele>525.3333333333333</ele><time>2026-04-05T09:18:19.283Z</time></trkpt><trkpt lat="45.9827951" lon="11.7303134"><ele>521.5</ele><time>2026-04-05T09:18:20.283Z</time></trkpt><trkpt lat="45.9828458" lon="11.7303786"><ele>517.6666666666666</ele><time>2026-04-05T09:18:21.284Z</time></trkpt><trkpt lat="45.982911" lon="11.7304405"><ele>513.8333333333334</ele><time>2026-04-05T09:18:23.284Z</time></trkpt><trkpt lat="45.9828448" lon="11.7303365"><ele>510.0</ele><time>2026-04-05T09:19:58.284Z</time></trkpt><trkpt lat="45.9827887" lon="11.7302548"><ele>507.5</ele><time>2026-04-05T09:19:59.284Z</time></trkpt><trkpt lat="45.9827151" lon="11.7301556"><ele>505.0</ele><time>2026-04-05T09:20:00.284Z</time></trkpt><trkpt lat="45.98264" lon="11.7300724"><ele>502.5</ele><time>2026-04-05T09:20:01.285Z</time></trkpt><trkpt lat="45.9825745" lon="11.7300187"><ele>500.0</ele><time>2026-04-05T09:20:02.285Z</time></trkpt><trkpt lat="45.9825125" lon="11.7299788"><ele>497.5</ele><time>2026-04-05T09:20:03.284Z</time></trkpt><trkpt lat="45.9824534" lon="11.7299409"><ele>495.0</ele><time>2026-04-05T09:20:05.284Z</time></trkpt><trkpt lat="45.9823884" lon="11.7299085"><ele>501.3333333333333</ele><time>2026-04-05T09:20:39.285Z</time></trkpt><trkpt lat="45.9823474" lon="11.7298341"><ele>507.66666666666663</ele><time>2026-04-05T09:23:38.289Z</time></trkpt><trkpt lat="45.9822802" lon="11.7297478"><ele>514.0</ele><time>2026-04-05T09:23:40.288Z</time></trkpt><trkpt lat="45.9822063" lon="11.7296759"><ele>520.3333333333333</ele><time>2026-04-05T09:23:42.287Z</time></trkpt><trkpt lat="45.9821204" lon="11.7295984"><ele>526.6666666666666</ele><time>2026-04-05T09:23:44.288Z</time></trkpt><trkpt lat="45.9820643" lon="11.729525"><ele>533.0</ele><time>2026-04-05T09:23:48.288Z</time></trkpt><trkpt lat="45.9820027" lon="11.7294969"><ele>533.0</ele><time>2026-04-05T09:23:50.287Z</time></trkpt><trkpt lat="45.9819038" lon="11.7294861"><ele>533.0</ele><time>2026-04-05T09:23:52.288Z</time></trkpt><trkpt lat="45.9818162" lon="11.7293867"><ele>533.0</ele><time>2026-04-05T09:24:05.288Z</time></trkpt><trkpt lat="45.9817669" lon="11.7293251"><ele>533.0</ele><time>2026-04-05T09:24:06.288Z</time></trkpt><trkpt lat="45.9816708" lon="11.7292441"><ele>533.0</ele><time>2026-04-05T09:24:08.288Z</time></trkpt><trkpt lat="45.9816055" lon="11.7292329"><ele>535.6</ele><time>2026-04-05T09:24:09.289Z</time></trkpt><trkpt lat="45.9814985" lon="11.7292259"><ele>538.1999999999999</ele><time>2026-04-05T09:24:11.288Z</time></trkpt><trkpt lat="45.9814214" lon="11.7291408"><ele>540.8</ele><time>2026-04-05T09:24:13.289Z</time></trkpt><trkpt lat="45.9813109" lon="11.7290787"><ele>543.4</ele><time>2026-04-05T09:24:15.289Z</time></trkpt><trkpt lat="45.9812494" lon="11.7290425"><ele>546.0</ele><time>2026-04-05T09:24:16.288Z</time></trkpt><trkpt lat="45.9811834" lon="11.7289864"><ele>546.0</ele><time>2026-04-05T09:24:17.289Z</time></trkpt><trkpt lat="45.9811075" lon="11.728929"><ele>546.0</ele><time>2026-04-05T09:24:18.288Z</time></trkpt><trkpt lat="45.9810407" lon="11.7288842"><ele>546.0</ele><time>2026-04-05T09:24:19.288Z</time></trkpt><trkpt lat="45.9809646" lon="11.7287761"><ele>546.0</ele><time>2026-04-05T09:24:21.288Z</time></trkpt><trkpt lat="45.9808908" lon="11.7287122"><ele>546.0</ele><time>2026-04-05T09:24:23.288Z</time></trkpt><trkpt lat="45.9808187" lon="11.7287092"><ele>546.0</ele><time>2026-04-05T09:24:25.288Z</time></trkpt><trkpt lat="45.9807421" lon="11.7287114"><ele>546.5714285714286</ele><time>2026-04-05T09:24:28.288Z</time></trkpt><trkpt lat="45.9806842" lon="11.7286453"><ele>547.1428571428571</ele><time>2026-04-05T09:24:30.288Z</time></trkpt><trkpt lat="45.9806152" lon="11.7286044"><ele>547.7142857142858</ele><time>2026-04-05T09:24:32.288Z</time></trkpt><trkpt lat="45.9805536" lon="11.7286345"><ele>548.2857142857142</ele><time>2026-04-05T09:24:36.289Z</time></trkpt><trkpt lat="45.9804694" lon="11.7286049"><ele>548.8571428571429</ele><time>2026-04-05T09:24:39.288Z</time></trkpt><trkpt lat="45.9804006" lon="11.7285706"><ele>549.4285714285714</ele><time>2026-04-05T09:24:41.289Z</time></trkpt><trkpt lat="45.9803454" lon="11.72851"><ele>550.0</ele><time>2026-04-05T09:24:43.288Z</time></trkpt><trkpt lat="45.9803155" lon="11.7284217"><ele>550.0</ele><time>2026-04-05T09:24:46.288Z</time></trkpt><trkpt lat="45.9802432" lon="11.7283683"><ele>550.0</ele><time>2026-04-05T09:24:59.29Z</time></trkpt><trkpt lat="45.9801399" lon="11.7283083"><ele>550.0</ele><time>2026-04-05T09:25:01.29Z</time></trkpt><trkpt lat="45.9800478" lon="11.7283079"><ele>550.0</ele><time>2026-04-05T09:25:04.289Z</time></trkpt><trkpt lat="45.9799539" lon="11.7283104"><ele>550.0</ele><time>2026-04-05T09:25:07.289Z</time></trkpt><trkpt lat="45.9798823" lon="11.7283634"><ele>553.6666666666667</ele><time>2026-04-05T09:25:09.289Z</time></trkpt><trkpt lat="45.9798544" lon="11.7284662"><ele>557.3333333333334</ele><time>2026-04-05T09:25:11.289Z</time></trkpt><trkpt lat="45.9798268" lon="11.7285605"><ele>561.0</ele><time>2026-04-05T09:25:17.289Z</time></trkpt><trkpt lat="45.9798019" lon="11.7284518"><ele>564.6666666666666</ele><time>2026-04-05T09:25:20.29Z</time></trkpt><trkpt lat="45.9798648" lon="11.7283423"><ele>568.3333333333333</ele><time>2026-04-05T09:25:22.29Z</time></trkpt><trkpt lat="45.9799238" lon="11.7283065"><ele>572.0</ele><time>2026-04-05T09:25:27.289Z</time></trkpt><trkpt lat="45.9799343" lon="11.7283998"><ele>572.0</ele><time>2026-04-05T09:25:44.29Z</time></trkpt><trkpt lat="45.9798979" lon="11.7284865"><ele>572.0</ele><time>2026-04-05T09:25:49.289Z</time></trkpt><trkpt lat="45.9798471" lon="11.7286319"><ele>572.0</ele><time>2026-04-05T09:25:51.29Z</time></trkpt><trkpt lat="45.9798092" lon="11.7287626"><ele>572.0</ele><time>2026-04-05T09:25:53.29Z</time></trkpt><trkpt lat="45.97979" lon="11.728885"><ele>572.0</ele><time>2026-04-05T09:25:55.289Z</time></trkpt><trkpt lat="45.9797564" lon="11.7290114"><ele>574.0</ele><time>2026-04-05T09:25:57.29Z</time></trkpt><trkpt lat="45.9797442" lon="11.7291787"><ele>576.0</ele><time>2026-04-05T09:25:59.291Z</time></trkpt><trkpt lat="45.9797542" lon="11.7293271"><ele>578.0</ele><time>2026-04-05T09:26:01.289Z</time></trkpt><trkpt lat="45.9797594" lon="11.7294517"><ele>580.0</ele><time>2026-04-05T09:26:03.291Z</time></trkpt><trkpt lat="45.9797831" lon="11.7295525"><ele>582.0</ele><time>2026-04-05T09:26:06.29Z</time></trkpt><trkpt lat="45.979812" lon="11.7296449"><ele>585.2</ele><time>2026-04-05T09:26:08.29Z</time></trkpt><trkpt lat="45.9798401" lon="11.7297622"><ele>588.4000000000001</ele><time>2026-04-05T09:26:10.291Z</time></trkpt><trkpt lat="45.9798745" lon="11.7298722"><ele>591.5999999999999</ele><time>2026-04-05T09:26:12.29Z</time></trkpt><trkpt lat="45.9798915" lon="11.7300056"><ele>594.8</ele><time>2026-04-05T09:26:14.29Z</time></trkpt><trkpt lat="45.9799096" lon="11.7301913"><ele>598.0</ele><time>2026-04-05T09:26:16.29Z</time></trkpt><trkpt lat="45.9799224" lon="11.730281"><ele>600.5</ele><time>2026-04-05T09:26:17.29Z</time></trkpt><trkpt lat="45.9799322" lon="11.7304005"><ele>603.0</ele><time>2026-04-05T09:26:19.291Z</time></trkpt><trkpt lat="45.9799452" lon="11.7305514"><ele>605.5</ele><time>2026-04-05T09:26:22.291Z</time></trkpt><trkpt lat="45.9799473" lon="11.7306499"><ele>608.0</ele><time>2026-04-05T09:26:24.29Z</time></trkpt><trkpt lat="45.9799442" lon="11.7307768"><ele>610.5</ele><time>2026-04-05T09:26:26.29Z</time></trkpt><trkpt lat="45.9798958" lon="11.7308438"><ele>613.0</ele><time>2026-04-05T09:26:29.29Z</time></trkpt><trkpt lat="45.9798223" lon="11.7308401"><ele>613.0</ele><time>2026-04-05T09:26:32.29Z</time></trkpt><trkpt lat="45.9797241" lon="11.730806"><ele>613.0</ele><time>2026-04-05T09:26:35.29Z</time></trkpt><trkpt lat="45.9796347" lon="11.73078"><ele>613.0</ele><time>2026-04-05T09:26:38.291Z</time></trkpt><trkpt lat="45.9795495" lon="11.7307644"><ele>613.0</ele><time>2026-04-05T09:26:41.29Z</time></trkpt><trkpt lat="45.9794592" lon="11.7307121"><ele>613.0</ele><time>2026-04-05T09:26:43.291Z</time></trkpt><trkpt lat="45.9793945" lon="11.7306665"><ele>613.0</ele><time>2026-04-05T09:26:44.29Z</time></trkpt><trkpt lat="45.9793313" lon="11.7306151"><ele>613.0</ele><time>2026-04-05T09:26:45.291Z</time></trkpt><trkpt lat="45.9792786" lon="11.7305628"><ele>613.0</ele><time>2026-04-05T09:26:46.29Z</time></trkpt><trkpt lat="45.9792271" lon="11.7305072"><ele>613.0</ele><time>2026-04-05T09:26:47.292Z</time></trkpt><trkpt lat="45.9791903" lon="11.7304299"><ele>613.0</ele><time>2026-04-05T09:26:48.292Z</time></trkpt><trkpt lat="45.9791389" lon="11.7303197"><ele>613.0</ele><time>2026-04-05T09:26:50.291Z</time></trkpt><trkpt lat="45.979083" lon="11.7302237"><ele>613.0</ele><time>2026-04-05T09:26:52.291Z</time></trkpt><trkpt lat="45.9790258" lon="11.730135"><ele>613.6</ele><time>2026-04-05T09:26:54.292Z</time></trkpt><trkpt lat="45.9789715" lon="11.7300472"><ele>614.1999999999999</ele><time>2026-04-05T09:26:56.291Z</time></trkpt><trkpt lat="45.9788905" lon="11.72999"><ele>614.8</ele><time>2026-04-05T09:26:58.29Z</time></trkpt><trkpt lat="45.9787768" lon="11.7299619"><ele>615.4</ele><time>2026-04-05T09:27:00.292Z</time></trkpt><trkpt lat="45.9786656" lon="11.7299806"><ele>616.0</ele><time>2026-04-05T09:27:02.292Z</time></trkpt><trkpt lat="45.9786151" lon="11.7300355"><ele>616.0</ele><time>2026-04-05T09:27:03.291Z</time></trkpt><trkpt lat="45.978564" lon="11.7301014"><ele>616.0</ele><time>2026-04-05T09:27:04.291Z</time></trkpt><trkpt lat="45.9785136" lon="11.7301726"><ele>616.0</ele><time>2026-04-05T09:27:05.29Z</time></trkpt><trkpt lat="45.9784571" lon="11.7302503"><ele>616.0</ele><time>2026-04-05T09:27:06.291Z</time></trkpt><trkpt lat="45.978402" lon="11.73033"><ele>616.0</ele><time>2026-04-05T09:27:07.292Z</time></trkpt><trkpt lat="45.9783533" lon="11.7304103"><ele>616.0</ele><time>2026-04-05T09:27:08.292Z</time></trkpt><trkpt lat="45.9783149" lon="11.7304975"><ele>616.0</ele><time>2026-04-05T09:27:09.292Z</time></trkpt><trkpt lat="45.9782872" lon="11.7305898"><ele>619.2</ele><time>2026-04-05T09:27:10.292Z</time></trkpt><trkpt lat="45.9782435" lon="11.7307537"><ele>622.4000000000001</ele><time>2026-04-05T09:27:12.292Z</time></trkpt><trkpt lat="45.9782228" lon="11.7308578"><ele>625.6</ele><time>2026-04-05T09:27:13.292Z</time></trkpt><trkpt lat="45.9782075" lon="11.7309695"><ele>628.8000000000001</ele><time>2026-04-05T09:27:14.292Z</time></trkpt><trkpt lat="45.978194" lon="11.7310688"><ele>632.0</ele><time>2026-04-05T09:27:15.292Z</time></trkpt><trkpt lat="45.9781611" lon="11.7312273"><ele>633.0</ele><time>2026-04-05T09:27:17.292Z</time></trkpt><trkpt lat="45.9780722" lon="11.7313032"><ele>634.0</ele><time>2026-04-05T09:27:19.292Z</time></trkpt><trkpt lat="45.9779993" lon="11.7313298"><ele>635.0</ele><time>2026-04-05T09:27:20.292Z</time></trkpt><trkpt lat="45.9779299" lon="11.7313576"><ele>636.0</ele><time>2026-04-05T09:27:21.291Z</time></trkpt><trkpt lat="45.9778593" lon="11.7313936"><ele>637.0</ele><time>2026-04-05T09:27:22.291Z</time></trkpt><trkpt lat="45.977782" lon="11.7314346"><ele>638.0</ele><time>2026-04-05T09:27:23.291Z</time></trkpt><trkpt lat="45.9777122" lon="11.7314685"><ele>638.0</ele><time>2026-04-05T09:27:24.292Z</time></trkpt><trkpt lat="45.9776082" lon="11.7314991"><ele>638.0</ele><time>2026-04-05T09:27:26.292Z</time></trkpt><trkpt lat="45.9775221" lon="11.731459"><ele>638.0</ele><time>2026-04-05T09:27:28.292Z</time></trkpt><trkpt lat="45.9774217" lon="11.7314202"><ele>638.0</ele><time>2026-04-05T09:27:30.292Z</time></trkpt><trkpt lat="45.9773335" lon="11.7314104"><ele>638.0</ele><time>2026-04-05T09:27:32.291Z</time></trkpt><trkpt lat="45.9772593" lon="11.7314253"><ele>639.5</ele><time>2026-04-05T09:27:35.292Z</time></trkpt><trkpt lat="45.9771741" lon="11.7314468"><ele>641.0</ele><time>2026-04-05T09:27:52.291Z</time></trkpt><trkpt lat="45.9771368" lon="11.7315425"><ele>642.5</ele><time>2026-04-05T09:33:31.298Z</time></trkpt><trkpt lat="45.9772121" lon="11.7315868"><ele>644.0</ele><time>2026-04-05T09:34:07.298Z</time></trkpt><trkpt lat="45.9772919" lon="11.7315713"><ele>645.5</ele><time>2026-04-05T09:34:10.297Z</time></trkpt><trkpt lat="45.9773609" lon="11.7316206"><ele>647.0</ele><time>2026-04-05T09:34:13.297Z</time></trkpt><trkpt lat="45.9774415" lon="11.7316924"><ele>647.0</ele><time>2026-04-05T09:34:16.297Z</time></trkpt><trkpt lat="45.9775171" lon="11.7317541"><ele>647.0</ele><time>2026-04-05T09:34:19.298Z</time></trkpt><trkpt lat="45.9776104" lon="11.7318719"><ele>647.0</ele><time>2026-04-05T09:34:21.298Z</time></trkpt><trkpt lat="45.9776624" lon="11.7319345"><ele>647.0</ele><time>2026-04-05T09:34:22.297Z</time></trkpt><trkpt lat="45.9777214" lon="11.731994"><ele>647.0</ele><time>2026-04-05T09:34:24.297Z</time></trkpt><trkpt lat="45.9778121" lon="11.7320607"><ele>646.1666666666666</ele><time>2026-04-05T09:34:26.297Z</time></trkpt><trkpt lat="45.9779102" lon="11.7321237"><ele>645.3333333333333</ele><time>2026-04-05T09:34:28.297Z</time></trkpt><trkpt lat="45.9779954" lon="11.732182"><ele>644.5</ele><time>2026-04-05T09:34:30.298Z</time></trkpt><trkpt lat="45.9780538" lon="11.7322201"><ele>643.6666666666666</ele><time>2026-04-05T09:34:32.298Z</time></trkpt><trkpt lat="45.9781342" lon="11.7322891"><ele>642.8333333333334</ele><time>2026-04-05T09:34:34.298Z</time></trkpt><trkpt lat="45.9781924" lon="11.7323739"><ele>642.0</ele><time>2026-04-05T09:34:36.298Z</time></trkpt><trkpt lat="45.9782586" lon="11.7324753"><ele>642.0</ele><time>2026-04-05T09:34:38.298Z</time></trkpt><trkpt lat="45.9783289" lon="11.7325626"><ele>642.0</ele><time>2026-04-05T09:34:40.298Z</time></trkpt><trkpt lat="45.9783979" lon="11.7326551"><ele>642.0</ele><time>2026-04-05T09:34:42.299Z</time></trkpt><trkpt lat="45.9784434" lon="11.7327428"><ele>642.0</ele><time>2026-04-05T09:34:44.298Z</time></trkpt><trkpt lat="45.9784756" lon="11.7328464"><ele>642.0</ele><time>2026-04-05T09:34:47.298Z</time></trkpt><trkpt lat="45.978542" lon="11.7329088"><ele>642.0</ele><time>2026-04-05T09:34:49.298Z</time></trkpt><trkpt lat="45.9785931" lon="11.7329751"><ele>640.5</ele><time>2026-04-05T09:34:52.298Z</time></trkpt><trkpt lat="45.9786314" lon="11.7330639"><ele>639.0</ele><time>2026-04-05T09:35:57.299Z</time></trkpt><trkpt lat="45.9786095" lon="11.7331808"><ele>637.5</ele><time>2026-04-05T09:35:59.299Z</time></trkpt><trkpt lat="45.9785758" lon="11.7332645"><ele>636.0</ele><time>2026-04-05T09:36:00.3Z</time></trkpt><trkpt lat="45.9785195" lon="11.7333488"><ele>634.5</ele><time>2026-04-05T09:36:01.299Z</time></trkpt><trkpt lat="45.9784652" lon="11.7334291"><ele>633.0</ele><time>2026-04-05T09:36:02.299Z</time></trkpt><trkpt lat="45.978431" lon="11.7335272"><ele>631.6666666666666</ele><time>2026-04-05T09:36:05.299Z</time></trkpt><trkpt lat="45.9784663" lon="11.7336339"><ele>630.3333333333334</ele><time>2026-04-05T09:36:08.299Z</time></trkpt><trkpt lat="45.9785307" lon="11.7337367"><ele>629.0</ele><time>2026-04-05T09:36:10.3Z</time></trkpt><trkpt lat="45.9785939" lon="11.7338472"><ele>627.6666666666667</ele><time>2026-04-05T09:36:12.3Z</time></trkpt><trkpt lat="45.9786285" lon="11.7339329"><ele>626.3333333333334</ele><time>2026-04-05T09:36:14.3Z</time></trkpt><trkpt lat="45.9786786" lon="11.7339961"><ele>625.0</ele><time>2026-04-05T09:36:16.3Z</time></trkpt><trkpt lat="45.9787198" lon="11.7340953"><ele>625.0</ele><time>2026-04-05T09:36:18.3Z</time></trkpt><trkpt lat="45.9787515" lon="11.7341893"><ele>625.0</ele><time>2026-04-05T09:36:20.3Z</time></trkpt><trkpt lat="45.9787987" lon="11.7342809"><ele>625.0</ele><time>2026-04-05T09:36:23.299Z</time></trkpt><trkpt lat="45.9788455" lon="11.7343685"><ele>625.0</ele><time>2026-04-05T09:36:26.299Z</time></trkpt><trkpt lat="45.97889" lon="11.7344411"><ele>625.0</ele><time>2026-04-05T09:36:29.3Z</time></trkpt><trkpt lat="45.9789811" lon="11.7345695"><ele>625.0</ele><time>2026-04-05T09:36:31.3Z</time></trkpt><trkpt lat="45.979024" lon="11.7346359"><ele>622.6666666666667</ele><time>2026-04-05T09:36:32.299Z</time></trkpt><trkpt lat="45.9790627" lon="11.734745"><ele>620.3333333333334</ele><time>2026-04-05T09:36:34.301Z</time></trkpt><trkpt lat="45.9791016" lon="11.7348471"><ele>618.0</ele><time>2026-04-05T09:36:36.301Z</time></trkpt><trkpt lat="45.9791553" lon="11.7349775"><ele>615.6666666666666</ele><time>2026-04-05T09:36:38.299Z</time></trkpt><trkpt lat="45.9791914" lon="11.7350576"><ele>613.3333333333333</ele><time>2026-04-05T09:36:39.3Z</time></trkpt><trkpt lat="45.9792331" lon="11.7351271"><ele>611.0</ele><time>2026-04-05T09:36:40.301Z</time></trkpt><trkpt lat="45.9792822" lon="11.7351839"><ele>608.5</ele><time>2026-04-05T09:36:41.301Z</time></trkpt><trkpt lat="45.9793765" lon="11.7352414"><ele>606.0</ele><time>2026-04-05T09:36:43.301Z</time></trkpt><trkpt lat="45.9794175" lon="11.7353474"><ele>603.5</ele><time>2026-04-05T09:36:45.3Z</time></trkpt><trkpt lat="45.9794353" lon="11.7354367"><ele>601.0</ele><time>2026-04-05T09:36:46.3Z</time></trkpt><trkpt lat="45.9794574" lon="11.7355625"><ele>598.5</ele><time>2026-04-05T09:36:47.3Z</time></trkpt><trkpt lat="45.9794823" lon="11.7356598"><ele>596.0</ele><time>2026-04-05T09:36:48.301Z</time></trkpt><trkpt lat="45.9795391" lon="11.7357727"><ele>596.0</ele><time>2026-04-05T09:36:50.3Z</time></trkpt><trkpt lat="45.9796319" lon="11.7358487"><ele>596.0</ele><time>2026-04-05T09:36:52.301Z</time></trkpt><trkpt lat="45.9796678" lon="11.7359567"><ele>596.0</ele><time>2026-04-05T09:36:54.301Z</time></trkpt><trkpt lat="45.9796643" lon="11.7361545"><ele>596.0</ele><time>2026-04-05T09:36:56.301Z</time></trkpt><trkpt lat="45.9796566" lon="11.7363033"><ele>596.0</ele><time>2026-04-05T09:36:57.301Z</time></trkpt><trkpt lat="45.9796264" lon="11.7364753"><ele>595.0</ele><time>2026-04-05T09:36:58.301Z</time></trkpt><trkpt lat="45.9796102" lon="11.7366445"><ele>594.0</ele><time>2026-04-05T09:36:59.3Z</time></trkpt><trkpt lat="45.979595" lon="11.7367913"><ele>593.0</ele><time>2026-04-05T09:37:00.3Z</time></trkpt><trkpt lat="45.9795626" lon="11.7369387"><ele>592.0</ele><time>2026-04-05T09:37:01.3Z</time></trkpt><trkpt lat="45.9795318" lon="11.7370465"><ele>591.0</ele><time>2026-04-05T09:37:02.3Z</time></trkpt><trkpt lat="45.9794837" lon="11.7371222"><ele>590.1666666666666</ele><time>2026-04-05T09:37:04.3Z</time></trkpt><trkpt lat="45.9793684" lon="11.737166"><ele>589.3333333333334</ele><time>2026-04-05T09:37:07.301Z</time></trkpt><trkpt lat="45.9792954" lon="11.7372392"><ele>588.5</ele><time>2026-04-05T09:37:09.301Z</time></trkpt><trkpt lat="45.9792454" lon="11.7372987"><ele>587.6666666666667</ele><time>2026-04-05T09:37:11.3Z</time></trkpt><trkpt lat="45.9791538" lon="11.7373571"><ele>586.8333333333334</ele><time>2026-04-05T09:37:13.301Z</time></trkpt><trkpt lat="45.9790853" lon="11.7373633"><ele>586.0</ele><time>2026-04-05T09:37:14.3Z</time></trkpt><trkpt lat="45.9790008" lon="11.7374012"><ele>590.0</ele><time>2026-04-05T09:37:16.301Z</time></trkpt><trkpt lat="45.9789122" lon="11.7374403"><ele>594.0</ele><time>2026-04-05T09:37:18.3Z</time></trkpt><trkpt lat="45.9788469" lon="11.7374981"><ele>598.0</ele><time>2026-04-05T09:37:20.3Z</time></trkpt><trkpt lat="45.9787355" lon="11.7375738"><ele>602.0</ele><time>2026-04-05T09:37:22.301Z</time></trkpt><trkpt lat="45.9786365" lon="11.7376322"><ele>606.0</ele><time>2026-04-05T09:37:24.301Z</time></trkpt><trkpt lat="45.9785394" lon="11.7377152"><ele>604.0</ele><time>2026-04-05T09:37:26.301Z</time></trkpt><trkpt lat="45.9784622" lon="11.7377911"><ele>602.0</ele><time>2026-04-05T09:37:28.3Z</time></trkpt><trkpt lat="45.9783693" lon="11.7378598"><ele>600.0</ele><time>2026-04-05T09:37:31.301Z</time></trkpt><trkpt lat="45.9782524" lon="11.7379336"><ele>598.0</ele><time>2026-04-05T09:37:33.302Z</time></trkpt><trkpt lat="45.9781742" lon="11.7379902"><ele>596.0</ele><time>2026-04-05T09:37:34.3Z</time></trkpt><trkpt lat="45.9781208" lon="11.7380588"><ele>596.0</ele><time>2026-04-05T09:37:35.3Z</time></trkpt><trkpt lat="45.9780586" lon="11.738189"><ele>596.0</ele><time>2026-04-05T09:37:37.3Z</time></trkpt><trkpt lat="45.9780481" lon="11.7383137"><ele>596.0</ele><time>2026-04-05T09:37:39.3Z</time></trkpt><trkpt lat="45.978091" lon="11.7385143"><ele>596.0</ele><time>2026-04-05T09:37:41.301Z</time></trkpt><trkpt lat="45.9781403" lon="11.7387008"><ele>595.4</ele><time>2026-04-05T09:37:42.302Z</time></trkpt><trkpt lat="45.9781942" lon="11.7388541"><ele>594.8</ele><time>2026-04-05T09:37:43.301Z</time></trkpt><trkpt lat="45.9782409" lon="11.7390157"><ele>594.1999999999999</ele><time>2026-04-05T09:37:44.302Z</time></trkpt><trkpt lat="45.9782795" lon="11.739133"><ele>593.6</ele><time>2026-04-05T09:37:45.301Z</time></trkpt><trkpt lat="45.9783157" lon="11.7392187"><ele>593.0</ele><time>2026-04-05T09:37:46.302Z</time></trkpt><trkpt lat="45.9783611" lon="11.7393353"><ele>591.6</ele><time>2026-04-05T09:37:48.301Z</time></trkpt><trkpt lat="45.9784121" lon="11.7395033"><ele>590.1999999999999</ele><time>2026-04-05T09:37:50.301Z</time></trkpt><trkpt lat="45.9783912" lon="11.7396093"><ele>588.8</ele><time>2026-04-05T09:37:52.302Z</time></trkpt><trkpt lat="45.9783457" lon="11.7397064"><ele>587.4</ele><time>2026-04-05T09:37:53.301Z</time></trkpt><trkpt lat="45.9782686" lon="11.7397766"><ele>586.0</ele><time>2026-04-05T09:37:54.301Z</time></trkpt><trkpt lat="45.9781781" lon="11.739854"><ele>586.0</ele><time>2026-04-05T09:37:55.302Z</time></trkpt><trkpt lat="45.9780803" lon="11.7399312"><ele>586.0</ele><time>2026-04-05T09:37:56.301Z</time></trkpt><trkpt lat="45.9779963" lon="11.7399934"><ele>586.0</ele><time>2026-04-05T09:37:57.301Z</time></trkpt><trkpt lat="45.9779236" lon="11.7400389"><ele>586.0</ele><time>2026-04-05T09:37:58.301Z</time></trkpt><trkpt lat="45.9778218" lon="11.7401234"><ele>586.0</ele><time>2026-04-05T09:38:00.301Z</time></trkpt><trkpt lat="45.9777193" lon="11.7401852"><ele>586.0</ele><time>2026-04-05T09:38:02.302Z</time></trkpt><trkpt lat="45.9776585" lon="11.7402157"><ele>586.0</ele><time>2026-04-05T09:38:03.302Z</time></trkpt><trkpt lat="45.9775962" lon="11.7402592"><ele>586.0</ele><time>2026-04-05T09:38:04.302Z</time></trkpt><trkpt lat="45.9775321" lon="11.7403229"><ele>586.0</ele><time>2026-04-05T09:38:05.301Z</time></trkpt><trkpt lat="45.9774908" lon="11.7404314"><ele>586.0</ele><time>2026-04-05T09:38:07.301Z</time></trkpt><trkpt lat="45.9774385" lon="11.7404965"><ele>586.0</ele><time>2026-04-05T09:38:23.301Z</time></trkpt><trkpt lat="45.97737" lon="11.7404033"><ele>585.6666666666667</ele><time>2026-04-05T09:38:26.301Z</time></trkpt><trkpt lat="45.9773555" lon="11.7402896"><ele>585.3333333333334</ele><time>2026-04-05T09:38:27.302Z</time></trkpt><trkpt lat="45.9773502" lon="11.7401714"><ele>585.0</ele><time>2026-04-05T09:38:28.303Z</time></trkpt><trkpt lat="45.977329" lon="11.7400843"><ele>584.6666666666666</ele><time>2026-04-05T09:38:29.301Z</time></trkpt><trkpt lat="45.9772885" lon="11.7399963"><ele>584.3333333333333</ele><time>2026-04-05T09:38:30.301Z</time></trkpt><trkpt lat="45.9772315" lon="11.7399106"><ele>584.0</ele><time>2026-04-05T09:38:31.302Z</time></trkpt><trkpt lat="45.9771676" lon="11.7398192"><ele>585.2</ele><time>2026-04-05T09:38:32.302Z</time></trkpt><trkpt lat="45.9770976" lon="11.7397279"><ele>586.4</ele><time>2026-04-05T09:38:33.302Z</time></trkpt><trkpt lat="45.9770197" lon="11.7396234"><ele>587.6</ele><time>2026-04-05T09:38:34.302Z</time></trkpt><trkpt lat="45.9769512" lon="11.7395135"><ele>588.8</ele><time>2026-04-05T09:38:35.303Z</time></trkpt><trkpt lat="45.9768962" lon="11.7394042"><ele>590.0</ele><time>2026-04-05T09:38:36.303Z</time></trkpt><trkpt lat="45.9768525" lon="11.7393059"><ele>592.0</ele><time>2026-04-05T09:38:37.302Z</time></trkpt><trkpt lat="45.9767693" lon="11.7392001"><ele>594.0</ele><time>2026-04-05T09:38:38.302Z</time></trkpt><trkpt lat="45.9766858" lon="11.7390758"><ele>596.0</ele><time>2026-04-05T09:38:39.302Z</time></trkpt><trkpt lat="45.9765991" lon="11.7389448"><ele>598.0</ele><time>2026-04-05T09:38:40.302Z</time></trkpt><trkpt lat="45.9764792" lon="11.7388238"><ele>601.25</ele><time>2026-04-05T09:38:41.301Z</time></trkpt><trkpt lat="45.9763685" lon="11.738746"><ele>604.5</ele><time>2026-04-05T09:38:42.301Z</time></trkpt><trkpt lat="45.9762583" lon="11.73866"><ele>607.75</ele><time>2026-04-05T09:38:43.301Z</time></trkpt><trkpt lat="45.9761527" lon="11.7385631"><ele>611.0</ele><time>2026-04-05T09:38:44.303Z</time></trkpt><trkpt lat="45.9760485" lon="11.7384729"><ele>611.6</ele><time>2026-04-05T09:38:45.303Z</time></trkpt><trkpt lat="45.9759535" lon="11.7384152"><ele>612.2</ele><time>2026-04-05T09:38:46.302Z</time></trkpt><trkpt lat="45.9758498" lon="11.7383447"><ele>612.8</ele><time>2026-04-05T09:38:47.302Z</time></trkpt><trkpt lat="45.9757579" lon="11.7382677"><ele>613.4</ele><time>2026-04-05T09:38:48.303Z</time></trkpt><trkpt lat="45.9756586" lon="11.7382131"><ele>614.0</ele><time>2026-04-05T09:38:49.303Z</time></trkpt><trkpt lat="45.9755464" lon="11.7381765"><ele>617.0</ele><time>2026-04-05T09:38:50.302Z</time></trkpt><trkpt lat="45.9754352" lon="11.7381361"><ele>620.0</ele><time>2026-04-05T09:38:51.302Z</time></trkpt><trkpt lat="45.9753338" lon="11.7380827"><ele>623.0</ele><time>2026-04-05T09:38:52.302Z</time></trkpt><trkpt lat="45.9752208" lon="11.7379895"><ele>626.0</ele><time>2026-04-05T09:38:53.303Z</time></trkpt><trkpt lat="45.9751127" lon="11.7379008"><ele>627.6</ele><time>2026-04-05T09:38:54.302Z</time></trkpt><trkpt lat="45.9750016" lon="11.7378337"><ele>629.2</ele><time>2026-04-05T09:38:55.303Z</time></trkpt><trkpt lat="45.9748996" lon="11.7377904"><ele>630.8</ele><time>2026-04-05T09:38:56.303Z</time></trkpt><trkpt lat="45.9748203" lon="11.7377421"><ele>632.4</ele><time>2026-04-05T09:38:57.302Z</time></trkpt><trkpt lat="45.9747493" lon="11.7376686"><ele>634.0</ele><time>2026-04-05T09:38:58.302Z</time></trkpt><trkpt lat="45.9746771" lon="11.7375909"><ele>634.8333333333334</ele><time>2026-04-05T09:38:59.303Z</time></trkpt><trkpt lat="45.9745862" lon="11.737523"><ele>635.6666666666667</ele><time>2026-04-05T09:39:00.303Z</time></trkpt><trkpt lat="45.9744833" lon="11.7374761"><ele>636.5</ele><time>2026-04-05T09:39:01.303Z</time></trkpt><trkpt lat="45.9744196" lon="11.7374415"><ele>637.3333333333334</ele><time>2026-04-05T09:39:02.303Z</time></trkpt><trkpt lat="45.9743667" lon="11.7373912"><ele>638.1666666666666</ele><time>2026-04-05T09:40:23.303Z</time></trkpt><trkpt lat="45.9743149" lon="11.7372961"><ele>639.0</ele><time>2026-04-05T09:40:25.303Z</time></trkpt><trkpt lat="45.9742724" lon="11.737182"><ele>639.0</ele><time>2026-04-05T09:40:27.304Z</time></trkpt><trkpt lat="45.9742481" lon="11.7370563"><ele>639.0</ele><time>2026-04-05T09:40:29.304Z</time></trkpt><trkpt lat="45.9742337" lon="11.7368938"><ele>639.0</ele><time>2026-04-05T09:40:31.304Z</time></trkpt><trkpt lat="45.9742254" lon="11.7368013"><ele>639.0</ele><time>2026-04-05T09:40:32.303Z</time></trkpt><trkpt lat="45.9742151" lon="11.7367091"><ele>639.0</ele><time>2026-04-05T09:40:33.303Z</time></trkpt><trkpt lat="45.9742033" lon="11.7366161"><ele>639.0</ele><time>2026-04-05T09:40:34.303Z</time></trkpt><trkpt lat="45.9741851" lon="11.7365203"><ele>640.2857142857143</ele><time>2026-04-05T09:40:35.304Z</time></trkpt><trkpt lat="45.9741655" lon="11.7364237"><ele>641.5714285714286</ele><time>2026-04-05T09:40:36.303Z</time></trkpt><trkpt lat="45.974139" lon="11.7363266"><ele>642.8571428571429</ele><time>2026-04-05T09:40:37.304Z</time></trkpt><trkpt lat="45.9741053" lon="11.7362332"><ele>644.1428571428571</ele><time>2026-04-05T09:40:38.304Z</time></trkpt><trkpt lat="45.9740627" lon="11.736141"><ele>645.4285714285714</ele><time>2026-04-05T09:40:39.304Z</time></trkpt><trkpt lat="45.9740194" lon="11.7360513"><ele>646.7142857142858</ele><time>2026-04-05T09:40:40.303Z</time></trkpt><trkpt lat="45.9739722" lon="11.7359593"><ele>648.0</ele><time>2026-04-05T09:40:41.303Z</time></trkpt><trkpt lat="45.973929" lon="11.7358613"><ele>649.0</ele><time>2026-04-05T09:40:42.303Z</time></trkpt><trkpt lat="45.9738901" lon="11.7357556"><ele>650.0</ele><time>2026-04-05T09:40:43.304Z</time></trkpt><trkpt lat="45.9738543" lon="11.7356532"><ele>651.0</ele><time>2026-04-05T09:40:44.304Z</time></trkpt><trkpt lat="45.9738153" lon="11.7355563"><ele>652.0</ele><time>2026-04-05T09:40:45.303Z</time></trkpt><trkpt lat="45.9737673" lon="11.7354677"><ele>653.0</ele><time>2026-04-05T09:40:46.304Z</time></trkpt><trkpt lat="45.9737092" lon="11.7353925"><ele>654.0</ele><time>2026-04-05T09:40:47.304Z</time></trkpt><trkpt lat="45.9736429" lon="11.7353279"><ele>654.0</ele><time>2026-04-05T09:40:48.303Z</time></trkpt><trkpt lat="45.9735651" lon="11.7352738"><ele>654.0</ele><time>2026-04-05T09:40:49.303Z</time></trkpt><trkpt lat="45.9734885" lon="11.7352218"><ele>654.0</ele><time>2026-04-05T09:40:50.304Z</time></trkpt><trkpt lat="45.9734086" lon="11.7351685"><ele>654.0</ele><time>2026-04-05T09:40:51.303Z</time></trkpt><trkpt lat="45.9733262" lon="11.7351216"><ele>654.0</ele><time>2026-04-05T09:40:52.303Z</time></trkpt><trkpt lat="45.9732414" lon="11.7350742"><ele>654.0</ele><time>2026-04-05T09:40:53.303Z</time></trkpt><trkpt lat="45.9731576" lon="11.7350225"><ele>656.0</ele><time>2026-04-05T09:40:54.303Z</time></trkpt><trkpt lat="45.973077" lon="11.7349646"><ele>658.0</ele><time>2026-04-05T09:40:55.305Z</time></trkpt><trkpt lat="45.9729985" lon="11.7348999"><ele>660.0</ele><time>2026-04-05T09:40:56.304Z</time></trkpt><trkpt lat="45.9729225" lon="11.7348353"><ele>662.0</ele><time>2026-04-05T09:40:57.303Z</time></trkpt><trkpt lat="45.9728481" lon="11.7347748"><ele>664.0</ele><time>2026-04-05T09:40:58.304Z</time></trkpt><trkpt lat="45.9727726" lon="11.7347185"><ele>666.0</ele><time>2026-04-05T09:40:59.304Z</time></trkpt><trkpt lat="45.9726906" lon="11.7346705"><ele>666.0</ele><time>2026-04-05T09:41:00.304Z</time></trkpt><trkpt lat="45.9726095" lon="11.734625"><ele>666.0</ele><time>2026-04-05T09:41:01.305Z</time></trkpt><trkpt lat="45.9725247" lon="11.7345809"><ele>666.0</ele><time>2026-04-05T09:41:02.305Z</time></trkpt><trkpt lat="45.9724384" lon="11.734536"><ele>666.0</ele><time>2026-04-05T09:41:03.304Z</time></trkpt><trkpt lat="45.9723562" lon="11.7344862"><ele>666.0</ele><time>2026-04-05T09:41:04.304Z</time></trkpt><trkpt lat="45.9722796" lon="11.7344244"><ele>666.0</ele><time>2026-04-05T09:41:05.304Z</time></trkpt><trkpt lat="45.9722086" lon="11.7343444"><ele>669.0</ele><time>2026-04-05T09:41:06.304Z</time></trkpt><trkpt lat="45.9721399" lon="11.7342551"><ele>672.0</ele><time>2026-04-05T09:41:07.304Z</time></trkpt><trkpt lat="45.9720773" lon="11.7341526"><ele>675.0</ele><time>2026-04-05T09:41:08.305Z</time></trkpt><trkpt lat="45.9720176" lon="11.7340377"><ele>678.0</ele><time>2026-04-05T09:41:09.305Z</time></trkpt><trkpt lat="45.9719623" lon="11.7339361"><ele>681.0</ele><time>2026-04-05T09:41:10.305Z</time></trkpt><trkpt lat="45.9719172" lon="11.7338564"><ele>684.0</ele><time>2026-04-05T09:41:11.305Z</time></trkpt><trkpt lat="45.9718778" lon="11.7337825"><ele>684.0</ele><time>2026-04-05T09:41:12.304Z</time></trkpt><trkpt lat="45.9718471" lon="11.7336988"><ele>684.0</ele><time>2026-04-05T09:41:13.304Z</time></trkpt><trkpt lat="45.9718187" lon="11.7336095"><ele>684.0</ele><time>2026-04-05T09:41:14.304Z</time></trkpt><trkpt lat="45.9717905" lon="11.7335114"><ele>684.0</ele><time>2026-04-05T09:41:15.304Z</time></trkpt><trkpt lat="45.9717519" lon="11.7333523"><ele>684.0</ele><time>2026-04-05T09:41:17.304Z</time></trkpt><trkpt lat="45.9717094" lon="11.7332584"><ele>684.0</ele><time>2026-04-05T09:41:19.304Z</time></trkpt><trkpt lat="45.9716648" lon="11.733152"><ele>684.5</ele><time>2026-04-05T09:41:21.305Z</time></trkpt><trkpt lat="45.9716324" lon="11.7330676"><ele>685.0</ele><time>2026-04-05T09:41:22.304Z</time></trkpt><trkpt lat="45.9715888" lon="11.7329973"><ele>685.5</ele><time>2026-04-05T09:41:23.304Z</time></trkpt><trkpt lat="45.9715035" lon="11.7329103"><ele>686.0</ele><time>2026-04-05T09:41:25.305Z</time></trkpt><trkpt lat="45.9713753" lon="11.7328836"><ele>686.5</ele><time>2026-04-05T09:41:27.305Z</time></trkpt><trkpt lat="45.9712928" lon="11.7328755"><ele>687.0</ele><time>2026-04-05T09:41:28.304Z</time></trkpt><trkpt lat="45.9712078" lon="11.7328645"><ele>687.0</ele><time>2026-04-05T09:41:29.304Z</time></trkpt><trkpt lat="45.9711161" lon="11.7328369"><ele>687.0</ele><time>2026-04-05T09:41:30.304Z</time></trkpt><trkpt lat="45.9710326" lon="11.7327943"><ele>687.0</ele><time>2026-04-05T09:41:31.305Z</time></trkpt><trkpt lat="45.9709613" lon="11.7327406"><ele>687.0</ele><time>2026-04-05T09:41:32.304Z</time></trkpt><trkpt lat="45.9708957" lon="11.7326767"><ele>687.0</ele><time>2026-04-05T09:41:33.304Z</time></trkpt><trkpt lat="45.9708346" lon="11.7326034"><ele>687.0</ele><time>2026-04-05T09:41:34.305Z</time></trkpt><trkpt lat="45.9707786" lon="11.7325384"><ele>689.8333333333334</ele><time>2026-04-05T09:41:35.305Z</time></trkpt><trkpt lat="45.9706858" lon="11.7324284"><ele>692.6666666666666</ele><time>2026-04-05T09:41:37.304Z</time></trkpt><trkpt lat="45.9706271" lon="11.7323599"><ele>695.5</ele><time>2026-04-05T09:41:38.304Z</time></trkpt><trkpt lat="45.9705604" lon="11.7322825"><ele>698.3333333333333</ele><time>2026-04-05T09:41:39.305Z</time></trkpt><trkpt lat="45.9704948" lon="11.732204"><ele>701.1666666666666</ele><time>2026-04-05T09:41:40.304Z</time></trkpt><trkpt lat="45.9704389" lon="11.7321235"><ele>704.0</ele><time>2026-04-05T09:41:41.304Z</time></trkpt><trkpt lat="45.9703888" lon="11.7320546"><ele>704.0</ele><time>2026-04-05T09:41:42.305Z</time></trkpt><trkpt lat="45.970335" lon="11.7319909"><ele>704.0</ele><time>2026-04-05T09:41:43.305Z</time></trkpt><trkpt lat="45.9702613" lon="11.7319012"><ele>704.0</ele><time>2026-04-05T09:41:45.305Z</time></trkpt><trkpt lat="45.9703284" lon="11.7318003"><ele>704.0</ele><time>2026-04-05T09:41:48.304Z</time></trkpt><trkpt lat="45.9703892" lon="11.7317747"><ele>704.0</ele><time>2026-04-05T09:41:49.305Z</time></trkpt><trkpt lat="45.9704755" lon="11.7317344"><ele>704.0</ele><time>2026-04-05T09:41:51.305Z</time></trkpt><trkpt lat="45.9705583" lon="11.7317521"><ele>702.8000000000001</ele><time>2026-04-05T09:42:23.305Z</time></trkpt><trkpt lat="45.9706501" lon="11.731773"><ele>701.6</ele><time>2026-04-05T09:42:25.306Z</time></trkpt><trkpt lat="45.9707532" lon="11.731779"><ele>700.4</ele><time>2026-04-05T09:42:27.305Z</time></trkpt><trkpt lat="45.9708746" lon="11.7317469"><ele>699.2</ele><time>2026-04-05T09:42:29.306Z</time></trkpt><trkpt lat="45.9709402" lon="11.7317346"><ele>698.0</ele><time>2026-04-05T09:42:30.305Z</time></trkpt><trkpt lat="45.9710055" lon="11.7317254"><ele>698.0</ele><time>2026-04-05T09:42:31.305Z</time></trkpt><trkpt lat="45.9711451" lon="11.7317451"><ele>698.0</ele><time>2026-04-05T09:42:33.305Z</time></trkpt><trkpt lat="45.9712352" lon="11.7317665"><ele>698.0</ele><time>2026-04-05T09:42:34.306Z</time></trkpt><trkpt lat="45.9713301" lon="11.7317962"><ele>698.0</ele><time>2026-04-05T09:42:35.305Z</time></trkpt><trkpt lat="45.9714229" lon="11.7318297"><ele>698.0</ele><time>2026-04-05T09:42:36.306Z</time></trkpt><trkpt lat="45.9715072" lon="11.7318449"><ele>698.0</ele><time>2026-04-05T09:42:37.305Z</time></trkpt><trkpt lat="45.9715743" lon="11.7318517"><ele>698.0</ele><time>2026-04-05T09:42:38.305Z</time></trkpt><trkpt lat="45.9717027" lon="11.7318182"><ele>698.0</ele><time>2026-04-05T09:42:40.306Z</time></trkpt><trkpt lat="45.9717847" lon="11.7317997"><ele>698.0</ele><time>2026-04-05T09:42:41.306Z</time></trkpt><trkpt lat="45.9718783" lon="11.7317825"><ele>698.0</ele><time>2026-04-05T09:42:42.306Z</time></trkpt><trkpt lat="45.971967" lon="11.7317623"><ele>697.6666666666666</ele><time>2026-04-05T09:42:43.305Z</time></trkpt><trkpt lat="45.9720519" lon="11.73173"><ele>697.3333333333333</ele><time>2026-04-05T09:42:44.305Z</time></trkpt><trkpt lat="45.9721258" lon="11.7316839"><ele>697.0</ele><time>2026-04-05T09:42:45.306Z</time></trkpt><trkpt lat="45.9721855" lon="11.7316432"><ele>696.6666666666666</ele><time>2026-04-05T09:42:46.305Z</time></trkpt><trkpt lat="45.9722534" lon="11.731616"><ele>696.3333333333334</ele><time>2026-04-05T09:42:47.306Z</time></trkpt><trkpt lat="45.9723335" lon="11.7316057"><ele>696.0</ele><time>2026-04-05T09:42:48.306Z</time></trkpt><trkpt lat="45.9724287" lon="11.7316166"><ele>695.5999999999999</ele><time>2026-04-05T09:42:49.307Z</time></trkpt><trkpt lat="45.9725373" lon="11.7316314"><ele>695.2</ele><time>2026-04-05T09:42:50.305Z</time></trkpt><trkpt lat="45.972631" lon="11.7316208"><ele>694.8</ele><time>2026-04-05T09:42:51.306Z</time></trkpt><trkpt lat="45.972708" lon="11.73158"><ele>694.4000000000001</ele><time>2026-04-05T09:42:52.306Z</time></trkpt><trkpt lat="45.97278" lon="11.7314929"><ele>694.0</ele><time>2026-04-05T09:42:54.306Z</time></trkpt><trkpt lat="45.9728326" lon="11.7313808"><ele>694.0</ele><time>2026-04-05T09:42:56.306Z</time></trkpt><trkpt lat="45.9729173" lon="11.7313502"><ele>694.0</ele><time>2026-04-05T09:42:58.306Z</time></trkpt><trkpt lat="45.9730058" lon="11.7313318"><ele>694.0</ele><time>2026-04-05T09:43:00.306Z</time></trkpt><trkpt lat="45.9731084" lon="11.7312743"><ele>694.0</ele><time>2026-04-05T09:43:02.307Z</time></trkpt><trkpt lat="45.9731559" lon="11.7312102"><ele>694.0</ele><time>2026-04-05T09:43:07.305Z</time></trkpt><trkpt lat="45.9730619" lon="11.7311031"><ele>692.3333333333334</ele><time>2026-04-05T09:43:10.306Z</time></trkpt><trkpt lat="45.9730051" lon="11.7310331"><ele>690.6666666666667</ele><time>2026-04-05T09:43:11.306Z</time></trkpt><trkpt lat="45.9729413" lon="11.7309446"><ele>689.0</ele><time>2026-04-05T09:43:12.307Z</time></trkpt><trkpt lat="45.9728845" lon="11.7308727"><ele>687.3333333333334</ele><time>2026-04-05T09:43:13.306Z</time></trkpt><trkpt lat="45.9728189" lon="11.7307726"><ele>685.6666666666666</ele><time>2026-04-05T09:43:15.307Z</time></trkpt><trkpt lat="45.9727599" lon="11.730701"><ele>684.0</ele><time>2026-04-05T09:43:17.307Z</time></trkpt><trkpt lat="45.9727295" lon="11.7306092"><ele>684.0</ele><time>2026-04-05T09:43:19.306Z</time></trkpt><trkpt lat="45.9726989" lon="11.730521"><ele>684.0</ele><time>2026-04-05T09:43:22.306Z</time></trkpt><trkpt lat="45.9726059" lon="11.7304781"><ele>684.0</ele><time>2026-04-05T09:43:35.306Z</time></trkpt><trkpt lat="45.972534" lon="11.7304921"><ele>684.0</ele><time>2026-04-05T09:43:37.307Z</time></trkpt><trkpt lat="45.9724135" lon="11.7305231"><ele>684.0</ele><time>2026-04-05T09:43:39.306Z</time></trkpt><trkpt lat="45.9723322" lon="11.7305334"><ele>684.0</ele><time>2026-04-05T09:43:40.307Z</time></trkpt><trkpt lat="45.9722643" lon="11.7305481"><ele>683.5</ele><time>2026-04-05T09:43:41.307Z</time></trkpt><trkpt lat="45.972172" lon="11.7305457"><ele>683.0</ele><time>2026-04-05T09:43:43.306Z</time></trkpt><trkpt lat="45.9720597" lon="11.7305595"><ele>682.5</ele><time>2026-04-05T09:43:45.307Z</time></trkpt><trkpt lat="45.9719903" lon="11.7305678"><ele>682.0</ele><time>2026-04-05T09:43:46.306Z</time></trkpt><trkpt lat="45.9719207" lon="11.7305694"><ele>681.5</ele><time>2026-04-05T09:43:47.307Z</time></trkpt><trkpt lat="45.9718448" lon="11.730578"><ele>681.0</ele><time>2026-04-05T09:43:48.307Z</time></trkpt><trkpt lat="45.9717706" lon="11.7305876"><ele>680.0</ele><time>2026-04-05T09:43:49.306Z</time></trkpt><trkpt lat="45.9716893" lon="11.7305956"><ele>679.0</ele><time>2026-04-05T09:43:50.307Z</time></trkpt><trkpt lat="45.9716131" lon="11.730596"><ele>678.0</ele><time>2026-04-05T09:43:51.308Z</time></trkpt><trkpt lat="45.9715443" lon="11.7305887"><ele>677.0</ele><time>2026-04-05T09:43:52.307Z</time></trkpt><trkpt lat="45.9714512" lon="11.7305663"><ele>676.0</ele><time>2026-04-05T09:43:54.307Z</time></trkpt><trkpt lat="45.971356" lon="11.7305347"><ele>675.0</ele><time>2026-04-05T09:43:56.306Z</time></trkpt><trkpt lat="45.9712409" lon="11.7304793"><ele>675.0</ele><time>2026-04-05T09:43:58.307Z</time></trkpt><trkpt lat="45.971172" lon="11.7304539"><ele>675.0</ele><time>2026-04-05T09:43:59.306Z</time></trkpt><trkpt lat="45.9710957" lon="11.7304351"><ele>675.0</ele><time>2026-04-05T09:44:00.308Z</time></trkpt><trkpt lat="45.9710212" lon="11.7304224"><ele>675.0</ele><time>2026-04-05T09:44:01.307Z</time></trkpt><trkpt lat="45.970952" lon="11.730415"><ele>675.0</ele><time>2026-04-05T09:44:02.307Z</time></trkpt><trkpt lat="45.9708841" lon="11.730416"><ele>675.0</ele><time>2026-04-05T09:44:03.308Z</time></trkpt><trkpt lat="45.9708194" lon="11.7304309"><ele>675.0</ele><time>2026-04-05T09:44:04.308Z</time></trkpt><trkpt lat="45.9707565" lon="11.730463"><ele>674.0</ele><time>2026-04-05T09:44:05.307Z</time></trkpt><trkpt lat="45.97068" lon="11.7305067"><ele>673.0</ele><time>2026-04-05T09:44:06.308Z</time></trkpt><trkpt lat="45.9706099" lon="11.7305573"><ele>672.0</ele><time>2026-04-05T09:44:07.308Z</time></trkpt><trkpt lat="45.9705421" lon="11.7306039"><ele>671.0</ele><time>2026-04-05T09:44:08.307Z</time></trkpt><trkpt lat="45.9704325" lon="11.7306012"><ele>670.0</ele><time>2026-04-05T09:44:10.307Z</time></trkpt><trkpt lat="45.9702988" lon="11.7306157"><ele>670.0</ele><time>2026-04-05T09:44:12.307Z</time></trkpt><trkpt lat="45.9702211" lon="11.7305814"><ele>670.0</ele><time>2026-04-05T09:44:14.307Z</time></trkpt><trkpt lat="45.9701488" lon="11.7305146"><ele>670.0</ele><time>2026-04-05T09:44:28.308Z</time></trkpt><trkpt lat="45.9700981" lon="11.7303481"><ele>670.0</ele><time>2026-04-05T09:44:30.307Z</time></trkpt><trkpt lat="45.9701027" lon="11.73025"><ele>670.0</ele><time>2026-04-05T09:44:31.307Z</time></trkpt><trkpt lat="45.9701216" lon="11.7301586"><ele>670.0</ele><time>2026-04-05T09:44:32.307Z</time></trkpt><trkpt lat="45.9701355" lon="11.7300593"><ele>665.0</ele><time>2026-04-05T09:44:33.308Z</time></trkpt><trkpt lat="45.9701315" lon="11.7298881"><ele>660.0</ele><time>2026-04-05T09:44:35.307Z</time></trkpt><trkpt lat="45.9701004" lon="11.7298053"><ele>655.0</ele><time>2026-04-05T09:44:36.307Z</time></trkpt><trkpt lat="45.9700688" lon="11.7296893"><ele>650.0</ele><time>2026-04-05T09:44:38.308Z</time></trkpt><trkpt lat="45.9701318" lon="11.7296314"><ele>645.0</ele><time>2026-04-05T09:44:40.307Z</time></trkpt><trkpt lat="45.9701883" lon="11.7295774"><ele>640.0</ele><time>2026-04-05T09:44:41.308Z</time></trkpt><trkpt lat="45.970256" lon="11.7294976"><ele>636.4</ele><time>2026-04-05T09:44:42.308Z</time></trkpt><trkpt lat="45.9703118" lon="11.7293343"><ele>632.8</ele><time>2026-04-05T09:44:44.308Z</time></trkpt><trkpt lat="45.9703245" lon="11.7291538"><ele>629.2</ele><time>2026-04-05T09:44:46.307Z</time></trkpt><trkpt lat="45.9703097" lon="11.7290586"><ele>625.6</ele><time>2026-04-05T09:44:47.307Z</time></trkpt><trkpt lat="45.9702959" lon="11.7289534"><ele>622.0</ele><time>2026-04-05T09:44:48.307Z</time></trkpt><trkpt lat="45.9702718" lon="11.7288373"><ele>622.0</ele><time>2026-04-05T09:44:49.308Z</time></trkpt><trkpt lat="45.9702252" lon="11.7287171"><ele>622.0</ele><time>2026-04-05T09:44:50.307Z</time></trkpt><trkpt lat="45.9701786" lon="11.7286219"><ele>622.0</ele><time>2026-04-05T09:44:51.307Z</time></trkpt><trkpt lat="45.9701282" lon="11.7285477"><ele>622.0</ele><time>2026-04-05T09:44:52.308Z</time></trkpt><trkpt lat="45.9700706" lon="11.7284972"><ele>622.0</ele><time>2026-04-05T09:44:53.308Z</time></trkpt><trkpt lat="45.9700053" lon="11.7284603"><ele>622.0</ele><time>2026-04-05T09:44:54.308Z</time></trkpt><trkpt lat="45.9699257" lon="11.7284319"><ele>624.0</ele><time>2026-04-05T09:44:55.308Z</time></trkpt><trkpt lat="45.9698303" lon="11.7283942"><ele>626.0</ele><time>2026-04-05T09:44:56.308Z</time></trkpt><trkpt lat="45.9697455" lon="11.7283586"><ele>628.0</ele><time>2026-04-05T09:44:57.307Z</time></trkpt><trkpt lat="45.9696622" lon="11.7283351"><ele>630.0</ele><time>2026-04-05T09:44:58.308Z</time></trkpt><trkpt lat="45.9695808" lon="11.7283283"><ele>632.0</ele><time>2026-04-05T09:44:59.308Z</time></trkpt><trkpt lat="45.9695077" lon="11.7283205"><ele>634.0</ele><time>2026-04-05T09:45:00.309Z</time></trkpt><trkpt lat="45.9694409" lon="11.7283162"><ele>634.0</ele><time>2026-04-05T09:45:01.307Z</time></trkpt><trkpt lat="45.9693738" lon="11.7283108"><ele>634.0</ele><time>2026-04-05T09:45:02.31Z</time></trkpt><trkpt lat="45.9692956" lon="11.7283027"><ele>634.0</ele><time>2026-04-05T09:45:03.308Z</time></trkpt><trkpt lat="45.9692118" lon="11.7283071"><ele>634.0</ele><time>2026-04-05T09:45:04.308Z</time></trkpt><trkpt lat="45.9691482" lon="11.7283205"><ele>634.0</ele><time>2026-04-05T09:45:05.309Z</time></trkpt><trkpt lat="45.9690782" lon="11.7283222"><ele>634.0</ele><time>2026-04-05T09:45:06.308Z</time></trkpt><trkpt lat="45.9689943" lon="11.7283108"><ele>634.0</ele><time>2026-04-05T09:45:07.307Z</time></trkpt><trkpt lat="45.9688997" lon="11.728302"><ele>635.6666666666667</ele><time>2026-04-05T09:45:08.309Z</time></trkpt><trkpt lat="45.9688092" lon="11.7282896"><ele>637.3333333333334</ele><time>2026-04-05T09:45:09.308Z</time></trkpt><trkpt lat="45.9687346" lon="11.7282721"><ele>639.0</ele><time>2026-04-05T09:45:10.309Z</time></trkpt><trkpt lat="45.9686736" lon="11.7282473"><ele>640.6666666666666</ele><time>2026-04-05T09:45:11.308Z</time></trkpt><trkpt lat="45.9685637" lon="11.7282502"><ele>642.3333333333333</ele><time>2026-04-05T09:45:13.309Z</time></trkpt><trkpt lat="45.9684633" lon="11.7282827"><ele>644.0</ele><time>2026-04-05T09:45:15.308Z</time></trkpt><trkpt lat="45.9683916" lon="11.7283122"><ele>644.8333333333333</ele><time>2026-04-05T09:45:16.309Z</time></trkpt><trkpt lat="45.968327" lon="11.7283522"><ele>645.6666666666666</ele><time>2026-04-05T09:45:17.308Z</time></trkpt><trkpt lat="45.968262" lon="11.7283568"><ele>646.5</ele><time>2026-04-05T09:45:19.308Z</time></trkpt><trkpt lat="45.9681562" lon="11.7282877"><ele>647.3333333333334</ele><time>2026-04-05T09:45:21.309Z</time></trkpt><trkpt lat="45.9680884" lon="11.7282374"><ele>648.1666666666667</ele><time>2026-04-05T09:45:22.309Z</time></trkpt><trkpt lat="45.9680097" lon="11.7281201"><ele>649.0</ele><time>2026-04-05T09:45:24.309Z</time></trkpt><trkpt lat="45.9679887" lon="11.7279184"><ele>649.0</ele><time>2026-04-05T09:45:26.309Z</time></trkpt><trkpt lat="45.9679766" lon="11.7277992"><ele>649.0</ele><time>2026-04-05T09:45:27.309Z</time></trkpt><trkpt lat="45.9679618" lon="11.7276731"><ele>649.0</ele><time>2026-04-05T09:45:28.308Z</time></trkpt><trkpt lat="45.9679462" lon="11.7275668"><ele>649.0</ele><time>2026-04-05T09:45:29.308Z</time></trkpt><trkpt lat="45.9679449" lon="11.7274653"><ele>649.0</ele><time>2026-04-05T09:45:30.309Z</time></trkpt><trkpt lat="45.9679415" lon="11.72734"><ele>649.0</ele><time>2026-04-05T09:45:31.308Z</time></trkpt><trkpt lat="45.967932" lon="11.7272434"><ele>645.0</ele><time>2026-04-05T09:45:32.308Z</time></trkpt><trkpt lat="45.9678805" lon="11.7271055"><ele>641.0</ele><time>2026-04-05T09:45:34.308Z</time></trkpt><trkpt lat="45.9678136" lon="11.7270139"><ele>637.0</ele><time>2026-04-05T09:45:36.309Z</time></trkpt><trkpt lat="45.9677528" lon="11.7269583"><ele>633.0</ele><time>2026-04-05T09:45:38.309Z</time></trkpt><trkpt lat="45.9676454" lon="11.7269037"><ele>629.0</ele><time>2026-04-05T09:45:40.308Z</time></trkpt><trkpt lat="45.967542" lon="11.7268312"><ele>630.5714285714286</ele><time>2026-04-05T09:45:42.308Z</time></trkpt><trkpt lat="45.967481" lon="11.7267964"><ele>632.1428571428572</ele><time>2026-04-05T09:45:43.308Z</time></trkpt><trkpt lat="45.9674241" lon="11.7267473"><ele>633.7142857142858</ele><time>2026-04-05T09:45:44.308Z</time></trkpt><trkpt lat="45.9673551" lon="11.7267016"><ele>635.2857142857142</ele><time>2026-04-05T09:45:45.309Z</time></trkpt><trkpt lat="45.9672848" lon="11.7266753"><ele>636.8571428571429</ele><time>2026-04-05T09:45:46.309Z</time></trkpt><trkpt lat="45.9672189" lon="11.7266602"><ele>638.4285714285714</ele><time>2026-04-05T09:45:47.308Z</time></trkpt><trkpt lat="45.9671531" lon="11.7266662"><ele>640.0</ele><time>2026-04-05T09:45:48.309Z</time></trkpt><trkpt lat="45.9670771" lon="11.7266523"><ele>640.0</ele><time>2026-04-05T09:45:49.309Z</time></trkpt><trkpt lat="45.9670107" lon="11.7266336"><ele>640.0</ele><time>2026-04-05T09:45:50.309Z</time></trkpt><trkpt lat="45.9669097" lon="11.7265962"><ele>640.0</ele><time>2026-04-05T09:45:52.308Z</time></trkpt><trkpt lat="45.9668009" lon="11.7265247"><ele>640.0</ele><time>2026-04-05T09:45:54.308Z</time></trkpt><trkpt lat="45.9667395" lon="11.7264801"><ele>640.0</ele><time>2026-04-05T09:45:55.309Z</time></trkpt><trkpt lat="45.9666788" lon="11.72642"><ele>640.0</ele><time>2026-04-05T09:45:56.309Z</time></trkpt><trkpt lat="45.9666278" lon="11.7263438"><ele>640.4</ele><time>2026-04-05T09:45:57.309Z</time></trkpt><trkpt lat="45.9665759" lon="11.7262624"><ele>640.8</ele><time>2026-04-05T09:45:58.308Z</time></trkpt><trkpt lat="45.9665199" lon="11.7261772"><ele>641.2</ele><time>2026-04-05T09:45:59.308Z</time></trkpt><trkpt lat="45.9664407" lon="11.7260991"><ele>641.6</ele><time>2026-04-05T09:46:01.309Z</time></trkpt><trkpt lat="45.9663728" lon="11.7260147"><ele>642.0</ele><time>2026-04-05T09:46:04.308Z</time></trkpt><trkpt lat="45.9663278" lon="11.7258657"><ele>642.0</ele><time>2026-04-05T09:46:06.309Z</time></trkpt><trkpt lat="45.9662651" lon="11.7257218"><ele>642.0</ele><time>2026-04-05T09:46:08.309Z</time></trkpt><trkpt lat="45.9662336" lon="11.7256433"><ele>642.0</ele><time>2026-04-05T09:46:09.309Z</time></trkpt><trkpt lat="45.9661958" lon="11.7255523"><ele>642.0</ele><time>2026-04-05T09:46:10.309Z</time></trkpt><trkpt lat="45.9661657" lon="11.7254489"><ele>642.0</ele><time>2026-04-05T09:46:11.31Z</time></trkpt><trkpt lat="45.9661342" lon="11.7253532"><ele>642.0</ele><time>2026-04-05T09:46:12.31Z</time></trkpt><trkpt lat="45.9660709" lon="11.7251984"><ele>643.8</ele><time>2026-04-05T09:46:14.31Z</time></trkpt><trkpt lat="45.966018" lon="11.7250892"><ele>645.6</ele><time>2026-04-05T09:46:16.308Z</time></trkpt><trkpt lat="45.9659813" lon="11.7249734"><ele>647.4</ele><time>2026-04-05T09:46:19.31Z</time></trkpt><trkpt lat="45.9659082" lon="11.7248686"><ele>649.1999999999999</ele><time>2026-04-05T09:46:21.31Z</time></trkpt><trkpt lat="45.9658207" lon="11.7247695"><ele>651.0</ele><time>2026-04-05T09:46:23.309Z</time></trkpt><trkpt lat="45.9657057" lon="11.724658"><ele>651.0</ele><time>2026-04-05T09:46:25.309Z</time></trkpt><trkpt lat="45.9656392" lon="11.7245922"><ele>651.0</ele><time>2026-04-05T09:46:26.31Z</time></trkpt><trkpt lat="45.9655582" lon="11.724519"><ele>651.0</ele><time>2026-04-05T09:46:27.309Z</time></trkpt><trkpt lat="45.9654753" lon="11.72445"><ele>651.0</ele><time>2026-04-05T09:46:28.31Z</time></trkpt><trkpt lat="45.9653993" lon="11.7243886"><ele>651.0</ele><time>2026-04-05T09:46:29.309Z</time></trkpt><trkpt lat="45.9653282" lon="11.7243255"><ele>651.0</ele><time>2026-04-05T09:46:30.31Z</time></trkpt><trkpt lat="45.9652698" lon="11.7242682"><ele>651.8571428571429</ele><time>2026-04-05T09:46:31.309Z</time></trkpt><trkpt lat="45.9652121" lon="11.7242135"><ele>652.7142857142858</ele><time>2026-04-05T09:46:32.31Z</time></trkpt><trkpt lat="45.9651574" lon="11.7241622"><ele>653.5714285714286</ele><time>2026-04-05T09:46:33.309Z</time></trkpt><trkpt lat="45.9650972" lon="11.7241054"><ele>654.4285714285714</ele><time>2026-04-05T09:46:34.31Z</time></trkpt><trkpt lat="45.9650408" lon="11.7240479"><ele>655.2857142857143</ele><time>2026-04-05T09:46:35.311Z</time></trkpt><trkpt lat="45.9649873" lon="11.7239822"><ele>656.1428571428571</ele><time>2026-04-05T09:46:36.31Z</time></trkpt><trkpt lat="45.9649353" lon="11.723907"><ele>657.0</ele><time>2026-04-05T09:46:37.309Z</time></trkpt><trkpt lat="45.9648868" lon="11.7238239"><ele>657.0</ele><time>2026-04-05T09:46:38.31Z</time></trkpt><trkpt lat="45.9648473" lon="11.7237348"><ele>657.0</ele><time>2026-04-05T09:46:39.31Z</time></trkpt><trkpt lat="45.9648051" lon="11.7236485"><ele>657.0</ele><time>2026-04-05T09:46:40.31Z</time></trkpt><trkpt lat="45.9647614" lon="11.7235572"><ele>657.0</ele><time>2026-04-05T09:46:41.309Z</time></trkpt><trkpt lat="45.9647167" lon="11.7234643"><ele>657.0</ele><time>2026-04-05T09:46:42.309Z</time></trkpt><trkpt lat="45.9646781" lon="11.7233851"><ele>657.0</ele><time>2026-04-05T09:46:43.31Z</time></trkpt><trkpt lat="45.9646405" lon="11.7233098"><ele>657.0</ele><time>2026-04-05T09:46:44.31Z</time></trkpt><trkpt lat="45.9645665" lon="11.7231887"><ele>657.0</ele><time>2026-04-05T09:46:46.31Z</time></trkpt><trkpt lat="45.9644513" lon="11.7230931"><ele>657.0</ele><time>2026-04-05T09:46:48.31Z</time></trkpt><trkpt lat="45.964369" lon="11.7230463"><ele>657.0</ele><time>2026-04-05T09:46:49.309Z</time></trkpt><trkpt lat="45.9642427" lon="11.7229781"><ele>657.0</ele><time>2026-04-05T09:46:50.309Z</time></trkpt><trkpt lat="45.9641507" lon="11.7229377"><ele>657.0</ele><time>2026-04-05T09:46:51.311Z</time></trkpt><trkpt lat="45.9640682" lon="11.7228978"><ele>657.0</ele><time>2026-04-05T09:46:52.309Z</time></trkpt><trkpt lat="45.9639992" lon="11.7228589"><ele>657.0</ele><time>2026-04-05T09:46:53.31Z</time></trkpt><trkpt lat="45.963926" lon="11.722809"><ele>657.0</ele><time>2026-04-05T09:46:54.309Z</time></trkpt><trkpt lat="45.9638558" lon="11.7227665"><ele>657.0</ele><time>2026-04-05T09:46:55.31Z</time></trkpt><trkpt lat="45.9637827" lon="11.7227213"><ele>657.0</ele><time>2026-04-05T09:46:56.31Z</time></trkpt><trkpt lat="45.9637149" lon="11.7226738"><ele>651.0</ele><time>2026-04-05T09:46:57.311Z</time></trkpt><trkpt lat="45.9636437" lon="11.7226285"><ele>645.0</ele><time>2026-04-05T09:46:58.31Z</time></trkpt><trkpt lat="45.9635797" lon="11.7225863"><ele>639.0</ele><time>2026-04-05T09:46:59.31Z</time></trkpt><trkpt lat="45.9634711" lon="11.7225301"><ele>633.0</ele><time>2026-04-05T09:47:01.311Z</time></trkpt><trkpt lat="45.9634084" lon="11.7224949"><ele>627.0</ele><time>2026-04-05T09:47:03.31Z</time></trkpt><trkpt lat="45.9634752" lon="11.722526"><ele>621.0</ele><time>2026-04-05T09:47:09.31Z</time></trkpt><trkpt lat="45.9635402" lon="11.7225387"><ele>621.0</ele><time>2026-04-05T09:47:10.311Z</time></trkpt><trkpt lat="45.9636539" lon="11.7225775"><ele>621.0</ele><time>2026-04-05T09:47:12.31Z</time></trkpt><trkpt lat="45.9637474" lon="11.7226168"><ele>621.0</ele><time>2026-04-05T09:47:14.309Z</time></trkpt><trkpt lat="45.9638177" lon="11.7226606"><ele>621.0</ele><time>2026-04-05T09:47:16.309Z</time></trkpt><trkpt lat="45.9637527" lon="11.7226152"><ele>621.0</ele><time>2026-04-05T09:47:26.311Z</time></trkpt><trkpt lat="45.963822" lon="11.7226525"><ele>621.0</ele><time>2026-04-05T09:47:40.31Z</time></trkpt><trkpt lat="45.9638428" lon="11.7228103"><ele>627.0</ele><time>2026-04-05T09:47:58.311Z</time></trkpt><trkpt lat="45.9638791" lon="11.7229455"><ele>633.0</ele><time>2026-04-05T09:48:32.311Z</time></trkpt><trkpt lat="45.9639142" lon="11.7230632"><ele>639.0</ele><time>2026-04-05T09:48:34.312Z</time></trkpt><trkpt lat="45.9639628" lon="11.7231665"><ele>645.0</ele><time>2026-04-05T09:48:37.311Z</time></trkpt><trkpt lat="45.964" lon="11.723247"><ele>651.0</ele><time>2026-04-05T09:48:39.311Z</time></trkpt><trkpt lat="45.9640564" lon="11.7233612"><ele>657.0</ele><time>2026-04-05T09:48:41.311Z</time></trkpt><trkpt lat="45.964102" lon="11.7234346"><ele>657.0</ele><time>2026-04-05T09:48:43.311Z</time></trkpt><trkpt lat="45.9641535" lon="11.7234988"><ele>657.0</ele><time>2026-04-05T09:48:45.312Z</time></trkpt><trkpt lat="45.9642142" lon="11.7235504"><ele>657.0</ele><time>2026-04-05T09:48:47.311Z</time></trkpt><trkpt lat="45.9642482" lon="11.7236316"><ele>657.0</ele><time>2026-04-05T09:48:49.312Z</time></trkpt><trkpt lat="45.9642603" lon="11.7237434"><ele>657.0</ele><time>2026-04-05T09:48:52.312Z</time></trkpt><trkpt lat="45.9642641" lon="11.7238564"><ele>657.0</ele><time>2026-04-05T09:48:55.312Z</time></trkpt><trkpt lat="45.9642946" lon="11.7239759"><ele>657.0</ele><time>2026-04-05T09:48:59.313Z</time></trkpt><trkpt lat="45.9643372" lon="11.7240496"><ele>657.0</ele><time>2026-04-05T09:49:08.311Z</time></trkpt><trkpt lat="45.9643358" lon="11.7241413"><ele>657.0</ele><time>2026-04-05T09:49:10.311Z</time></trkpt><trkpt lat="45.9643411" lon="11.724277"><ele>657.0</ele><time>2026-04-05T09:49:13.311Z</time></trkpt><trkpt lat="45.9643402" lon="11.7243738"><ele>657.0</ele><time>2026-04-05T09:49:15.311Z</time></trkpt><trkpt lat="45.9643965" lon="11.7244943"><ele>657.0</ele><time>2026-04-05T09:49:17.312Z</time></trkpt><trkpt lat="45.964444" lon="11.7245899"><ele>661.8333333333334</ele><time>2026-04-05T09:49:20.312Z</time></trkpt><trkpt lat="45.9644825" lon="11.7247391"><ele>666.6666666666666</ele><time>2026-04-05T09:49:23.312Z</time></trkpt><trkpt lat="45.9645437" lon="11.7248476"><ele>671.5</ele><time>2026-04-05T09:49:25.311Z</time></trkpt><trkpt lat="45.9645849" lon="11.724917"><ele>676.3333333333333</ele><time>2026-04-05T09:49:26.311Z</time></trkpt><trkpt lat="45.964631" lon="11.7249991"><ele>681.1666666666666</ele><time>2026-04-05T09:49:27.312Z</time></trkpt><trkpt lat="45.9646759" lon="11.725071"><ele>686.0</ele><time>2026-04-05T09:49:28.311Z</time></trkpt><trkpt lat="45.9647241" lon="11.7251614"><ele>684.6666666666666</ele><time>2026-04-05T09:49:29.311Z</time></trkpt><trkpt lat="45.9647839" lon="11.7252394"><ele>683.3333333333333</ele><time>2026-04-05T09:49:30.312Z</time></trkpt><trkpt lat="45.964854" lon="11.7253286"><ele>682.0</ele><time>2026-04-05T09:49:31.312Z</time></trkpt><trkpt lat="45.9649246" lon="11.7254341"><ele>680.6666666666666</ele><time>2026-04-05T09:49:32.312Z</time></trkpt><trkpt lat="45.9649902" lon="11.7255226"><ele>679.3333333333334</ele><time>2026-04-05T09:49:33.313Z</time></trkpt><trkpt lat="45.9650389" lon="11.7256045"><ele>678.0</ele><time>2026-04-05T09:49:34.312Z</time></trkpt><trkpt lat="45.9650821" lon="11.725673"><ele>678.0</ele><time>2026-04-05T09:49:35.312Z</time></trkpt><trkpt lat="45.9651537" lon="11.7258171"><ele>678.0</ele><time>2026-04-05T09:49:37.313Z</time></trkpt><trkpt lat="45.9651839" lon="11.7259619"><ele>678.0</ele><time>2026-04-05T09:49:39.312Z</time></trkpt><trkpt lat="45.9652128" lon="11.7261151"><ele>678.0</ele><time>2026-04-05T09:49:41.313Z</time></trkpt><trkpt lat="45.965208" lon="11.7262689"><ele>678.0</ele><time>2026-04-05T09:49:43.313Z</time></trkpt><trkpt lat="45.9652269" lon="11.726445"><ele>681.5</ele><time>2026-04-05T09:49:45.312Z</time></trkpt><trkpt lat="45.9652927" lon="11.7265215"><ele>685.0</ele><time>2026-04-05T09:49:47.313Z</time></trkpt><trkpt lat="45.9653045" lon="11.7266331"><ele>688.5</ele><time>2026-04-05T09:49:54.312Z</time></trkpt><trkpt lat="45.9652252" lon="11.7265319"><ele>692.0</ele><time>2026-04-05T09:49:58.313Z</time></trkpt><trkpt lat="45.9651717" lon="11.7264621"><ele>695.5</ele><time>2026-04-05T09:49:59.313Z</time></trkpt><trkpt lat="45.9651141" lon="11.726411"><ele>699.0</ele><time>2026-04-05T09:50:00.313Z</time></trkpt><trkpt lat="45.965058" lon="11.7263616"><ele>703.8333333333334</ele><time>2026-04-05T09:50:01.312Z</time></trkpt><trkpt lat="45.9649707" lon="11.726285"><ele>708.6666666666666</ele><time>2026-04-05T09:50:03.312Z</time></trkpt><trkpt lat="45.9648964" lon="11.7262089"><ele>713.5</ele><time>2026-04-05T09:50:07.312Z</time></trkpt><trkpt lat="45.9648307" lon="11.7261191"><ele>718.3333333333333</ele><time>2026-04-05T09:50:09.312Z</time></trkpt><trkpt lat="45.9648795" lon="11.7261931"><ele>723.1666666666666</ele><time>2026-04-05T09:50:23.312Z</time></trkpt><trkpt lat="45.9649474" lon="11.7262707"><ele>728.0</ele><time>2026-04-05T09:50:24.312Z</time></trkpt><trkpt lat="45.965006" lon="11.7263257"><ele>722.2</ele><time>2026-04-05T09:50:25.313Z</time></trkpt><trkpt lat="45.9650598" lon="11.7263751"><ele>716.4</ele><time>2026-04-05T09:50:26.314Z</time></trkpt><trkpt lat="45.9651434" lon="11.7264714"><ele>710.6</ele><time>2026-04-05T09:50:28.312Z</time></trkpt><trkpt lat="45.9652282" lon="11.726572"><ele>704.8000000000001</ele><time>2026-04-05T09:50:30.313Z</time></trkpt><trkpt lat="45.9653321" lon="11.7266991"><ele>699.0</ele><time>2026-04-05T09:50:32.313Z</time></trkpt><trkpt lat="45.9653958" lon="11.7267981"><ele>702.2</ele><time>2026-04-05T09:50:33.314Z</time></trkpt><trkpt lat="45.965469" lon="11.7269128"><ele>705.4000000000001</ele><time>2026-04-05T09:50:34.313Z</time></trkpt><trkpt lat="45.9655361" lon="11.7270266"><ele>708.6</ele><time>2026-04-05T09:50:35.314Z</time></trkpt><trkpt lat="45.9656049" lon="11.7271394"><ele>711.8</ele><time>2026-04-05T09:50:36.314Z</time></trkpt><trkpt lat="45.9656798" lon="11.7272041"><ele>715.0</ele><time>2026-04-05T09:50:37.313Z</time></trkpt><trkpt lat="45.9657466" lon="11.7272492"><ele>715.0</ele><time>2026-04-05T09:50:38.313Z</time></trkpt><trkpt lat="45.9658045" lon="11.7272888"><ele>715.0</ele><time>2026-04-05T09:50:39.313Z</time></trkpt><trkpt lat="45.9658449" lon="11.7273847"><ele>715.0</ele><time>2026-04-05T09:50:41.313Z</time></trkpt><trkpt lat="45.9658099" lon="11.7274676"><ele>715.0</ele><time>2026-04-05T09:50:46.313Z</time></trkpt><trkpt lat="45.9658066" lon="11.7275952"><ele>715.0</ele><time>2026-04-05T09:50:48.313Z</time></trkpt><trkpt lat="45.9658241" lon="11.7277012"><ele>715.0</ele><time>2026-04-05T09:50:49.313Z</time></trkpt><trkpt lat="45.9658477" lon="11.727798"><ele>715.0</ele><time>2026-04-05T09:50:50.314Z</time></trkpt><trkpt lat="45.9658654" lon="11.7278977"><ele>716.5</ele><time>2026-04-05T09:50:55.314Z</time></trkpt><trkpt lat="45.9658598" lon="11.7280227"><ele>718.0</ele><time>2026-04-05T09:50:58.314Z</time></trkpt><trkpt lat="45.9658326" lon="11.7281632"><ele>719.5</ele><time>2026-04-05T09:51:00.313Z</time></trkpt><trkpt lat="45.9657659" lon="11.7281066"><ele>721.0</ele><time>2026-04-05T09:51:16.313Z</time></trkpt><trkpt lat="45.9657297" lon="11.7281818"><ele>722.5</ele><time>2026-04-05T09:51:18.314Z</time></trkpt><trkpt lat="45.9657298" lon="11.7283307"><ele>724.0</ele><time>2026-04-05T09:51:20.313Z</time></trkpt><trkpt lat="45.9657113" lon="11.7284913"><ele>722.5</ele><time>2026-04-05T09:51:22.313Z</time></trkpt><trkpt lat="45.9656756" lon="11.7286166"><ele>721.0</ele><time>2026-04-05T09:51:24.314Z</time></trkpt><trkpt lat="45.9656219" lon="11.7287358"><ele>719.5</ele><time>2026-04-05T09:51:26.313Z</time></trkpt><trkpt lat="45.9655491" lon="11.7288372"><ele>718.0</ele><time>2026-04-05T09:51:28.314Z</time></trkpt><trkpt lat="45.9654945" lon="11.7288839"><ele>716.5</ele><time>2026-04-05T09:51:29.314Z</time></trkpt><trkpt lat="45.9654333" lon="11.7289308"><ele>715.0</ele><time>2026-04-05T09:51:30.314Z</time></trkpt><trkpt lat="45.9653738" lon="11.7289695"><ele>715.0</ele><time>2026-04-05T09:51:31.313Z</time></trkpt><trkpt lat="45.9652942" lon="11.7289949"><ele>715.0</ele><time>2026-04-05T09:51:32.313Z</time></trkpt><trkpt lat="45.9652238" lon="11.7290294"><ele>715.0</ele><time>2026-04-05T09:51:33.313Z</time></trkpt><trkpt lat="45.9651548" lon="11.7290647"><ele>715.0</ele><time>2026-04-05T09:51:34.313Z</time></trkpt><trkpt lat="45.9650873" lon="11.7291268"><ele>715.0</ele><time>2026-04-05T09:51:35.313Z</time></trkpt><trkpt lat="45.9650246" lon="11.7291894"><ele>715.0</ele><time>2026-04-05T09:51:36.314Z</time></trkpt><trkpt lat="45.9649683" lon="11.7292485"><ele>718.8333333333334</ele><time>2026-04-05T09:51:37.314Z</time></trkpt><trkpt lat="45.964914" lon="11.7293095"><ele>722.6666666666667</ele><time>2026-04-05T09:51:38.313Z</time></trkpt><trkpt lat="45.9648614" lon="11.7293604"><ele>726.5</ele><time>2026-04-05T09:51:39.314Z</time></trkpt><trkpt lat="45.9647955" lon="11.7294102"><ele>730.3333333333334</ele><time>2026-04-05T09:51:40.315Z</time></trkpt><trkpt lat="45.9647355" lon="11.7294709"><ele>734.1666666666666</ele><time>2026-04-05T09:51:41.315Z</time></trkpt><trkpt lat="45.9646575" lon="11.7295947"><ele>738.0</ele><time>2026-04-05T09:51:43.314Z</time></trkpt><trkpt lat="45.9646197" lon="11.7296742"><ele>738.0</ele><time>2026-04-05T09:51:44.315Z</time></trkpt><trkpt lat="45.9645554" lon="11.7297741"><ele>738.0</ele><time>2026-04-05T09:51:46.314Z</time></trkpt><trkpt lat="45.9644515" lon="11.729832"><ele>738.0</ele><time>2026-04-05T09:51:48.314Z</time></trkpt><trkpt lat="45.9643279" lon="11.729825"><ele>738.0</ele><time>2026-04-05T09:51:50.314Z</time></trkpt><trkpt lat="45.9642519" lon="11.7298078"><ele>738.0</ele><time>2026-04-05T09:51:51.314Z</time></trkpt><trkpt lat="45.9641602" lon="11.7297998"><ele>742.5</ele><time>2026-04-05T09:51:52.314Z</time></trkpt><trkpt lat="45.9640774" lon="11.7297902"><ele>747.0</ele><time>2026-04-05T09:51:53.314Z</time></trkpt><trkpt lat="45.9640021" lon="11.7297821"><ele>751.5</ele><time>2026-04-05T09:51:54.315Z</time></trkpt><trkpt lat="45.9639412" lon="11.7297285"><ele>756.0</ele><time>2026-04-05T09:51:57.315Z</time></trkpt><trkpt lat="45.963957" lon="11.7295618"><ele>760.5</ele><time>2026-04-05T09:52:00.314Z</time></trkpt><trkpt lat="45.9639753" lon="11.7294558"><ele>765.0</ele><time>2026-04-05T09:52:01.315Z</time></trkpt><trkpt lat="45.9639785" lon="11.7293548"><ele>765.2</ele><time>2026-04-05T09:52:02.314Z</time></trkpt><trkpt lat="45.9639748" lon="11.7292451"><ele>765.4</ele><time>2026-04-05T09:52:03.315Z</time></trkpt><trkpt lat="45.9639495" lon="11.7290566"><ele>765.5999999999999</ele><time>2026-04-05T09:52:05.314Z</time></trkpt><trkpt lat="45.9639095" lon="11.7288859"><ele>765.8</ele><time>2026-04-05T09:52:07.314Z</time></trkpt><trkpt lat="45.9639083" lon="11.7287939"><ele>766.0</ele><time>2026-04-05T09:52:08.315Z</time></trkpt><trkpt lat="45.9639278" lon="11.7286947"><ele>766.0</ele><time>2026-04-05T09:52:09.314Z</time></trkpt><trkpt lat="45.9639485" lon="11.7285942"><ele>766.0</ele><time>2026-04-05T09:52:10.314Z</time></trkpt><trkpt lat="45.963955" lon="11.7284931"><ele>766.0</ele><time>2026-04-05T09:52:11.314Z</time></trkpt><trkpt lat="45.963943" lon="11.7284004"><ele>766.0</ele><time>2026-04-05T09:52:12.316Z</time></trkpt><trkpt lat="45.9639179" lon="11.7283123"><ele>766.0</ele><time>2026-04-05T09:52:13.315Z</time></trkpt><trkpt lat="45.9638877" lon="11.7282201"><ele>766.0</ele><time>2026-04-05T09:52:14.314Z</time></trkpt><trkpt lat="45.9638621" lon="11.7281188"><ele>766.0</ele><time>2026-04-05T09:52:15.315Z</time></trkpt><trkpt lat="45.9638407" lon="11.7280326"><ele>766.6666666666667</ele><time>2026-04-05T09:52:16.315Z</time></trkpt><trkpt lat="45.9637788" lon="11.727891"><ele>767.3333333333334</ele><time>2026-04-05T09:52:18.315Z</time></trkpt><trkpt lat="45.9637215" lon="11.7278075"><ele>768.0</ele><time>2026-04-05T09:52:19.314Z</time></trkpt><trkpt lat="45.9636618" lon="11.7277189"><ele>768.6666666666667</ele><time>2026-04-05T09:52:20.314Z</time></trkpt><trkpt lat="45.9636201" lon="11.7276346"><ele>769.3333333333334</ele><time>2026-04-05T09:52:21.314Z</time></trkpt><trkpt lat="45.9635898" lon="11.7275546"><ele>770.0</ele><time>2026-04-05T09:52:22.315Z</time></trkpt><trkpt lat="45.9635356" lon="11.7274789"><ele>770.1666666666667</ele><time>2026-04-05T09:52:24.314Z</time></trkpt><trkpt lat="45.9634682" lon="11.7274595"><ele>770.3333333333334</ele><time>2026-04-05T09:52:26.315Z</time></trkpt><trkpt lat="45.9633983" lon="11.7274621"><ele>770.5</ele><time>2026-04-05T09:52:27.315Z</time></trkpt><trkpt lat="45.9632948" lon="11.7274951"><ele>770.6666666666667</ele><time>2026-04-05T09:52:29.314Z</time></trkpt><trkpt lat="45.9632057" lon="11.7274641"><ele>770.8333333333334</ele><time>2026-04-05T09:52:31.316Z</time></trkpt><trkpt lat="45.9631266" lon="11.727476"><ele>771.0</ele><time>2026-04-05T09:52:33.314Z</time></trkpt><trkpt lat="45.9630247" lon="11.7275472"><ele>774.3333333333334</ele><time>2026-04-05T09:52:35.315Z</time></trkpt><trkpt lat="45.9629635" lon="11.7275802"><ele>777.6666666666667</ele><time>2026-04-05T09:52:36.316Z</time></trkpt><trkpt lat="45.9628715" lon="11.7277062"><ele>781.0</ele><time>2026-04-05T09:52:38.315Z</time></trkpt><trkpt lat="45.9628218" lon="11.7277811"><ele>784.3333333333334</ele><time>2026-04-05T09:52:39.315Z</time></trkpt><trkpt lat="45.9627571" lon="11.7278583"><ele>787.6666666666667</ele><time>2026-04-05T09:52:40.315Z</time></trkpt><trkpt lat="45.962701" lon="11.727938"><ele>791.0</ele><time>2026-04-05T09:52:41.315Z</time></trkpt><trkpt lat="45.9626656" lon="11.7280318"><ele>791.0</ele><time>2026-04-05T09:52:42.315Z</time></trkpt><trkpt lat="45.9626304" lon="11.7281221"><ele>791.0</ele><time>2026-04-05T09:52:43.315Z</time></trkpt><trkpt lat="45.9625513" lon="11.7282356"><ele>791.0</ele><time>2026-04-05T09:52:45.315Z</time></trkpt><trkpt lat="45.9624877" lon="11.7282898"><ele>791.0</ele><time>2026-04-05T09:52:48.315Z</time></trkpt><trkpt lat="45.9624162" lon="11.7283783"><ele>791.0</ele><time>2026-04-05T09:52:50.315Z</time></trkpt><trkpt lat="45.9623089" lon="11.728446"><ele>790.8333333333334</ele><time>2026-04-05T09:52:52.315Z</time></trkpt><trkpt lat="45.9622262" lon="11.7285438"><ele>790.6666666666667</ele><time>2026-04-05T09:52:54.316Z</time></trkpt><trkpt lat="45.9621626" lon="11.7286492"><ele>790.5</ele><time>2026-04-05T09:52:56.315Z</time></trkpt><trkpt lat="45.9620835" lon="11.7286821"><ele>790.3333333333333</ele><time>2026-04-05T09:52:58.316Z</time></trkpt><trkpt lat="45.962006" lon="11.7287233"><ele>790.1666666666666</ele><time>2026-04-05T09:53:08.315Z</time></trkpt><trkpt lat="45.9619428" lon="11.7287608"><ele>790.0</ele><time>2026-04-05T09:53:09.315Z</time></trkpt><trkpt lat="45.9618757" lon="11.7288182"><ele>790.0</ele><time>2026-04-05T09:53:10.316Z</time></trkpt><trkpt lat="45.9617798" lon="11.7288919"><ele>790.0</ele><time>2026-04-05T09:53:11.316Z</time></trkpt><trkpt lat="45.9616952" lon="11.7289133"><ele>790.0</ele><time>2026-04-05T09:53:12.315Z</time></trkpt><trkpt lat="45.9616206" lon="11.7289244"><ele>790.0</ele><time>2026-04-05T09:53:13.315Z</time></trkpt><trkpt lat="45.9615163" lon="11.7289943"><ele>790.0</ele><time>2026-04-05T09:53:15.315Z</time></trkpt><trkpt lat="45.9614654" lon="11.7290552"><ele>790.9999999999999</ele><time>2026-04-05T09:53:16.316Z</time></trkpt><trkpt lat="45.9614297" lon="11.7291443"><ele>792.0</ele><time>2026-04-05T09:53:17.315Z</time></trkpt><trkpt lat="45.9613891" lon="11.7292163"><ele>793.0</ele><time>2026-04-05T09:53:18.316Z</time></trkpt><trkpt lat="45.9612871" lon="11.7292793"><ele>794.0</ele><time>2026-04-05T09:53:20.315Z</time></trkpt><trkpt lat="45.9612107" lon="11.729304"><ele>794.9999999999999</ele><time>2026-04-05T09:53:21.316Z</time></trkpt><trkpt lat="45.961089" lon="11.7293053"><ele>796.0</ele><time>2026-04-05T09:53:23.317Z</time></trkpt><trkpt lat="45.9610174" lon="11.7293297"><ele>795.25</ele><time>2026-04-05T09:53:26.317Z</time></trkpt><trkpt lat="45.9609666" lon="11.7294236"><ele>794.5</ele><time>2026-04-05T09:53:28.316Z</time></trkpt><trkpt lat="45.9608534" lon="11.7295037"><ele>793.75</ele><time>2026-04-05T09:53:30.316Z</time></trkpt><trkpt lat="45.9607763" lon="11.7295626"><ele>793.0</ele><time>2026-04-05T09:53:31.316Z</time></trkpt><trkpt lat="45.9605711" lon="11.7296529"><ele>795.8</ele><time>2026-04-05T09:53:33.317Z</time></trkpt><trkpt lat="45.9604807" lon="11.7296692"><ele>798.5999999999999</ele><time>2026-04-05T09:53:34.317Z</time></trkpt><trkpt lat="45.9604075" lon="11.7296785"><ele>801.4000000000001</ele><time>2026-04-05T09:53:35.316Z</time></trkpt><trkpt lat="45.9603345" lon="11.7297164"><ele>804.2</ele><time>2026-04-05T09:53:37.315Z</time></trkpt><trkpt lat="45.9602386" lon="11.7297895"><ele>807.0</ele><time>2026-04-05T09:53:39.315Z</time></trkpt><trkpt lat="45.960146" lon="11.7298636"><ele>807.0</ele><time>2026-04-05T09:53:41.316Z</time></trkpt><trkpt lat="45.9600425" lon="11.7299239"><ele>807.0</ele><time>2026-04-05T09:53:43.316Z</time></trkpt><trkpt lat="45.9599674" lon="11.7299487"><ele>807.0</ele><time>2026-04-05T09:53:44.317Z</time></trkpt><trkpt lat="45.9599004" lon="11.7299479"><ele>807.0</ele><time>2026-04-05T09:53:45.317Z</time></trkpt><trkpt lat="45.9598225" lon="11.7298915"><ele>807.0</ele><time>2026-04-05T09:53:47.316Z</time></trkpt><trkpt lat="45.959762" lon="11.7299561"><ele>807.0</ele><time>2026-04-05T09:53:52.316Z</time></trkpt><trkpt lat="45.9597481" lon="11.730056"><ele>806.2</ele><time>2026-04-05T09:53:54.317Z</time></trkpt><trkpt lat="45.9596931" lon="11.7301963"><ele>805.4000000000001</ele><time>2026-04-05T09:53:56.316Z</time></trkpt><trkpt lat="45.9596761" lon="11.7303478"><ele>804.5999999999999</ele><time>2026-04-05T09:53:58.316Z</time></trkpt><trkpt lat="45.9596913" lon="11.7305268"><ele>803.8</ele><time>2026-04-05T09:54:00.317Z</time></trkpt><trkpt lat="45.9596635" lon="11.7306382"><ele>803.0</ele><time>2026-04-05T09:54:03.316Z</time></trkpt><trkpt lat="45.9596024" lon="11.73079"><ele>803.0000000000001</ele><time>2026-04-05T09:54:05.317Z</time></trkpt><trkpt lat="45.9595675" lon="11.7308862"><ele>803.0</ele><time>2026-04-05T09:54:06.316Z</time></trkpt><trkpt lat="45.9595399" lon="11.7310096"><ele>803.0</ele><time>2026-04-05T09:54:07.316Z</time></trkpt><trkpt lat="45.9594999" lon="11.7311359"><ele>803.0</ele><time>2026-04-05T09:54:08.316Z</time></trkpt><trkpt lat="45.9594274" lon="11.7312205"><ele>803.0000000000001</ele><time>2026-04-05T09:54:10.316Z</time></trkpt><trkpt lat="45.959377" lon="11.731318"><ele>803.0</ele><time>2026-04-05T09:54:13.316Z</time></trkpt><trkpt lat="45.9593721" lon="11.7314264"><ele>801.8</ele><time>2026-04-05T09:54:15.316Z</time></trkpt><trkpt lat="45.9593449" lon="11.7315627"><ele>800.5999999999999</ele><time>2026-04-05T09:54:17.317Z</time></trkpt><trkpt lat="45.9593143" lon="11.731677"><ele>799.4000000000001</ele><time>2026-04-05T09:54:19.316Z</time></trkpt><trkpt lat="45.9592876" lon="11.7318163"><ele>798.2</ele><time>2026-04-05T09:54:22.316Z</time></trkpt><trkpt lat="45.9592546" lon="11.7319429"><ele>797.0</ele><time>2026-04-05T09:54:24.316Z</time></trkpt><trkpt lat="45.9592086" lon="11.7320467"><ele>796.6666666666667</ele><time>2026-04-05T09:54:26.317Z</time></trkpt><trkpt lat="45.9591498" lon="11.7321053"><ele>796.3333333333334</ele><time>2026-04-05T09:54:28.316Z</time></trkpt><trkpt lat="45.9590739" lon="11.7321419"><ele>796.0</ele><time>2026-04-05T09:54:30.316Z</time></trkpt><trkpt lat="45.9590262" lon="11.7322309"><ele>795.6666666666667</ele><time>2026-04-05T09:54:34.316Z</time></trkpt><trkpt lat="45.9589765" lon="11.7323229"><ele>795.3333333333334</ele><time>2026-04-05T09:54:36.316Z</time></trkpt><trkpt lat="45.9589363" lon="11.7323935"><ele>795.0</ele><time>2026-04-05T09:54:37.317Z</time></trkpt><trkpt lat="45.9588872" lon="11.7324767"><ele>795.0</ele><time>2026-04-05T09:54:38.316Z</time></trkpt><trkpt lat="45.9588314" lon="11.7325585"><ele>795.0</ele><time>2026-04-05T09:54:39.317Z</time></trkpt><trkpt lat="45.958768" lon="11.7326658"><ele>795.0</ele><time>2026-04-05T09:54:41.318Z</time></trkpt><trkpt lat="45.9586747" lon="11.7327637"><ele>795.0</ele><time>2026-04-05T09:54:43.317Z</time></trkpt><trkpt lat="45.9586086" lon="11.7327946"><ele>795.0</ele><time>2026-04-05T09:54:44.318Z</time></trkpt><trkpt lat="45.9584843" lon="11.7328184"><ele>793.6</ele><time>2026-04-05T09:54:46.317Z</time></trkpt><trkpt lat="45.9584157" lon="11.7328272"><ele>792.2</ele><time>2026-04-05T09:54:47.318Z</time></trkpt><trkpt lat="45.9583153" lon="11.7328952"><ele>790.8</ele><time>2026-04-05T09:54:49.317Z</time></trkpt><trkpt lat="45.9582711" lon="11.7329647"><ele>789.4</ele><time>2026-04-05T09:54:50.317Z</time></trkpt><trkpt lat="45.9582121" lon="11.7331169"><ele>788.0</ele><time>2026-04-05T09:54:52.318Z</time></trkpt><trkpt lat="45.9581558" lon="11.7332397"><ele>787.8</ele><time>2026-04-05T09:54:54.318Z</time></trkpt><trkpt lat="45.958086" lon="11.7333883"><ele>787.5999999999999</ele><time>2026-04-05T09:54:56.317Z</time></trkpt><trkpt lat="45.9580215" lon="11.7335273"><ele>787.4000000000001</ele><time>2026-04-05T09:54:58.317Z</time></trkpt><trkpt lat="45.9579409" lon="11.7336578"><ele>787.2</ele><time>2026-04-05T09:55:00.317Z</time></trkpt><trkpt lat="45.9578885" lon="11.7337516"><ele>787.0</ele><time>2026-04-05T09:55:02.318Z</time></trkpt><trkpt lat="45.9578337" lon="11.7338036"><ele>786.1666666666666</ele><time>2026-04-05T09:55:20.318Z</time></trkpt><trkpt lat="45.9577681" lon="11.7338184"><ele>785.3333333333333</ele><time>2026-04-05T09:55:21.317Z</time></trkpt><trkpt lat="45.9576939" lon="11.7338348"><ele>784.5</ele><time>2026-04-05T09:55:22.318Z</time></trkpt><trkpt lat="45.9576007" lon="11.7338423"><ele>783.6666666666667</ele><time>2026-04-05T09:55:24.318Z</time></trkpt><trkpt lat="45.9575294" lon="11.7338407"><ele>782.8333333333334</ele><time>2026-04-05T09:55:26.319Z</time></trkpt><trkpt lat="45.9574551" lon="11.7339031"><ele>782.0</ele><time>2026-04-05T09:55:28.317Z</time></trkpt><trkpt lat="45.9573798" lon="11.7339463"><ele>784.8</ele><time>2026-04-05T09:55:30.318Z</time></trkpt><trkpt lat="45.9572905" lon="11.7339799"><ele>787.6</ele><time>2026-04-05T09:55:32.318Z</time></trkpt><trkpt lat="45.9572134" lon="11.7339994"><ele>790.4</ele><time>2026-04-05T09:55:34.317Z</time></trkpt><trkpt lat="45.9570998" lon="11.7340518"><ele>793.1999999999999</ele><time>2026-04-05T09:55:36.317Z</time></trkpt><trkpt lat="45.9570021" lon="11.7341178"><ele>796.0</ele><time>2026-04-05T09:55:38.317Z</time></trkpt><trkpt lat="45.9569277" lon="11.7342433"><ele>795.9999999999999</ele><time>2026-04-05T09:55:40.318Z</time></trkpt><trkpt lat="45.9568698" lon="11.7343152"><ele>796.0</ele><time>2026-04-05T09:55:41.317Z</time></trkpt><trkpt lat="45.9568087" lon="11.7343608"><ele>796.0</ele><time>2026-04-05T09:55:42.317Z</time></trkpt><trkpt lat="45.9567512" lon="11.7344034"><ele>796.0</ele><time>2026-04-05T09:55:43.317Z</time></trkpt><trkpt lat="45.95666" lon="11.7344507"><ele>795.9999999999999</ele><time>2026-04-05T09:55:45.317Z</time></trkpt><trkpt lat="45.9565581" lon="11.7345001"><ele>796.0</ele><time>2026-04-05T09:55:47.318Z</time></trkpt><trkpt lat="45.9564919" lon="11.734625"><ele>799.9999999999999</ele><time>2026-04-05T09:55:49.318Z</time></trkpt><trkpt lat="45.9564503" lon="11.7346975"><ele>804.0</ele><time>2026-04-05T09:55:51.319Z</time></trkpt><trkpt lat="45.9563492" lon="11.7346779"><ele>808.0</ele><time>2026-04-05T09:55:54.319Z</time></trkpt><trkpt lat="45.9562593" lon="11.7346768"><ele>812.0</ele><time>2026-04-05T09:55:56.319Z</time></trkpt><trkpt lat="45.9562035" lon="11.7347236"><ele>815.9999999999999</ele><time>2026-04-05T09:55:58.319Z</time></trkpt><trkpt lat="45.9561503" lon="11.7348664"><ele>820.0</ele><time>2026-04-05T09:56:00.319Z</time></trkpt><trkpt lat="45.9560552" lon="11.7349959"><ele>820.0</ele><time>2026-04-05T09:56:02.318Z</time></trkpt><trkpt lat="45.9559888" lon="11.7350652"><ele>820.0</ele><time>2026-04-05T09:56:03.318Z</time></trkpt><trkpt lat="45.9559032" lon="11.7351804"><ele>820.0</ele><time>2026-04-05T09:56:04.319Z</time></trkpt><trkpt lat="45.9558027" lon="11.7353198"><ele>820.0</ele><time>2026-04-05T09:56:05.319Z</time></trkpt><trkpt lat="45.9557183" lon="11.7354465"><ele>823.0</ele><time>2026-04-05T09:56:06.318Z</time></trkpt><trkpt lat="45.9556429" lon="11.7354908"><ele>826.0</ele><time>2026-04-05T09:56:07.318Z</time></trkpt><trkpt lat="45.9555703" lon="11.7355155"><ele>829.0</ele><time>2026-04-05T09:56:08.318Z</time></trkpt><trkpt lat="45.9554696" lon="11.7356012"><ele>832.0</ele><time>2026-04-05T09:56:10.319Z</time></trkpt><trkpt lat="45.9553536" lon="11.7356901"><ele>835.0</ele><time>2026-04-05T09:56:12.318Z</time></trkpt><trkpt lat="45.9552789" lon="11.7357071"><ele>835.0</ele><time>2026-04-05T09:56:13.318Z</time></trkpt><trkpt lat="45.9552022" lon="11.7357212"><ele>835.0</ele><time>2026-04-05T09:56:14.318Z</time></trkpt><trkpt lat="45.9551228" lon="11.7357288"><ele>835.0</ele><time>2026-04-05T09:56:15.319Z</time></trkpt><trkpt lat="45.9550534" lon="11.7357295"><ele>835.0</ele><time>2026-04-05T09:56:16.319Z</time></trkpt><trkpt lat="45.9549458" lon="11.7357573"><ele>835.0</ele><time>2026-04-05T09:56:18.319Z</time></trkpt><trkpt lat="45.9548373" lon="11.7358162"><ele>835.8</ele><time>2026-04-05T09:56:20.318Z</time></trkpt><trkpt lat="45.9547358" lon="11.7358781"><ele>836.6</ele><time>2026-04-05T09:56:22.319Z</time></trkpt><trkpt lat="45.9546378" lon="11.7359382"><ele>837.4000000000001</ele><time>2026-04-05T09:56:24.318Z</time></trkpt><trkpt lat="45.9545534" lon="11.7360089"><ele>838.2</ele><time>2026-04-05T09:56:26.318Z</time></trkpt><trkpt lat="45.9544604" lon="11.736086"><ele>839.0</ele><time>2026-04-05T09:56:28.319Z</time></trkpt><trkpt lat="45.9543577" lon="11.736143"><ele>839.0000000000001</ele><time>2026-04-05T09:56:42.318Z</time></trkpt><trkpt lat="45.9542691" lon="11.7361776"><ele>839.0</ele><time>2026-04-05T09:56:43.319Z</time></trkpt><trkpt lat="45.9541914" lon="11.736219"><ele>839.0</ele><time>2026-04-05T09:56:44.319Z</time></trkpt><trkpt lat="45.9541182" lon="11.7362494"><ele>839.0</ele><time>2026-04-05T09:56:45.318Z</time></trkpt><trkpt lat="45.9540472" lon="11.7362727"><ele>839.0000000000001</ele><time>2026-04-05T09:56:46.32Z</time></trkpt><trkpt lat="45.9539733" lon="11.7362976"><ele>839.0</ele><time>2026-04-05T09:56:47.319Z</time></trkpt><trkpt lat="45.9538982" lon="11.7363169"><ele>841.8571428571428</ele><time>2026-04-05T09:56:48.319Z</time></trkpt><trkpt lat="45.9538223" lon="11.7363234"><ele>844.7142857142858</ele><time>2026-04-05T09:56:49.319Z</time></trkpt><trkpt lat="45.9537468" lon="11.7363274"><ele>847.5714285714286</ele><time>2026-04-05T09:56:50.319Z</time></trkpt><trkpt lat="45.9536695" lon="11.7363387"><ele>850.4285714285713</ele><time>2026-04-05T09:56:51.319Z</time></trkpt><trkpt lat="45.9535979" lon="11.7363653"><ele>853.2857142857142</ele><time>2026-04-05T09:56:52.32Z</time></trkpt><trkpt lat="45.9535312" lon="11.7364022"><ele>856.1428571428571</ele><time>2026-04-05T09:56:53.319Z</time></trkpt><trkpt lat="45.9534668" lon="11.7364394"><ele>859.0</ele><time>2026-04-05T09:56:54.32Z</time></trkpt><trkpt lat="45.9534015" lon="11.7364752"><ele>860.1666666666666</ele><time>2026-04-05T09:56:55.319Z</time></trkpt><trkpt lat="45.9533396" lon="11.736514"><ele>861.3333333333333</ele><time>2026-04-05T09:56:56.319Z</time></trkpt><trkpt lat="45.9532794" lon="11.7365704"><ele>862.5</ele><time>2026-04-05T09:56:57.319Z</time></trkpt><trkpt lat="45.9532192" lon="11.7366338"><ele>863.6666666666667</ele><time>2026-04-05T09:56:58.319Z</time></trkpt><trkpt lat="45.9531488" lon="11.7366958"><ele>864.8333333333334</ele><time>2026-04-05T09:56:59.32Z</time></trkpt><trkpt lat="45.9530549" lon="11.7367459"><ele>866.0</ele><time>2026-04-05T09:57:00.319Z</time></trkpt><trkpt lat="45.9529509" lon="11.7367759"><ele>866.0000000000001</ele><time>2026-04-05T09:57:01.319Z</time></trkpt><trkpt lat="45.9528526" lon="11.7367994"><ele>866.0</ele><time>2026-04-05T09:57:02.319Z</time></trkpt><trkpt lat="45.9527646" lon="11.7368229"><ele>866.0</ele><time>2026-04-05T09:57:03.319Z</time></trkpt><trkpt lat="45.9526791" lon="11.7368473"><ele>866.0</ele><time>2026-04-05T09:57:04.319Z</time></trkpt><trkpt lat="45.952596" lon="11.736877"><ele>866.0000000000001</ele><time>2026-04-05T09:57:05.321Z</time></trkpt><trkpt lat="45.9525165" lon="11.7369071"><ele>866.0</ele><time>2026-04-05T09:57:06.319Z</time></trkpt><trkpt lat="45.9524422" lon="11.7369326"><ele>865.9999999999999</ele><time>2026-04-05T09:57:07.32Z</time></trkpt><trkpt lat="45.9523756" lon="11.7369529"><ele>866.0</ele><time>2026-04-05T09:57:08.32Z</time></trkpt><trkpt lat="45.9523076" lon="11.7369875"><ele>866.0</ele><time>2026-04-05T09:57:09.319Z</time></trkpt><trkpt lat="45.9522452" lon="11.7370379"><ele>866.0</ele><time>2026-04-05T09:57:10.319Z</time></trkpt><trkpt lat="45.9521858" lon="11.7370967"><ele>866.0</ele><time>2026-04-05T09:57:11.32Z</time></trkpt><trkpt lat="45.9521314" lon="11.7371662"><ele>865.9999999999999</ele><time>2026-04-05T09:57:12.319Z</time></trkpt><trkpt lat="45.9520722" lon="11.7372384"><ele>866.0</ele><time>2026-04-05T09:57:13.321Z</time></trkpt><trkpt lat="45.9519985" lon="11.7373052"><ele>866.0</ele><time>2026-04-05T09:57:14.319Z</time></trkpt><trkpt lat="45.951911" lon="11.7373627"><ele>865.9999999999999</ele><time>2026-04-05T09:57:15.32Z</time></trkpt><trkpt lat="45.9518159" lon="11.7374051"><ele>865.9999999999999</ele><time>2026-04-05T09:57:16.32Z</time></trkpt><trkpt lat="45.9517199" lon="11.7374371"><ele>866.0</ele><time>2026-04-05T09:57:17.32Z</time></trkpt><trkpt lat="45.9516243" lon="11.7374654"><ele>866.0</ele><time>2026-04-05T09:57:18.321Z</time></trkpt><trkpt lat="45.9515346" lon="11.7374932"><ele>866.4</ele><time>2026-04-05T09:57:19.32Z</time></trkpt><trkpt lat="45.9514465" lon="11.7375186"><ele>866.8</ele><time>2026-04-05T09:57:20.32Z</time></trkpt><trkpt lat="45.9513505" lon="11.7375405"><ele>867.1999999999999</ele><time>2026-04-05T09:57:21.321Z</time></trkpt><trkpt lat="45.9512487" lon="11.7375607"><ele>867.5999999999999</ele><time>2026-04-05T09:57:22.319Z</time></trkpt><trkpt lat="45.9511524" lon="11.7375822"><ele>868.0</ele><time>2026-04-05T09:57:23.32Z</time></trkpt><trkpt lat="45.9510651" lon="11.7376068"><ele>867.9999999999999</ele><time>2026-04-05T09:57:24.319Z</time></trkpt><trkpt lat="45.9509809" lon="11.7376335"><ele>868.0</ele><time>2026-04-05T09:57:25.319Z</time></trkpt><trkpt lat="45.9508931" lon="11.7376615"><ele>868.0</ele><time>2026-04-05T09:57:26.321Z</time></trkpt><trkpt lat="45.9508064" lon="11.7376961"><ele>868.0</ele><time>2026-04-05T09:57:27.319Z</time></trkpt><trkpt lat="45.9507254" lon="11.7377307"><ele>867.9999999999999</ele><time>2026-04-05T09:57:28.32Z</time></trkpt><trkpt lat="45.9506413" lon="11.737766"><ele>868.0</ele><time>2026-04-05T09:57:29.321Z</time></trkpt><trkpt lat="45.9505558" lon="11.7378183"><ele>866.1666666666666</ele><time>2026-04-05T09:57:30.319Z</time></trkpt><trkpt lat="45.9504743" lon="11.737896"><ele>864.3333333333333</ele><time>2026-04-05T09:57:31.32Z</time></trkpt><trkpt lat="45.9504054" lon="11.7379777"><ele>862.5</ele><time>2026-04-05T09:57:32.319Z</time></trkpt><trkpt lat="45.9503441" lon="11.7380573"><ele>860.6666666666667</ele><time>2026-04-05T09:57:33.319Z</time></trkpt><trkpt lat="45.9502866" lon="11.7381151"><ele>858.8333333333334</ele><time>2026-04-05T09:57:34.321Z</time></trkpt><trkpt lat="45.9502379" lon="11.738188"><ele>857.0</ele><time>2026-04-05T09:57:35.321Z</time></trkpt><trkpt lat="45.9501901" lon="11.7382828"><ele>857.0000000000001</ele><time>2026-04-05T09:57:36.321Z</time></trkpt><trkpt lat="45.9501425" lon="11.738366"><ele>857.0</ele><time>2026-04-05T09:57:37.32Z</time></trkpt><trkpt lat="45.9500806" lon="11.7384347"><ele>857.0</ele><time>2026-04-05T09:57:38.32Z</time></trkpt><trkpt lat="45.9500116" lon="11.7385179"><ele>857.0</ele><time>2026-04-05T09:57:39.319Z</time></trkpt><trkpt lat="45.9499456" lon="11.7386019"><ele>857.0000000000001</ele><time>2026-04-05T09:57:40.32Z</time></trkpt><trkpt lat="45.9498791" lon="11.7386551"><ele>857.0</ele><time>2026-04-05T09:57:41.32Z</time></trkpt><trkpt lat="45.9498169" lon="11.7387092"><ele>855.6666666666667</ele><time>2026-04-05T09:57:42.321Z</time></trkpt><trkpt lat="45.9497566" lon="11.7387592"><ele>854.3333333333334</ele><time>2026-04-05T09:57:43.319Z</time></trkpt><trkpt lat="45.9496744" lon="11.7387965"><ele>853.0</ele><time>2026-04-05T09:57:44.319Z</time></trkpt><trkpt lat="45.9495982" lon="11.7388427"><ele>851.6666666666667</ele><time>2026-04-05T09:57:45.319Z</time></trkpt><trkpt lat="45.9495287" lon="11.7388815"><ele>850.3333333333334</ele><time>2026-04-05T09:57:46.32Z</time></trkpt><trkpt lat="45.9494614" lon="11.7388816"><ele>849.0</ele><time>2026-04-05T09:57:47.319Z</time></trkpt><trkpt lat="45.9493545" lon="11.7388895"><ele>849.0</ele><time>2026-04-05T09:57:49.32Z</time></trkpt><trkpt lat="45.949291" lon="11.7389296"><ele>849.0</ele><time>2026-04-05T09:57:51.32Z</time></trkpt><trkpt lat="45.9492082" lon="11.7389999"><ele>849.0</ele><time>2026-04-05T09:57:53.321Z</time></trkpt><trkpt lat="45.9491071" lon="11.7390992"><ele>849.0</ele><time>2026-04-05T09:57:55.32Z</time></trkpt><trkpt lat="45.9490405" lon="11.7391322"><ele>849.0</ele><time>2026-04-05T09:57:56.32Z</time></trkpt><trkpt lat="45.9489668" lon="11.7391638"><ele>849.0</ele><time>2026-04-05T09:57:57.321Z</time></trkpt><trkpt lat="45.9489001" lon="11.7392046"><ele>846.8333333333334</ele><time>2026-04-05T09:57:58.32Z</time></trkpt><trkpt lat="45.9488336" lon="11.7392396"><ele>844.6666666666667</ele><time>2026-04-05T09:57:59.321Z</time></trkpt><trkpt lat="45.9487718" lon="11.7392809"><ele>842.5</ele><time>2026-04-05T09:58:00.32Z</time></trkpt><trkpt lat="45.9487058" lon="11.7393454"><ele>840.3333333333334</ele><time>2026-04-05T09:58:01.321Z</time></trkpt><trkpt lat="45.948617" lon="11.7394474"><ele>838.1666666666667</ele><time>2026-04-05T09:58:02.321Z</time></trkpt><trkpt lat="45.9485349" lon="11.7395499"><ele>836.0</ele><time>2026-04-05T09:58:03.32Z</time></trkpt><trkpt lat="45.9484731" lon="11.7396026"><ele>832.5714285714286</ele><time>2026-04-05T09:58:04.322Z</time></trkpt><trkpt lat="45.9484051" lon="11.7396287"><ele>829.1428571428571</ele><time>2026-04-05T09:58:05.321Z</time></trkpt><trkpt lat="45.9483386" lon="11.7396254"><ele>825.7142857142858</ele><time>2026-04-05T09:58:06.32Z</time></trkpt><trkpt lat="45.9482713" lon="11.7395942"><ele>822.2857142857142</ele><time>2026-04-05T09:58:07.32Z</time></trkpt><trkpt lat="45.9481975" lon="11.7395648"><ele>818.8571428571429</ele><time>2026-04-05T09:58:08.321Z</time></trkpt><trkpt lat="45.948123" lon="11.7395501"><ele>815.4285714285714</ele><time>2026-04-05T09:58:09.321Z</time></trkpt><trkpt lat="45.9480468" lon="11.7395542"><ele>812.0</ele><time>2026-04-05T09:58:10.32Z</time></trkpt><trkpt lat="45.9479768" lon="11.7395882"><ele>812.0</ele><time>2026-04-05T09:58:11.321Z</time></trkpt><trkpt lat="45.9479026" lon="11.7396503"><ele>812.0</ele><time>2026-04-05T09:58:12.32Z</time></trkpt><trkpt lat="45.9478084" lon="11.739738"><ele>812.0</ele><time>2026-04-05T09:58:13.32Z</time></trkpt><trkpt lat="45.9477015" lon="11.7398226"><ele>812.0</ele><time>2026-04-05T09:58:14.32Z</time></trkpt><trkpt lat="45.9476105" lon="11.7398817"><ele>812.0</ele><time>2026-04-05T09:58:15.321Z</time></trkpt><trkpt lat="45.9475483" lon="11.7399155"><ele>810.1666666666667</ele><time>2026-04-05T09:58:16.32Z</time></trkpt><trkpt lat="45.9474314" lon="11.7399295"><ele>808.3333333333334</ele><time>2026-04-05T09:58:18.322Z</time></trkpt><trkpt lat="45.9473651" lon="11.7399152"><ele>806.5</ele><time>2026-04-05T09:58:19.32Z</time></trkpt><trkpt lat="45.947262" lon="11.7399001"><ele>804.6666666666667</ele><time>2026-04-05T09:58:21.321Z</time></trkpt><trkpt lat="45.9471775" lon="11.7398895"><ele>802.8333333333334</ele><time>2026-04-05T09:58:23.32Z</time></trkpt><trkpt lat="45.9471011" lon="11.7398895"><ele>801.0</ele><time>2026-04-05T09:58:25.32Z</time></trkpt><trkpt lat="45.9470212" lon="11.7398805"><ele>801.0</ele><time>2026-04-05T09:58:28.32Z</time></trkpt><trkpt lat="45.9469294" lon="11.739804"><ele>801.0</ele><time>2026-04-05T09:58:31.32Z</time></trkpt><trkpt lat="45.9468356" lon="11.7397255"><ele>801.0</ele><time>2026-04-05T09:58:33.32Z</time></trkpt><trkpt lat="45.9467962" lon="11.7396499"><ele>801.0</ele><time>2026-04-05T09:58:36.32Z</time></trkpt><trkpt lat="45.9468219" lon="11.7395654"><ele>801.0</ele><time>2026-04-05T09:58:39.32Z</time></trkpt><trkpt lat="45.9468778" lon="11.7394932"><ele>801.0</ele><time>2026-04-05T09:58:43.32Z</time></trkpt><trkpt lat="45.9469827" lon="11.7394351"><ele>799.3333333333334</ele><time>2026-04-05T09:58:45.32Z</time></trkpt><trkpt lat="45.9470708" lon="11.7393614"><ele>797.6666666666667</ele><time>2026-04-05T09:58:47.322Z</time></trkpt><trkpt lat="45.9471385" lon="11.7393081"><ele>796.0</ele><time>2026-04-05T09:58:49.321Z</time></trkpt><trkpt lat="45.9471831" lon="11.7392356"><ele>794.3333333333334</ele><time>2026-04-05T09:58:51.322Z</time></trkpt><trkpt lat="45.9472329" lon="11.7391574"><ele>792.6666666666667</ele><time>2026-04-05T09:58:53.321Z</time></trkpt><trkpt lat="45.9472841" lon="11.7390825"><ele>791.0</ele><time>2026-04-05T09:58:55.322Z</time></trkpt><trkpt lat="45.9473577" lon="11.738998"><ele>791.0000000000001</ele><time>2026-04-05T09:58:57.321Z</time></trkpt><trkpt lat="45.9474116" lon="11.7389061"><ele>791.0</ele><time>2026-04-05T09:58:59.321Z</time></trkpt><trkpt lat="45.9474913" lon="11.738794"><ele>791.0</ele><time>2026-04-05T09:59:01.321Z</time></trkpt><trkpt lat="45.9475459" lon="11.7386874"><ele>791.0</ele><time>2026-04-05T09:59:03.322Z</time></trkpt><trkpt lat="45.9475749" lon="11.7386021"><ele>791.0000000000001</ele><time>2026-04-05T09:59:05.321Z</time></trkpt><trkpt lat="45.9476061" lon="11.7385174"><ele>791.0</ele><time>2026-04-05T09:59:07.322Z</time></trkpt><trkpt lat="45.9476415" lon="11.7384122"><ele>791.4</ele><time>2026-04-05T09:59:09.321Z</time></trkpt><trkpt lat="45.9476896" lon="11.7383209"><ele>791.8</ele><time>2026-04-05T09:59:11.321Z</time></trkpt><trkpt lat="45.9477445" lon="11.7382305"><ele>792.1999999999999</ele><time>2026-04-05T09:59:13.322Z</time></trkpt><trkpt lat="45.9477984" lon="11.7381167"><ele>792.5999999999999</ele><time>2026-04-05T09:59:15.322Z</time></trkpt><trkpt lat="45.9478491" lon="11.7379815"><ele>793.0</ele><time>2026-04-05T09:59:17.321Z</time></trkpt><trkpt lat="45.9479123" lon="11.7378131"><ele>792.9999999999999</ele><time>2026-04-05T09:59:19.321Z</time></trkpt><trkpt lat="45.9479568" lon="11.7377233"><ele>793.0</ele><time>2026-04-05T09:59:20.322Z</time></trkpt><trkpt lat="45.9480079" lon="11.7376333"><ele>793.0</ele><time>2026-04-05T09:59:21.322Z</time></trkpt><trkpt lat="45.948045" lon="11.7375376"><ele>793.0</ele><time>2026-04-05T09:59:22.322Z</time></trkpt><trkpt lat="45.9480668" lon="11.7374313"><ele>792.9999999999999</ele><time>2026-04-05T09:59:23.321Z</time></trkpt><trkpt lat="45.9480789" lon="11.737319"><ele>793.0</ele><time>2026-04-05T09:59:24.322Z</time></trkpt><trkpt lat="45.9480918" lon="11.7372129"><ele>787.2</ele><time>2026-04-05T09:59:25.321Z</time></trkpt><trkpt lat="45.9481068" lon="11.7371215"><ele>781.4</ele><time>2026-04-05T09:59:26.321Z</time></trkpt><trkpt lat="45.9481327" lon="11.7369719"><ele>775.6</ele><time>2026-04-05T09:59:28.322Z</time></trkpt><trkpt lat="45.948227" lon="11.736829"><ele>769.8000000000001</ele><time>2026-04-05T09:59:30.321Z</time></trkpt><trkpt lat="45.9482993" lon="11.7367317"><ele>764.0</ele><time>2026-04-05T09:59:32.321Z</time></trkpt><trkpt lat="45.9483522" lon="11.7366477"><ele>766.3333333333333</ele><time>2026-04-05T09:59:34.322Z</time></trkpt><trkpt lat="45.9483831" lon="11.7365626"><ele>768.6666666666666</ele><time>2026-04-05T09:59:36.321Z</time></trkpt><trkpt lat="45.9484438" lon="11.7364729"><ele>771.0</ele><time>2026-04-05T09:59:38.323Z</time></trkpt><trkpt lat="45.9485247" lon="11.7363917"><ele>773.3333333333333</ele><time>2026-04-05T09:59:40.321Z</time></trkpt><trkpt lat="45.9485734" lon="11.7363002"><ele>775.6666666666666</ele><time>2026-04-05T09:59:42.322Z</time></trkpt><trkpt lat="45.9485721" lon="11.7361875"><ele>778.0</ele><time>2026-04-05T09:59:44.322Z</time></trkpt><trkpt lat="45.9485659" lon="11.7360583"><ele>774.8</ele><time>2026-04-05T09:59:46.321Z</time></trkpt><trkpt lat="45.9485355" lon="11.7359378"><ele>771.5999999999999</ele><time>2026-04-05T09:59:48.323Z</time></trkpt><trkpt lat="45.9485004" lon="11.7357842"><ele>768.4000000000001</ele><time>2026-04-05T09:59:50.322Z</time></trkpt><trkpt lat="45.9484497" lon="11.7356743"><ele>765.2</ele><time>2026-04-05T09:59:52.321Z</time></trkpt><trkpt lat="45.9484174" lon="11.7355354"><ele>762.0</ele><time>2026-04-05T09:59:54.322Z</time></trkpt><trkpt lat="45.9483908" lon="11.7353799"><ele>748.8</ele><time>2026-04-05T09:59:56.322Z</time></trkpt><trkpt lat="45.9483622" lon="11.7352082"><ele>735.6</ele><time>2026-04-05T09:59:58.323Z</time></trkpt><trkpt lat="45.9483528" lon="11.7350722"><ele>722.4</ele><time>2026-04-05T10:00:00.323Z</time></trkpt><trkpt lat="45.9483497" lon="11.7349638"><ele>709.1999999999999</ele><time>2026-04-05T10:00:02.322Z</time></trkpt><trkpt lat="45.9483409" lon="11.7348316"><ele>696.0</ele><time>2026-04-05T10:00:04.322Z</time></trkpt><trkpt lat="45.9483362" lon="11.7347134"><ele>696.0</ele><time>2026-04-05T10:00:06.323Z</time></trkpt><trkpt lat="45.9483308" lon="11.7346053"><ele>696.0</ele><time>2026-04-05T10:00:08.323Z</time></trkpt><trkpt lat="45.9483381" lon="11.734482"><ele>696.0</ele><time>2026-04-05T10:00:10.323Z</time></trkpt><trkpt lat="45.9483857" lon="11.7343537"><ele>696.0</ele><time>2026-04-05T10:00:12.323Z</time></trkpt><trkpt lat="45.9484006" lon="11.734253"><ele>696.0</ele><time>2026-04-05T10:00:15.323Z</time></trkpt><trkpt lat="45.948429" lon="11.7341616"><ele>696.0</ele><time>2026-04-05T10:00:17.322Z</time></trkpt><trkpt lat="45.9484804" lon="11.7340687"><ele>697.3333333333334</ele><time>2026-04-05T10:00:19.322Z</time></trkpt><trkpt lat="45.9485289" lon="11.7339574"><ele>698.6666666666666</ele><time>2026-04-05T10:00:21.322Z</time></trkpt><trkpt lat="45.9485663" lon="11.733855"><ele>700.0</ele><time>2026-04-05T10:00:23.323Z</time></trkpt><trkpt lat="45.9486107" lon="11.733749"><ele>701.3333333333333</ele><time>2026-04-05T10:00:25.322Z</time></trkpt><trkpt lat="45.948638" lon="11.7336638"><ele>702.6666666666666</ele><time>2026-04-05T10:00:27.323Z</time></trkpt><trkpt lat="45.9486978" lon="11.7336058"><ele>704.0</ele><time>2026-04-05T10:00:32.322Z</time></trkpt><trkpt lat="45.9487586" lon="11.7335689"><ele>704.0</ele><time>2026-04-05T10:00:36.323Z</time></trkpt><trkpt lat="45.9486846" lon="11.7335747"><ele>704.0</ele><time>2026-04-05T10:00:46.322Z</time></trkpt><trkpt lat="45.9486178" lon="11.7336098"><ele>704.0</ele><time>2026-04-05T10:00:50.322Z</time></trkpt><trkpt lat="45.9485625" lon="11.7336823"><ele>704.0</ele><time>2026-04-05T10:00:56.324Z</time></trkpt><trkpt lat="45.948496" lon="11.7336943"><ele>704.0</ele><time>2026-04-05T10:00:58.324Z</time></trkpt><trkpt lat="45.9484031" lon="11.733772"><ele>704.0</ele><time>2026-04-05T10:01:00.323Z</time></trkpt><trkpt lat="45.9483098" lon="11.7339207"><ele>702.6666666666666</ele><time>2026-04-05T10:01:02.324Z</time></trkpt><trkpt lat="45.9482559" lon="11.7339916"><ele>701.3333333333333</ele><time>2026-04-05T10:01:03.323Z</time></trkpt><trkpt lat="45.9481846" lon="11.7340873"><ele>700.0</ele><time>2026-04-05T10:01:04.324Z</time></trkpt><trkpt lat="45.9481316" lon="11.7341539"><ele>698.6666666666666</ele><time>2026-04-05T10:01:05.323Z</time></trkpt><trkpt lat="45.9480802" lon="11.7342102"><ele>697.3333333333334</ele><time>2026-04-05T10:01:06.324Z</time></trkpt><trkpt lat="45.9479984" lon="11.7343277"><ele>696.0</ele><time>2026-04-05T10:01:08.323Z</time></trkpt><trkpt lat="45.9479548" lon="11.734414"><ele>692.8333333333334</ele><time>2026-04-05T10:01:10.324Z</time></trkpt><trkpt lat="45.9478956" lon="11.7343667"><ele>689.6666666666666</ele><time>2026-04-05T10:01:15.323Z</time></trkpt><trkpt lat="45.9479468" lon="11.7342443"><ele>686.5</ele><time>2026-04-05T10:01:18.323Z</time></trkpt><trkpt lat="45.9479799" lon="11.7341609"><ele>683.3333333333333</ele><time>2026-04-05T10:01:19.324Z</time></trkpt><trkpt lat="45.9480171" lon="11.7340577"><ele>680.1666666666666</ele><time>2026-04-05T10:01:20.323Z</time></trkpt><trkpt lat="45.9480532" lon="11.7339404"><ele>677.0</ele><time>2026-04-05T10:01:21.324Z</time></trkpt><trkpt lat="45.9480826" lon="11.7338394"><ele>677.0</ele><time>2026-04-05T10:01:22.325Z</time></trkpt><trkpt lat="45.9481046" lon="11.7337527"><ele>677.0</ele><time>2026-04-05T10:01:23.324Z</time></trkpt><trkpt lat="45.948109" lon="11.7336334"><ele>677.0</ele><time>2026-04-05T10:01:24.323Z</time></trkpt><trkpt lat="45.9481007" lon="11.7335266"><ele>677.0</ele><time>2026-04-05T10:01:25.323Z</time></trkpt><trkpt lat="45.9480872" lon="11.7334351"><ele>677.0</ele><time>2026-04-05T10:01:26.325Z</time></trkpt><trkpt lat="45.9480739" lon="11.7333384"><ele>677.0</ele><time>2026-04-05T10:01:27.324Z</time></trkpt><trkpt lat="45.9480566" lon="11.7332019"><ele>675.2</ele><time>2026-04-05T10:01:29.324Z</time></trkpt><trkpt lat="45.9480923" lon="11.7330944"><ele>673.4000000000001</ele><time>2026-04-05T10:01:35.323Z</time></trkpt><trkpt lat="45.9481827" lon="11.7329999"><ele>671.5999999999999</ele><time>2026-04-05T10:01:37.325Z</time></trkpt><trkpt lat="45.9482769" lon="11.7329054"><ele>669.8</ele><time>2026-04-05T10:01:39.323Z</time></trkpt><trkpt lat="45.9483633" lon="11.7328059"><ele>668.0</ele><time>2026-04-05T10:01:41.325Z</time></trkpt><trkpt lat="45.9484488" lon="11.7327451"><ele>668.0</ele><time>2026-04-05T10:01:44.324Z</time></trkpt><trkpt lat="45.9485423" lon="11.7327941"><ele>668.0</ele><time>2026-04-05T10:01:46.324Z</time></trkpt><trkpt lat="45.9486482" lon="11.7328539"><ele>668.0</ele><time>2026-04-05T10:01:48.323Z</time></trkpt><trkpt lat="45.9487113" lon="11.732873"><ele>668.0</ele><time>2026-04-05T10:01:49.324Z</time></trkpt><trkpt lat="45.9488263" lon="11.7329036"><ele>668.0</ele><time>2026-04-05T10:01:51.324Z</time></trkpt><trkpt lat="45.9489454" lon="11.7329086"><ele>668.0</ele><time>2026-04-05T10:01:53.324Z</time></trkpt><trkpt lat="45.9490513" lon="11.7328684"><ele>668.0</ele><time>2026-04-05T10:01:55.324Z</time></trkpt><trkpt lat="45.9491394" lon="11.7327978"><ele>668.0</ele><time>2026-04-05T10:01:57.325Z</time></trkpt><trkpt lat="45.9492091" lon="11.7327283"><ele>668.0</ele><time>2026-04-05T10:01:59.325Z</time></trkpt><trkpt lat="45.9492668" lon="11.7326912"><ele>668.0</ele><time>2026-04-05T10:02:01.325Z</time></trkpt><trkpt lat="45.9491957" lon="11.7327363"><ele>668.0</ele><time>2026-04-05T10:02:16.325Z</time></trkpt><trkpt lat="45.9491066" lon="11.7327757"><ele>668.0</ele><time>2026-04-05T10:02:18.324Z</time></trkpt><trkpt lat="45.9490046" lon="11.7328258"><ele>668.0</ele><time>2026-04-05T10:02:20.324Z</time></trkpt><trkpt lat="45.9489105" lon="11.7328734"><ele>668.0</ele><time>2026-04-05T10:02:22.324Z</time></trkpt><trkpt lat="45.9488354" lon="11.7328878"><ele>668.0</ele><time>2026-04-05T10:02:24.325Z</time></trkpt><trkpt lat="45.9487267" lon="11.7328759"><ele>668.0</ele><time>2026-04-05T10:02:26.324Z</time></trkpt><trkpt lat="45.9486378" lon="11.7328228"><ele>668.0</ele><time>2026-04-05T10:02:28.324Z</time></trkpt><trkpt lat="45.9485747" lon="11.73276"><ele>668.0</ele><time>2026-04-05T10:02:30.324Z</time></trkpt><trkpt lat="45.9485016" lon="11.7327235"><ele>668.0</ele><time>2026-04-05T10:02:31.325Z</time></trkpt><trkpt lat="45.9484182" lon="11.7327015"><ele>668.0</ele><time>2026-04-05T10:02:32.324Z</time></trkpt><trkpt lat="45.9483234" lon="11.7327458"><ele>668.0</ele><time>2026-04-05T10:02:34.325Z</time></trkpt><trkpt lat="45.9482627" lon="11.7328644"><ele>668.0</ele><time>2026-04-05T10:02:36.324Z</time></trkpt><trkpt lat="45.9481531" lon="11.7329356"><ele>669.8</ele><time>2026-04-05T10:02:38.324Z</time></trkpt><trkpt lat="45.948103" lon="11.733005"><ele>671.5999999999999</ele><time>2026-04-05T10:02:40.325Z</time></trkpt><trkpt lat="45.9480548" lon="11.7330858"><ele>673.4000000000001</ele><time>2026-04-05T10:02:42.325Z</time></trkpt><trkpt lat="45.9480418" lon="11.7332346"><ele>675.2</ele><time>2026-04-05T10:02:44.325Z</time></trkpt><trkpt lat="45.9480778" lon="11.7334192"><ele>677.0</ele><time>2026-04-05T10:02:46.325Z</time></trkpt><trkpt lat="45.9480946" lon="11.7335903"><ele>677.0</ele><time>2026-04-05T10:02:48.325Z</time></trkpt><trkpt lat="45.9480922" lon="11.7336926"><ele>677.0</ele><time>2026-04-05T10:02:49.324Z</time></trkpt><trkpt lat="45.9480849" lon="11.7338142"><ele>677.0</ele><time>2026-04-05T10:02:50.325Z</time></trkpt><trkpt lat="45.9480597" lon="11.7339351"><ele>677.0</ele><time>2026-04-05T10:02:51.325Z</time></trkpt><trkpt lat="45.948028" lon="11.73404"><ele>677.0</ele><time>2026-04-05T10:02:52.326Z</time></trkpt><trkpt lat="45.9479846" lon="11.7341268"><ele>677.0</ele><time>2026-04-05T10:02:53.325Z</time></trkpt><trkpt lat="45.9479459" lon="11.734229"><ele>677.0</ele><time>2026-04-05T10:02:54.325Z</time></trkpt><trkpt lat="45.9478849" lon="11.734352"><ele>677.0</ele><time>2026-04-05T10:02:56.324Z</time></trkpt><trkpt lat="45.9479531" lon="11.7344155"><ele>677.0</ele><time>2026-04-05T10:03:00.325Z</time></trkpt><trkpt lat="45.9480137" lon="11.7343715"><ele>677.0</ele><time>2026-04-05T10:03:02.325Z</time></trkpt><trkpt lat="45.9480657" lon="11.7342736"><ele>677.0</ele><time>2026-04-05T10:03:04.325Z</time></trkpt><trkpt lat="45.9481036" lon="11.7341982"><ele>677.0</ele><time>2026-04-05T10:03:05.325Z</time></trkpt><trkpt lat="45.9481878" lon="11.7340656"><ele>676.9999999999999</ele><time>2026-04-05T10:03:07.325Z</time></trkpt><trkpt lat="45.9482358" lon="11.7340069"><ele>677.0</ele><time>2026-04-05T10:03:08.325Z</time></trkpt><trkpt lat="45.948286" lon="11.7339491"><ele>677.0</ele><time>2026-04-05T10:03:09.326Z</time></trkpt><trkpt lat="45.9483358" lon="11.733891"><ele>677.0</ele><time>2026-04-05T10:03:10.326Z</time></trkpt><trkpt lat="45.9483981" lon="11.7338224"><ele>677.0</ele><time>2026-04-05T10:03:11.326Z</time></trkpt><trkpt lat="45.948461" lon="11.7337746"><ele>676.9999999999999</ele><time>2026-04-05T10:03:12.325Z</time></trkpt><trkpt lat="45.9485386" lon="11.7337236"><ele>677.0</ele><time>2026-04-05T10:03:13.326Z</time></trkpt><trkpt lat="45.9486079" lon="11.7336854"><ele>675.5</ele><time>2026-04-05T10:03:14.325Z</time></trkpt><trkpt lat="45.9486992" lon="11.7336198"><ele>674.0</ele><time>2026-04-05T10:03:16.325Z</time></trkpt><trkpt lat="45.9488012" lon="11.7335605"><ele>672.5</ele><time>2026-04-05T10:03:18.326Z</time></trkpt><trkpt lat="45.9488633" lon="11.733527"><ele>671.0</ele><time>2026-04-05T10:03:19.326Z</time></trkpt><trkpt lat="45.9489264" lon="11.733492"><ele>669.5</ele><time>2026-04-05T10:03:20.325Z</time></trkpt><trkpt lat="45.9489921" lon="11.7334505"><ele>668.0</ele><time>2026-04-05T10:03:21.325Z</time></trkpt><trkpt lat="45.9490609" lon="11.7334062"><ele>668.0</ele><time>2026-04-05T10:03:22.326Z</time></trkpt><trkpt lat="45.9491308" lon="11.7333799"><ele>668.0</ele><time>2026-04-05T10:03:23.325Z</time></trkpt><trkpt lat="45.9492048" lon="11.7333578"><ele>668.0</ele><time>2026-04-05T10:03:24.325Z</time></trkpt><trkpt lat="45.9492681" lon="11.7333528"><ele>668.0</ele><time>2026-04-05T10:03:25.325Z</time></trkpt><trkpt lat="45.9493625" lon="11.7333798"><ele>668.0</ele><time>2026-04-05T10:03:26.325Z</time></trkpt><trkpt lat="45.9494461" lon="11.733396"><ele>668.0</ele><time>2026-04-05T10:03:27.327Z</time></trkpt><trkpt lat="45.9495496" lon="11.7334026"><ele>670.0</ele><time>2026-04-05T10:03:28.325Z</time></trkpt><trkpt lat="45.9496481" lon="11.7333967"><ele>672.0</ele><time>2026-04-05T10:03:29.326Z</time></trkpt><trkpt lat="45.9497463" lon="11.7334006"><ele>674.0</ele><time>2026-04-05T10:03:30.325Z</time></trkpt><trkpt lat="45.94984" lon="11.733398"><ele>676.0</ele><time>2026-04-05T10:03:31.325Z</time></trkpt><trkpt lat="45.9499352" lon="11.7333948"><ele>678.0</ele><time>2026-04-05T10:03:32.326Z</time></trkpt><trkpt lat="45.9500223" lon="11.7333935"><ele>679.8333333333334</ele><time>2026-04-05T10:03:33.325Z</time></trkpt><trkpt lat="45.9501012" lon="11.7333817"><ele>681.6666666666666</ele><time>2026-04-05T10:03:34.325Z</time></trkpt><trkpt lat="45.9501788" lon="11.7333703"><ele>683.5</ele><time>2026-04-05T10:03:35.327Z</time></trkpt><trkpt lat="45.9502555" lon="11.733361"><ele>685.3333333333333</ele><time>2026-04-05T10:03:36.326Z</time></trkpt><trkpt lat="45.9503383" lon="11.7333542"><ele>687.1666666666666</ele><time>2026-04-05T10:03:37.325Z</time></trkpt><trkpt lat="45.9504245" lon="11.7333478"><ele>689.0</ele><time>2026-04-05T10:03:38.325Z</time></trkpt><trkpt lat="45.9505087" lon="11.7333405"><ele>689.0</ele><time>2026-04-05T10:03:39.326Z</time></trkpt><trkpt lat="45.9505902" lon="11.733332"><ele>689.0</ele><time>2026-04-05T10:03:40.327Z</time></trkpt><trkpt lat="45.9506714" lon="11.7333127"><ele>689.0</ele><time>2026-04-05T10:03:41.326Z</time></trkpt><trkpt lat="45.9507571" lon="11.7332944"><ele>689.0</ele><time>2026-04-05T10:03:42.325Z</time></trkpt><trkpt lat="45.9508419" lon="11.7332715"><ele>689.0</ele><time>2026-04-05T10:03:43.326Z</time></trkpt><trkpt lat="45.9509324" lon="11.7332582"><ele>689.0</ele><time>2026-04-05T10:03:44.326Z</time></trkpt><trkpt lat="45.9510214" lon="11.7332442"><ele>692.1666666666666</ele><time>2026-04-05T10:03:45.327Z</time></trkpt><trkpt lat="45.9511084" lon="11.7332294"><ele>695.3333333333333</ele><time>2026-04-05T10:03:46.325Z</time></trkpt><trkpt lat="45.9511985" lon="11.733226"><ele>698.5</ele><time>2026-04-05T10:03:47.326Z</time></trkpt><trkpt lat="45.9512873" lon="11.7332207"><ele>701.6666666666666</ele><time>2026-04-05T10:03:48.325Z</time></trkpt><trkpt lat="45.9513763" lon="11.7332154"><ele>704.8333333333334</ele><time>2026-04-05T10:03:49.326Z</time></trkpt><trkpt lat="45.9514597" lon="11.7332065"><ele>708.0</ele><time>2026-04-05T10:03:50.325Z</time></trkpt><trkpt lat="45.9515412" lon="11.7332032"><ele>708.0</ele><time>2026-04-05T10:03:51.326Z</time></trkpt><trkpt lat="45.9516239" lon="11.7331989"><ele>708.0</ele><time>2026-04-05T10:03:52.326Z</time></trkpt><trkpt lat="45.9517087" lon="11.7331952"><ele>708.0</ele><time>2026-04-05T10:03:53.326Z</time></trkpt><trkpt lat="45.9517883" lon="11.7331774"><ele>708.0</ele><time>2026-04-05T10:03:54.326Z</time></trkpt><trkpt lat="45.9518665" lon="11.7331573"><ele>708.0</ele><time>2026-04-05T10:03:55.327Z</time></trkpt><trkpt lat="45.9519407" lon="11.7331273"><ele>708.0</ele><time>2026-04-05T10:03:56.327Z</time></trkpt><trkpt lat="45.9520169" lon="11.733088"><ele>711.2</ele><time>2026-04-05T10:03:57.326Z</time></trkpt><trkpt lat="45.9520949" lon="11.7330336"><ele>714.4</ele><time>2026-04-05T10:03:58.327Z</time></trkpt><trkpt lat="45.9521797" lon="11.7329755"><ele>717.6</ele><time>2026-04-05T10:03:59.326Z</time></trkpt><trkpt lat="45.9522654" lon="11.7329255"><ele>720.8000000000001</ele><time>2026-04-05T10:04:00.325Z</time></trkpt><trkpt lat="45.9523466" lon="11.7328736"><ele>724.0</ele><time>2026-04-05T10:04:01.326Z</time></trkpt><trkpt lat="45.9524246" lon="11.7328082"><ele>724.0</ele><time>2026-04-05T10:04:02.326Z</time></trkpt><trkpt lat="45.9525034" lon="11.7327359"><ele>724.0</ele><time>2026-04-05T10:04:03.326Z</time></trkpt><trkpt lat="45.9525732" lon="11.7326718"><ele>724.0</ele><time>2026-04-05T10:04:04.326Z</time></trkpt><trkpt lat="45.9526429" lon="11.7326418"><ele>724.0</ele><time>2026-04-05T10:04:05.326Z</time></trkpt><trkpt lat="45.9527485" lon="11.7326279"><ele>724.0</ele><time>2026-04-05T10:04:07.327Z</time></trkpt><trkpt lat="45.9528691" lon="11.732685"><ele>721.0</ele><time>2026-04-05T10:04:09.326Z</time></trkpt><trkpt lat="45.9529323" lon="11.7327186"><ele>718.0</ele><time>2026-04-05T10:04:10.327Z</time></trkpt><trkpt lat="45.952998" lon="11.7327497"><ele>715.0</ele><time>2026-04-05T10:04:11.327Z</time></trkpt><trkpt lat="45.9530737" lon="11.7327923"><ele>712.0</ele><time>2026-04-05T10:04:12.327Z</time></trkpt><trkpt lat="45.9531519" lon="11.7328274"><ele>709.0</ele><time>2026-04-05T10:04:13.327Z</time></trkpt><trkpt lat="45.9532265" lon="11.7328656"><ele>706.0</ele><time>2026-04-05T10:04:14.326Z</time></trkpt><trkpt lat="45.9533051" lon="11.7329055"><ele>712.1666666666667</ele><time>2026-04-05T10:04:15.327Z</time></trkpt><trkpt lat="45.9533868" lon="11.7329376"><ele>718.3333333333334</ele><time>2026-04-05T10:04:16.327Z</time></trkpt><trkpt lat="45.9534656" lon="11.7329691"><ele>724.5</ele><time>2026-04-05T10:04:17.326Z</time></trkpt><trkpt lat="45.9535394" lon="11.7330028"><ele>730.6666666666666</ele><time>2026-04-05T10:04:18.326Z</time></trkpt><trkpt lat="45.9536349" lon="11.7330298"><ele>736.8333333333333</ele><time>2026-04-05T10:04:19.327Z</time></trkpt><trkpt lat="45.953734" lon="11.7330569"><ele>743.0</ele><time>2026-04-05T10:04:20.326Z</time></trkpt><trkpt lat="45.9538334" lon="11.7330847"><ele>743.0</ele><time>2026-04-05T10:04:21.326Z</time></trkpt><trkpt lat="45.953917" lon="11.7330984"><ele>743.0</ele><time>2026-04-05T10:04:22.327Z</time></trkpt><trkpt lat="45.9540072" lon="11.7331169"><ele>743.0</ele><time>2026-04-05T10:04:23.326Z</time></trkpt><trkpt lat="45.954079" lon="11.7331279"><ele>743.0</ele><time>2026-04-05T10:04:24.327Z</time></trkpt><trkpt lat="45.9541714" lon="11.7331622"><ele>743.0</ele><time>2026-04-05T10:04:26.327Z</time></trkpt><trkpt lat="45.9542371" lon="11.7331909"><ele>743.0</ele><time>2026-04-05T10:04:29.327Z</time></trkpt><trkpt lat="45.9543174" lon="11.7331894"><ele>745.0</ele><time>2026-04-05T10:04:31.326Z</time></trkpt><trkpt lat="45.9544477" lon="11.7331508"><ele>747.0</ele><time>2026-04-05T10:04:33.327Z</time></trkpt><trkpt lat="45.9545116" lon="11.7331281"><ele>749.0</ele><time>2026-04-05T10:04:34.326Z</time></trkpt><trkpt lat="45.9545934" lon="11.7331234"><ele>751.0</ele><time>2026-04-05T10:04:36.326Z</time></trkpt><trkpt lat="45.9546624" lon="11.7331555"><ele>753.0</ele><time>2026-04-05T10:04:41.327Z</time></trkpt><trkpt lat="45.9546287" lon="11.7330752"><ele>755.0</ele><time>2026-04-05T10:05:05.328Z</time></trkpt><trkpt lat="45.9546777" lon="11.7331334"><ele>755.0</ele><time>2026-04-05T10:05:46.327Z</time></trkpt><trkpt lat="45.9546051" lon="11.7330551"><ele>755.0</ele><time>2026-04-05T10:05:52.328Z</time></trkpt><trkpt lat="45.9545459" lon="11.7330027"><ele>755.0</ele><time>2026-04-05T10:05:55.327Z</time></trkpt><trkpt lat="45.9544558" lon="11.7329711"><ele>755.0</ele><time>2026-04-05T10:05:58.328Z</time></trkpt><trkpt lat="45.9543517" lon="11.7329335"><ele>755.0</ele><time>2026-04-05T10:06:00.327Z</time></trkpt><trkpt lat="45.9542872" lon="11.7328827"><ele>755.0</ele><time>2026-04-05T10:06:11.328Z</time></trkpt><trkpt lat="45.9542327" lon="11.7327867"><ele>753.0</ele><time>2026-04-05T10:06:15.328Z</time></trkpt><trkpt lat="45.9541584" lon="11.7327417"><ele>751.0</ele><time>2026-04-05T10:06:21.329Z</time></trkpt><trkpt lat="45.954073" lon="11.7326946"><ele>749.0</ele><time>2026-04-05T10:06:24.329Z</time></trkpt><trkpt lat="45.954016" lon="11.7326269"><ele>747.0</ele><time>2026-04-05T10:06:26.328Z</time></trkpt><trkpt lat="45.9539521" lon="11.7325669"><ele>745.0</ele><time>2026-04-05T10:06:28.329Z</time></trkpt><trkpt lat="45.9538867" lon="11.7324511"><ele>743.0</ele><time>2026-04-05T10:06:31.329Z</time></trkpt><trkpt lat="45.9538454" lon="11.7323182"><ele>736.1666666666666</ele><time>2026-04-05T10:06:33.328Z</time></trkpt><trkpt lat="45.9538041" lon="11.7322069"><ele>729.3333333333333</ele><time>2026-04-05T10:06:35.329Z</time></trkpt><trkpt lat="45.953761" lon="11.7321301"><ele>722.5</ele><time>2026-04-05T10:06:37.328Z</time></trkpt><trkpt lat="45.9536748" lon="11.7320329"><ele>715.6666666666666</ele><time>2026-04-05T10:06:39.328Z</time></trkpt><trkpt lat="45.9536097" lon="11.7319488"><ele>708.8333333333334</ele><time>2026-04-05T10:06:41.329Z</time></trkpt><trkpt lat="45.9535702" lon="11.7318652"><ele>702.0</ele><time>2026-04-05T10:06:43.329Z</time></trkpt><trkpt lat="45.9535353" lon="11.7317714"><ele>697.2857142857143</ele><time>2026-04-05T10:06:45.328Z</time></trkpt><trkpt lat="45.9535104" lon="11.7316743"><ele>692.5714285714286</ele><time>2026-04-05T10:06:48.329Z</time></trkpt><trkpt lat="45.9535633" lon="11.731619"><ele>687.8571428571429</ele><time>2026-04-05T10:06:51.33Z</time></trkpt><trkpt lat="45.9536307" lon="11.7316067"><ele>683.1428571428571</ele><time>2026-04-05T10:06:53.328Z</time></trkpt><trkpt lat="45.9537198" lon="11.7315995"><ele>678.4285714285714</ele><time>2026-04-05T10:06:56.328Z</time></trkpt><trkpt lat="45.9537595" lon="11.7315244"><ele>673.7142857142858</ele><time>2026-04-05T10:07:00.33Z</time></trkpt><trkpt lat="45.9537044" lon="11.7314274"><ele>669.0</ele><time>2026-04-05T10:07:04.33Z</time></trkpt><trkpt lat="45.9536522" lon="11.7313388"><ele>669.0</ele><time>2026-04-05T10:07:08.33Z</time></trkpt><trkpt lat="45.9536846" lon="11.7312554"><ele>669.0</ele><time>2026-04-05T10:07:12.329Z</time></trkpt><trkpt lat="45.9537529" lon="11.7312328"><ele>669.0</ele><time>2026-04-05T10:07:20.329Z</time></trkpt><trkpt lat="45.9537056" lon="11.7311362"><ele>669.0</ele><time>2026-04-05T10:07:23.33Z</time></trkpt><trkpt lat="45.9536562" lon="11.7310574"><ele>669.0</ele><time>2026-04-05T10:07:25.33Z</time></trkpt><trkpt lat="45.9536152" lon="11.7309827"><ele>669.0</ele><time>2026-04-05T10:07:27.329Z</time></trkpt><trkpt lat="45.953627" lon="11.7308901"><ele>669.0</ele><time>2026-04-05T10:07:32.329Z</time></trkpt><trkpt lat="45.953696" lon="11.7308503"><ele>663.1666666666666</ele><time>2026-04-05T10:07:36.33Z</time></trkpt><trkpt lat="45.9537206" lon="11.7307319"><ele>657.3333333333334</ele><time>2026-04-05T10:07:40.329Z</time></trkpt><trkpt lat="45.9536938" lon="11.7306497"><ele>651.5</ele><time>2026-04-05T10:07:43.33Z</time></trkpt><trkpt lat="45.9536256" lon="11.7305878"><ele>645.6666666666667</ele><time>2026-04-05T10:07:45.33Z</time></trkpt><trkpt lat="45.9535626" lon="11.7305167"><ele>639.8333333333334</ele><time>2026-04-05T10:07:48.331Z</time></trkpt><trkpt lat="45.9534945" lon="11.7304471"><ele>634.0</ele><time>2026-04-05T10:07:55.329Z</time></trkpt><trkpt lat="45.9534187" lon="11.7304079"><ele>634.4</ele><time>2026-04-05T10:08:05.33Z</time></trkpt><trkpt lat="45.9533362" lon="11.7303563"><ele>634.8</ele><time>2026-04-05T10:08:07.33Z</time></trkpt><trkpt lat="45.953233" lon="11.7302833"><ele>635.2</ele><time>2026-04-05T10:08:10.331Z</time></trkpt><trkpt lat="45.9531378" lon="11.7302466"><ele>635.6</ele><time>2026-04-05T10:08:12.331Z</time></trkpt><trkpt lat="45.9530262" lon="11.7302193"><ele>636.0</ele><time>2026-04-05T10:08:14.33Z</time></trkpt><trkpt lat="45.9529621" lon="11.7301933"><ele>629.6</ele><time>2026-04-05T10:08:15.331Z</time></trkpt><trkpt lat="45.9528583" lon="11.7301059"><ele>623.2</ele><time>2026-04-05T10:08:17.33Z</time></trkpt><trkpt lat="45.9527594" lon="11.7300207"><ele>616.8</ele><time>2026-04-05T10:08:19.33Z</time></trkpt><trkpt lat="45.9526982" lon="11.7299823"><ele>610.4</ele><time>2026-04-05T10:08:20.331Z</time></trkpt><trkpt lat="45.9525993" lon="11.7299387"><ele>604.0</ele><time>2026-04-05T10:08:22.33Z</time></trkpt><trkpt lat="45.9524891" lon="11.7299362"><ele>603.8333333333334</ele><time>2026-04-05T10:08:24.33Z</time></trkpt><trkpt lat="45.9524221" lon="11.7299529"><ele>603.6666666666667</ele><time>2026-04-05T10:08:25.331Z</time></trkpt><trkpt lat="45.9523257" lon="11.7299642"><ele>603.5</ele><time>2026-04-05T10:08:27.33Z</time></trkpt><trkpt lat="45.9522442" lon="11.7299583"><ele>603.3333333333334</ele><time>2026-04-05T10:08:29.331Z</time></trkpt><trkpt lat="45.9521659" lon="11.7299459"><ele>603.1666666666666</ele><time>2026-04-05T10:08:32.331Z</time></trkpt><trkpt lat="45.9521218" lon="11.7298543"><ele>603.0</ele><time>2026-04-05T10:08:35.33Z</time></trkpt><trkpt lat="45.9520902" lon="11.729767"><ele>603.0</ele><time>2026-04-05T10:08:38.331Z</time></trkpt><trkpt lat="45.9519887" lon="11.7297939"><ele>603.0</ele><time>2026-04-05T10:08:41.33Z</time></trkpt><trkpt lat="45.951914" lon="11.7298413"><ele>603.0</ele><time>2026-04-05T10:08:43.33Z</time></trkpt><trkpt lat="45.9518414" lon="11.7298725"><ele>603.0</ele><time>2026-04-05T10:08:45.332Z</time></trkpt><trkpt lat="45.9517581" lon="11.7299237"><ele>603.0</ele><time>2026-04-05T10:08:48.331Z</time></trkpt><trkpt lat="45.9516918" lon="11.7299386"><ele>603.0</ele><time>2026-04-05T10:08:50.331Z</time></trkpt><trkpt lat="45.9516478" lon="11.7298589"><ele>599.5</ele><time>2026-04-05T10:08:53.33Z</time></trkpt><trkpt lat="45.9516911" lon="11.7297407"><ele>596.0</ele><time>2026-04-05T10:08:56.332Z</time></trkpt><trkpt lat="45.951641" lon="11.729817"><ele>592.5</ele><time>2026-04-05T10:09:01.332Z</time></trkpt><trkpt lat="45.9515525" lon="11.7299359"><ele>589.0</ele><time>2026-04-05T10:09:03.331Z</time></trkpt><trkpt lat="45.9514989" lon="11.7299989"><ele>585.5</ele><time>2026-04-05T10:09:04.33Z</time></trkpt><trkpt lat="45.9514355" lon="11.7300651"><ele>582.0</ele><time>2026-04-05T10:09:05.331Z</time></trkpt><trkpt lat="45.9513661" lon="11.7301271"><ele>582.0</ele><time>2026-04-05T10:09:06.33Z</time></trkpt><trkpt lat="45.9512969" lon="11.7301949"><ele>582.0</ele><time>2026-04-05T10:09:07.332Z</time></trkpt><trkpt lat="45.9512254" lon="11.7302624"><ele>582.0</ele><time>2026-04-05T10:09:08.331Z</time></trkpt><trkpt lat="45.9511546" lon="11.7303342"><ele>582.0</ele><time>2026-04-05T10:09:09.332Z</time></trkpt><trkpt lat="45.9510833" lon="11.7304091"><ele>582.0</ele><time>2026-04-05T10:09:10.331Z</time></trkpt><trkpt lat="45.9510168" lon="11.7304841"><ele>582.0</ele><time>2026-04-05T10:09:11.332Z</time></trkpt><trkpt lat="45.9509523" lon="11.7305551"><ele>583.2857142857142</ele><time>2026-04-05T10:09:12.333Z</time></trkpt><trkpt lat="45.950899" lon="11.7306218"><ele>584.5714285714286</ele><time>2026-04-05T10:09:13.332Z</time></trkpt><trkpt lat="45.9508417" lon="11.7306822"><ele>585.8571428571429</ele><time>2026-04-05T10:09:14.331Z</time></trkpt><trkpt lat="45.9507767" lon="11.730732"><ele>587.1428571428571</ele><time>2026-04-05T10:09:15.331Z</time></trkpt><trkpt lat="45.950705" lon="11.7307543"><ele>588.4285714285714</ele><time>2026-04-05T10:09:16.331Z</time></trkpt><trkpt lat="45.950636" lon="11.7307651"><ele>589.7142857142857</ele><time>2026-04-05T10:09:17.332Z</time></trkpt><trkpt lat="45.9505581" lon="11.7307845"><ele>591.0</ele><time>2026-04-05T10:09:18.331Z</time></trkpt><trkpt lat="45.9504796" lon="11.7308073"><ele>591.0</ele><time>2026-04-05T10:09:19.331Z</time></trkpt><trkpt lat="45.9504009" lon="11.7308369"><ele>591.0</ele><time>2026-04-05T10:09:20.331Z</time></trkpt><trkpt lat="45.9503298" lon="11.7308768"><ele>591.0</ele><time>2026-04-05T10:09:21.331Z</time></trkpt><trkpt lat="45.9502622" lon="11.7309264"><ele>591.0</ele><time>2026-04-05T10:09:22.331Z</time></trkpt><trkpt lat="45.9502006" lon="11.7309741"><ele>591.0</ele><time>2026-04-05T10:09:23.331Z</time></trkpt><trkpt lat="45.9501385" lon="11.7310232"><ele>591.0</ele><time>2026-04-05T10:09:24.332Z</time></trkpt><trkpt lat="45.9500757" lon="11.731059"><ele>591.0</ele><time>2026-04-05T10:09:25.332Z</time></trkpt><trkpt lat="45.9500078" lon="11.7310642"><ele>590.5</ele><time>2026-04-05T10:09:26.331Z</time></trkpt><trkpt lat="45.949927" lon="11.7310331"><ele>590.0</ele><time>2026-04-05T10:09:27.331Z</time></trkpt><trkpt lat="45.9498442" lon="11.7309768"><ele>589.5</ele><time>2026-04-05T10:09:28.331Z</time></trkpt><trkpt lat="45.9497737" lon="11.7309216"><ele>589.0</ele><time>2026-04-05T10:09:29.332Z</time></trkpt><trkpt lat="45.9497053" lon="11.7308795"><ele>588.5</ele><time>2026-04-05T10:09:30.332Z</time></trkpt><trkpt lat="45.949596" lon="11.7308127"><ele>588.0</ele><time>2026-04-05T10:09:32.331Z</time></trkpt><trkpt lat="45.9494961" lon="11.730787"><ele>588.0</ele><time>2026-04-05T10:09:34.331Z</time></trkpt><trkpt lat="45.9493991" lon="11.7308077"><ele>588.0</ele><time>2026-04-05T10:09:36.331Z</time></trkpt><trkpt lat="45.9493109" lon="11.7308935"><ele>588.0</ele><time>2026-04-05T10:09:38.331Z</time></trkpt><trkpt lat="45.9492548" lon="11.7310404"><ele>588.0</ele><time>2026-04-05T10:09:40.331Z</time></trkpt><trkpt lat="45.9492274" lon="11.7311363"><ele>588.0</ele><time>2026-04-05T10:09:41.331Z</time></trkpt><trkpt lat="45.9492001" lon="11.7312376"><ele>590.6666666666666</ele><time>2026-04-05T10:09:42.331Z</time></trkpt><trkpt lat="45.9491686" lon="11.7313477"><ele>593.3333333333334</ele><time>2026-04-05T10:09:43.332Z</time></trkpt><trkpt lat="45.9491413" lon="11.7314687"><ele>596.0</ele><time>2026-04-05T10:09:44.331Z</time></trkpt><trkpt lat="45.9491115" lon="11.7315861"><ele>598.6666666666667</ele><time>2026-04-05T10:09:45.331Z</time></trkpt><trkpt lat="45.9490837" lon="11.7316856"><ele>601.3333333333334</ele><time>2026-04-05T10:09:46.332Z</time></trkpt><trkpt lat="45.9490575" lon="11.7317681"><ele>604.0</ele><time>2026-04-05T10:09:47.331Z</time></trkpt><trkpt lat="45.9490421" lon="11.7318865"><ele>604.0</ele><time>2026-04-05T10:09:49.331Z</time></trkpt><trkpt lat="45.9490171" lon="11.732003"><ele>604.0</ele><time>2026-04-05T10:09:52.331Z</time></trkpt><trkpt lat="45.948969" lon="11.7320667"><ele>604.0</ele><time>2026-04-05T10:09:56.331Z</time></trkpt><trkpt lat="45.9489145" lon="11.7319939"><ele>604.0</ele><time>2026-04-05T10:10:02.332Z</time></trkpt><trkpt lat="45.9488493" lon="11.7319084"><ele>604.0</ele><time>2026-04-05T10:10:04.332Z</time></trkpt><trkpt lat="45.9487528" lon="11.7318282"><ele>604.0</ele><time>2026-04-05T10:10:06.332Z</time></trkpt><trkpt lat="45.9486779" lon="11.7318099"><ele>604.0</ele><time>2026-04-05T10:10:08.332Z</time></trkpt><trkpt lat="45.9485905" lon="11.7317884"><ele>604.0</ele><time>2026-04-05T10:10:10.332Z</time></trkpt><trkpt lat="45.9484662" lon="11.7317356"><ele>604.0</ele><time>2026-04-05T10:10:12.332Z</time></trkpt><trkpt lat="45.9483813" lon="11.7316875"><ele>604.0</ele><time>2026-04-05T10:10:14.333Z</time></trkpt><trkpt lat="45.9483144" lon="11.7316689"><ele>604.0</ele><time>2026-04-05T10:10:20.332Z</time></trkpt><trkpt lat="45.948237" lon="11.7316471"><ele>602.6666666666667</ele><time>2026-04-05T10:10:23.332Z</time></trkpt><trkpt lat="45.9481621" lon="11.731636"><ele>601.3333333333334</ele><time>2026-04-05T10:10:25.333Z</time></trkpt><trkpt lat="45.9480912" lon="11.7316271"><ele>600.0</ele><time>2026-04-05T10:10:27.332Z</time></trkpt><trkpt lat="45.9480077" lon="11.7315978"><ele>598.6666666666666</ele><time>2026-04-05T10:10:30.332Z</time></trkpt><trkpt lat="45.9479341" lon="11.7315651"><ele>597.3333333333333</ele><time>2026-04-05T10:10:32.332Z</time></trkpt><trkpt lat="45.9478574" lon="11.7315165"><ele>596.0</ele><time>2026-04-05T10:10:34.332Z</time></trkpt><trkpt lat="45.9477717" lon="11.7314764"><ele>596.0</ele><time>2026-04-05T10:10:36.332Z</time></trkpt><trkpt lat="45.947671" lon="11.7314679"><ele>596.0</ele><time>2026-04-05T10:10:38.333Z</time></trkpt><trkpt lat="45.9475809" lon="11.7314521"><ele>596.0</ele><time>2026-04-05T10:10:40.333Z</time></trkpt><trkpt lat="45.9474814" lon="11.7314254"><ele>596.0</ele><time>2026-04-05T10:10:42.333Z</time></trkpt><trkpt lat="45.947387" lon="11.7313649"><ele>596.0</ele><time>2026-04-05T10:10:44.332Z</time></trkpt><trkpt lat="45.9472795" lon="11.7313111"><ele>595.0</ele><time>2026-04-05T10:10:46.332Z</time></trkpt><trkpt lat="45.947184" lon="11.731271"><ele>594.0</ele><time>2026-04-05T10:10:48.333Z</time></trkpt><trkpt lat="45.947097" lon="11.7312353"><ele>593.0</ele><time>2026-04-05T10:10:50.333Z</time></trkpt><trkpt lat="45.946973" lon="11.7312556"><ele>592.0</ele><time>2026-04-05T10:10:52.332Z</time></trkpt><trkpt lat="45.9468721" lon="11.7313189"><ele>591.0</ele><time>2026-04-05T10:10:54.333Z</time></trkpt><trkpt lat="45.9467897" lon="11.7314193"><ele>591.0</ele><time>2026-04-05T10:10:56.333Z</time></trkpt><trkpt lat="45.9467187" lon="11.731522"><ele>591.0</ele><time>2026-04-05T10:10:58.333Z</time></trkpt><trkpt lat="45.9466712" lon="11.7315913"><ele>591.0</ele><time>2026-04-05T10:11:00.333Z</time></trkpt><trkpt lat="45.9466103" lon="11.7316751"><ele>591.0</ele><time>2026-04-05T10:11:02.332Z</time></trkpt><trkpt lat="45.9465507" lon="11.7317993"><ele>591.0</ele><time>2026-04-05T10:11:04.332Z</time></trkpt><trkpt lat="45.9465117" lon="11.731914"><ele>591.0</ele><time>2026-04-05T10:11:06.333Z</time></trkpt><trkpt lat="45.9464685" lon="11.7319957"><ele>586.8333333333334</ele><time>2026-04-05T10:11:08.332Z</time></trkpt><trkpt lat="45.9464016" lon="11.7319804"><ele>582.6666666666666</ele><time>2026-04-05T10:11:18.333Z</time></trkpt><trkpt lat="45.9463651" lon="11.7318927"><ele>578.5</ele><time>2026-04-05T10:11:20.333Z</time></trkpt><trkpt lat="45.9463303" lon="11.7317861"><ele>574.3333333333333</ele><time>2026-04-05T10:11:23.334Z</time></trkpt><trkpt lat="45.9463351" lon="11.7316713"><ele>570.1666666666666</ele><time>2026-04-05T10:11:26.333Z</time></trkpt><trkpt lat="45.9462879" lon="11.7317336"><ele>566.0</ele><time>2026-04-05T10:11:33.334Z</time></trkpt><trkpt lat="45.9462249" lon="11.7318879"><ele>566.0</ele><time>2026-04-05T10:11:35.333Z</time></trkpt><trkpt lat="45.9462115" lon="11.7319788"><ele>566.0</ele><time>2026-04-05T10:11:36.333Z</time></trkpt><trkpt lat="45.9461959" lon="11.7320969"><ele>566.0</ele><time>2026-04-05T10:11:37.333Z</time></trkpt><trkpt lat="45.9461817" lon="11.7322186"><ele>566.0</ele><time>2026-04-05T10:11:38.334Z</time></trkpt><trkpt lat="45.9461729" lon="11.7323425"><ele>566.0</ele><time>2026-04-05T10:11:39.334Z</time></trkpt><trkpt lat="45.9461648" lon="11.7324597"><ele>566.0</ele><time>2026-04-05T10:11:40.333Z</time></trkpt><trkpt lat="45.9461552" lon="11.7325741"><ele>566.0</ele><time>2026-04-05T10:11:41.334Z</time></trkpt><trkpt lat="45.9461435" lon="11.7326827"><ele>566.0</ele><time>2026-04-05T10:11:42.335Z</time></trkpt><trkpt lat="45.9461294" lon="11.7327814"><ele>566.0</ele><time>2026-04-05T10:11:43.334Z</time></trkpt><trkpt lat="45.9461222" lon="11.7328776"><ele>566.0</ele><time>2026-04-05T10:11:44.334Z</time></trkpt><trkpt lat="45.9461275" lon="11.7329789"><ele>566.0</ele><time>2026-04-05T10:11:45.334Z</time></trkpt><trkpt lat="45.9461397" lon="11.7330764"><ele>566.0</ele><time>2026-04-05T10:11:46.334Z</time></trkpt><trkpt lat="45.9461607" lon="11.7331648"><ele>566.0</ele><time>2026-04-05T10:11:47.333Z</time></trkpt><trkpt lat="45.9462095" lon="11.733282"><ele>566.6</ele><time>2026-04-05T10:11:49.334Z</time></trkpt><trkpt lat="45.9461892" lon="11.7334344"><ele>567.2</ele><time>2026-04-05T10:11:58.333Z</time></trkpt><trkpt lat="45.9461137" lon="11.7335699"><ele>567.8</ele><time>2026-04-05T10:12:00.333Z</time></trkpt><trkpt lat="45.9460667" lon="11.7336707"><ele>568.4</ele><time>2026-04-05T10:12:01.333Z</time></trkpt><trkpt lat="45.9460422" lon="11.7337627"><ele>569.0</ele><time>2026-04-05T10:12:02.334Z</time></trkpt><trkpt lat="45.9460388" lon="11.7338633"><ele>570.0</ele><time>2026-04-05T10:12:03.334Z</time></trkpt><trkpt lat="45.9460506" lon="11.7339704"><ele>571.0</ele><time>2026-04-05T10:12:04.334Z</time></trkpt><trkpt lat="45.9460599" lon="11.7340733"><ele>572.0</ele><time>2026-04-05T10:12:05.335Z</time></trkpt><trkpt lat="45.9460738" lon="11.7341805"><ele>573.0</ele><time>2026-04-05T10:12:06.335Z</time></trkpt><trkpt lat="45.9460654" lon="11.7343411"><ele>574.0</ele><time>2026-04-05T10:12:08.334Z</time></trkpt><trkpt lat="45.9460023" lon="11.7344357"><ele>575.0</ele><time>2026-04-05T10:12:10.334Z</time></trkpt><trkpt lat="45.9459172" lon="11.7344402"><ele>575.6</ele><time>2026-04-05T10:12:12.334Z</time></trkpt><trkpt lat="45.9458166" lon="11.7343933"><ele>576.2</ele><time>2026-04-05T10:12:14.335Z</time></trkpt><trkpt lat="45.9457028" lon="11.7343556"><ele>576.8</ele><time>2026-04-05T10:12:16.335Z</time></trkpt><trkpt lat="45.9455952" lon="11.7343095"><ele>577.4</ele><time>2026-04-05T10:12:18.334Z</time></trkpt><trkpt lat="45.9455383" lon="11.7342601"><ele>578.0</ele><time>2026-04-05T10:12:19.334Z</time></trkpt><trkpt lat="45.9454316" lon="11.7341688"><ele>576.1666666666666</ele><time>2026-04-05T10:12:21.334Z</time></trkpt><trkpt lat="45.9453713" lon="11.7341147"><ele>574.3333333333333</ele><time>2026-04-05T10:12:22.335Z</time></trkpt><trkpt lat="45.9452922" lon="11.734023"><ele>572.5</ele><time>2026-04-05T10:12:24.336Z</time></trkpt><trkpt lat="45.9452278" lon="11.7339637"><ele>570.6666666666666</ele><time>2026-04-05T10:12:26.334Z</time></trkpt><trkpt lat="45.9451496" lon="11.7338651"><ele>568.8333333333334</ele><time>2026-04-05T10:12:28.334Z</time></trkpt><trkpt lat="45.9450828" lon="11.7337714"><ele>567.0</ele><time>2026-04-05T10:12:30.334Z</time></trkpt><trkpt lat="45.9450161" lon="11.7336796"><ele>567.0</ele><time>2026-04-05T10:12:35.334Z</time></trkpt><trkpt lat="45.9449849" lon="11.733599"><ele>567.0</ele><time>2026-04-05T10:12:37.335Z</time></trkpt><trkpt lat="45.9449464" lon="11.7334882"><ele>567.0</ele><time>2026-04-05T10:12:39.334Z</time></trkpt><trkpt lat="45.9448844" lon="11.7333954"><ele>567.0</ele><time>2026-04-05T10:12:41.334Z</time></trkpt><trkpt lat="45.9447697" lon="11.7333289"><ele>567.0</ele><time>2026-04-05T10:12:43.335Z</time></trkpt><trkpt lat="45.9446696" lon="11.733303"><ele>561.3333333333334</ele><time>2026-04-05T10:12:45.336Z</time></trkpt><trkpt lat="45.944622" lon="11.7332215"><ele>555.6666666666666</ele><time>2026-04-05T10:12:47.335Z</time></trkpt><trkpt lat="45.9445745" lon="11.7331545"><ele>550.0</ele><time>2026-04-05T10:12:48.334Z</time></trkpt><trkpt lat="45.9444999" lon="11.7330857"><ele>544.3333333333333</ele><time>2026-04-05T10:12:49.334Z</time></trkpt><trkpt lat="45.9444428" lon="11.7330422"><ele>538.6666666666666</ele><time>2026-04-05T10:12:50.334Z</time></trkpt><trkpt lat="45.9443786" lon="11.7329932"><ele>533.0</ele><time>2026-04-05T10:12:52.335Z</time></trkpt><trkpt lat="45.9442765" lon="11.7329682"><ele>535.1666666666666</ele><time>2026-04-05T10:12:55.334Z</time></trkpt><trkpt lat="45.9441685" lon="11.7329651"><ele>537.3333333333333</ele><time>2026-04-05T10:12:57.335Z</time></trkpt><trkpt lat="45.9440911" lon="11.7329493"><ele>539.5</ele><time>2026-04-05T10:12:59.335Z</time></trkpt><trkpt lat="45.9440206" lon="11.7329519"><ele>541.6666666666666</ele><time>2026-04-05T10:13:03.336Z</time></trkpt><trkpt lat="45.944004" lon="11.732847"><ele>543.8333333333334</ele><time>2026-04-05T10:13:07.335Z</time></trkpt><trkpt lat="45.9439823" lon="11.7326917"><ele>546.0</ele><time>2026-04-05T10:13:10.334Z</time></trkpt><trkpt lat="45.9439618" lon="11.7325291"><ele>540.2</ele><time>2026-04-05T10:13:12.335Z</time></trkpt><trkpt lat="45.9439464" lon="11.7323647"><ele>534.4000000000001</ele><time>2026-04-05T10:13:14.335Z</time></trkpt><trkpt lat="45.9439094" lon="11.7322285"><ele>528.6</ele><time>2026-04-05T10:13:16.335Z</time></trkpt><trkpt lat="45.9438509" lon="11.7321252"><ele>522.8000000000001</ele><time>2026-04-05T10:13:18.335Z</time></trkpt><trkpt lat="45.9437675" lon="11.7320275"><ele>517.0</ele><time>2026-04-05T10:13:20.336Z</time></trkpt><trkpt lat="45.9436741" lon="11.731936"><ele>517.0</ele><time>2026-04-05T10:13:22.336Z</time></trkpt><trkpt lat="45.9436172" lon="11.7318934"><ele>517.0</ele><time>2026-04-05T10:13:23.335Z</time></trkpt><trkpt lat="45.943493" lon="11.7318475"><ele>517.0</ele><time>2026-04-05T10:13:25.336Z</time></trkpt><trkpt lat="45.9434185" lon="11.7318371"><ele>517.0</ele><time>2026-04-05T10:13:26.335Z</time></trkpt><trkpt lat="45.9433349" lon="11.7318438"><ele>517.0</ele><time>2026-04-05T10:13:27.336Z</time></trkpt><trkpt lat="45.9432632" lon="11.7318584"><ele>517.0</ele><time>2026-04-05T10:13:28.335Z</time></trkpt><trkpt lat="45.9431649" lon="11.7318523"><ele>514.6</ele><time>2026-04-05T10:13:30.336Z</time></trkpt><trkpt lat="45.9430774" lon="11.731844"><ele>512.2</ele><time>2026-04-05T10:13:32.335Z</time></trkpt><trkpt lat="45.9429714" lon="11.7318504"><ele>509.8</ele><time>2026-04-05T10:13:34.335Z</time></trkpt><trkpt lat="45.9428978" lon="11.7318413"><ele>507.4</ele><time>2026-04-05T10:13:36.335Z</time></trkpt><trkpt lat="45.9427733" lon="11.7318646"><ele>505.0</ele><time>2026-04-05T10:13:38.336Z</time></trkpt><trkpt lat="45.9426978" lon="11.7318649"><ele>505.00000000000006</ele><time>2026-04-05T10:13:39.335Z</time></trkpt><trkpt lat="45.9426309" lon="11.7318857"><ele>505.0</ele><time>2026-04-05T10:13:40.335Z</time></trkpt><trkpt lat="45.9425648" lon="11.731934"><ele>505.0</ele><time>2026-04-05T10:13:41.335Z</time></trkpt><trkpt lat="45.9425" lon="11.7319882"><ele>505.0</ele><time>2026-04-05T10:13:42.336Z</time></trkpt><trkpt lat="45.9424003" lon="11.7320168"><ele>505.00000000000006</ele><time>2026-04-05T10:13:44.336Z</time></trkpt><trkpt lat="45.9423142" lon="11.7320536"><ele>505.0</ele><time>2026-04-05T10:13:46.335Z</time></trkpt><trkpt lat="45.9422422" lon="11.7321175"><ele>505.57142857142856</ele><time>2026-04-05T10:13:48.336Z</time></trkpt><trkpt lat="45.9421821" lon="11.7321576"><ele>506.1428571428571</ele><time>2026-04-05T10:13:50.336Z</time></trkpt><trkpt lat="45.9421197" lon="11.7321175"><ele>506.71428571428567</ele><time>2026-04-05T10:13:53.336Z</time></trkpt><trkpt lat="45.9420735" lon="11.7320175"><ele>507.2857142857142</ele><time>2026-04-05T10:13:55.335Z</time></trkpt><trkpt lat="45.9420439" lon="11.731903"><ele>507.85714285714283</ele><time>2026-04-05T10:13:57.335Z</time></trkpt><trkpt lat="45.9420314" lon="11.7318093"><ele>508.42857142857133</ele><time>2026-04-05T10:13:58.336Z</time></trkpt><trkpt lat="45.9420091" lon="11.7317132"><ele>508.99999999999994</ele><time>2026-04-05T10:13:59.336Z</time></trkpt><trkpt lat="45.9419811" lon="11.7315607"><ele>508.99999999999994</ele><time>2026-04-05T10:14:01.336Z</time></trkpt><trkpt lat="45.9419092" lon="11.731547"><ele>509.0</ele><time>2026-04-05T10:14:04.336Z</time></trkpt><trkpt lat="45.9418612" lon="11.7314798"><ele>509.0</ele><time>2026-04-05T10:14:12.336Z</time></trkpt><trkpt lat="45.9418657" lon="11.7313861"><ele>509.0</ele><time>2026-04-05T10:14:14.337Z</time></trkpt><trkpt lat="45.9418596" lon="11.7312273"><ele>508.99999999999994</ele><time>2026-04-05T10:14:16.337Z</time></trkpt><trkpt lat="45.9418254" lon="11.7310644"><ele>509.0</ele><time>2026-04-05T10:14:18.337Z</time></trkpt><trkpt lat="45.9417812" lon="11.7309936"><ele>512.5</ele><time>2026-04-05T10:14:20.336Z</time></trkpt><trkpt lat="45.9417249" lon="11.730925"><ele>516.0</ele><time>2026-04-05T10:14:22.337Z</time></trkpt><trkpt lat="45.9416531" lon="11.7308637"><ele>519.5</ele><time>2026-04-05T10:14:23.336Z</time></trkpt><trkpt lat="45.9415832" lon="11.7308297"><ele>523.0</ele><time>2026-04-05T10:14:24.336Z</time></trkpt><trkpt lat="45.9414709" lon="11.730758"><ele>526.5</ele><time>2026-04-05T10:14:26.336Z</time></trkpt><trkpt lat="45.9413944" lon="11.7307291"><ele>530.0</ele><time>2026-04-05T10:14:28.337Z</time></trkpt><trkpt lat="45.9413251" lon="11.7307447"><ele>530.0</ele><time>2026-04-05T10:14:29.337Z</time></trkpt><trkpt lat="45.9412439" lon="11.7307902"><ele>530.0</ele><time>2026-04-05T10:14:31.337Z</time></trkpt><trkpt lat="45.9411667" lon="11.730795"><ele>530.0</ele><time>2026-04-05T10:14:33.336Z</time></trkpt><trkpt lat="45.941091" lon="11.7308308"><ele>530.0</ele><time>2026-04-05T10:14:35.337Z</time></trkpt><trkpt lat="45.941016" lon="11.7308627"><ele>530.0</ele><time>2026-04-05T10:14:38.336Z</time></trkpt><trkpt lat="45.9411001" lon="11.7308286"><ele>530.0</ele><time>2026-04-05T10:14:43.337Z</time></trkpt><trkpt lat="45.9411738" lon="11.7308085"><ele>529.9999999999999</ele><time>2026-04-05T10:14:45.337Z</time></trkpt><trkpt lat="45.9412236" lon="11.7307092"><ele>530.0</ele><time>2026-04-05T10:14:52.337Z</time></trkpt><trkpt lat="45.9412402" lon="11.7305887"><ele>530.0</ele><time>2026-04-05T10:15:05.337Z</time></trkpt><trkpt lat="45.9411801" lon="11.7305313"><ele>530.0</ele><time>2026-04-05T10:15:10.337Z</time></trkpt><trkpt lat="45.9411419" lon="11.7304566"><ele>530.0</ele><time>2026-04-05T10:15:13.337Z</time></trkpt><trkpt lat="45.9410706" lon="11.7304495"><ele>529.9999999999999</ele><time>2026-04-05T10:15:17.337Z</time></trkpt><trkpt lat="45.9410087" lon="11.7304714"><ele>530.0</ele><time>2026-04-05T10:15:21.338Z</time></trkpt><trkpt lat="45.9409423" lon="11.730448"><ele>530.0</ele><time>2026-04-05T10:15:29.337Z</time></trkpt><trkpt lat="45.9409237" lon="11.7303318"><ele>530.0</ele><time>2026-04-05T10:15:31.338Z</time></trkpt><trkpt lat="45.9409092" lon="11.7301869"><ele>530.0</ele><time>2026-04-05T10:15:33.337Z</time></trkpt><trkpt lat="45.9409048" lon="11.7300955"><ele>530.0</ele><time>2026-04-05T10:15:36.338Z</time></trkpt><trkpt lat="45.9409578" lon="11.7300164"><ele>530.0</ele><time>2026-04-05T10:15:38.337Z</time></trkpt><trkpt lat="45.9409814" lon="11.7299272"><ele>530.0</ele><time>2026-04-05T10:15:40.337Z</time></trkpt><trkpt lat="45.9409492" lon="11.7298476"><ele>527.0</ele><time>2026-04-05T10:15:44.338Z</time></trkpt><trkpt lat="45.9408255" lon="11.7298183"><ele>524.0</ele><time>2026-04-05T10:15:46.338Z</time></trkpt><trkpt lat="45.9407603" lon="11.7298114"><ele>521.0</ele><time>2026-04-05T10:15:47.338Z</time></trkpt><trkpt lat="45.9406562" lon="11.7297945"><ele>518.0</ele><time>2026-04-05T10:15:49.337Z</time></trkpt><trkpt lat="45.9405472" lon="11.7298348"><ele>515.0</ele><time>2026-04-05T10:15:51.338Z</time></trkpt><trkpt lat="45.9404951" lon="11.729775"><ele>515.0</ele><time>2026-04-05T10:15:56.337Z</time></trkpt><trkpt lat="45.940537" lon="11.7297003"><ele>515.0</ele><time>2026-04-05T10:15:58.338Z</time></trkpt><trkpt lat="45.940631" lon="11.7296351"><ele>515.0</ele><time>2026-04-05T10:16:00.337Z</time></trkpt><trkpt lat="45.9406925" lon="11.7295871"><ele>515.0</ele><time>2026-04-05T10:16:01.337Z</time></trkpt><trkpt lat="45.9407652" lon="11.7294989"><ele>515.0</ele><time>2026-04-05T10:16:03.338Z</time></trkpt><trkpt lat="45.9406833" lon="11.7294332"><ele>515.0</ele><time>2026-04-05T10:16:08.337Z</time></trkpt><trkpt lat="45.9405179" lon="11.7294225"><ele>515.0</ele><time>2026-04-05T10:16:10.337Z</time></trkpt><trkpt lat="45.9404353" lon="11.7294146"><ele>515.0</ele><time>2026-04-05T10:16:11.338Z</time></trkpt><trkpt lat="45.9403039" lon="11.7294344"><ele>515.0</ele><time>2026-04-05T10:16:12.337Z</time></trkpt><trkpt lat="45.9401604" lon="11.7294697"><ele>515.0</ele><time>2026-04-05T10:16:13.337Z</time></trkpt><trkpt lat="45.9400634" lon="11.7294878"><ele>514.3333333333333</ele><time>2026-04-05T10:16:14.337Z</time></trkpt><trkpt lat="45.9399465" lon="11.7295079"><ele>513.6666666666666</ele><time>2026-04-05T10:16:16.337Z</time></trkpt><trkpt lat="45.9398635" lon="11.729558"><ele>513.0</ele><time>2026-04-05T10:16:18.339Z</time></trkpt><trkpt lat="45.9397733" lon="11.7295805"><ele>512.3333333333334</ele><time>2026-04-05T10:16:20.338Z</time></trkpt><trkpt lat="45.9397022" lon="11.7295643"><ele>511.6666666666667</ele><time>2026-04-05T10:16:22.339Z</time></trkpt><trkpt lat="45.9396289" lon="11.7295896"><ele>511.0</ele><time>2026-04-05T10:16:26.338Z</time></trkpt><trkpt lat="45.9395542" lon="11.7296437"><ele>511.00000000000006</ele><time>2026-04-05T10:16:29.339Z</time></trkpt><trkpt lat="45.9394634" lon="11.7297167"><ele>511.0</ele><time>2026-04-05T10:16:31.338Z</time></trkpt><trkpt lat="45.9393857" lon="11.7297263"><ele>511.0</ele><time>2026-04-05T10:16:33.339Z</time></trkpt><trkpt lat="45.9393138" lon="11.729677"><ele>511.0</ele><time>2026-04-05T10:16:36.339Z</time></trkpt><trkpt lat="45.9392483" lon="11.7296405"><ele>511.00000000000006</ele><time>2026-04-05T10:16:39.339Z</time></trkpt><trkpt lat="45.9391915" lon="11.7295993"><ele>511.0</ele><time>2026-04-05T10:16:41.339Z</time></trkpt><trkpt lat="45.9390844" lon="11.7295293"><ele>511.6666666666667</ele><time>2026-04-05T10:16:43.339Z</time></trkpt><trkpt lat="45.9390222" lon="11.7294929"><ele>512.3333333333334</ele><time>2026-04-05T10:16:44.339Z</time></trkpt><trkpt lat="45.9389551" lon="11.7294609"><ele>513.0</ele><time>2026-04-05T10:16:45.339Z</time></trkpt><trkpt lat="45.9388748" lon="11.7294249"><ele>513.6666666666666</ele><time>2026-04-05T10:16:46.338Z</time></trkpt><trkpt lat="45.9388081" lon="11.7294046"><ele>514.3333333333333</ele><time>2026-04-05T10:16:47.338Z</time></trkpt><trkpt lat="45.9387421" lon="11.729384"><ele>515.0</ele><time>2026-04-05T10:16:48.338Z</time></trkpt><trkpt lat="45.9386452" lon="11.7293433"><ele>505.8</ele><time>2026-04-05T10:16:50.339Z</time></trkpt><trkpt lat="45.9385602" lon="11.7292563"><ele>496.6</ele><time>2026-04-05T10:16:52.339Z</time></trkpt><trkpt lat="45.9384812" lon="11.7291985"><ele>487.4</ele><time>2026-04-05T10:16:54.338Z</time></trkpt><trkpt lat="45.9383971" lon="11.7291594"><ele>478.2</ele><time>2026-04-05T10:16:56.338Z</time></trkpt><trkpt lat="45.9385039" lon="11.729186"><ele>469.0</ele><time>2026-04-05T10:17:03.34Z</time></trkpt><trkpt lat="45.9385732" lon="11.7292213"><ele>469.00000000000006</ele><time>2026-04-05T10:17:04.339Z</time></trkpt><trkpt lat="45.9386416" lon="11.7292649"><ele>469.0</ele><time>2026-04-05T10:17:05.338Z</time></trkpt><trkpt lat="45.9387147" lon="11.7293178"><ele>469.0</ele><time>2026-04-05T10:17:06.34Z</time></trkpt><trkpt lat="45.9387693" lon="11.7293692"><ele>469.0</ele><time>2026-04-05T10:17:07.338Z</time></trkpt><trkpt lat="45.9388308" lon="11.7294701"><ele>469.00000000000006</ele><time>2026-04-05T10:17:09.338Z</time></trkpt><trkpt lat="45.9387848" lon="11.7295343"><ele>469.0</ele><time>2026-04-05T10:17:13.339Z</time></trkpt><trkpt lat="45.9386833" lon="11.7295271"><ele>475.0</ele><time>2026-04-05T10:17:15.338Z</time></trkpt><trkpt lat="45.9385744" lon="11.7295282"><ele>481.0</ele><time>2026-04-05T10:17:17.34Z</time></trkpt><trkpt lat="45.9384777" lon="11.7295129"><ele>487.0</ele><time>2026-04-05T10:17:19.339Z</time></trkpt><trkpt lat="45.9383509" lon="11.7294387"><ele>493.0</ele><time>2026-04-05T10:17:21.339Z</time></trkpt><trkpt lat="45.938289" lon="11.7293605"><ele>499.0</ele><time>2026-04-05T10:17:22.339Z</time></trkpt><trkpt lat="45.938225" lon="11.7292967"><ele>499.00000000000006</ele><time>2026-04-05T10:17:23.339Z</time></trkpt><trkpt lat="45.9381354" lon="11.7292091"><ele>499.0</ele><time>2026-04-05T10:17:25.339Z</time></trkpt><trkpt lat="45.9380437" lon="11.7291471"><ele>499.0</ele><time>2026-04-05T10:17:27.34Z</time></trkpt><trkpt lat="45.9379776" lon="11.7291204"><ele>499.0</ele><time>2026-04-05T10:17:28.339Z</time></trkpt><trkpt lat="45.9378947" lon="11.729093"><ele>499.00000000000006</ele><time>2026-04-05T10:17:29.34Z</time></trkpt><trkpt lat="45.9378118" lon="11.7290694"><ele>499.0</ele><time>2026-04-05T10:17:30.34Z</time></trkpt><trkpt lat="45.9377306" lon="11.729049"><ele>499.00000000000006</ele><time>2026-04-05T10:17:31.34Z</time></trkpt><trkpt lat="45.9376482" lon="11.7290261"><ele>499.0</ele><time>2026-04-05T10:17:32.34Z</time></trkpt><trkpt lat="45.9375623" lon="11.729008"><ele>499.0</ele><time>2026-04-05T10:17:33.34Z</time></trkpt><trkpt lat="45.9374622" lon="11.7289868"><ele>499.0</ele><time>2026-04-05T10:17:34.339Z</time></trkpt><trkpt lat="45.9373786" lon="11.7289802"><ele>499.00000000000006</ele><time>2026-04-05T10:17:35.34Z</time></trkpt><trkpt lat="45.9373021" lon="11.7289738"><ele>499.0</ele><time>2026-04-05T10:17:36.339Z</time></trkpt><trkpt lat="45.9372302" lon="11.7289759"><ele>505.50000000000006</ele><time>2026-04-05T10:17:37.339Z</time></trkpt><trkpt lat="45.9371524" lon="11.7289881"><ele>512.0</ele><time>2026-04-05T10:17:38.339Z</time></trkpt><trkpt lat="45.9370684" lon="11.7290191"><ele>518.5</ele><time>2026-04-05T10:17:39.34Z</time></trkpt><trkpt lat="45.9369924" lon="11.7290517"><ele>525.0</ele><time>2026-04-05T10:17:40.34Z</time></trkpt><trkpt lat="45.9369087" lon="11.7290797"><ele>531.5</ele><time>2026-04-05T10:17:41.339Z</time></trkpt><trkpt lat="45.9368216" lon="11.7290831"><ele>538.0</ele><time>2026-04-05T10:17:42.339Z</time></trkpt><trkpt lat="45.9367384" lon="11.7290818"><ele>538.6666666666667</ele><time>2026-04-05T10:17:43.34Z</time></trkpt><trkpt lat="45.9366674" lon="11.7290702"><ele>539.3333333333334</ele><time>2026-04-05T10:17:44.339Z</time></trkpt><trkpt lat="45.9365865" lon="11.7290255"><ele>540.0</ele><time>2026-04-05T10:17:45.339Z</time></trkpt><trkpt lat="45.9365133" lon="11.7289555"><ele>540.6666666666666</ele><time>2026-04-05T10:17:46.339Z</time></trkpt><trkpt lat="45.9364449" lon="11.7288683"><ele>541.3333333333333</ele><time>2026-04-05T10:17:47.339Z</time></trkpt><trkpt lat="45.9363743" lon="11.7287904"><ele>542.0</ele><time>2026-04-05T10:17:48.339Z</time></trkpt><trkpt lat="45.9362981" lon="11.7287306"><ele>542.0</ele><time>2026-04-05T10:17:49.339Z</time></trkpt><trkpt lat="45.9362078" lon="11.7287084"><ele>542.0</ele><time>2026-04-05T10:17:51.34Z</time></trkpt><trkpt lat="45.936152" lon="11.728763"><ele>542.0</ele><time>2026-04-05T10:17:54.341Z</time></trkpt><trkpt lat="45.936172" lon="11.7288692"><ele>542.0</ele><time>2026-04-05T10:17:56.339Z</time></trkpt><trkpt lat="45.9362175" lon="11.7289425"><ele>542.0</ele><time>2026-04-05T10:17:57.339Z</time></trkpt><trkpt lat="45.9362674" lon="11.7290411"><ele>542.0</ele><time>2026-04-05T10:17:58.341Z</time></trkpt><trkpt lat="45.9363159" lon="11.7291342"><ele>542.0</ele><time>2026-04-05T10:17:59.339Z</time></trkpt><trkpt lat="45.9363436" lon="11.7292207"><ele>542.0</ele><time>2026-04-05T10:18:00.339Z</time></trkpt><trkpt lat="45.9363613" lon="11.7293103"><ele>542.0</ele><time>2026-04-05T10:18:01.34Z</time></trkpt><trkpt lat="45.936358" lon="11.7294028"><ele>542.0</ele><time>2026-04-05T10:18:02.339Z</time></trkpt><trkpt lat="45.9363191" lon="11.7295469"><ele>542.0</ele><time>2026-04-05T10:18:04.34Z</time></trkpt><trkpt lat="45.9362341" lon="11.7295438"><ele>542.0</ele><time>2026-04-05T10:22:32.345Z</time></trkpt><trkpt lat="45.9361659" lon="11.7295575"><ele>543.8000000000001</ele><time>2026-04-05T10:22:33.344Z</time></trkpt><trkpt lat="45.9360705" lon="11.7295934"><ele>545.6</ele><time>2026-04-05T10:22:35.345Z</time></trkpt><trkpt lat="45.9359692" lon="11.7296168"><ele>547.4000000000001</ele><time>2026-04-05T10:22:37.344Z</time></trkpt><trkpt lat="45.9358553" lon="11.7296359"><ele>549.2</ele><time>2026-04-05T10:22:39.344Z</time></trkpt><trkpt lat="45.9357368" lon="11.7296609"><ele>551.0</ele><time>2026-04-05T10:22:41.344Z</time></trkpt><trkpt lat="45.9356564" lon="11.7296594"><ele>551.0</ele><time>2026-04-05T10:22:43.344Z</time></trkpt><trkpt lat="45.9355486" lon="11.7297038"><ele>551.0</ele><time>2026-04-05T10:22:45.344Z</time></trkpt><trkpt lat="45.9354314" lon="11.7297777"><ele>551.0</ele><time>2026-04-05T10:22:47.345Z</time></trkpt><trkpt lat="45.935372" lon="11.7298203"><ele>551.0</ele><time>2026-04-05T10:22:48.345Z</time></trkpt><trkpt lat="45.9353178" lon="11.7298699"><ele>551.0</ele><time>2026-04-05T10:22:49.345Z</time></trkpt><trkpt lat="45.9352643" lon="11.729922"><ele>551.0</ele><time>2026-04-05T10:22:50.345Z</time></trkpt><trkpt lat="45.9351691" lon="11.7299643"><ele>551.0</ele><time>2026-04-05T10:22:52.345Z</time></trkpt><trkpt lat="45.9350987" lon="11.7299305"><ele>551.0</ele><time>2026-04-05T10:22:54.345Z</time></trkpt><trkpt lat="45.9350151" lon="11.7298271"><ele>551.0</ele><time>2026-04-05T10:22:56.344Z</time></trkpt><trkpt lat="45.9349395" lon="11.729744"><ele>551.0</ele><time>2026-04-05T10:22:58.344Z</time></trkpt><trkpt lat="45.9348361" lon="11.729717"><ele>551.0</ele><time>2026-04-05T10:23:00.344Z</time></trkpt><trkpt lat="45.934765" lon="11.7297546"><ele>547.1666666666666</ele><time>2026-04-05T10:23:02.344Z</time></trkpt><trkpt lat="45.9346767" lon="11.7298295"><ele>543.3333333333333</ele><time>2026-04-05T10:23:04.344Z</time></trkpt><trkpt lat="45.9346207" lon="11.7299039"><ele>539.5</ele><time>2026-04-05T10:23:05.345Z</time></trkpt><trkpt lat="45.9345904" lon="11.7300309"><ele>535.6666666666666</ele><time>2026-04-05T10:23:07.345Z</time></trkpt><trkpt lat="45.9345939" lon="11.7301517"><ele>531.8333333333334</ele><time>2026-04-05T10:23:10.344Z</time></trkpt><trkpt lat="45.9346421" lon="11.7302386"><ele>528.0</ele><time>2026-04-05T10:23:12.345Z</time></trkpt><trkpt lat="45.934704" lon="11.730311"><ele>528.0</ele><time>2026-04-05T10:23:14.345Z</time></trkpt><trkpt lat="45.9347094" lon="11.7304561"><ele>528.0</ele><time>2026-04-05T10:23:17.345Z</time></trkpt><trkpt lat="45.9346456" lon="11.7305861"><ele>528.0</ele><time>2026-04-05T10:23:19.344Z</time></trkpt><trkpt lat="45.9346015" lon="11.7306597"><ele>528.0</ele><time>2026-04-05T10:23:20.344Z</time></trkpt><trkpt lat="45.9345373" lon="11.7308056"><ele>528.0</ele><time>2026-04-05T10:23:22.346Z</time></trkpt><trkpt lat="45.9344909" lon="11.7309621"><ele>528.0</ele><time>2026-04-05T10:23:24.345Z</time></trkpt><trkpt lat="45.9344739" lon="11.7310524"><ele>528.0</ele><time>2026-04-05T10:23:25.344Z</time></trkpt><trkpt lat="45.9344664" lon="11.731148"><ele>528.0</ele><time>2026-04-05T10:23:26.345Z</time></trkpt><trkpt lat="45.93445" lon="11.7313164"><ele>528.0</ele><time>2026-04-05T10:23:28.346Z</time></trkpt><trkpt lat="45.9344424" lon="11.7315194"><ele>528.0</ele><time>2026-04-05T10:23:30.346Z</time></trkpt><trkpt lat="45.9344453" lon="11.7316267"><ele>528.6</ele><time>2026-04-05T10:23:31.346Z</time></trkpt><trkpt lat="45.9344488" lon="11.7317199"><ele>529.1999999999999</ele><time>2026-04-05T10:23:32.345Z</time></trkpt><trkpt lat="45.9344541" lon="11.7318726"><ele>529.8</ele><time>2026-04-05T10:23:34.345Z</time></trkpt><trkpt lat="45.934426" lon="11.7320026"><ele>530.4</ele><time>2026-04-05T10:23:36.345Z</time></trkpt><trkpt lat="45.9343289" lon="11.7321307"><ele>531.0</ele><time>2026-04-05T10:23:38.345Z</time></trkpt><trkpt lat="45.9342823" lon="11.7322144"><ele>533.5</ele><time>2026-04-05T10:23:39.345Z</time></trkpt><trkpt lat="45.9342426" lon="11.7323181"><ele>536.0</ele><time>2026-04-05T10:23:40.345Z</time></trkpt><trkpt lat="45.9342083" lon="11.7324167"><ele>538.5</ele><time>2026-04-05T10:23:41.346Z</time></trkpt><trkpt lat="45.9341551" lon="11.732555"><ele>541.0</ele><time>2026-04-05T10:23:43.346Z</time></trkpt><trkpt lat="45.934101" lon="11.7326359"><ele>543.5</ele><time>2026-04-05T10:23:45.345Z</time></trkpt><trkpt lat="45.934018" lon="11.7327185"><ele>546.0</ele><time>2026-04-05T10:23:47.346Z</time></trkpt><trkpt lat="45.9339371" lon="11.7327643"><ele>536.2</ele><time>2026-04-05T10:23:49.346Z</time></trkpt><trkpt lat="45.9338902" lon="11.7328378"><ele>526.4000000000001</ele><time>2026-04-05T10:23:51.345Z</time></trkpt><trkpt lat="45.9338557" lon="11.7329507"><ele>516.6</ele><time>2026-04-05T10:23:53.345Z</time></trkpt><trkpt lat="45.9338162" lon="11.73305"><ele>506.8</ele><time>2026-04-05T10:23:55.345Z</time></trkpt><trkpt lat="45.9337814" lon="11.7332011"><ele>497.0</ele><time>2026-04-05T10:23:57.346Z</time></trkpt><trkpt lat="45.9337533" lon="11.7333463"><ele>496.99999999999994</ele><time>2026-04-05T10:23:59.345Z</time></trkpt><trkpt lat="45.9337446" lon="11.7334867"><ele>497.0</ele><time>2026-04-05T10:24:01.346Z</time></trkpt><trkpt lat="45.9337538" lon="11.7336293"><ele>497.0</ele><time>2026-04-05T10:24:03.346Z</time></trkpt><trkpt lat="45.9337536" lon="11.7337542"><ele>497.0</ele><time>2026-04-05T10:24:05.345Z</time></trkpt><trkpt lat="45.9337593" lon="11.7338482"><ele>496.99999999999994</ele><time>2026-04-05T10:24:10.346Z</time></trkpt><trkpt lat="45.933773" lon="11.7339439"><ele>497.0</ele><time>2026-04-05T10:24:13.345Z</time></trkpt><trkpt lat="45.9337895" lon="11.7340521"><ele>493.6</ele><time>2026-04-05T10:24:15.346Z</time></trkpt><trkpt lat="45.9338347" lon="11.7341653"><ele>490.20000000000005</ele><time>2026-04-05T10:24:17.345Z</time></trkpt><trkpt lat="45.9339115" lon="11.7342602"><ele>486.8</ele><time>2026-04-05T10:24:19.346Z</time></trkpt><trkpt lat="45.9339941" lon="11.7343452"><ele>483.4</ele><time>2026-04-05T10:24:21.347Z</time></trkpt><trkpt lat="45.9340667" lon="11.7344244"><ele>480.0</ele><time>2026-04-05T10:24:23.346Z</time></trkpt><trkpt lat="45.9341006" lon="11.7345172"><ele>480.0</ele><time>2026-04-05T10:24:25.345Z</time></trkpt><trkpt lat="45.9341248" lon="11.7346176"><ele>480.0</ele><time>2026-04-05T10:24:27.347Z</time></trkpt><trkpt lat="45.9341661" lon="11.7346978"><ele>480.0</ele><time>2026-04-05T10:24:29.346Z</time></trkpt><trkpt lat="45.934217" lon="11.734776"><ele>480.0</ele><time>2026-04-05T10:24:31.347Z</time></trkpt><trkpt lat="45.9342707" lon="11.734869"><ele>480.0</ele><time>2026-04-05T10:24:33.347Z</time></trkpt><trkpt lat="45.9343191" lon="11.7349329"><ele>480.0</ele><time>2026-04-05T10:24:34.346Z</time></trkpt><trkpt lat="45.9344233" lon="11.7350315"><ele>480.0</ele><time>2026-04-05T10:24:36.346Z</time></trkpt><trkpt lat="45.9345166" lon="11.7351012"><ele>480.0</ele><time>2026-04-05T10:24:38.346Z</time></trkpt><trkpt lat="45.9346057" lon="11.7351602"><ele>480.0</ele><time>2026-04-05T10:24:40.346Z</time></trkpt><trkpt lat="45.9346556" lon="11.7352571"><ele>480.0</ele><time>2026-04-05T10:24:42.346Z</time></trkpt><trkpt lat="45.9346479" lon="11.7353968"><ele>480.0</ele><time>2026-04-05T10:24:44.346Z</time></trkpt><trkpt lat="45.9346205" lon="11.7355482"><ele>474.4</ele><time>2026-04-05T10:24:46.346Z</time></trkpt><trkpt lat="45.9346216" lon="11.7356865"><ele>468.8</ele><time>2026-04-05T10:24:48.346Z</time></trkpt><trkpt lat="45.9346778" lon="11.7358109"><ele>463.20000000000005</ele><time>2026-04-05T10:24:50.346Z</time></trkpt><trkpt lat="45.9347339" lon="11.7358728"><ele>457.6</ele><time>2026-04-05T10:24:51.346Z</time></trkpt><trkpt lat="45.9348285" lon="11.7359549"><ele>452.0</ele><time>2026-04-05T10:24:53.346Z</time></trkpt><trkpt lat="45.9349356" lon="11.7360106"><ele>455.49999999999994</ele><time>2026-04-05T10:24:55.346Z</time></trkpt><trkpt lat="45.9350186" lon="11.7360718"><ele>459.0</ele><time>2026-04-05T10:24:57.347Z</time></trkpt><trkpt lat="45.9350621" lon="11.736164"><ele>462.5</ele><time>2026-04-05T10:24:59.347Z</time></trkpt><trkpt lat="45.9350942" lon="11.7362934"><ele>466.0</ele><time>2026-04-05T10:25:01.346Z</time></trkpt><trkpt lat="45.9351481" lon="11.7363907"><ele>469.49999999999994</ele><time>2026-04-05T10:25:04.346Z</time></trkpt><trkpt lat="45.9352082" lon="11.7364616"><ele>473.0</ele><time>2026-04-05T10:25:06.346Z</time></trkpt><trkpt lat="45.9352439" lon="11.736568"><ele>472.99999999999994</ele><time>2026-04-05T10:25:08.346Z</time></trkpt><trkpt lat="45.9352636" lon="11.736729"><ele>473.0</ele><time>2026-04-05T10:25:10.346Z</time></trkpt><trkpt lat="45.9352707" lon="11.7368252"><ele>473.0</ele><time>2026-04-05T10:25:11.346Z</time></trkpt><trkpt lat="45.9352832" lon="11.7369244"><ele>473.0</ele><time>2026-04-05T10:25:12.348Z</time></trkpt><trkpt lat="45.9353251" lon="11.7370438"><ele>472.99999999999994</ele><time>2026-04-05T10:25:13.348Z</time></trkpt><trkpt lat="45.9353708" lon="11.7371433"><ele>473.0</ele><time>2026-04-05T10:25:14.347Z</time></trkpt><trkpt lat="45.9354094" lon="11.7372336"><ele>468.49999999999994</ele><time>2026-04-05T10:25:15.346Z</time></trkpt><trkpt lat="45.9354466" lon="11.7373887"><ele>464.0</ele><time>2026-04-05T10:25:17.348Z</time></trkpt><trkpt lat="45.9354715" lon="11.7374765"><ele>459.5</ele><time>2026-04-05T10:25:18.346Z</time></trkpt><trkpt lat="45.9355122" lon="11.7375773"><ele>455.0</ele><time>2026-04-05T10:25:19.347Z</time></trkpt><trkpt lat="45.9355526" lon="11.7376648"><ele>450.49999999999994</ele><time>2026-04-05T10:25:20.348Z</time></trkpt><trkpt lat="45.9355995" lon="11.7377659"><ele>446.0</ele><time>2026-04-05T10:25:21.347Z</time></trkpt><trkpt lat="45.9356274" lon="11.7378496"><ele>444.20000000000005</ele><time>2026-04-05T10:25:22.347Z</time></trkpt><trkpt lat="45.9356429" lon="11.7379403"><ele>442.40000000000003</ele><time>2026-04-05T10:25:23.346Z</time></trkpt><trkpt lat="45.935643" lon="11.7381253"><ele>440.6</ele><time>2026-04-05T10:25:25.347Z</time></trkpt><trkpt lat="45.9356313" lon="11.7382227"><ele>438.8</ele><time>2026-04-05T10:25:26.347Z</time></trkpt><trkpt lat="45.9356086" lon="11.7383936"><ele>437.0</ele><time>2026-04-05T10:25:28.347Z</time></trkpt><trkpt lat="45.9355681" lon="11.7385583"><ele>437.0</ele><time>2026-04-05T10:25:30.347Z</time></trkpt><trkpt lat="45.9355198" lon="11.7386951"><ele>437.00000000000006</ele><time>2026-04-05T10:25:32.347Z</time></trkpt><trkpt lat="45.9354293" lon="11.7388229"><ele>437.00000000000006</ele><time>2026-04-05T10:25:34.348Z</time></trkpt><trkpt lat="45.9353723" lon="11.7388973"><ele>437.0</ele><time>2026-04-05T10:25:35.347Z</time></trkpt><trkpt lat="45.9352895" lon="11.7390047"><ele>437.0</ele><time>2026-04-05T10:25:37.348Z</time></trkpt><trkpt lat="45.9352274" lon="11.7391553"><ele>436.99999999999994</ele><time>2026-04-05T10:25:39.348Z</time></trkpt><trkpt lat="45.9352019" lon="11.7392728"><ele>437.0</ele><time>2026-04-05T10:25:40.348Z</time></trkpt><trkpt lat="45.9351743" lon="11.7393913"><ele>437.0</ele><time>2026-04-05T10:25:41.347Z</time></trkpt><trkpt lat="45.9351473" lon="11.739496"><ele>437.0</ele><time>2026-04-05T10:25:42.348Z</time></trkpt><trkpt lat="45.9351102" lon="11.739583"><ele>436.99999999999994</ele><time>2026-04-05T10:25:43.347Z</time></trkpt><trkpt lat="45.9350608" lon="11.7396683"><ele>437.0</ele><time>2026-04-05T10:25:44.347Z</time></trkpt><trkpt lat="45.9350096" lon="11.7397499"><ele>431.40000000000003</ele><time>2026-04-05T10:25:45.348Z</time></trkpt><trkpt lat="45.9349601" lon="11.7398251"><ele>425.80000000000007</ele><time>2026-04-05T10:25:46.347Z</time></trkpt><trkpt lat="45.9348889" lon="11.7399508"><ele>420.2</ele><time>2026-04-05T10:25:48.348Z</time></trkpt><trkpt lat="45.9347985" lon="11.7400882"><ele>414.6</ele><time>2026-04-05T10:25:50.347Z</time></trkpt><trkpt lat="45.9347493" lon="11.7401559"><ele>409.0</ele><time>2026-04-05T10:25:51.347Z</time></trkpt><trkpt lat="45.9347064" lon="11.7402316"><ele>409.00000000000006</ele><time>2026-04-05T10:25:52.348Z</time></trkpt><trkpt lat="45.9346365" lon="11.7403628"><ele>409.0</ele><time>2026-04-05T10:25:54.347Z</time></trkpt><trkpt lat="45.9345973" lon="11.7404355"><ele>409.0</ele><time>2026-04-05T10:25:55.348Z</time></trkpt><trkpt lat="45.9345416" lon="11.7405544"><ele>409.0</ele><time>2026-04-05T10:25:57.348Z</time></trkpt><trkpt lat="45.9345074" lon="11.7406483"><ele>409.00000000000006</ele><time>2026-04-05T10:25:59.348Z</time></trkpt><trkpt lat="45.9345029" lon="11.7407743"><ele>409.0</ele><time>2026-04-05T10:26:01.347Z</time></trkpt><trkpt lat="45.9345083" lon="11.7408677"><ele>409.00000000000006</ele><time>2026-04-05T10:26:03.347Z</time></trkpt><trkpt lat="45.9344982" lon="11.7409711"><ele>409.0</ele><time>2026-04-05T10:26:06.347Z</time></trkpt><trkpt lat="45.9345527" lon="11.7410764"><ele>409.0</ele><time>2026-04-05T10:26:08.348Z</time></trkpt><trkpt lat="45.9345776" lon="11.7411963"><ele>409.0</ele><time>2026-04-05T10:26:10.348Z</time></trkpt><trkpt lat="45.9346239" lon="11.741288"><ele>409.00000000000006</ele><time>2026-04-05T10:26:13.347Z</time></trkpt><trkpt lat="45.9346672" lon="11.7413641"><ele>409.0</ele><time>2026-04-05T10:26:16.348Z</time></trkpt><trkpt lat="45.9347083" lon="11.7414478"><ele>409.6</ele><time>2026-04-05T10:26:20.348Z</time></trkpt><trkpt lat="45.9347918" lon="11.7415403"><ele>410.2</ele><time>2026-04-05T10:26:22.348Z</time></trkpt><trkpt lat="45.9348872" lon="11.741613"><ele>410.8</ele><time>2026-04-05T10:26:24.347Z</time></trkpt><trkpt lat="45.9349963" lon="11.7416258"><ele>411.40000000000003</ele><time>2026-04-05T10:26:26.348Z</time></trkpt><trkpt lat="45.9350834" lon="11.7416256"><ele>412.0</ele><time>2026-04-05T10:26:28.348Z</time></trkpt><trkpt lat="45.9351685" lon="11.7417302"><ele>412.00000000000006</ele><time>2026-04-05T10:26:31.347Z</time></trkpt><trkpt lat="45.9352192" lon="11.7417897"><ele>412.0</ele><time>2026-04-05T10:26:32.348Z</time></trkpt><trkpt lat="45.935276" lon="11.7418347"><ele>412.0</ele><time>2026-04-05T10:26:33.348Z</time></trkpt><trkpt lat="45.9353773" lon="11.7419131"><ele>412.0</ele><time>2026-04-05T10:26:35.349Z</time></trkpt><trkpt lat="45.9354524" lon="11.7419982"><ele>412.00000000000006</ele><time>2026-04-05T10:26:37.348Z</time></trkpt><trkpt lat="45.9355341" lon="11.742084"><ele>412.0</ele><time>2026-04-05T10:26:39.348Z</time></trkpt><trkpt lat="45.9356174" lon="11.7421823"><ele>405.20000000000005</ele><time>2026-04-05T10:26:41.348Z</time></trkpt><trkpt lat="45.9357071" lon="11.742276"><ele>398.4</ele><time>2026-04-05T10:26:43.348Z</time></trkpt><trkpt lat="45.9358237" lon="11.7423417"><ele>391.6</ele><time>2026-04-05T10:26:45.348Z</time></trkpt><trkpt lat="45.9359414" lon="11.7424024"><ele>384.79999999999995</ele><time>2026-04-05T10:26:47.349Z</time></trkpt><trkpt lat="45.9360041" lon="11.7424344"><ele>378.0</ele><time>2026-04-05T10:26:48.348Z</time></trkpt><trkpt lat="45.9360689" lon="11.7424588"><ele>378.0</ele><time>2026-04-05T10:26:49.348Z</time></trkpt><trkpt lat="45.9361796" lon="11.7425132"><ele>378.0</ele><time>2026-04-05T10:26:51.35Z</time></trkpt><trkpt lat="45.9362947" lon="11.7425113"><ele>378.0</ele><time>2026-04-05T10:26:53.348Z</time></trkpt><trkpt lat="45.9364176" lon="11.7425262"><ele>378.0</ele><time>2026-04-05T10:26:55.349Z</time></trkpt><trkpt lat="45.9365105" lon="11.7425789"><ele>378.0</ele><time>2026-04-05T10:26:57.348Z</time></trkpt><trkpt lat="45.936554" lon="11.7426742"><ele>378.0</ele><time>2026-04-05T10:27:05.349Z</time></trkpt><trkpt lat="45.9365752" lon="11.7427707"><ele>378.0</ele><time>2026-04-05T10:27:07.348Z</time></trkpt><trkpt lat="45.936596" lon="11.7429036"><ele>378.0</ele><time>2026-04-05T10:27:09.349Z</time></trkpt><trkpt lat="45.9366635" lon="11.7430381"><ele>378.0</ele><time>2026-04-05T10:27:11.348Z</time></trkpt><trkpt lat="45.936741" lon="11.7431524"><ele>376.6666666666667</ele><time>2026-04-05T10:27:13.348Z</time></trkpt><trkpt lat="45.9368284" lon="11.7432917"><ele>375.3333333333333</ele><time>2026-04-05T10:27:15.349Z</time></trkpt><trkpt lat="45.9368739" lon="11.7433836"><ele>374.0</ele><time>2026-04-05T10:27:16.349Z</time></trkpt><trkpt lat="45.9369207" lon="11.7434716"><ele>372.66666666666663</ele><time>2026-04-05T10:27:17.349Z</time></trkpt><trkpt lat="45.9369739" lon="11.7435435"><ele>371.3333333333333</ele><time>2026-04-05T10:27:18.349Z</time></trkpt><trkpt lat="45.937033" lon="11.7436016"><ele>370.0</ele><time>2026-04-05T10:27:19.349Z</time></trkpt><trkpt lat="45.9371016" lon="11.7436613"><ele>365.16666666666663</ele><time>2026-04-05T10:27:20.349Z</time></trkpt><trkpt lat="45.9371581" lon="11.7437049"><ele>360.3333333333333</ele><time>2026-04-05T10:27:21.349Z</time></trkpt><trkpt lat="45.9372195" lon="11.7437542"><ele>355.5</ele><time>2026-04-05T10:27:22.348Z</time></trkpt><trkpt lat="45.9372955" lon="11.7438084"><ele>350.6666666666667</ele><time>2026-04-05T10:27:23.349Z</time></trkpt><trkpt lat="45.9373799" lon="11.7438463"><ele>345.83333333333337</ele><time>2026-04-05T10:27:24.35Z</time></trkpt><trkpt lat="45.9374557" lon="11.7438855"><ele>341.0</ele><time>2026-04-05T10:27:25.35Z</time></trkpt><trkpt lat="45.9375227" lon="11.7439247"><ele>343.0</ele><time>2026-04-05T10:27:26.35Z</time></trkpt><trkpt lat="45.9376186" lon="11.7439908"><ele>345.0</ele><time>2026-04-05T10:27:28.35Z</time></trkpt><trkpt lat="45.9376948" lon="11.7440396"><ele>347.0</ele><time>2026-04-05T10:27:31.349Z</time></trkpt><trkpt lat="45.9377359" lon="11.7441308"><ele>349.0</ele><time>2026-04-05T10:27:35.349Z</time></trkpt><trkpt lat="45.9378047" lon="11.74421"><ele>351.0</ele><time>2026-04-05T10:27:37.35Z</time></trkpt><trkpt lat="45.9379047" lon="11.7442754"><ele>351.0</ele><time>2026-04-05T10:27:39.349Z</time></trkpt><trkpt lat="45.9379998" lon="11.7443505"><ele>351.0</ele><time>2026-04-05T10:27:41.349Z</time></trkpt><trkpt lat="45.9380755" lon="11.7444392"><ele>351.0</ele><time>2026-04-05T10:27:43.349Z</time></trkpt><trkpt lat="45.9381414" lon="11.7445186"><ele>351.0</ele><time>2026-04-05T10:27:45.349Z</time></trkpt><trkpt lat="45.9382068" lon="11.7445646"><ele>351.0</ele><time>2026-04-05T10:27:47.349Z</time></trkpt><trkpt lat="45.9382907" lon="11.7445522"><ele>351.0</ele><time>2026-04-05T10:27:49.349Z</time></trkpt><trkpt lat="45.9383744" lon="11.7445416"><ele>347.8</ele><time>2026-04-05T10:27:51.349Z</time></trkpt><trkpt lat="45.9384464" lon="11.7445544"><ele>344.6</ele><time>2026-04-05T10:27:54.35Z</time></trkpt><trkpt lat="45.9383618" lon="11.7446515"><ele>341.4</ele><time>2026-04-05T10:28:00.35Z</time></trkpt><trkpt lat="45.9382732" lon="11.7447493"><ele>338.2</ele><time>2026-04-05T10:28:02.349Z</time></trkpt><trkpt lat="45.938233" lon="11.7448368"><ele>335.0</ele><time>2026-04-05T10:28:04.349Z</time></trkpt><trkpt lat="45.9383479" lon="11.7447899"><ele>335.0</ele><time>2026-04-05T10:28:09.349Z</time></trkpt><trkpt lat="45.9384334" lon="11.7447404"><ele>335.0</ele><time>2026-04-05T10:28:10.351Z</time></trkpt><trkpt lat="45.9385203" lon="11.7447132"><ele>335.0</ele><time>2026-04-05T10:28:11.351Z</time></trkpt><trkpt lat="45.938585" lon="11.744718"><ele>335.0</ele><time>2026-04-05T10:28:12.35Z</time></trkpt><trkpt lat="45.9386628" lon="11.744793"><ele>335.0</ele><time>2026-04-05T10:28:14.35Z</time></trkpt><trkpt lat="45.9386758" lon="11.7449709"><ele>335.0</ele><time>2026-04-05T10:28:16.35Z</time></trkpt><trkpt lat="45.9386772" lon="11.7450798"><ele>335.0</ele><time>2026-04-05T10:28:17.35Z</time></trkpt><trkpt lat="45.9386932" lon="11.7452001"><ele>335.0</ele><time>2026-04-05T10:28:18.35Z</time></trkpt><trkpt lat="45.9387242" lon="11.7452996"><ele>335.0</ele><time>2026-04-05T10:28:19.35Z</time></trkpt><trkpt lat="45.9387708" lon="11.745377"><ele>335.0</ele><time>2026-04-05T10:28:20.35Z</time></trkpt><trkpt lat="45.9388903" lon="11.7453789"><ele>335.0</ele><time>2026-04-05T10:28:22.349Z</time></trkpt><trkpt lat="45.9389666" lon="11.7452978"><ele>335.0</ele><time>2026-04-05T10:28:23.349Z</time></trkpt><trkpt lat="45.9390456" lon="11.7452279"><ele>335.0</ele><time>2026-04-05T10:28:24.35Z</time></trkpt><trkpt lat="45.9391074" lon="11.7451911"><ele>335.0</ele><time>2026-04-05T10:28:25.35Z</time></trkpt><trkpt lat="45.9391977" lon="11.7452045"><ele>335.0</ele><time>2026-04-05T10:28:27.35Z</time></trkpt><trkpt lat="45.9392495" lon="11.7453644"><ele>335.0</ele><time>2026-04-05T10:28:29.349Z</time></trkpt><trkpt lat="45.9392641" lon="11.7454877"><ele>334.6666666666667</ele><time>2026-04-05T10:28:30.35Z</time></trkpt><trkpt lat="45.9392832" lon="11.7456017"><ele>334.33333333333337</ele><time>2026-04-05T10:28:31.35Z</time></trkpt><trkpt lat="45.9393261" lon="11.7457031"><ele>334.0</ele><time>2026-04-05T10:28:32.349Z</time></trkpt><trkpt lat="45.9393772" lon="11.7457986"><ele>333.6666666666667</ele><time>2026-04-05T10:28:33.351Z</time></trkpt><trkpt lat="45.9394396" lon="11.7458767"><ele>333.3333333333333</ele><time>2026-04-05T10:28:34.35Z</time></trkpt><trkpt lat="45.939508" lon="11.7459328"><ele>333.0</ele><time>2026-04-05T10:28:35.35Z</time></trkpt><trkpt lat="45.939577" lon="11.745983"><ele>333.0</ele><time>2026-04-05T10:28:36.35Z</time></trkpt><trkpt lat="45.939644" lon="11.7460248"><ele>333.0</ele><time>2026-04-05T10:28:37.351Z</time></trkpt><trkpt lat="45.9397213" lon="11.746059"><ele>333.0</ele><time>2026-04-05T10:28:38.35Z</time></trkpt><trkpt lat="45.9398034" lon="11.7461003"><ele>333.0</ele><time>2026-04-05T10:28:39.351Z</time></trkpt><trkpt lat="45.9398876" lon="11.7461453"><ele>333.0</ele><time>2026-04-05T10:28:40.35Z</time></trkpt><trkpt lat="45.9399666" lon="11.7461994"><ele>333.0</ele><time>2026-04-05T10:28:41.35Z</time></trkpt><trkpt lat="45.9400287" lon="11.7462619"><ele>331.6666666666667</ele><time>2026-04-05T10:28:42.35Z</time></trkpt><trkpt lat="45.9400809" lon="11.7463402"><ele>330.3333333333333</ele><time>2026-04-05T10:28:43.351Z</time></trkpt><trkpt lat="45.9401287" lon="11.7464178"><ele>329.0</ele><time>2026-04-05T10:28:44.35Z</time></trkpt><trkpt lat="45.9401829" lon="11.7464957"><ele>327.66666666666663</ele><time>2026-04-05T10:28:45.35Z</time></trkpt><trkpt lat="45.9402423" lon="11.746558"><ele>326.3333333333333</ele><time>2026-04-05T10:28:46.351Z</time></trkpt><trkpt lat="45.9403119" lon="11.7466223"><ele>325.0</ele><time>2026-04-05T10:28:47.351Z</time></trkpt><trkpt lat="45.9403836" lon="11.7466801"><ele>325.0</ele><time>2026-04-05T10:28:48.35Z</time></trkpt><trkpt lat="45.9404531" lon="11.74673"><ele>325.0</ele><time>2026-04-05T10:28:49.35Z</time></trkpt><trkpt lat="45.9405208" lon="11.7467667"><ele>325.0</ele><time>2026-04-05T10:28:50.351Z</time></trkpt><trkpt lat="45.940591" lon="11.7467918"><ele>325.0</ele><time>2026-04-05T10:28:51.352Z</time></trkpt><trkpt lat="45.9406679" lon="11.7467995"><ele>325.0</ele><time>2026-04-05T10:28:52.351Z</time></trkpt><trkpt lat="45.9407356" lon="11.7468062"><ele>325.0</ele><time>2026-04-05T10:28:53.351Z</time></trkpt><trkpt lat="45.9408227" lon="11.7468534"><ele>316.5</ele><time>2026-04-05T10:28:55.35Z</time></trkpt><trkpt lat="45.9408398" lon="11.746976"><ele>308.0</ele><time>2026-04-05T10:28:57.352Z</time></trkpt><trkpt lat="45.9408196" lon="11.747193"><ele>299.5</ele><time>2026-04-05T10:28:59.35Z</time></trkpt><trkpt lat="45.9408206" lon="11.7473374"><ele>291.0</ele><time>2026-04-05T10:29:00.351Z</time></trkpt><trkpt lat="45.9408761" lon="11.7475161"><ele>292.0</ele><time>2026-04-05T10:29:01.351Z</time></trkpt><trkpt lat="45.9409471" lon="11.7476472"><ele>293.0</ele><time>2026-04-05T10:29:02.35Z</time></trkpt><trkpt lat="45.9410218" lon="11.747755"><ele>294.0</ele><time>2026-04-05T10:29:03.351Z</time></trkpt><trkpt lat="45.9411057" lon="11.7478559"><ele>295.0</ele><time>2026-04-05T10:29:04.351Z</time></trkpt><trkpt lat="45.9411894" lon="11.7479652"><ele>296.0</ele><time>2026-04-05T10:29:05.35Z</time></trkpt><trkpt lat="45.9412681" lon="11.7480669"><ele>296.0</ele><time>2026-04-05T10:29:06.351Z</time></trkpt><trkpt lat="45.9413419" lon="11.7481631"><ele>296.0</ele><time>2026-04-05T10:29:07.351Z</time></trkpt><trkpt lat="45.9414122" lon="11.7482408"><ele>296.0</ele><time>2026-04-05T10:29:08.351Z</time></trkpt><trkpt lat="45.9414876" lon="11.7483162"><ele>296.0</ele><time>2026-04-05T10:29:09.35Z</time></trkpt><trkpt lat="45.9415631" lon="11.748378"><ele>296.0</ele><time>2026-04-05T10:29:10.351Z</time></trkpt><trkpt lat="45.9416352" lon="11.7484439"><ele>296.0</ele><time>2026-04-05T10:29:11.35Z</time></trkpt><trkpt lat="45.9417032" lon="11.7485149"><ele>296.0</ele><time>2026-04-05T10:29:12.352Z</time></trkpt><trkpt lat="45.9417642" lon="11.7485881"><ele>296.0</ele><time>2026-04-05T10:29:13.35Z</time></trkpt><trkpt lat="45.9418207" lon="11.748663"><ele>296.0</ele><time>2026-04-05T10:29:14.35Z</time></trkpt><trkpt lat="45.9418749" lon="11.7487305"><ele>296.0</ele><time>2026-04-05T10:29:15.352Z</time></trkpt><trkpt lat="45.9419304" lon="11.7487913"><ele>296.0</ele><time>2026-04-05T10:29:16.352Z</time></trkpt><trkpt lat="45.9419968" lon="11.7488519"><ele>295.0</ele><time>2026-04-05T10:29:17.351Z</time></trkpt><trkpt lat="45.9420689" lon="11.7489131"><ele>294.0</ele><time>2026-04-05T10:29:18.351Z</time></trkpt><trkpt lat="45.942141" lon="11.7489844"><ele>293.0</ele><time>2026-04-05T10:29:19.35Z</time></trkpt><trkpt lat="45.9422165" lon="11.7490646"><ele>292.0</ele><time>2026-04-05T10:29:20.351Z</time></trkpt><trkpt lat="45.9422818" lon="11.7491506"><ele>291.0</ele><time>2026-04-05T10:29:21.351Z</time></trkpt><trkpt lat="45.9423422" lon="11.7492426"><ele>290.0</ele><time>2026-04-05T10:29:22.351Z</time></trkpt><trkpt lat="45.9423903" lon="11.7493351"><ele>285.83333333333337</ele><time>2026-04-05T10:29:23.35Z</time></trkpt><trkpt lat="45.9424389" lon="11.7494259"><ele>281.6666666666667</ele><time>2026-04-05T10:29:24.35Z</time></trkpt><trkpt lat="45.9425" lon="11.7494937"><ele>277.5</ele><time>2026-04-05T10:29:25.351Z</time></trkpt><trkpt lat="45.9425785" lon="11.7495339"><ele>273.3333333333333</ele><time>2026-04-05T10:29:26.35Z</time></trkpt><trkpt lat="45.9426697" lon="11.7495663"><ele>269.16666666666663</ele><time>2026-04-05T10:29:27.352Z</time></trkpt><trkpt lat="45.9427634" lon="11.749596"><ele>265.0</ele><time>2026-04-05T10:29:28.35Z</time></trkpt><trkpt lat="45.942864" lon="11.7496232"><ele>265.0</ele><time>2026-04-05T10:29:29.352Z</time></trkpt><trkpt lat="45.9429619" lon="11.749647"><ele>265.0</ele><time>2026-04-05T10:29:30.35Z</time></trkpt><trkpt lat="45.9430595" lon="11.7496648"><ele>265.0</ele><time>2026-04-05T10:29:31.352Z</time></trkpt><trkpt lat="45.9431681" lon="11.7496599"><ele>265.0</ele><time>2026-04-05T10:29:32.35Z</time></trkpt><trkpt lat="45.9432776" lon="11.7496407"><ele>265.0</ele><time>2026-04-05T10:29:33.351Z</time></trkpt><trkpt lat="45.9433797" lon="11.7496117"><ele>264.4</ele><time>2026-04-05T10:29:34.35Z</time></trkpt><trkpt lat="45.9434848" lon="11.7495844"><ele>263.8</ele><time>2026-04-05T10:29:35.352Z</time></trkpt><trkpt lat="45.9435924" lon="11.7495529"><ele>263.2</ele><time>2026-04-05T10:29:36.351Z</time></trkpt><trkpt lat="45.943699" lon="11.7495151"><ele>262.6</ele><time>2026-04-05T10:29:37.352Z</time></trkpt><trkpt lat="45.9438095" lon="11.7494766"><ele>262.0</ele><time>2026-04-05T10:29:38.352Z</time></trkpt><trkpt lat="45.9439202" lon="11.7494431"><ele>262.0</ele><time>2026-04-05T10:29:39.352Z</time></trkpt><trkpt lat="45.944029" lon="11.7494142"><ele>262.0</ele><time>2026-04-05T10:29:40.351Z</time></trkpt><trkpt lat="45.9441344" lon="11.7493935"><ele>262.0</ele><time>2026-04-05T10:29:41.352Z</time></trkpt><trkpt lat="45.9442372" lon="11.7493736"><ele>262.0</ele><time>2026-04-05T10:29:42.351Z</time></trkpt><trkpt lat="45.9443381" lon="11.7493561"><ele>262.0</ele><time>2026-04-05T10:29:43.352Z</time></trkpt><trkpt lat="45.9444342" lon="11.7493437"><ele>261.8</ele><time>2026-04-05T10:29:44.351Z</time></trkpt><trkpt lat="45.9445262" lon="11.7493306"><ele>261.6</ele><time>2026-04-05T10:29:45.351Z</time></trkpt><trkpt lat="45.9446245" lon="11.7493215"><ele>261.40000000000003</ele><time>2026-04-05T10:29:46.352Z</time></trkpt><trkpt lat="45.9447198" lon="11.749325"><ele>261.2</ele><time>2026-04-05T10:29:47.352Z</time></trkpt><trkpt lat="45.9448178" lon="11.7493574"><ele>261.0</ele><time>2026-04-05T10:29:48.351Z</time></trkpt><trkpt lat="45.9449294" lon="11.7494185"><ele>261.0</ele><time>2026-04-05T10:29:49.351Z</time></trkpt><trkpt lat="45.9450319" lon="11.7494744"><ele>261.0</ele><time>2026-04-05T10:29:50.352Z</time></trkpt><trkpt lat="45.9451213" lon="11.7495199"><ele>261.0</ele><time>2026-04-05T10:29:51.351Z</time></trkpt><trkpt lat="45.9452099" lon="11.7495409"><ele>261.0</ele><time>2026-04-05T10:29:52.352Z</time></trkpt><trkpt lat="45.9453074" lon="11.7495491"><ele>261.0</ele><time>2026-04-05T10:29:53.352Z</time></trkpt><trkpt lat="45.9454106" lon="11.7495383"><ele>261.0</ele><time>2026-04-05T10:29:54.352Z</time></trkpt><trkpt lat="45.9455082" lon="11.7495223"><ele>261.0</ele><time>2026-04-05T10:29:55.352Z</time></trkpt><trkpt lat="45.9456082" lon="11.74951"><ele>261.0</ele><time>2026-04-05T10:29:56.351Z</time></trkpt><trkpt lat="45.9457087" lon="11.74948"><ele>261.0</ele><time>2026-04-05T10:29:57.351Z</time></trkpt><trkpt lat="45.9458085" lon="11.7494458"><ele>261.0</ele><time>2026-04-05T10:29:58.352Z</time></trkpt><trkpt lat="45.9459071" lon="11.7494102"><ele>265.0</ele><time>2026-04-05T10:29:59.352Z</time></trkpt><trkpt lat="45.9460025" lon="11.7493747"><ele>269.0</ele><time>2026-04-05T10:30:00.351Z</time></trkpt><trkpt lat="45.9461053" lon="11.7493373"><ele>273.0</ele><time>2026-04-05T10:30:01.351Z</time></trkpt><trkpt lat="45.9462166" lon="11.7492976"><ele>277.0</ele><time>2026-04-05T10:30:02.351Z</time></trkpt><trkpt lat="45.9463338" lon="11.7492558"><ele>281.0</ele><time>2026-04-05T10:30:03.352Z</time></trkpt><trkpt lat="45.9464525" lon="11.7492204"><ele>281.0</ele><time>2026-04-05T10:30:04.352Z</time></trkpt><trkpt lat="45.9465749" lon="11.7492002"><ele>281.0</ele><time>2026-04-05T10:30:05.351Z</time></trkpt><trkpt lat="45.9466947" lon="11.7492026"><ele>281.0</ele><time>2026-04-05T10:30:06.351Z</time></trkpt><trkpt lat="45.9468186" lon="11.7492252"><ele>281.0</ele><time>2026-04-05T10:30:07.351Z</time></trkpt><trkpt lat="45.9469386" lon="11.7492435"><ele>280.5</ele><time>2026-04-05T10:30:08.351Z</time></trkpt><trkpt lat="45.9470602" lon="11.7492582"><ele>280.0</ele><time>2026-04-05T10:30:09.351Z</time></trkpt><trkpt lat="45.9471779" lon="11.7492577"><ele>279.5</ele><time>2026-04-05T10:30:10.352Z</time></trkpt><trkpt lat="45.9472945" lon="11.7492343"><ele>279.0</ele><time>2026-04-05T10:30:11.351Z</time></trkpt><trkpt lat="45.947416" lon="11.7492084"><ele>279.0</ele><time>2026-04-05T10:30:12.351Z</time></trkpt><trkpt lat="45.9475321" lon="11.7491752"><ele>279.0</ele><time>2026-04-05T10:30:13.351Z</time></trkpt><trkpt lat="45.947651" lon="11.7491443"><ele>279.0</ele><time>2026-04-05T10:30:14.352Z</time></trkpt><trkpt lat="45.9477718" lon="11.7491054"><ele>279.0</ele><time>2026-04-05T10:30:15.352Z</time></trkpt><trkpt lat="45.9478879" lon="11.7490709"><ele>277.5</ele><time>2026-04-05T10:30:16.351Z</time></trkpt><trkpt lat="45.9480037" lon="11.7490414"><ele>276.0</ele><time>2026-04-05T10:30:17.353Z</time></trkpt><trkpt lat="45.9481203" lon="11.749008"><ele>274.5</ele><time>2026-04-05T10:30:18.352Z</time></trkpt><trkpt lat="45.9482363" lon="11.7489821"><ele>273.0</ele><time>2026-04-05T10:30:19.351Z</time></trkpt><trkpt lat="45.9483539" lon="11.7489859"><ele>276.25</ele><time>2026-04-05T10:30:20.351Z</time></trkpt><trkpt lat="45.9484726" lon="11.7490179"><ele>279.5</ele><time>2026-04-05T10:30:21.351Z</time></trkpt><trkpt lat="45.9485869" lon="11.7490523"><ele>282.75</ele><time>2026-04-05T10:30:22.351Z</time></trkpt><trkpt lat="45.9487014" lon="11.7490893"><ele>286.0</ele><time>2026-04-05T10:30:23.352Z</time></trkpt><trkpt lat="45.9488127" lon="11.749127"><ele>286.0</ele><time>2026-04-05T10:30:24.351Z</time></trkpt><trkpt lat="45.9489161" lon="11.7491849"><ele>286.0</ele><time>2026-04-05T10:30:25.352Z</time></trkpt><trkpt lat="45.9490106" lon="11.7492773"><ele>286.0</ele><time>2026-04-05T10:30:26.352Z</time></trkpt><trkpt lat="45.9491028" lon="11.74938"><ele>286.0</ele><time>2026-04-05T10:30:27.351Z</time></trkpt><trkpt lat="45.9491944" lon="11.7494949"><ele>287.0</ele><time>2026-04-05T10:30:28.353Z</time></trkpt><trkpt lat="45.9492824" lon="11.7496123"><ele>288.0</ele><time>2026-04-05T10:30:29.351Z</time></trkpt><trkpt lat="45.9493597" lon="11.749729"><ele>289.0</ele><time>2026-04-05T10:30:30.352Z</time></trkpt><trkpt lat="45.9494172" lon="11.7498603"><ele>290.0</ele><time>2026-04-05T10:30:31.353Z</time></trkpt><trkpt lat="45.9494537" lon="11.7500076"><ele>291.0</ele><time>2026-04-05T10:30:32.351Z</time></trkpt><trkpt lat="45.9494767" lon="11.7501583"><ele>290.0</ele><time>2026-04-05T10:30:33.353Z</time></trkpt><trkpt lat="45.9494963" lon="11.750305"><ele>289.0</ele><time>2026-04-05T10:30:34.352Z</time></trkpt><trkpt lat="45.9495134" lon="11.7504413"><ele>288.0</ele><time>2026-04-05T10:30:35.352Z</time></trkpt><trkpt lat="45.9495225" lon="11.7505706"><ele>287.0</ele><time>2026-04-05T10:30:36.352Z</time></trkpt><trkpt lat="45.9495289" lon="11.750701"><ele>286.0</ele><time>2026-04-05T10:30:37.353Z</time></trkpt><trkpt lat="45.9495349" lon="11.7508193"><ele>286.0</ele><time>2026-04-05T10:30:38.353Z</time></trkpt><trkpt lat="45.9495477" lon="11.7509298"><ele>286.0</ele><time>2026-04-05T10:30:39.351Z</time></trkpt><trkpt lat="45.9495686" lon="11.7510389"><ele>286.0</ele><time>2026-04-05T10:30:40.352Z</time></trkpt><trkpt lat="45.9495939" lon="11.7511481"><ele>286.0</ele><time>2026-04-05T10:30:41.352Z</time></trkpt><trkpt lat="45.9496204" lon="11.7512662"><ele>286.0</ele><time>2026-04-05T10:30:42.353Z</time></trkpt><trkpt lat="45.9496581" lon="11.7513946"><ele>286.0</ele><time>2026-04-05T10:30:43.353Z</time></trkpt><trkpt lat="45.9496983" lon="11.7515241"><ele>286.0</ele><time>2026-04-05T10:30:44.352Z</time></trkpt><trkpt lat="45.9497408" lon="11.7516505"><ele>286.0</ele><time>2026-04-05T10:30:45.353Z</time></trkpt><trkpt lat="45.949785" lon="11.7517698"><ele>286.0</ele><time>2026-04-05T10:30:46.352Z</time></trkpt><trkpt lat="45.9498298" lon="11.7518797"><ele>286.0</ele><time>2026-04-05T10:30:47.352Z</time></trkpt><trkpt lat="45.9498736" lon="11.7519763"><ele>286.0</ele><time>2026-04-05T10:30:48.352Z</time></trkpt><trkpt lat="45.9499181" lon="11.7520709"><ele>286.0</ele><time>2026-04-05T10:30:49.352Z</time></trkpt><trkpt lat="45.949959" lon="11.752162"><ele>283.8333333333333</ele><time>2026-04-05T10:30:50.353Z</time></trkpt><trkpt lat="45.9499968" lon="11.752261"><ele>281.66666666666663</ele><time>2026-04-05T10:30:51.353Z</time></trkpt><trkpt lat="45.9500435" lon="11.7523609"><ele>279.5</ele><time>2026-04-05T10:30:52.352Z</time></trkpt><trkpt lat="45.9501043" lon="11.7524349"><ele>277.3333333333333</ele><time>2026-04-05T10:30:53.352Z</time></trkpt><trkpt lat="45.9501686" lon="11.7524586"><ele>275.1666666666667</ele><time>2026-04-05T10:30:54.353Z</time></trkpt><trkpt lat="45.9502393" lon="11.7524514"><ele>273.0</ele><time>2026-04-05T10:30:55.353Z</time></trkpt><trkpt lat="45.9503123" lon="11.7524133"><ele>271.8</ele><time>2026-04-05T10:30:56.352Z</time></trkpt><trkpt lat="45.9503896" lon="11.7523397"><ele>270.6</ele><time>2026-04-05T10:30:57.352Z</time></trkpt><trkpt lat="45.950442" lon="11.7522379"><ele>269.4</ele><time>2026-04-05T10:30:58.352Z</time></trkpt><trkpt lat="45.9504764" lon="11.7521264"><ele>268.2</ele><time>2026-04-05T10:30:59.353Z</time></trkpt><trkpt lat="45.9505149" lon="11.7520056"><ele>267.0</ele><time>2026-04-05T10:31:00.352Z</time></trkpt><trkpt lat="45.9505543" lon="11.7518818"><ele>270.2</ele><time>2026-04-05T10:31:01.352Z</time></trkpt><trkpt lat="45.9506023" lon="11.7517659"><ele>273.4</ele><time>2026-04-05T10:31:02.352Z</time></trkpt><trkpt lat="45.950658" lon="11.7516567"><ele>276.6</ele><time>2026-04-05T10:31:03.353Z</time></trkpt><trkpt lat="45.9507173" lon="11.7515447"><ele>279.8</ele><time>2026-04-05T10:31:04.352Z</time></trkpt><trkpt lat="45.9507764" lon="11.7514302"><ele>283.0</ele><time>2026-04-05T10:31:05.352Z</time></trkpt><trkpt lat="45.9508344" lon="11.7513201"><ele>283.4</ele><time>2026-04-05T10:31:06.352Z</time></trkpt><trkpt lat="45.950885" lon="11.7512145"><ele>283.8</ele><time>2026-04-05T10:31:07.352Z</time></trkpt><trkpt lat="45.9509304" lon="11.7511055"><ele>284.2</ele><time>2026-04-05T10:31:08.352Z</time></trkpt><trkpt lat="45.9509726" lon="11.7509879"><ele>284.6</ele><time>2026-04-05T10:31:09.352Z</time></trkpt><trkpt lat="45.9510054" lon="11.7508588"><ele>285.0</ele><time>2026-04-05T10:31:10.352Z</time></trkpt><trkpt lat="45.9510294" lon="11.75072"><ele>286.3333333333333</ele><time>2026-04-05T10:31:11.353Z</time></trkpt><trkpt lat="45.9510507" lon="11.7505877"><ele>287.6666666666667</ele><time>2026-04-05T10:31:12.352Z</time></trkpt><trkpt lat="45.9510711" lon="11.7504766"><ele>289.0</ele><time>2026-04-05T10:31:13.352Z</time></trkpt><trkpt lat="45.9510941" lon="11.7503667"><ele>290.33333333333337</ele><time>2026-04-05T10:31:14.353Z</time></trkpt><trkpt lat="45.951115" lon="11.7502653"><ele>291.6666666666667</ele><time>2026-04-05T10:31:15.353Z</time></trkpt><trkpt lat="45.9511421" lon="11.7501741"><ele>293.0</ele><time>2026-04-05T10:31:16.352Z</time></trkpt><trkpt lat="45.9511788" lon="11.7500881"><ele>294.0</ele><time>2026-04-05T10:31:17.352Z</time></trkpt><trkpt lat="45.9512467" lon="11.7499711"><ele>295.0</ele><time>2026-04-05T10:31:19.352Z</time></trkpt><trkpt lat="45.9513391" lon="11.7499122"><ele>296.0</ele><time>2026-04-05T10:31:21.352Z</time></trkpt><trkpt lat="45.9514609" lon="11.7498754"><ele>297.0</ele><time>2026-04-05T10:31:23.353Z</time></trkpt><trkpt lat="45.9515238" lon="11.7498413"><ele>298.0</ele><time>2026-04-05T10:31:24.352Z</time></trkpt><trkpt lat="45.9515857" lon="11.749792"><ele>298.0</ele><time>2026-04-05T10:31:25.352Z</time></trkpt><trkpt lat="45.9516473" lon="11.7497589"><ele>298.0</ele><time>2026-04-05T10:31:26.353Z</time></trkpt><trkpt lat="45.9517213" lon="11.749733"><ele>298.0</ele><time>2026-04-05T10:31:27.353Z</time></trkpt><trkpt lat="45.9518139" lon="11.7497293"><ele>298.0</ele><time>2026-04-05T10:31:28.353Z</time></trkpt><trkpt lat="45.9518971" lon="11.7497218"><ele>298.0</ele><time>2026-04-05T10:31:29.352Z</time></trkpt><trkpt lat="45.9519786" lon="11.7497195"><ele>298.0</ele><time>2026-04-05T10:31:30.352Z</time></trkpt><trkpt lat="45.9520592" lon="11.7497127"><ele>297.5</ele><time>2026-04-05T10:31:31.353Z</time></trkpt><trkpt lat="45.9521404" lon="11.7497076"><ele>297.0</ele><time>2026-04-05T10:31:32.352Z</time></trkpt><trkpt lat="45.9522191" lon="11.7497025"><ele>296.5</ele><time>2026-04-05T10:31:33.352Z</time></trkpt><trkpt lat="45.9522956" lon="11.7497155"><ele>296.0</ele><time>2026-04-05T10:31:34.353Z</time></trkpt><trkpt lat="45.9523764" lon="11.7497434"><ele>295.5</ele><time>2026-04-05T10:31:35.353Z</time></trkpt><trkpt lat="45.9524612" lon="11.7497871"><ele>295.0</ele><time>2026-04-05T10:31:36.353Z</time></trkpt><trkpt lat="45.9525462" lon="11.7498339"><ele>295.0</ele><time>2026-04-05T10:31:37.353Z</time></trkpt><trkpt lat="45.9526332" lon="11.7498961"><ele>295.0</ele><time>2026-04-05T10:31:38.354Z</time></trkpt><trkpt lat="45.9527151" lon="11.7499641"><ele>295.0</ele><time>2026-04-05T10:31:39.354Z</time></trkpt><trkpt lat="45.952795" lon="11.7500308"><ele>295.0</ele><time>2026-04-05T10:31:40.353Z</time></trkpt><trkpt lat="45.9528702" lon="11.7500984"><ele>295.0</ele><time>2026-04-05T10:31:41.354Z</time></trkpt><trkpt lat="45.9529518" lon="11.7501654"><ele>292.8333333333333</ele><time>2026-04-05T10:31:42.354Z</time></trkpt><trkpt lat="45.9530262" lon="11.7502383"><ele>290.66666666666663</ele><time>2026-04-05T10:31:43.353Z</time></trkpt><trkpt lat="45.9530967" lon="11.7503311"><ele>288.5</ele><time>2026-04-05T10:31:44.354Z</time></trkpt><trkpt lat="45.9531614" lon="11.7504126"><ele>286.3333333333333</ele><time>2026-04-05T10:31:45.354Z</time></trkpt><trkpt lat="45.9532201" lon="11.7504854"><ele>284.1666666666667</ele><time>2026-04-05T10:31:46.353Z</time></trkpt><trkpt lat="45.9532821" lon="11.7505492"><ele>282.0</ele><time>2026-04-05T10:31:47.353Z</time></trkpt><trkpt lat="45.9533326" lon="11.7506167"><ele>282.0</ele><time>2026-04-05T10:31:48.354Z</time></trkpt><trkpt lat="45.9533688" lon="11.7507844"><ele>282.0</ele><time>2026-04-05T10:31:50.353Z</time></trkpt><trkpt lat="45.9533686" lon="11.7508912"><ele>282.0</ele><time>2026-04-05T10:31:51.353Z</time></trkpt><trkpt lat="45.9533673" lon="11.75101"><ele>282.0</ele><time>2026-04-05T10:31:52.353Z</time></trkpt><trkpt lat="45.9533795" lon="11.7511342"><ele>282.0</ele><time>2026-04-05T10:31:53.353Z</time></trkpt><trkpt lat="45.9534058" lon="11.75126"><ele>279.2</ele><time>2026-04-05T10:31:54.355Z</time></trkpt><trkpt lat="45.9534507" lon="11.7513801"><ele>276.4</ele><time>2026-04-05T10:31:55.354Z</time></trkpt><trkpt lat="45.9535036" lon="11.7515108"><ele>273.6</ele><time>2026-04-05T10:31:56.353Z</time></trkpt><trkpt lat="45.9535602" lon="11.7516601"><ele>270.8</ele><time>2026-04-05T10:31:57.353Z</time></trkpt><trkpt lat="45.9536132" lon="11.7518146"><ele>268.0</ele><time>2026-04-05T10:31:58.353Z</time></trkpt><trkpt lat="45.9536605" lon="11.7519547"><ele>268.0</ele><time>2026-04-05T10:31:59.354Z</time></trkpt><trkpt lat="45.953697" lon="11.752078"><ele>268.0</ele><time>2026-04-05T10:32:00.353Z</time></trkpt><trkpt lat="45.9537237" lon="11.7521979"><ele>268.0</ele><time>2026-04-05T10:32:01.354Z</time></trkpt><trkpt lat="45.9537281" lon="11.7523391"><ele>268.0</ele><time>2026-04-05T10:32:02.353Z</time></trkpt><trkpt lat="45.9537082" lon="11.7524914"><ele>268.0</ele><time>2026-04-05T10:32:03.353Z</time></trkpt><trkpt lat="45.9536868" lon="11.7526446"><ele>266.66666666666663</ele><time>2026-04-05T10:32:04.353Z</time></trkpt><trkpt lat="45.9536753" lon="11.752779"><ele>265.3333333333333</ele><time>2026-04-05T10:32:05.353Z</time></trkpt><trkpt lat="45.9536631" lon="11.7528968"><ele>264.0</ele><time>2026-04-05T10:32:06.353Z</time></trkpt><trkpt lat="45.9536401" lon="11.7530025"><ele>262.6666666666667</ele><time>2026-04-05T10:32:07.354Z</time></trkpt><trkpt lat="45.9535964" lon="11.7530945"><ele>261.33333333333337</ele><time>2026-04-05T10:32:08.354Z</time></trkpt><trkpt lat="45.9535371" lon="11.7531658"><ele>260.0</ele><time>2026-04-05T10:32:09.353Z</time></trkpt><trkpt lat="45.9534656" lon="11.7532341"><ele>260.0</ele><time>2026-04-05T10:32:10.353Z</time></trkpt><trkpt lat="45.9533789" lon="11.7532759"><ele>260.0</ele><time>2026-04-05T10:32:11.353Z</time></trkpt><trkpt lat="45.953275" lon="11.7532887"><ele>260.0</ele><time>2026-04-05T10:32:12.354Z</time></trkpt><trkpt lat="45.9531812" lon="11.7533107"><ele>260.0</ele><time>2026-04-05T10:32:13.354Z</time></trkpt><trkpt lat="45.9531156" lon="11.7533518"><ele>260.0</ele><time>2026-04-05T10:32:14.353Z</time></trkpt><trkpt lat="45.9530443" lon="11.753427"><ele>260.33333333333337</ele><time>2026-04-05T10:32:15.354Z</time></trkpt><trkpt lat="45.9529936" lon="11.753535"><ele>260.6666666666667</ele><time>2026-04-05T10:32:16.354Z</time></trkpt><trkpt lat="45.9529608" lon="11.7536781"><ele>261.0</ele><time>2026-04-05T10:32:17.354Z</time></trkpt><trkpt lat="45.9529267" lon="11.7537947"><ele>261.3333333333333</ele><time>2026-04-05T10:32:18.353Z</time></trkpt><trkpt lat="45.9529013" lon="11.7539037"><ele>261.66666666666663</ele><time>2026-04-05T10:32:19.354Z</time></trkpt><trkpt lat="45.9528734" lon="11.7539995"><ele>262.0</ele><time>2026-04-05T10:32:20.354Z</time></trkpt><trkpt lat="45.9528297" lon="11.7540774"><ele>262.0</ele><time>2026-04-05T10:32:21.355Z</time></trkpt><trkpt lat="45.9527076" lon="11.7541367"><ele>262.0</ele><time>2026-04-05T10:32:23.354Z</time></trkpt><trkpt lat="45.952641" lon="11.7541482"><ele>262.0</ele><time>2026-04-05T10:32:24.354Z</time></trkpt><trkpt lat="45.9525373" lon="11.7541916"><ele>262.0</ele><time>2026-04-05T10:32:26.354Z</time></trkpt><trkpt lat="45.9524646" lon="11.7543056"><ele>262.0</ele><time>2026-04-05T10:32:28.354Z</time></trkpt><trkpt lat="45.9524142" lon="11.7544259"><ele>261.0</ele><time>2026-04-05T10:32:30.354Z</time></trkpt><trkpt lat="45.9524381" lon="11.7546797"><ele>260.0</ele><time>2026-04-05T10:32:37.354Z</time></trkpt><trkpt lat="45.9524908" lon="11.7545884"><ele>259.0</ele><time>2026-04-05T10:32:42.353Z</time></trkpt><trkpt lat="45.9525386" lon="11.754485"><ele>258.0</ele><time>2026-04-05T10:32:45.354Z</time></trkpt><trkpt lat="45.9526141" lon="11.7544784"><ele>257.0</ele><time>2026-04-05T10:32:47.355Z</time></trkpt><trkpt lat="45.9526816" lon="11.7544908"><ele>257.0</ele><time>2026-04-05T10:32:50.354Z</time></trkpt><trkpt lat="45.952751" lon="11.7544279"><ele>257.0</ele><time>2026-04-05T10:32:52.354Z</time></trkpt><trkpt lat="45.9528521" lon="11.7544017"><ele>257.0</ele><time>2026-04-05T10:32:54.354Z</time></trkpt><trkpt lat="45.9529478" lon="11.7543677"><ele>257.0</ele><time>2026-04-05T10:32:56.354Z</time></trkpt><trkpt lat="45.9530402" lon="11.7542995"><ele>257.0</ele><time>2026-04-05T10:32:58.354Z</time></trkpt><trkpt lat="45.9531081" lon="11.7542326"><ele>256.6666666666667</ele><time>2026-04-05T10:33:00.354Z</time></trkpt><trkpt lat="45.9531801" lon="11.7541167"><ele>256.33333333333337</ele><time>2026-04-05T10:33:02.354Z</time></trkpt><trkpt lat="45.9532223" lon="11.754042"><ele>256.0</ele><time>2026-04-05T10:33:03.354Z</time></trkpt><trkpt lat="45.9532685" lon="11.7539684"><ele>255.66666666666669</ele><time>2026-04-05T10:33:04.354Z</time></trkpt><trkpt lat="45.9533393" lon="11.7538308"><ele>255.33333333333334</ele><time>2026-04-05T10:33:06.354Z</time></trkpt><trkpt lat="45.9533789" lon="11.7537572"><ele>255.0</ele><time>2026-04-05T10:33:07.355Z</time></trkpt><trkpt lat="45.9534267" lon="11.7536819"><ele>255.0</ele><time>2026-04-05T10:33:08.354Z</time></trkpt><trkpt lat="45.953474" lon="11.7536153"><ele>255.0</ele><time>2026-04-05T10:33:09.354Z</time></trkpt><trkpt lat="45.9535286" lon="11.7535454"><ele>255.0</ele><time>2026-04-05T10:33:10.354Z</time></trkpt><trkpt lat="45.953584" lon="11.7534785"><ele>255.0</ele><time>2026-04-05T10:33:11.354Z</time></trkpt><trkpt lat="45.9536464" lon="11.7534087"><ele>255.0</ele><time>2026-04-05T10:33:12.354Z</time></trkpt><trkpt lat="45.9537023" lon="11.7533642"><ele>255.0</ele><time>2026-04-05T10:33:13.356Z</time></trkpt><trkpt lat="45.9537947" lon="11.7532689"><ele>255.83333333333334</ele><time>2026-04-05T10:33:15.356Z</time></trkpt><trkpt lat="45.9538575" lon="11.7531065"><ele>256.6666666666667</ele><time>2026-04-05T10:33:17.355Z</time></trkpt><trkpt lat="45.9538903" lon="11.7530091"><ele>257.5</ele><time>2026-04-05T10:33:18.354Z</time></trkpt><trkpt lat="45.9539228" lon="11.7529123"><ele>258.33333333333337</ele><time>2026-04-05T10:33:19.355Z</time></trkpt><trkpt lat="45.9539502" lon="11.7528129"><ele>259.1666666666667</ele><time>2026-04-05T10:33:20.355Z</time></trkpt><trkpt lat="45.9539757" lon="11.7526916"><ele>260.0</ele><time>2026-04-05T10:33:21.355Z</time></trkpt><trkpt lat="45.953997" lon="11.7525762"><ele>261.33333333333337</ele><time>2026-04-05T10:33:22.354Z</time></trkpt><trkpt lat="45.954022" lon="11.7524652"><ele>262.6666666666667</ele><time>2026-04-05T10:33:23.355Z</time></trkpt><trkpt lat="45.9540433" lon="11.7523565"><ele>264.0</ele><time>2026-04-05T10:33:24.354Z</time></trkpt><trkpt lat="45.954063" lon="11.7522367"><ele>265.3333333333333</ele><time>2026-04-05T10:33:25.354Z</time></trkpt><trkpt lat="45.9540773" lon="11.7521083"><ele>266.66666666666663</ele><time>2026-04-05T10:33:26.355Z</time></trkpt><trkpt lat="45.9540643" lon="11.751995"><ele>268.0</ele><time>2026-04-05T10:33:27.355Z</time></trkpt><trkpt lat="45.9540452" lon="11.7518892"><ele>267.5</ele><time>2026-04-05T10:33:28.354Z</time></trkpt><trkpt lat="45.9540224" lon="11.7517819"><ele>267.0</ele><time>2026-04-05T10:33:29.354Z</time></trkpt><trkpt lat="45.9539919" lon="11.7516729"><ele>266.5</ele><time>2026-04-05T10:33:30.355Z</time></trkpt><trkpt lat="45.9539574" lon="11.7515647"><ele>266.0</ele><time>2026-04-05T10:33:31.354Z</time></trkpt><trkpt lat="45.95393" lon="11.751465"><ele>265.5</ele><time>2026-04-05T10:33:32.355Z</time></trkpt><trkpt lat="45.9539035" lon="11.7513584"><ele>265.0</ele><time>2026-04-05T10:33:33.355Z</time></trkpt><trkpt lat="45.9538807" lon="11.7512506"><ele>265.0</ele><time>2026-04-05T10:33:34.355Z</time></trkpt><trkpt lat="45.9538667" lon="11.7511574"><ele>265.0</ele><time>2026-04-05T10:33:35.356Z</time></trkpt><trkpt lat="45.9538536" lon="11.7509936"><ele>265.0</ele><time>2026-04-05T10:33:37.354Z</time></trkpt><trkpt lat="45.9538852" lon="11.7508403"><ele>265.0</ele><time>2026-04-05T10:33:39.356Z</time></trkpt><trkpt lat="45.9539687" lon="11.7507579"><ele>265.0</ele><time>2026-04-05T10:33:41.356Z</time></trkpt><trkpt lat="45.9540685" lon="11.7507315"><ele>266.8</ele><time>2026-04-05T10:33:43.355Z</time></trkpt><trkpt lat="45.954139" lon="11.750703"><ele>268.6</ele><time>2026-04-05T10:33:45.355Z</time></trkpt><trkpt lat="45.9542715" lon="11.7506816"><ele>270.4</ele><time>2026-04-05T10:33:47.356Z</time></trkpt><trkpt lat="45.9543653" lon="11.7506748"><ele>272.2</ele><time>2026-04-05T10:33:48.356Z</time></trkpt><trkpt lat="45.9544689" lon="11.750668"><ele>274.0</ele><time>2026-04-05T10:33:49.356Z</time></trkpt><trkpt lat="45.9545912" lon="11.750695"><ele>275.0</ele><time>2026-04-05T10:33:50.356Z</time></trkpt><trkpt lat="45.9547397" lon="11.7507606"><ele>276.0</ele><time>2026-04-05T10:33:51.356Z</time></trkpt><trkpt lat="45.9548928" lon="11.7508087"><ele>277.0</ele><time>2026-04-05T10:33:52.356Z</time></trkpt><trkpt lat="45.9550444" lon="11.750836"><ele>279.0</ele><time>2026-04-05T10:33:53.356Z</time></trkpt><trkpt lat="45.9552074" lon="11.7508337"><ele>281.0</ele><time>2026-04-05T10:33:54.355Z</time></trkpt><trkpt lat="45.9553493" lon="11.7508169"><ele>283.0</ele><time>2026-04-05T10:33:55.356Z</time></trkpt><trkpt lat="45.9554726" lon="11.7507904"><ele>285.0</ele><time>2026-04-05T10:33:56.356Z</time></trkpt><trkpt lat="45.9555911" lon="11.7507774"><ele>285.0</ele><time>2026-04-05T10:33:57.355Z</time></trkpt><trkpt lat="45.9557045" lon="11.750793"><ele>285.0</ele><time>2026-04-05T10:33:58.356Z</time></trkpt><trkpt lat="45.9558203" lon="11.7508338"><ele>285.0</ele><time>2026-04-05T10:33:59.355Z</time></trkpt><trkpt lat="45.9559454" lon="11.7508829"><ele>285.0</ele><time>2026-04-05T10:34:00.355Z</time></trkpt><trkpt lat="45.9560762" lon="11.7509408"><ele>283.3333333333333</ele><time>2026-04-05T10:34:01.356Z</time></trkpt><trkpt lat="45.9562206" lon="11.7510404"><ele>281.66666666666663</ele><time>2026-04-05T10:34:02.356Z</time></trkpt><trkpt lat="45.9563816" lon="11.7511779"><ele>280.0</ele><time>2026-04-05T10:34:03.356Z</time></trkpt><trkpt lat="45.9565569" lon="11.751326"><ele>283.0</ele><time>2026-04-05T10:34:04.356Z</time></trkpt><trkpt lat="45.9567228" lon="11.7514631"><ele>286.0</ele><time>2026-04-05T10:34:05.355Z</time></trkpt><trkpt lat="45.9568659" lon="11.7515761"><ele>289.0</ele><time>2026-04-05T10:34:06.355Z</time></trkpt><trkpt lat="45.9569842" lon="11.7516715"><ele>289.0</ele><time>2026-04-05T10:34:07.355Z</time></trkpt><trkpt lat="45.9570753" lon="11.7517439"><ele>289.0</ele><time>2026-04-05T10:34:08.355Z</time></trkpt><trkpt lat="45.9571519" lon="11.7518118"><ele>289.0</ele><time>2026-04-05T10:34:09.355Z</time></trkpt><trkpt lat="45.9572181" lon="11.7518988"><ele>289.0</ele><time>2026-04-05T10:34:10.355Z</time></trkpt><trkpt lat="45.9572643" lon="11.7520248"><ele>289.0</ele><time>2026-04-05T10:34:11.356Z</time></trkpt><trkpt lat="45.9572976" lon="11.7521684"><ele>286.59999999999997</ele><time>2026-04-05T10:34:12.355Z</time></trkpt><trkpt lat="45.9573303" lon="11.7523054"><ele>284.2</ele><time>2026-04-05T10:34:13.356Z</time></trkpt><trkpt lat="45.9573637" lon="11.7524375"><ele>281.79999999999995</ele><time>2026-04-05T10:34:14.356Z</time></trkpt><trkpt lat="45.9574015" lon="11.7525635"><ele>279.4</ele><time>2026-04-05T10:34:15.356Z</time></trkpt><trkpt lat="45.957437" lon="11.7526902"><ele>277.0</ele><time>2026-04-05T10:34:16.355Z</time></trkpt><trkpt lat="45.9574715" lon="11.7528163"><ele>276.3333333333333</ele><time>2026-04-05T10:34:17.355Z</time></trkpt><trkpt lat="45.9575037" lon="11.7529264"><ele>275.66666666666663</ele><time>2026-04-05T10:34:18.355Z</time></trkpt><trkpt lat="45.9575353" lon="11.7530086"><ele>275.0</ele><time>2026-04-05T10:34:19.355Z</time></trkpt><trkpt lat="45.9576007" lon="11.7531596"><ele>274.3333333333333</ele><time>2026-04-05T10:34:21.356Z</time></trkpt><trkpt lat="45.9576476" lon="11.7532556"><ele>273.6666666666667</ele><time>2026-04-05T10:34:22.355Z</time></trkpt><trkpt lat="45.9577011" lon="11.7533464"><ele>273.0</ele><time>2026-04-05T10:34:23.356Z</time></trkpt><trkpt lat="45.9577668" lon="11.7534364"><ele>274.6</ele><time>2026-04-05T10:34:24.356Z</time></trkpt><trkpt lat="45.9578412" lon="11.7535132"><ele>276.20000000000005</ele><time>2026-04-05T10:34:25.356Z</time></trkpt><trkpt lat="45.9579328" lon="11.7535816"><ele>277.8</ele><time>2026-04-05T10:34:26.356Z</time></trkpt><trkpt lat="45.9580299" lon="11.7536519"><ele>279.40000000000003</ele><time>2026-04-05T10:34:27.355Z</time></trkpt><trkpt lat="45.9581361" lon="11.7537279"><ele>281.0</ele><time>2026-04-05T10:34:28.356Z</time></trkpt><trkpt lat="45.9582529" lon="11.7538063"><ele>278.0</ele><time>2026-04-05T10:34:29.356Z</time></trkpt><trkpt lat="45.9583909" lon="11.7538743"><ele>275.0</ele><time>2026-04-05T10:34:30.357Z</time></trkpt><trkpt lat="45.9585557" lon="11.7539079"><ele>272.0</ele><time>2026-04-05T10:34:31.357Z</time></trkpt><trkpt lat="45.9587174" lon="11.7539199"><ele>272.0</ele><time>2026-04-05T10:34:32.356Z</time></trkpt><trkpt lat="45.9588736" lon="11.7539186"><ele>272.0</ele><time>2026-04-05T10:34:33.355Z</time></trkpt><trkpt lat="45.9590136" lon="11.753917"><ele>272.0</ele><time>2026-04-05T10:34:34.357Z</time></trkpt><trkpt lat="45.9591369" lon="11.7539087"><ele>272.0</ele><time>2026-04-05T10:34:35.356Z</time></trkpt><trkpt lat="45.9592533" lon="11.7538909"><ele>273.8</ele><time>2026-04-05T10:34:36.356Z</time></trkpt><trkpt lat="45.9593685" lon="11.7538664"><ele>275.6</ele><time>2026-04-05T10:34:37.357Z</time></trkpt><trkpt lat="45.9594801" lon="11.7538427"><ele>277.40000000000003</ele><time>2026-04-05T10:34:38.357Z</time></trkpt><trkpt lat="45.9595845" lon="11.7538277"><ele>279.2</ele><time>2026-04-05T10:34:39.356Z</time></trkpt><trkpt lat="45.9596723" lon="11.7538332"><ele>281.0</ele><time>2026-04-05T10:34:40.356Z</time></trkpt><trkpt lat="45.9597462" lon="11.7538645"><ele>281.0</ele><time>2026-04-05T10:34:41.356Z</time></trkpt><trkpt lat="45.9598063" lon="11.7539108"><ele>281.0</ele><time>2026-04-05T10:34:42.355Z</time></trkpt><trkpt lat="45.9598751" lon="11.753996"><ele>281.0</ele><time>2026-04-05T10:34:44.355Z</time></trkpt><trkpt lat="45.9597911" lon="11.7540514"><ele>281.0</ele><time>2026-04-05T10:34:49.355Z</time></trkpt><trkpt lat="45.9597307" lon="11.7540213"><ele>281.0</ele><time>2026-04-05T10:34:54.357Z</time></trkpt><trkpt lat="45.9596685" lon="11.7539639"><ele>281.0</ele><time>2026-04-05T10:34:56.356Z</time></trkpt><trkpt lat="45.9595856" lon="11.7539329"><ele>281.00000000000006</ele><time>2026-04-05T10:34:58.357Z</time></trkpt><trkpt lat="45.9595121" lon="11.7539631"><ele>281.0</ele><time>2026-04-05T10:35:00.356Z</time></trkpt><trkpt lat="45.9594625" lon="11.7540517"><ele>281.0</ele><time>2026-04-05T10:35:02.356Z</time></trkpt><trkpt lat="45.9594415" lon="11.7541509"><ele>281.0</ele><time>2026-04-05T10:35:04.356Z</time></trkpt><trkpt lat="45.9594592" lon="11.7542462"><ele>281.0</ele><time>2026-04-05T10:35:06.357Z</time></trkpt><trkpt lat="45.9595393" lon="11.7542141"><ele>281.00000000000006</ele><time>2026-04-05T11:21:44.482Z</time></trkpt><trkpt lat="45.9595916" lon="11.7541581"><ele>281.0</ele><time>2026-04-05T11:21:47.497Z</time></trkpt><trkpt lat="45.9596588" lon="11.754172"><ele>281.0</ele><time>2026-04-05T11:21:50.512Z</time></trkpt><trkpt lat="45.9597091" lon="11.754036"><ele>281.0</ele><time>2026-04-05T11:21:55.399Z</time></trkpt><trkpt lat="45.9597846" lon="11.7540565"><ele>281.0</ele><time>2026-04-05T11:21:57.399Z</time></trkpt><trkpt lat="45.9598893" lon="11.7540939"><ele>281.0</ele><time>2026-04-05T11:21:59.398Z</time></trkpt><trkpt lat="45.9599441" lon="11.7541449"><ele>281.0</ele><time>2026-04-05T11:22:00.398Z</time></trkpt><trkpt lat="45.9599994" lon="11.7542231"><ele>281.0</ele><time>2026-04-05T11:22:01.398Z</time></trkpt><trkpt lat="45.9600535" lon="11.7543181"><ele>281.33333333333337</ele><time>2026-04-05T11:22:02.398Z</time></trkpt><trkpt lat="45.9601094" lon="11.7544196"><ele>281.6666666666667</ele><time>2026-04-05T11:22:03.399Z</time></trkpt><trkpt lat="45.960164" lon="11.7545218"><ele>282.0</ele><time>2026-04-05T11:22:04.399Z</time></trkpt><trkpt lat="45.960226" lon="11.7546237"><ele>282.3333333333333</ele><time>2026-04-05T11:22:05.398Z</time></trkpt><trkpt lat="45.9602817" lon="11.7547129"><ele>282.66666666666663</ele><time>2026-04-05T11:22:06.398Z</time></trkpt><trkpt lat="45.9603373" lon="11.754804"><ele>283.0</ele><time>2026-04-05T11:22:07.399Z</time></trkpt><trkpt lat="45.9603918" lon="11.7548921"><ele>283.0</ele><time>2026-04-05T11:22:08.398Z</time></trkpt><trkpt lat="45.960451" lon="11.7549756"><ele>283.0</ele><time>2026-04-05T11:22:09.398Z</time></trkpt><trkpt lat="45.9605212" lon="11.7550646"><ele>283.0</ele><time>2026-04-05T11:22:10.4Z</time></trkpt><trkpt lat="45.9605798" lon="11.7551681"><ele>283.0</ele><time>2026-04-05T11:22:11.398Z</time></trkpt><trkpt lat="45.9606414" lon="11.7552676"><ele>283.0</ele><time>2026-04-05T11:22:12.4Z</time></trkpt><trkpt lat="45.9607085" lon="11.7553522"><ele>281.6</ele><time>2026-04-05T11:22:13.399Z</time></trkpt><trkpt lat="45.960782" lon="11.7554302"><ele>280.20000000000005</ele><time>2026-04-05T11:22:14.398Z</time></trkpt><trkpt lat="45.9608711" lon="11.7554903"><ele>278.8</ele><time>2026-04-05T11:22:15.4Z</time></trkpt><trkpt lat="45.9609711" lon="11.7555313"><ele>277.40000000000003</ele><time>2026-04-05T11:22:16.398Z</time></trkpt><trkpt lat="45.9610748" lon="11.7555579"><ele>276.0</ele><time>2026-04-05T11:22:17.398Z</time></trkpt><trkpt lat="45.9611755" lon="11.7555795"><ele>276.0</ele><time>2026-04-05T11:22:18.4Z</time></trkpt><trkpt lat="45.9612743" lon="11.7556017"><ele>276.0</ele><time>2026-04-05T11:22:19.399Z</time></trkpt><trkpt lat="45.9613722" lon="11.755626"><ele>276.0</ele><time>2026-04-05T11:22:20.4Z</time></trkpt><trkpt lat="45.9614687" lon="11.7556516"><ele>276.0</ele><time>2026-04-05T11:22:21.398Z</time></trkpt><trkpt lat="45.9615639" lon="11.7556783"><ele>276.0</ele><time>2026-04-05T11:22:22.399Z</time></trkpt><trkpt lat="45.9616575" lon="11.7557058"><ele>278.6</ele><time>2026-04-05T11:22:23.399Z</time></trkpt><trkpt lat="45.9617446" lon="11.7557491"><ele>281.20000000000005</ele><time>2026-04-05T11:22:24.399Z</time></trkpt><trkpt lat="45.9618247" lon="11.7558084"><ele>283.79999999999995</ele><time>2026-04-05T11:22:25.399Z</time></trkpt><trkpt lat="45.9619029" lon="11.7558733"><ele>286.4</ele><time>2026-04-05T11:22:26.4Z</time></trkpt><trkpt lat="45.961978" lon="11.7559417"><ele>289.0</ele><time>2026-04-05T11:22:27.399Z</time></trkpt><trkpt lat="45.9620551" lon="11.7560096"><ele>284.8</ele><time>2026-04-05T11:22:28.399Z</time></trkpt><trkpt lat="45.9621381" lon="11.7560743"><ele>280.59999999999997</ele><time>2026-04-05T11:22:29.399Z</time></trkpt><trkpt lat="45.962229" lon="11.7561321"><ele>276.4</ele><time>2026-04-05T11:22:30.4Z</time></trkpt><trkpt lat="45.9623256" lon="11.7561834"><ele>272.2</ele><time>2026-04-05T11:22:31.399Z</time></trkpt><trkpt lat="45.962422" lon="11.7562228"><ele>268.0</ele><time>2026-04-05T11:22:32.399Z</time></trkpt><trkpt lat="45.9625214" lon="11.7562489"><ele>268.4</ele><time>2026-04-05T11:22:33.399Z</time></trkpt><trkpt lat="45.9626238" lon="11.756267"><ele>268.8</ele><time>2026-04-05T11:22:34.4Z</time></trkpt><trkpt lat="45.9627251" lon="11.7562825"><ele>269.2</ele><time>2026-04-05T11:22:35.399Z</time></trkpt><trkpt lat="45.9628226" lon="11.7562961"><ele>269.6</ele><time>2026-04-05T11:22:36.399Z</time></trkpt><trkpt lat="45.9629304" lon="11.7563047"><ele>270.0</ele><time>2026-04-05T11:22:37.4Z</time></trkpt><trkpt lat="45.9630304" lon="11.7563094"><ele>270.0</ele><time>2026-04-05T11:22:38.398Z</time></trkpt><trkpt lat="45.9631328" lon="11.7563117"><ele>270.0</ele><time>2026-04-05T11:22:39.4Z</time></trkpt><trkpt lat="45.963233" lon="11.7563046"><ele>270.0</ele><time>2026-04-05T11:22:40.4Z</time></trkpt><trkpt lat="45.9633335" lon="11.7562981"><ele>270.0</ele><time>2026-04-05T11:22:41.399Z</time></trkpt><trkpt lat="45.9634364" lon="11.756292"><ele>270.0</ele><time>2026-04-05T11:22:42.399Z</time></trkpt><trkpt lat="45.9635459" lon="11.756291"><ele>270.0</ele><time>2026-04-05T11:22:43.399Z</time></trkpt><trkpt lat="45.9636557" lon="11.7562892"><ele>270.0</ele><time>2026-04-05T11:22:44.4Z</time></trkpt><trkpt lat="45.9637645" lon="11.7562797"><ele>270.0</ele><time>2026-04-05T11:22:45.4Z</time></trkpt><trkpt lat="45.9638578" lon="11.7562615"><ele>270.0</ele><time>2026-04-05T11:22:46.399Z</time></trkpt><trkpt lat="45.9639469" lon="11.7562301"><ele>270.0</ele><time>2026-04-05T11:22:47.399Z</time></trkpt><trkpt lat="45.9640351" lon="11.7561881"><ele>270.0</ele><time>2026-04-05T11:22:48.399Z</time></trkpt><trkpt lat="45.9641299" lon="11.7561502"><ele>270.0</ele><time>2026-04-05T11:22:49.4Z</time></trkpt><trkpt lat="45.9642293" lon="11.7561171"><ele>270.0</ele><time>2026-04-05T11:22:50.4Z</time></trkpt><trkpt lat="45.9643297" lon="11.7560871"><ele>270.0</ele><time>2026-04-05T11:22:51.4Z</time></trkpt><trkpt lat="45.9644314" lon="11.7560534"><ele>270.0</ele><time>2026-04-05T11:22:52.4Z</time></trkpt><trkpt lat="45.9645317" lon="11.7560211"><ele>272.2</ele><time>2026-04-05T11:22:53.4Z</time></trkpt><trkpt lat="45.9646288" lon="11.7560145"><ele>274.4</ele><time>2026-04-05T11:22:54.399Z</time></trkpt><trkpt lat="45.9647249" lon="11.7560569"><ele>276.6</ele><time>2026-04-05T11:22:55.4Z</time></trkpt><trkpt lat="45.9648139" lon="11.7561317"><ele>278.8</ele><time>2026-04-05T11:22:56.4Z</time></trkpt><trkpt lat="45.9648936" lon="11.756234"><ele>281.0</ele><time>2026-04-05T11:22:57.4Z</time></trkpt><trkpt lat="45.9649729" lon="11.7563537"><ele>284.0</ele><time>2026-04-05T11:22:58.399Z</time></trkpt><trkpt lat="45.9650522" lon="11.7564714"><ele>287.0</ele><time>2026-04-05T11:22:59.399Z</time></trkpt><trkpt lat="45.9651311" lon="11.7565693"><ele>290.0</ele><time>2026-04-05T11:23:00.399Z</time></trkpt><trkpt lat="45.9652022" lon="11.7566604"><ele>293.0</ele><time>2026-04-05T11:23:01.399Z</time></trkpt><trkpt lat="45.9652809" lon="11.7567467"><ele>296.0</ele><time>2026-04-05T11:23:02.4Z</time></trkpt><trkpt lat="45.9653553" lon="11.7568303"><ele>294.2</ele><time>2026-04-05T11:23:03.399Z</time></trkpt><trkpt lat="45.9654291" lon="11.7569189"><ele>292.40000000000003</ele><time>2026-04-05T11:23:04.399Z</time></trkpt><trkpt lat="45.9655017" lon="11.7570125"><ele>290.6</ele><time>2026-04-05T11:23:05.4Z</time></trkpt><trkpt lat="45.9655763" lon="11.7570997"><ele>288.8</ele><time>2026-04-05T11:23:06.399Z</time></trkpt><trkpt lat="45.965658" lon="11.7571909"><ele>287.0</ele><time>2026-04-05T11:23:07.4Z</time></trkpt><trkpt lat="45.9657367" lon="11.7572849"><ele>287.0</ele><time>2026-04-05T11:23:08.4Z</time></trkpt><trkpt lat="45.9658118" lon="11.7573803"><ele>287.0</ele><time>2026-04-05T11:23:09.399Z</time></trkpt><trkpt lat="45.9658804" lon="11.7574819"><ele>287.0</ele><time>2026-04-05T11:23:10.4Z</time></trkpt><trkpt lat="45.9659394" lon="11.7575986"><ele>287.0</ele><time>2026-04-05T11:23:11.4Z</time></trkpt><trkpt lat="45.9659964" lon="11.7577175"><ele>287.0</ele><time>2026-04-05T11:23:12.399Z</time></trkpt><trkpt lat="45.9660578" lon="11.7578289"><ele>286.6</ele><time>2026-04-05T11:23:13.399Z</time></trkpt><trkpt lat="45.966129" lon="11.7579152"><ele>286.2</ele><time>2026-04-05T11:23:14.399Z</time></trkpt><trkpt lat="45.9662191" lon="11.7579758"><ele>285.8</ele><time>2026-04-05T11:23:15.399Z</time></trkpt><trkpt lat="45.966323" lon="11.7579991"><ele>285.4</ele><time>2026-04-05T11:23:16.4Z</time></trkpt><trkpt lat="45.9664379" lon="11.7579976"><ele>285.0</ele><time>2026-04-05T11:23:17.4Z</time></trkpt><trkpt lat="45.9665423" lon="11.7580008"><ele>285.0</ele><time>2026-04-05T11:23:18.4Z</time></trkpt><trkpt lat="45.966643" lon="11.7580085"><ele>285.0</ele><time>2026-04-05T11:23:19.4Z</time></trkpt><trkpt lat="45.9667434" lon="11.7580192"><ele>285.0</ele><time>2026-04-05T11:23:20.4Z</time></trkpt><trkpt lat="45.9668412" lon="11.7580353"><ele>285.0</ele><time>2026-04-05T11:23:21.399Z</time></trkpt><trkpt lat="45.9669371" lon="11.758073"><ele>285.0</ele><time>2026-04-05T11:23:22.4Z</time></trkpt><trkpt lat="45.9670273" lon="11.7581452"><ele>287.0</ele><time>2026-04-05T11:23:23.4Z</time></trkpt><trkpt lat="45.9671197" lon="11.7582339"><ele>289.0</ele><time>2026-04-05T11:23:24.401Z</time></trkpt><trkpt lat="45.9672056" lon="11.7583212"><ele>291.0</ele><time>2026-04-05T11:23:25.4Z</time></trkpt><trkpt lat="45.967291" lon="11.7584026"><ele>293.0</ele><time>2026-04-05T11:23:26.399Z</time></trkpt><trkpt lat="45.967387" lon="11.7584889"><ele>295.0</ele><time>2026-04-05T11:23:27.4Z</time></trkpt><trkpt lat="45.9674792" lon="11.7585693"><ele>295.6</ele><time>2026-04-05T11:23:28.4Z</time></trkpt><trkpt lat="45.9675726" lon="11.7586493"><ele>296.2</ele><time>2026-04-05T11:23:29.399Z</time></trkpt><trkpt lat="45.9676679" lon="11.758729"><ele>296.8</ele><time>2026-04-05T11:23:30.401Z</time></trkpt><trkpt lat="45.967762" lon="11.7588084"><ele>297.4</ele><time>2026-04-05T11:23:31.399Z</time></trkpt><trkpt lat="45.9678564" lon="11.7588917"><ele>298.0</ele><time>2026-04-05T11:23:32.401Z</time></trkpt><trkpt lat="45.967948" lon="11.7589752"><ele>298.0</ele><time>2026-04-05T11:23:33.4Z</time></trkpt><trkpt lat="45.9680383" lon="11.7590525"><ele>298.0</ele><time>2026-04-05T11:23:34.4Z</time></trkpt><trkpt lat="45.9681301" lon="11.7591181"><ele>298.0</ele><time>2026-04-05T11:23:35.4Z</time></trkpt><trkpt lat="45.9682259" lon="11.7591567"><ele>298.0</ele><time>2026-04-05T11:23:36.4Z</time></trkpt><trkpt lat="45.9683299" lon="11.759169"><ele>298.0</ele><time>2026-04-05T11:23:37.4Z</time></trkpt><trkpt lat="45.9684355" lon="11.7591578"><ele>298.5</ele><time>2026-04-05T11:23:38.401Z</time></trkpt><trkpt lat="45.9685442" lon="11.7591353"><ele>299.0</ele><time>2026-04-05T11:23:39.4Z</time></trkpt><trkpt lat="45.9686554" lon="11.7590925"><ele>299.5</ele><time>2026-04-05T11:23:40.4Z</time></trkpt><trkpt lat="45.9687671" lon="11.7590232"><ele>300.0</ele><time>2026-04-05T11:23:41.4Z</time></trkpt><trkpt lat="45.9688766" lon="11.7589447"><ele>300.0</ele><time>2026-04-05T11:23:42.4Z</time></trkpt><trkpt lat="45.9689834" lon="11.7588652"><ele>300.0</ele><time>2026-04-05T11:23:43.401Z</time></trkpt><trkpt lat="45.9690842" lon="11.7587849"><ele>300.0</ele><time>2026-04-05T11:23:44.4Z</time></trkpt><trkpt lat="45.9691697" lon="11.7587083"><ele>300.0</ele><time>2026-04-05T11:23:45.399Z</time></trkpt><trkpt lat="45.9692435" lon="11.7586395"><ele>300.0</ele><time>2026-04-05T11:23:46.4Z</time></trkpt><trkpt lat="45.9693087" lon="11.7585819"><ele>298.6</ele><time>2026-04-05T11:23:47.401Z</time></trkpt><trkpt lat="45.9694081" lon="11.7585125"><ele>297.2</ele><time>2026-04-05T11:23:49.4Z</time></trkpt><trkpt lat="45.9694952" lon="11.7584782"><ele>295.8</ele><time>2026-04-05T11:23:51.4Z</time></trkpt><trkpt lat="45.9695809" lon="11.7583976"><ele>294.4</ele><time>2026-04-05T11:23:53.401Z</time></trkpt><trkpt lat="45.9696992" lon="11.7583544"><ele>293.0</ele><time>2026-04-05T11:23:55.401Z</time></trkpt><trkpt lat="45.9698114" lon="11.7583729"><ele>293.0</ele><time>2026-04-05T11:23:56.4Z</time></trkpt><trkpt lat="45.9699483" lon="11.7584"><ele>293.0</ele><time>2026-04-05T11:23:57.4Z</time></trkpt><trkpt lat="45.9700666" lon="11.7584255"><ele>293.0</ele><time>2026-04-05T11:23:58.401Z</time></trkpt><trkpt lat="45.9701492" lon="11.7584452"><ele>293.0</ele><time>2026-04-05T11:23:59.4Z</time></trkpt><trkpt lat="45.970213" lon="11.7584668"><ele>293.0</ele><time>2026-04-05T11:24:00.4Z</time></trkpt><trkpt lat="45.970321" lon="11.7584637"><ele>292.2</ele><time>2026-04-05T11:24:02.401Z</time></trkpt><trkpt lat="45.9703643" lon="11.7583794"><ele>291.4</ele><time>2026-04-05T11:24:04.4Z</time></trkpt><trkpt lat="45.9703983" lon="11.7581798"><ele>290.59999999999997</ele><time>2026-04-05T11:24:06.4Z</time></trkpt><trkpt lat="45.9704506" lon="11.7581198"><ele>289.8</ele><time>2026-04-05T11:24:07.401Z</time></trkpt><trkpt lat="45.9705306" lon="11.7580404"><ele>289.0</ele><time>2026-04-05T11:24:08.401Z</time></trkpt><trkpt lat="45.9706177" lon="11.757907"><ele>289.0</ele><time>2026-04-05T11:24:09.4Z</time></trkpt><trkpt lat="45.9707085" lon="11.7577522"><ele>289.0</ele><time>2026-04-05T11:24:10.401Z</time></trkpt><trkpt lat="45.9707859" lon="11.7576183"><ele>289.0</ele><time>2026-04-05T11:24:11.401Z</time></trkpt><trkpt lat="45.9708399" lon="11.7575431"><ele>289.0</ele><time>2026-04-05T11:24:12.401Z</time></trkpt><trkpt lat="45.9709107" lon="11.7575291"><ele>289.0</ele><time>2026-04-05T11:24:15.4Z</time></trkpt><trkpt lat="45.9710035" lon="11.7576364"><ele>289.2</ele><time>2026-04-05T11:24:17.401Z</time></trkpt><trkpt lat="45.9710973" lon="11.7577511"><ele>289.4</ele><time>2026-04-05T11:24:18.4Z</time></trkpt><trkpt lat="45.97119" lon="11.7578569"><ele>289.6</ele><time>2026-04-05T11:24:19.401Z</time></trkpt><trkpt lat="45.9712722" lon="11.7579443"><ele>289.8</ele><time>2026-04-05T11:24:20.4Z</time></trkpt><trkpt lat="45.9713523" lon="11.7580316"><ele>290.0</ele><time>2026-04-05T11:24:21.4Z</time></trkpt><trkpt lat="45.971429" lon="11.7581049"><ele>290.0</ele><time>2026-04-05T11:24:22.4Z</time></trkpt><trkpt lat="45.9715171" lon="11.7581534"><ele>290.0</ele><time>2026-04-05T11:24:23.4Z</time></trkpt><trkpt lat="45.9716243" lon="11.7581839"><ele>290.0</ele><time>2026-04-05T11:24:24.4Z</time></trkpt><trkpt lat="45.9717408" lon="11.7582051"><ele>290.0</ele><time>2026-04-05T11:24:25.4Z</time></trkpt><trkpt lat="45.9718414" lon="11.7582364"><ele>290.0</ele><time>2026-04-05T11:24:26.401Z</time></trkpt><trkpt lat="45.9719342" lon="11.7582846"><ele>289.0</ele><time>2026-04-05T11:24:27.402Z</time></trkpt><trkpt lat="45.9720275" lon="11.7583426"><ele>288.0</ele><time>2026-04-05T11:24:28.401Z</time></trkpt><trkpt lat="45.9721257" lon="11.7583943"><ele>287.0</ele><time>2026-04-05T11:24:29.4Z</time></trkpt><trkpt lat="45.9722323" lon="11.7584281"><ele>286.0</ele><time>2026-04-05T11:24:30.4Z</time></trkpt><trkpt lat="45.9723371" lon="11.7584425"><ele>285.0</ele><time>2026-04-05T11:24:31.401Z</time></trkpt><trkpt lat="45.9724433" lon="11.7584673"><ele>285.0</ele><time>2026-04-05T11:24:32.402Z</time></trkpt><trkpt lat="45.9725409" lon="11.7585006"><ele>285.0</ele><time>2026-04-05T11:24:33.401Z</time></trkpt><trkpt lat="45.9726385" lon="11.758524"><ele>285.0</ele><time>2026-04-05T11:24:34.4Z</time></trkpt><trkpt lat="45.9727411" lon="11.7585337"><ele>285.0</ele><time>2026-04-05T11:24:35.4Z</time></trkpt><trkpt lat="45.9728501" lon="11.7585409"><ele>285.0</ele><time>2026-04-05T11:24:36.4Z</time></trkpt><trkpt lat="45.9729592" lon="11.7585535"><ele>287.5</ele><time>2026-04-05T11:24:37.401Z</time></trkpt><trkpt lat="45.9730674" lon="11.7585699"><ele>290.0</ele><time>2026-04-05T11:24:38.4Z</time></trkpt><trkpt lat="45.9731779" lon="11.7585823"><ele>292.5</ele><time>2026-04-05T11:24:39.4Z</time></trkpt><trkpt lat="45.9732928" lon="11.7585967"><ele>295.0</ele><time>2026-04-05T11:24:40.402Z</time></trkpt><trkpt lat="45.9734072" lon="11.7586137"><ele>296.25</ele><time>2026-04-05T11:24:41.4Z</time></trkpt><trkpt lat="45.9735232" lon="11.7586337"><ele>297.5</ele><time>2026-04-05T11:24:42.401Z</time></trkpt><trkpt lat="45.9736382" lon="11.7586519"><ele>298.75</ele><time>2026-04-05T11:24:43.401Z</time></trkpt><trkpt lat="45.9737506" lon="11.7586697"><ele>300.0</ele><time>2026-04-05T11:24:44.401Z</time></trkpt><trkpt lat="45.9738649" lon="11.7586876"><ele>300.0</ele><time>2026-04-05T11:24:45.401Z</time></trkpt><trkpt lat="45.9739808" lon="11.7587044"><ele>300.0</ele><time>2026-04-05T11:24:46.401Z</time></trkpt><trkpt lat="45.9740946" lon="11.7587203"><ele>300.0</ele><time>2026-04-05T11:24:47.4Z</time></trkpt><trkpt lat="45.9742051" lon="11.7587361"><ele>300.0</ele><time>2026-04-05T11:24:48.401Z</time></trkpt><trkpt lat="45.9743128" lon="11.7587522"><ele>298.8</ele><time>2026-04-05T11:24:49.402Z</time></trkpt><trkpt lat="45.9744193" lon="11.7587684"><ele>297.6</ele><time>2026-04-05T11:24:50.401Z</time></trkpt><trkpt lat="45.9745222" lon="11.7587864"><ele>296.4</ele><time>2026-04-05T11:24:51.401Z</time></trkpt><trkpt lat="45.974626" lon="11.7588031"><ele>295.2</ele><time>2026-04-05T11:24:52.401Z</time></trkpt><trkpt lat="45.9747288" lon="11.7588163"><ele>294.0</ele><time>2026-04-05T11:24:53.401Z</time></trkpt><trkpt lat="45.9748319" lon="11.7588253"><ele>294.0</ele><time>2026-04-05T11:24:54.401Z</time></trkpt><trkpt lat="45.9749364" lon="11.7588309"><ele>294.0</ele><time>2026-04-05T11:24:55.401Z</time></trkpt><trkpt lat="45.9750408" lon="11.7588415"><ele>294.0</ele><time>2026-04-05T11:24:56.401Z</time></trkpt><trkpt lat="45.9751459" lon="11.7588611"><ele>294.0</ele><time>2026-04-05T11:24:57.402Z</time></trkpt><trkpt lat="45.9752499" lon="11.7588854"><ele>294.0</ele><time>2026-04-05T11:24:58.401Z</time></trkpt><trkpt lat="45.9753597" lon="11.7589064"><ele>293.5</ele><time>2026-04-05T11:24:59.401Z</time></trkpt><trkpt lat="45.9754717" lon="11.7589196"><ele>293.0</ele><time>2026-04-05T11:25:00.401Z</time></trkpt><trkpt lat="45.9755843" lon="11.7589339"><ele>292.5</ele><time>2026-04-05T11:25:01.4Z</time></trkpt><trkpt lat="45.9757032" lon="11.7589532"><ele>292.0</ele><time>2026-04-05T11:25:02.401Z</time></trkpt><trkpt lat="45.9758286" lon="11.7589763"><ele>292.0</ele><time>2026-04-05T11:25:03.402Z</time></trkpt><trkpt lat="45.9759441" lon="11.7589903"><ele>292.0</ele><time>2026-04-05T11:25:04.401Z</time></trkpt><trkpt lat="45.9760477" lon="11.7589921"><ele>292.0</ele><time>2026-04-05T11:25:05.401Z</time></trkpt><trkpt lat="45.9761462" lon="11.7589806"><ele>292.0</ele><time>2026-04-05T11:25:06.401Z</time></trkpt><trkpt lat="45.9762457" lon="11.7589485"><ele>292.0</ele><time>2026-04-05T11:25:07.401Z</time></trkpt><trkpt lat="45.9763499" lon="11.7589069"><ele>292.0</ele><time>2026-04-05T11:25:08.401Z</time></trkpt><trkpt lat="45.9764618" lon="11.7588622"><ele>292.0</ele><time>2026-04-05T11:25:09.401Z</time></trkpt><trkpt lat="45.9765834" lon="11.7588224"><ele>292.0</ele><time>2026-04-05T11:25:10.401Z</time></trkpt><trkpt lat="45.9767028" lon="11.758785"><ele>292.0</ele><time>2026-04-05T11:25:11.401Z</time></trkpt><trkpt lat="45.9768218" lon="11.7587479"><ele>292.25</ele><time>2026-04-05T11:25:12.401Z</time></trkpt><trkpt lat="45.9769406" lon="11.7587098"><ele>292.5</ele><time>2026-04-05T11:25:13.402Z</time></trkpt><trkpt lat="45.9770585" lon="11.7586719"><ele>292.75</ele><time>2026-04-05T11:25:14.401Z</time></trkpt><trkpt lat="45.9771832" lon="11.7586494"><ele>293.0</ele><time>2026-04-05T11:25:15.402Z</time></trkpt><trkpt lat="45.9773258" lon="11.758643"><ele>293.0</ele><time>2026-04-05T11:25:16.401Z</time></trkpt><trkpt lat="45.9774825" lon="11.7586486"><ele>293.0</ele><time>2026-04-05T11:25:17.401Z</time></trkpt><trkpt lat="45.9776084" lon="11.7586488"><ele>293.0</ele><time>2026-04-05T11:25:18.402Z</time></trkpt><trkpt lat="45.9776865" lon="11.7586364"><ele>293.0</ele><time>2026-04-05T11:25:19.401Z</time></trkpt><trkpt lat="45.9777723" lon="11.75862"><ele>293.0</ele><time>2026-04-05T11:25:21.401Z</time></trkpt><trkpt lat="45.9778617" lon="11.7585922"><ele>292.75</ele><time>2026-04-05T11:25:24.402Z</time></trkpt><trkpt lat="45.9779309" lon="11.7585411"><ele>292.5</ele><time>2026-04-05T11:25:25.402Z</time></trkpt><trkpt lat="45.9780166" lon="11.7584553"><ele>292.25</ele><time>2026-04-05T11:25:26.401Z</time></trkpt><trkpt lat="45.9781388" lon="11.7583332"><ele>292.0</ele><time>2026-04-05T11:25:27.401Z</time></trkpt><trkpt lat="45.9782518" lon="11.7582472"><ele>292.0</ele><time>2026-04-05T11:25:28.401Z</time></trkpt><trkpt lat="45.97831" lon="11.7581908"><ele>292.0</ele><time>2026-04-05T11:25:29.402Z</time></trkpt><trkpt lat="45.9783188" lon="11.7580356"><ele>292.0</ele><time>2026-04-05T11:25:32.402Z</time></trkpt><trkpt lat="45.978317" lon="11.7579342"><ele>292.0</ele><time>2026-04-05T11:25:33.401Z</time></trkpt><trkpt lat="45.978335" lon="11.7578122"><ele>292.0</ele><time>2026-04-05T11:25:34.401Z</time></trkpt><trkpt lat="45.9783825" lon="11.7577021"><ele>292.0</ele><time>2026-04-05T11:25:35.401Z</time></trkpt><trkpt lat="45.9784554" lon="11.7575876"><ele>292.0</ele><time>2026-04-05T11:25:36.403Z</time></trkpt><trkpt lat="45.9785335" lon="11.7574735"><ele>292.0</ele><time>2026-04-05T11:25:37.403Z</time></trkpt><trkpt lat="45.9786102" lon="11.7573627"><ele>292.0</ele><time>2026-04-05T11:25:38.401Z</time></trkpt><trkpt lat="45.9786863" lon="11.757255"><ele>292.0</ele><time>2026-04-05T11:25:39.402Z</time></trkpt><trkpt lat="45.9787649" lon="11.7571537"><ele>292.0</ele><time>2026-04-05T11:25:40.403Z</time></trkpt><trkpt lat="45.9788478" lon="11.7570551"><ele>292.0</ele><time>2026-04-05T11:25:41.401Z</time></trkpt><trkpt lat="45.978931" lon="11.7569582"><ele>292.0</ele><time>2026-04-05T11:25:42.401Z</time></trkpt><trkpt lat="45.9790158" lon="11.7568609"><ele>292.0</ele><time>2026-04-05T11:25:43.401Z</time></trkpt><trkpt lat="45.9791009" lon="11.756766"><ele>292.0</ele><time>2026-04-05T11:25:44.401Z</time></trkpt><trkpt lat="45.9791866" lon="11.7566725"><ele>292.0</ele><time>2026-04-05T11:25:45.401Z</time></trkpt><trkpt lat="45.9792725" lon="11.7565751"><ele>293.0</ele><time>2026-04-05T11:25:46.401Z</time></trkpt><trkpt lat="45.9793571" lon="11.7564724"><ele>294.0</ele><time>2026-04-05T11:25:47.402Z</time></trkpt><trkpt lat="45.9794415" lon="11.7563673"><ele>295.0</ele><time>2026-04-05T11:25:48.403Z</time></trkpt><trkpt lat="45.9795273" lon="11.7562632"><ele>296.0</ele><time>2026-04-05T11:25:49.401Z</time></trkpt><trkpt lat="45.9796126" lon="11.7561609"><ele>297.0</ele><time>2026-04-05T11:25:50.402Z</time></trkpt><trkpt lat="45.9796963" lon="11.7560566"><ele>297.0</ele><time>2026-04-05T11:25:51.402Z</time></trkpt><trkpt lat="45.9797767" lon="11.7559554"><ele>297.0</ele><time>2026-04-05T11:25:52.401Z</time></trkpt><trkpt lat="45.9798492" lon="11.7558546"><ele>297.0</ele><time>2026-04-05T11:25:53.403Z</time></trkpt><trkpt lat="45.9799206" lon="11.7557629"><ele>297.0</ele><time>2026-04-05T11:25:54.401Z</time></trkpt><trkpt lat="45.9799927" lon="11.7556822"><ele>297.0</ele><time>2026-04-05T11:25:55.401Z</time></trkpt><trkpt lat="45.9800622" lon="11.7555888"><ele>298.0</ele><time>2026-04-05T11:25:56.403Z</time></trkpt><trkpt lat="45.9801283" lon="11.7554703"><ele>299.0</ele><time>2026-04-05T11:25:57.403Z</time></trkpt><trkpt lat="45.9802033" lon="11.7553298"><ele>300.0</ele><time>2026-04-05T11:25:58.402Z</time></trkpt><trkpt lat="45.9802869" lon="11.7551959"><ele>301.0</ele><time>2026-04-05T11:25:59.402Z</time></trkpt><trkpt lat="45.9803731" lon="11.7550718"><ele>301.0</ele><time>2026-04-05T11:26:00.403Z</time></trkpt><trkpt lat="45.9804567" lon="11.7549536"><ele>301.0</ele><time>2026-04-05T11:26:01.402Z</time></trkpt><trkpt lat="45.9805373" lon="11.7548418"><ele>301.0</ele><time>2026-04-05T11:26:02.403Z</time></trkpt><trkpt lat="45.980621" lon="11.7547394"><ele>301.0</ele><time>2026-04-05T11:26:03.402Z</time></trkpt><trkpt lat="45.9807144" lon="11.754652"><ele>301.0</ele><time>2026-04-05T11:26:04.403Z</time></trkpt><trkpt lat="45.980818" lon="11.7545725"><ele>301.0</ele><time>2026-04-05T11:26:05.403Z</time></trkpt><trkpt lat="45.9809244" lon="11.7544971"><ele>301.0</ele><time>2026-04-05T11:26:06.402Z</time></trkpt><trkpt lat="45.9810292" lon="11.7544236"><ele>301.0</ele><time>2026-04-05T11:26:07.402Z</time></trkpt><trkpt lat="45.9811319" lon="11.7543493"><ele>303.0</ele><time>2026-04-05T11:26:08.403Z</time></trkpt><trkpt lat="45.9812317" lon="11.754282"><ele>305.0</ele><time>2026-04-05T11:26:09.403Z</time></trkpt><trkpt lat="45.9813378" lon="11.7542347"><ele>307.0</ele><time>2026-04-05T11:26:10.402Z</time></trkpt><trkpt lat="45.9814531" lon="11.7542211"><ele>309.0</ele><time>2026-04-05T11:26:11.402Z</time></trkpt><trkpt lat="45.9815702" lon="11.7542242"><ele>309.0</ele><time>2026-04-05T11:26:12.402Z</time></trkpt><trkpt lat="45.9816676" lon="11.7542178"><ele>309.0</ele><time>2026-04-05T11:26:13.403Z</time></trkpt><trkpt lat="45.981751" lon="11.7542019"><ele>309.0</ele><time>2026-04-05T11:26:14.403Z</time></trkpt><trkpt lat="45.9818295" lon="11.7541849"><ele>309.0</ele><time>2026-04-05T11:26:15.402Z</time></trkpt><trkpt lat="45.9819006" lon="11.7541629"><ele>309.0</ele><time>2026-04-05T11:26:16.403Z</time></trkpt><trkpt lat="45.9819652" lon="11.754131"><ele>309.0</ele><time>2026-04-05T11:26:17.403Z</time></trkpt><trkpt lat="45.9820137" lon="11.7540713"><ele>312.0</ele><time>2026-04-05T11:26:18.402Z</time></trkpt><trkpt lat="45.9820401" lon="11.7539763"><ele>315.0</ele><time>2026-04-05T11:26:19.402Z</time></trkpt><trkpt lat="45.9820454" lon="11.7538527"><ele>318.0</ele><time>2026-04-05T11:26:20.402Z</time></trkpt><trkpt lat="45.9820209" lon="11.7537156"><ele>321.0</ele><time>2026-04-05T11:26:21.402Z</time></trkpt><trkpt lat="45.9819833" lon="11.7535772"><ele>324.0</ele><time>2026-04-05T11:26:22.402Z</time></trkpt><trkpt lat="45.9819459" lon="11.7534388"><ele>325.0</ele><time>2026-04-05T11:26:23.403Z</time></trkpt><trkpt lat="45.9819116" lon="11.7533017"><ele>326.0</ele><time>2026-04-05T11:26:24.403Z</time></trkpt><trkpt lat="45.9818762" lon="11.7531658"><ele>327.0</ele><time>2026-04-05T11:26:25.402Z</time></trkpt><trkpt lat="45.981836" lon="11.7530346"><ele>328.0</ele><time>2026-04-05T11:26:26.403Z</time></trkpt><trkpt lat="45.9817856" lon="11.7529047"><ele>329.0</ele><time>2026-04-05T11:26:27.402Z</time></trkpt><trkpt lat="45.981725" lon="11.7527742"><ele>326.4</ele><time>2026-04-05T11:26:28.403Z</time></trkpt><trkpt lat="45.9816589" lon="11.7526477"><ele>323.79999999999995</ele><time>2026-04-05T11:26:29.402Z</time></trkpt><trkpt lat="45.9815898" lon="11.7525218"><ele>321.20000000000005</ele><time>2026-04-05T11:26:30.403Z</time></trkpt><trkpt lat="45.9815236" lon="11.7523987"><ele>318.6</ele><time>2026-04-05T11:26:31.402Z</time></trkpt><trkpt lat="45.9814623" lon="11.7522694"><ele>316.0</ele><time>2026-04-05T11:26:32.403Z</time></trkpt><trkpt lat="45.981403" lon="11.7521454"><ele>316.0</ele><time>2026-04-05T11:26:33.403Z</time></trkpt><trkpt lat="45.9813528" lon="11.7520304"><ele>316.0</ele><time>2026-04-05T11:26:34.403Z</time></trkpt><trkpt lat="45.9813227" lon="11.751938"><ele>316.0</ele><time>2026-04-05T11:26:35.402Z</time></trkpt><trkpt lat="45.9812902" lon="11.7517422"><ele>316.0</ele><time>2026-04-05T11:26:39.402Z</time></trkpt><trkpt lat="45.9812433" lon="11.7516167"><ele>316.0</ele><time>2026-04-05T11:26:40.403Z</time></trkpt><trkpt lat="45.9811883" lon="11.7514838"><ele>317.8</ele><time>2026-04-05T11:26:41.403Z</time></trkpt><trkpt lat="45.9811355" lon="11.7513529"><ele>319.6</ele><time>2026-04-05T11:26:42.403Z</time></trkpt><trkpt lat="45.9810841" lon="11.7512223"><ele>321.4</ele><time>2026-04-05T11:26:43.403Z</time></trkpt><trkpt lat="45.9810367" lon="11.7510722"><ele>323.2</ele><time>2026-04-05T11:26:44.404Z</time></trkpt><trkpt lat="45.9809943" lon="11.7509124"><ele>325.0</ele><time>2026-04-05T11:26:45.404Z</time></trkpt><trkpt lat="45.9809538" lon="11.7507459"><ele>324.75</ele><time>2026-04-05T11:26:46.403Z</time></trkpt><trkpt lat="45.9809137" lon="11.7505707"><ele>324.5</ele><time>2026-04-05T11:26:47.404Z</time></trkpt><trkpt lat="45.9808756" lon="11.7504016"><ele>324.25</ele><time>2026-04-05T11:26:48.403Z</time></trkpt><trkpt lat="45.9808459" lon="11.750247"><ele>324.0</ele><time>2026-04-05T11:26:49.402Z</time></trkpt><trkpt lat="45.9808314" lon="11.750089"><ele>324.0</ele><time>2026-04-05T11:26:50.403Z</time></trkpt><trkpt lat="45.9808263" lon="11.7499245"><ele>324.0</ele><time>2026-04-05T11:26:51.403Z</time></trkpt><trkpt lat="45.9808228" lon="11.7497638"><ele>324.0</ele><time>2026-04-05T11:26:52.402Z</time></trkpt><trkpt lat="45.9808217" lon="11.7495941"><ele>324.0</ele><time>2026-04-05T11:26:53.404Z</time></trkpt><trkpt lat="45.9808197" lon="11.7494301"><ele>324.75</ele><time>2026-04-05T11:26:54.404Z</time></trkpt><trkpt lat="45.9808255" lon="11.7492551"><ele>325.5</ele><time>2026-04-05T11:26:55.403Z</time></trkpt><trkpt lat="45.9808463" lon="11.7490865"><ele>326.25</ele><time>2026-04-05T11:26:56.404Z</time></trkpt><trkpt lat="45.9808856" lon="11.7489261"><ele>327.0</ele><time>2026-04-05T11:26:57.403Z</time></trkpt><trkpt lat="45.9809542" lon="11.748788"><ele>328.5</ele><time>2026-04-05T11:26:58.402Z</time></trkpt><trkpt lat="45.9810402" lon="11.7486687"><ele>330.0</ele><time>2026-04-05T11:26:59.402Z</time></trkpt><trkpt lat="45.9811428" lon="11.748595"><ele>331.5</ele><time>2026-04-05T11:27:00.403Z</time></trkpt><trkpt lat="45.9812463" lon="11.7485607"><ele>333.0</ele><time>2026-04-05T11:27:01.402Z</time></trkpt><trkpt lat="45.9813975" lon="11.7485521"><ele>333.0</ele><time>2026-04-05T11:27:02.404Z</time></trkpt><trkpt lat="45.9815196" lon="11.7485437"><ele>333.0</ele><time>2026-04-05T11:27:03.403Z</time></trkpt><trkpt lat="45.9816548" lon="11.748526"><ele>333.0</ele><time>2026-04-05T11:27:04.403Z</time></trkpt><trkpt lat="45.9817516" lon="11.7484891"><ele>333.0</ele><time>2026-04-05T11:27:05.402Z</time></trkpt><trkpt lat="45.9818338" lon="11.7484455"><ele>333.0</ele><time>2026-04-05T11:27:06.403Z</time></trkpt><trkpt lat="45.9819041" lon="11.7484096"><ele>332.79999999999995</ele><time>2026-04-05T11:27:07.403Z</time></trkpt><trkpt lat="45.9819795" lon="11.7483742"><ele>332.6</ele><time>2026-04-05T11:27:09.403Z</time></trkpt><trkpt lat="45.982059" lon="11.7485425"><ele>332.4</ele><time>2026-04-05T11:27:13.403Z</time></trkpt><trkpt lat="45.9820854" lon="11.7486459"><ele>332.20000000000005</ele><time>2026-04-05T11:27:14.403Z</time></trkpt><trkpt lat="45.9821099" lon="11.7487655"><ele>332.0</ele><time>2026-04-05T11:27:15.404Z</time></trkpt><trkpt lat="45.9821289" lon="11.7488636"><ele>334.33333333333337</ele><time>2026-04-05T11:27:16.404Z</time></trkpt><trkpt lat="45.9821807" lon="11.748925"><ele>336.6666666666667</ele><time>2026-04-05T11:27:19.403Z</time></trkpt><trkpt lat="45.9822743" lon="11.7489246"><ele>339.0</ele><time>2026-04-05T11:27:22.404Z</time></trkpt><trkpt lat="45.9823518" lon="11.7489289"><ele>341.3333333333333</ele><time>2026-04-05T11:27:25.404Z</time></trkpt><trkpt lat="45.9823828" lon="11.7490333"><ele>343.66666666666663</ele><time>2026-04-05T11:27:28.403Z</time></trkpt><trkpt lat="45.9823348" lon="11.7491512"><ele>346.0</ele><time>2026-04-05T11:27:31.404Z</time></trkpt><trkpt lat="45.9822574" lon="11.7493317"><ele>347.5</ele><time>2026-04-05T11:27:33.403Z</time></trkpt><trkpt lat="45.9822272" lon="11.7494624"><ele>349.0</ele><time>2026-04-05T11:27:34.403Z</time></trkpt><trkpt lat="45.9821835" lon="11.74954"><ele>350.5</ele><time>2026-04-05T11:27:35.404Z</time></trkpt><trkpt lat="45.9821158" lon="11.7495652"><ele>352.0</ele><time>2026-04-05T11:27:37.403Z</time></trkpt><trkpt lat="45.9821631" lon="11.7496407"><ele>353.5</ele><time>2026-04-05T11:27:41.403Z</time></trkpt><trkpt lat="45.9822549" lon="11.749634"><ele>355.0</ele><time>2026-04-05T11:27:43.404Z</time></trkpt><trkpt lat="45.9823183" lon="11.7496204"><ele>355.0</ele><time>2026-04-05T11:27:44.404Z</time></trkpt><trkpt lat="45.9823882" lon="11.7496111"><ele>355.0</ele><time>2026-04-05T11:27:45.403Z</time></trkpt><trkpt lat="45.9824585" lon="11.7496098"><ele>355.0</ele><time>2026-04-05T11:27:46.404Z</time></trkpt><trkpt lat="45.9825445" lon="11.7496477"><ele>355.0</ele><time>2026-04-05T11:27:47.403Z</time></trkpt><trkpt lat="45.9826465" lon="11.7496891"><ele>355.0</ele><time>2026-04-05T11:27:48.403Z</time></trkpt><trkpt lat="45.9827306" lon="11.7497044"><ele>355.0</ele><time>2026-04-05T11:27:49.403Z</time></trkpt><trkpt lat="45.9827969" lon="11.7496735"><ele>356.16666666666663</ele><time>2026-04-05T11:27:50.405Z</time></trkpt><trkpt lat="45.9828557" lon="11.7496097"><ele>357.3333333333333</ele><time>2026-04-05T11:27:51.404Z</time></trkpt><trkpt lat="45.9829002" lon="11.7495285"><ele>358.5</ele><time>2026-04-05T11:27:52.404Z</time></trkpt><trkpt lat="45.9829468" lon="11.7494334"><ele>359.6666666666667</ele><time>2026-04-05T11:27:53.403Z</time></trkpt><trkpt lat="45.9830041" lon="11.7493609"><ele>360.83333333333337</ele><time>2026-04-05T11:27:54.405Z</time></trkpt><trkpt lat="45.9830704" lon="11.7493174"><ele>362.0</ele><time>2026-04-05T11:27:55.403Z</time></trkpt><trkpt lat="45.9831469" lon="11.749294"><ele>362.0</ele><time>2026-04-05T11:27:56.403Z</time></trkpt><trkpt lat="45.9832284" lon="11.7492589"><ele>362.0</ele><time>2026-04-05T11:27:57.403Z</time></trkpt><trkpt lat="45.9833083" lon="11.7491975"><ele>362.0</ele><time>2026-04-05T11:27:58.403Z</time></trkpt><trkpt lat="45.9833668" lon="11.749155"><ele>362.0</ele><time>2026-04-05T11:27:59.404Z</time></trkpt><trkpt lat="45.9834853" lon="11.749122"><ele>362.0</ele><time>2026-04-05T11:28:01.405Z</time></trkpt><trkpt lat="45.9835494" lon="11.7491124"><ele>362.0</ele><time>2026-04-05T11:28:02.404Z</time></trkpt><trkpt lat="45.9836338" lon="11.7490928"><ele>364.8</ele><time>2026-04-05T11:28:04.404Z</time></trkpt><trkpt lat="45.9837024" lon="11.7490962"><ele>367.6</ele><time>2026-04-05T11:28:06.404Z</time></trkpt><trkpt lat="45.9838224" lon="11.7491147"><ele>370.40000000000003</ele><time>2026-04-05T11:28:08.404Z</time></trkpt><trkpt lat="45.9839271" lon="11.7491262"><ele>373.20000000000005</ele><time>2026-04-05T11:28:10.404Z</time></trkpt><trkpt lat="45.9840046" lon="11.7491408"><ele>376.0</ele><time>2026-04-05T11:28:22.404Z</time></trkpt><trkpt lat="45.984047" lon="11.7492366"><ele>376.6</ele><time>2026-04-05T11:28:25.404Z</time></trkpt><trkpt lat="45.9840321" lon="11.7493845"><ele>377.20000000000005</ele><time>2026-04-05T11:28:27.404Z</time></trkpt><trkpt lat="45.9840504" lon="11.7495542"><ele>377.79999999999995</ele><time>2026-04-05T11:28:29.405Z</time></trkpt><trkpt lat="45.9841028" lon="11.7496443"><ele>378.4</ele><time>2026-04-05T11:28:30.404Z</time></trkpt><trkpt lat="45.9841661" lon="11.7496891"><ele>379.0</ele><time>2026-04-05T11:28:31.405Z</time></trkpt><trkpt lat="45.9842604" lon="11.7496229"><ele>382.79999999999995</ele><time>2026-04-05T11:28:33.405Z</time></trkpt><trkpt lat="45.9843249" lon="11.7495264"><ele>386.59999999999997</ele><time>2026-04-05T11:28:35.405Z</time></trkpt><trkpt lat="45.9844137" lon="11.7493889"><ele>390.4</ele><time>2026-04-05T11:28:37.405Z</time></trkpt><trkpt lat="45.9844785" lon="11.7493042"><ele>394.2</ele><time>2026-04-05T11:28:38.405Z</time></trkpt><trkpt lat="45.9845423" lon="11.7492139"><ele>398.0</ele><time>2026-04-05T11:28:39.404Z</time></trkpt><trkpt lat="45.9846104" lon="11.7491304"><ele>398.16666666666663</ele><time>2026-04-05T11:28:40.405Z</time></trkpt><trkpt lat="45.9846963" lon="11.7490491"><ele>398.3333333333333</ele><time>2026-04-05T11:28:41.404Z</time></trkpt><trkpt lat="45.9847802" lon="11.7489873"><ele>398.5</ele><time>2026-04-05T11:28:42.404Z</time></trkpt><trkpt lat="45.9848622" lon="11.7489494"><ele>398.66666666666663</ele><time>2026-04-05T11:28:43.404Z</time></trkpt><trkpt lat="45.9849377" lon="11.7489293"><ele>398.8333333333333</ele><time>2026-04-05T11:28:44.405Z</time></trkpt><trkpt lat="45.985003" lon="11.74893"><ele>399.0</ele><time>2026-04-05T11:28:45.405Z</time></trkpt><trkpt lat="45.9850437" lon="11.7490345"><ele>399.0</ele><time>2026-04-05T11:28:49.404Z</time></trkpt><trkpt lat="45.9850161" lon="11.7491175"><ele>399.0</ele><time>2026-04-05T11:28:50.404Z</time></trkpt><trkpt lat="45.9849979" lon="11.7492139"><ele>399.0</ele><time>2026-04-05T11:28:51.404Z</time></trkpt><trkpt lat="45.9849921" lon="11.7493254"><ele>399.0</ele><time>2026-04-05T11:28:52.404Z</time></trkpt><trkpt lat="45.9850054" lon="11.7494628"><ele>399.0</ele><time>2026-04-05T11:28:53.404Z</time></trkpt><trkpt lat="45.985039" lon="11.749567"><ele>399.0</ele><time>2026-04-05T11:28:54.404Z</time></trkpt><trkpt lat="45.9850709" lon="11.749662"><ele>404.25</ele><time>2026-04-05T11:28:55.404Z</time></trkpt><trkpt lat="45.985165" lon="11.7498789"><ele>409.5</ele><time>2026-04-05T11:28:57.404Z</time></trkpt><trkpt lat="45.9852292" lon="11.7499749"><ele>414.75</ele><time>2026-04-05T11:28:58.405Z</time></trkpt><trkpt lat="45.9853139" lon="11.7500397"><ele>420.0</ele><time>2026-04-05T11:28:59.404Z</time></trkpt><trkpt lat="45.9854064" lon="11.7500859"><ele>420.0</ele><time>2026-04-05T11:29:00.404Z</time></trkpt><trkpt lat="45.9854894" lon="11.7501314"><ele>420.0</ele><time>2026-04-05T11:29:01.404Z</time></trkpt><trkpt lat="45.9855552" lon="11.750163"><ele>420.0</ele><time>2026-04-05T11:29:02.405Z</time></trkpt><trkpt lat="45.9856193" lon="11.7501598"><ele>420.0</ele><time>2026-04-05T11:29:03.404Z</time></trkpt><trkpt lat="45.9856954" lon="11.7501253"><ele>420.0</ele><time>2026-04-05T11:29:04.404Z</time></trkpt><trkpt lat="45.9857758" lon="11.7501121"><ele>420.0</ele><time>2026-04-05T11:29:05.405Z</time></trkpt><trkpt lat="45.9858647" lon="11.7500947"><ele>421.8333333333333</ele><time>2026-04-05T11:29:06.405Z</time></trkpt><trkpt lat="45.9859508" lon="11.7500666"><ele>423.66666666666663</ele><time>2026-04-05T11:29:07.405Z</time></trkpt><trkpt lat="45.9860179" lon="11.7500433"><ele>425.5</ele><time>2026-04-05T11:29:08.406Z</time></trkpt><trkpt lat="45.9860711" lon="11.7499935"><ele>427.3333333333333</ele><time>2026-04-05T11:29:09.404Z</time></trkpt><trkpt lat="45.9861219" lon="11.7499126"><ele>429.16666666666663</ele><time>2026-04-05T11:29:10.405Z</time></trkpt><trkpt lat="45.9861821" lon="11.749818"><ele>431.0</ele><time>2026-04-05T11:29:11.404Z</time></trkpt><trkpt lat="45.9862515" lon="11.7497492"><ele>430.99999999999994</ele><time>2026-04-05T11:29:12.404Z</time></trkpt><trkpt lat="45.986339" lon="11.7497309"><ele>431.0</ele><time>2026-04-05T11:29:13.404Z</time></trkpt><trkpt lat="45.986424" lon="11.7497444"><ele>431.0</ele><time>2026-04-05T11:29:14.406Z</time></trkpt><trkpt lat="45.9865001" lon="11.7497838"><ele>431.0</ele><time>2026-04-05T11:29:15.404Z</time></trkpt><trkpt lat="45.9865762" lon="11.7497834"><ele>430.99999999999994</ele><time>2026-04-05T11:29:16.405Z</time></trkpt><trkpt lat="45.9866496" lon="11.7497659"><ele>431.0</ele><time>2026-04-05T11:29:17.405Z</time></trkpt><trkpt lat="45.9867261" lon="11.749753"><ele>431.0</ele><time>2026-04-05T11:29:18.405Z</time></trkpt><trkpt lat="45.9868027" lon="11.7497524"><ele>431.0</ele><time>2026-04-05T11:29:19.406Z</time></trkpt><trkpt lat="45.9868783" lon="11.7497652"><ele>431.0</ele><time>2026-04-05T11:29:20.405Z</time></trkpt><trkpt lat="45.986951" lon="11.7497641"><ele>431.0</ele><time>2026-04-05T11:29:21.406Z</time></trkpt><trkpt lat="45.9870173" lon="11.749736"><ele>431.0</ele><time>2026-04-05T11:29:22.405Z</time></trkpt><trkpt lat="45.9870879" lon="11.7496922"><ele>431.0</ele><time>2026-04-05T11:29:23.405Z</time></trkpt><trkpt lat="45.9871517" lon="11.7496402"><ele>431.0</ele><time>2026-04-05T11:29:24.405Z</time></trkpt><trkpt lat="45.9872204" lon="11.7495328"><ele>431.0</ele><time>2026-04-05T11:29:25.406Z</time></trkpt><trkpt lat="45.9872883" lon="11.749455"><ele>431.0</ele><time>2026-04-05T11:29:26.405Z</time></trkpt><trkpt lat="45.9873668" lon="11.749387"><ele>431.0</ele><time>2026-04-05T11:29:27.406Z</time></trkpt><trkpt lat="45.9874343" lon="11.7492982"><ele>431.0</ele><time>2026-04-05T11:29:28.405Z</time></trkpt><trkpt lat="45.9875008" lon="11.7491921"><ele>431.0</ele><time>2026-04-05T11:29:29.405Z</time></trkpt><trkpt lat="45.9875457" lon="11.7490659"><ele>435.20000000000005</ele><time>2026-04-05T11:29:30.406Z</time></trkpt><trkpt lat="45.9875752" lon="11.748969"><ele>439.40000000000003</ele><time>2026-04-05T11:29:31.404Z</time></trkpt><trkpt lat="45.987609" lon="11.7488527"><ele>443.6</ele><time>2026-04-05T11:29:32.404Z</time></trkpt><trkpt lat="45.987655" lon="11.7487147"><ele>447.8</ele><time>2026-04-05T11:29:33.406Z</time></trkpt><trkpt lat="45.9877133" lon="11.7485982"><ele>452.0</ele><time>2026-04-05T11:29:34.406Z</time></trkpt><trkpt lat="45.9877932" lon="11.748491"><ele>454.5</ele><time>2026-04-05T11:29:35.406Z</time></trkpt><trkpt lat="45.9878893" lon="11.7484047"><ele>457.0</ele><time>2026-04-05T11:29:36.406Z</time></trkpt><trkpt lat="45.9880008" lon="11.7483282"><ele>459.5</ele><time>2026-04-05T11:29:37.406Z</time></trkpt><trkpt lat="45.9881161" lon="11.7482571"><ele>462.0</ele><time>2026-04-05T11:29:38.405Z</time></trkpt><trkpt lat="45.9882304" lon="11.7481803"><ele>465.0</ele><time>2026-04-05T11:29:39.405Z</time></trkpt><trkpt lat="45.9883497" lon="11.7480945"><ele>468.0</ele><time>2026-04-05T11:29:40.406Z</time></trkpt><trkpt lat="45.9884579" lon="11.7480143"><ele>471.0</ele><time>2026-04-05T11:29:41.405Z</time></trkpt><trkpt lat="45.9885652" lon="11.7479387"><ele>474.0</ele><time>2026-04-05T11:29:42.405Z</time></trkpt><trkpt lat="45.9886688" lon="11.7478675"><ele>474.0</ele><time>2026-04-05T11:29:43.405Z</time></trkpt><trkpt lat="45.9887641" lon="11.7477945"><ele>474.0</ele><time>2026-04-05T11:29:44.406Z</time></trkpt><trkpt lat="45.9888612" lon="11.7477233"><ele>474.0</ele><time>2026-04-05T11:29:45.405Z</time></trkpt><trkpt lat="45.9889552" lon="11.7476561"><ele>474.0</ele><time>2026-04-05T11:29:46.405Z</time></trkpt><trkpt lat="45.989044" lon="11.7475916"><ele>474.0</ele><time>2026-04-05T11:29:47.405Z</time></trkpt><trkpt lat="45.9891272" lon="11.747524"><ele>472.6</ele><time>2026-04-05T11:29:48.405Z</time></trkpt><trkpt lat="45.9892025" lon="11.7474504"><ele>471.2</ele><time>2026-04-05T11:29:49.406Z</time></trkpt><trkpt lat="45.989281" lon="11.7473782"><ele>469.80000000000007</ele><time>2026-04-05T11:29:50.406Z</time></trkpt><trkpt lat="45.9893593" lon="11.7472979"><ele>468.40000000000003</ele><time>2026-04-05T11:29:51.406Z</time></trkpt><trkpt lat="45.9894345" lon="11.7472252"><ele>467.0</ele><time>2026-04-05T11:29:52.406Z</time></trkpt><trkpt lat="45.9895073" lon="11.7471622"><ele>467.0</ele><time>2026-04-05T11:29:53.406Z</time></trkpt><trkpt lat="45.989574" lon="11.7470981"><ele>467.00000000000006</ele><time>2026-04-05T11:29:54.406Z</time></trkpt><trkpt lat="45.9896347" lon="11.7470244"><ele>467.00000000000006</ele><time>2026-04-05T11:29:55.406Z</time></trkpt><trkpt lat="45.9896724" lon="11.7469229"><ele>467.0</ele><time>2026-04-05T11:29:56.405Z</time></trkpt><trkpt lat="45.9896915" lon="11.7467603"><ele>467.0</ele><time>2026-04-05T11:29:57.405Z</time></trkpt><trkpt lat="45.9897204" lon="11.7466292"><ele>467.40000000000003</ele><time>2026-04-05T11:29:58.406Z</time></trkpt><trkpt lat="45.989778" lon="11.7465197"><ele>467.80000000000007</ele><time>2026-04-05T11:29:59.406Z</time></trkpt><trkpt lat="45.98985" lon="11.746419"><ele>468.2</ele><time>2026-04-05T11:30:00.405Z</time></trkpt><trkpt lat="45.9899208" lon="11.7463108"><ele>468.6</ele><time>2026-04-05T11:30:01.405Z</time></trkpt><trkpt lat="45.9900035" lon="11.7462009"><ele>469.0</ele><time>2026-04-05T11:30:02.406Z</time></trkpt><trkpt lat="45.9900902" lon="11.7460795"><ele>470.00000000000006</ele><time>2026-04-05T11:30:03.406Z</time></trkpt><trkpt lat="45.9901332" lon="11.7459446"><ele>471.0</ele><time>2026-04-05T11:30:04.406Z</time></trkpt><trkpt lat="45.9901589" lon="11.7458041"><ele>472.0</ele><time>2026-04-05T11:30:05.407Z</time></trkpt><trkpt lat="45.9901703" lon="11.7456753"><ele>473.0</ele><time>2026-04-05T11:30:06.406Z</time></trkpt><trkpt lat="45.9901866" lon="11.745571"><ele>474.00000000000006</ele><time>2026-04-05T11:30:07.406Z</time></trkpt><trkpt lat="45.9902145" lon="11.7454847"><ele>475.0</ele><time>2026-04-05T11:30:08.406Z</time></trkpt><trkpt lat="45.990287" lon="11.7453787"><ele>475.0</ele><time>2026-04-05T11:30:10.405Z</time></trkpt><trkpt lat="45.9903684" lon="11.7453617"><ele>475.0</ele><time>2026-04-05T11:30:12.407Z</time></trkpt><trkpt lat="45.9904456" lon="11.7454647"><ele>475.0</ele><time>2026-04-05T11:30:14.406Z</time></trkpt><trkpt lat="45.9905036" lon="11.7456153"><ele>475.0</ele><time>2026-04-05T11:30:15.407Z</time></trkpt><trkpt lat="45.99053" lon="11.7457595"><ele>475.0</ele><time>2026-04-05T11:30:16.406Z</time></trkpt><trkpt lat="45.9905538" lon="11.7458877"><ele>475.00000000000006</ele><time>2026-04-05T11:30:17.406Z</time></trkpt><trkpt lat="45.9905724" lon="11.7459926"><ele>475.0</ele><time>2026-04-05T11:30:18.407Z</time></trkpt><trkpt lat="45.9905925" lon="11.7460996"><ele>475.0</ele><time>2026-04-05T11:30:19.407Z</time></trkpt><trkpt lat="45.9906292" lon="11.7462318"><ele>475.0</ele><time>2026-04-05T11:30:20.405Z</time></trkpt><trkpt lat="45.9906768" lon="11.7463341"><ele>475.00000000000006</ele><time>2026-04-05T11:30:21.406Z</time></trkpt><trkpt lat="45.9907318" lon="11.7464238"><ele>475.0</ele><time>2026-04-05T11:30:22.406Z</time></trkpt><trkpt lat="45.9908095" lon="11.7464646"><ele>474.83333333333337</ele><time>2026-04-05T11:30:23.407Z</time></trkpt><trkpt lat="45.9908915" lon="11.7464553"><ele>474.6666666666667</ele><time>2026-04-05T11:30:24.406Z</time></trkpt><trkpt lat="45.9909717" lon="11.7464089"><ele>474.5</ele><time>2026-04-05T11:30:25.405Z</time></trkpt><trkpt lat="45.9910429" lon="11.746338"><ele>474.33333333333337</ele><time>2026-04-05T11:30:26.407Z</time></trkpt><trkpt lat="45.9911113" lon="11.7462636"><ele>474.1666666666667</ele><time>2026-04-05T11:30:27.406Z</time></trkpt><trkpt lat="45.9911828" lon="11.7462026"><ele>474.0</ele><time>2026-04-05T11:30:28.405Z</time></trkpt><trkpt lat="45.9912532" lon="11.7461565"><ele>474.0</ele><time>2026-04-05T11:30:29.407Z</time></trkpt><trkpt lat="45.9913325" lon="11.746166"><ele>474.0</ele><time>2026-04-05T11:30:30.406Z</time></trkpt><trkpt lat="45.9914144" lon="11.7461961"><ele>474.0</ele><time>2026-04-05T11:30:31.407Z</time></trkpt><trkpt lat="45.9914931" lon="11.7462429"><ele>474.0</ele><time>2026-04-05T11:30:32.407Z</time></trkpt><trkpt lat="45.9915719" lon="11.7462984"><ele>474.0</ele><time>2026-04-05T11:30:33.406Z</time></trkpt><trkpt lat="45.9916498" lon="11.7463612"><ele>474.0</ele><time>2026-04-05T11:30:34.407Z</time></trkpt><trkpt lat="45.9917317" lon="11.7464272"><ele>476.6</ele><time>2026-04-05T11:30:35.406Z</time></trkpt><trkpt lat="45.9918161" lon="11.7464877"><ele>479.2</ele><time>2026-04-05T11:30:36.405Z</time></trkpt><trkpt lat="45.9919001" lon="11.7465454"><ele>481.80000000000007</ele><time>2026-04-05T11:30:37.407Z</time></trkpt><trkpt lat="45.9919829" lon="11.7466008"><ele>484.40000000000003</ele><time>2026-04-05T11:30:38.406Z</time></trkpt><trkpt lat="45.9920614" lon="11.7466634"><ele>487.0</ele><time>2026-04-05T11:30:39.406Z</time></trkpt><trkpt lat="45.9921385" lon="11.7467333"><ele>487.0</ele><time>2026-04-05T11:30:40.406Z</time></trkpt><trkpt lat="45.9922123" lon="11.7468093"><ele>487.00000000000006</ele><time>2026-04-05T11:30:41.407Z</time></trkpt><trkpt lat="45.9922815" lon="11.7468959"><ele>487.00000000000006</ele><time>2026-04-05T11:30:42.406Z</time></trkpt><trkpt lat="45.9923446" lon="11.7469935"><ele>487.0</ele><time>2026-04-05T11:30:43.406Z</time></trkpt><trkpt lat="45.992399" lon="11.7471027"><ele>487.0</ele><time>2026-04-05T11:30:44.406Z</time></trkpt><trkpt lat="45.9924415" lon="11.7472258"><ele>486.8</ele><time>2026-04-05T11:30:45.407Z</time></trkpt><trkpt lat="45.9924677" lon="11.7473614"><ele>486.6</ele><time>2026-04-05T11:30:46.407Z</time></trkpt><trkpt lat="45.9924812" lon="11.7475019"><ele>486.40000000000003</ele><time>2026-04-05T11:30:47.407Z</time></trkpt><trkpt lat="45.9924856" lon="11.7476451"><ele>486.20000000000005</ele><time>2026-04-05T11:30:48.406Z</time></trkpt><trkpt lat="45.9924853" lon="11.747788"><ele>486.0</ele><time>2026-04-05T11:30:49.407Z</time></trkpt><trkpt lat="45.992481" lon="11.7479287"><ele>486.4</ele><time>2026-04-05T11:30:50.407Z</time></trkpt><trkpt lat="45.9924722" lon="11.7480675"><ele>486.8</ele><time>2026-04-05T11:30:51.406Z</time></trkpt><trkpt lat="45.9924567" lon="11.7482046"><ele>487.19999999999993</ele><time>2026-04-05T11:30:52.407Z</time></trkpt><trkpt lat="45.9924325" lon="11.748341"><ele>487.59999999999997</ele><time>2026-04-05T11:30:53.407Z</time></trkpt><trkpt lat="45.9924027" lon="11.7484791"><ele>488.0</ele><time>2026-04-05T11:30:54.408Z</time></trkpt><trkpt lat="45.992369" lon="11.7486177"><ele>490.2</ele><time>2026-04-05T11:30:55.407Z</time></trkpt><trkpt lat="45.9923389" lon="11.7487591"><ele>492.4</ele><time>2026-04-05T11:30:56.408Z</time></trkpt><trkpt lat="45.9923162" lon="11.748905"><ele>494.59999999999997</ele><time>2026-04-05T11:30:57.407Z</time></trkpt><trkpt lat="45.992301" lon="11.7490564"><ele>496.79999999999995</ele><time>2026-04-05T11:30:58.406Z</time></trkpt><trkpt lat="45.9922883" lon="11.7492091"><ele>499.0</ele><time>2026-04-05T11:30:59.406Z</time></trkpt><trkpt lat="45.9922751" lon="11.7493625"><ele>501.0</ele><time>2026-04-05T11:31:00.407Z</time></trkpt><trkpt lat="45.9922569" lon="11.7495141"><ele>503.0</ele><time>2026-04-05T11:31:01.407Z</time></trkpt><trkpt lat="45.9922274" lon="11.7496561"><ele>505.0</ele><time>2026-04-05T11:31:02.407Z</time></trkpt><trkpt lat="45.9921896" lon="11.7497903"><ele>507.0</ele><time>2026-04-05T11:31:03.406Z</time></trkpt><trkpt lat="45.9921525" lon="11.749919"><ele>509.0</ele><time>2026-04-05T11:31:04.408Z</time></trkpt><trkpt lat="45.9921185" lon="11.7500567"><ele>509.0</ele><time>2026-04-05T11:31:05.406Z</time></trkpt><trkpt lat="45.9920871" lon="11.7502041"><ele>509.0</ele><time>2026-04-05T11:31:06.406Z</time></trkpt><trkpt lat="45.992055" lon="11.7503622"><ele>509.0</ele><time>2026-04-05T11:31:07.406Z</time></trkpt><trkpt lat="45.99202" lon="11.7504917"><ele>509.0</ele><time>2026-04-05T11:31:08.406Z</time></trkpt><trkpt lat="45.9919661" lon="11.7505871"><ele>509.0</ele><time>2026-04-05T11:31:09.407Z</time></trkpt><trkpt lat="45.9918896" lon="11.7506599"><ele>509.0</ele><time>2026-04-05T11:31:10.407Z</time></trkpt><trkpt lat="45.9918035" lon="11.7507359"><ele>509.0</ele><time>2026-04-05T11:31:11.406Z</time></trkpt><trkpt lat="45.991716" lon="11.7508397"><ele>509.0</ele><time>2026-04-05T11:31:12.407Z</time></trkpt><trkpt lat="45.991645" lon="11.7509636"><ele>509.0</ele><time>2026-04-05T11:31:13.407Z</time></trkpt><trkpt lat="45.9915943" lon="11.7511163"><ele>509.0</ele><time>2026-04-05T11:31:14.407Z</time></trkpt><trkpt lat="45.9915522" lon="11.7512764"><ele>509.0</ele><time>2026-04-05T11:31:15.406Z</time></trkpt><trkpt lat="45.9915121" lon="11.7514473"><ele>509.0</ele><time>2026-04-05T11:31:16.408Z</time></trkpt><trkpt lat="45.991466" lon="11.7516154"><ele>509.0</ele><time>2026-04-05T11:31:17.406Z</time></trkpt><trkpt lat="45.99141" lon="11.7517703"><ele>509.0</ele><time>2026-04-05T11:31:18.407Z</time></trkpt><trkpt lat="45.9913537" lon="11.7519159"><ele>513.25</ele><time>2026-04-05T11:31:19.408Z</time></trkpt><trkpt lat="45.9913028" lon="11.7520648"><ele>517.5</ele><time>2026-04-05T11:31:20.407Z</time></trkpt><trkpt lat="45.9912646" lon="11.7522169"><ele>521.75</ele><time>2026-04-05T11:31:21.407Z</time></trkpt><trkpt lat="45.9912259" lon="11.752375"><ele>526.0</ele><time>2026-04-05T11:31:22.406Z</time></trkpt><trkpt lat="45.9911994" lon="11.7525362"><ele>526.0</ele><time>2026-04-05T11:31:23.407Z</time></trkpt><trkpt lat="45.9911866" lon="11.7526968"><ele>526.0</ele><time>2026-04-05T11:31:24.408Z</time></trkpt><trkpt lat="45.9911878" lon="11.75286"><ele>526.0</ele><time>2026-04-05T11:31:25.406Z</time></trkpt><trkpt lat="45.9912003" lon="11.7530201"><ele>526.0</ele><time>2026-04-05T11:31:26.408Z</time></trkpt><trkpt lat="45.9912367" lon="11.7531915"><ele>526.0</ele><time>2026-04-05T11:31:27.407Z</time></trkpt><trkpt lat="45.9912915" lon="11.7533588"><ele>526.0</ele><time>2026-04-05T11:31:28.406Z</time></trkpt><trkpt lat="45.9913538" lon="11.7535251"><ele>526.0</ele><time>2026-04-05T11:31:29.407Z</time></trkpt><trkpt lat="45.9914108" lon="11.7537041"><ele>526.0</ele><time>2026-04-05T11:31:30.406Z</time></trkpt><trkpt lat="45.99144" lon="11.7538888"><ele>525.0</ele><time>2026-04-05T11:31:31.408Z</time></trkpt><trkpt lat="45.9914312" lon="11.7540808"><ele>524.0</ele><time>2026-04-05T11:31:32.408Z</time></trkpt><trkpt lat="45.9914163" lon="11.7542627"><ele>523.0</ele><time>2026-04-05T11:31:33.407Z</time></trkpt><trkpt lat="45.9914096" lon="11.7544292"><ele>522.0</ele><time>2026-04-05T11:31:34.407Z</time></trkpt><trkpt lat="45.9914272" lon="11.7545882"><ele>520.8000000000001</ele><time>2026-04-05T11:31:35.408Z</time></trkpt><trkpt lat="45.9914783" lon="11.7547366"><ele>519.6</ele><time>2026-04-05T11:31:36.407Z</time></trkpt><trkpt lat="45.9915337" lon="11.7548626"><ele>518.4000000000001</ele><time>2026-04-05T11:31:37.407Z</time></trkpt><trkpt lat="45.9916093" lon="11.7549519"><ele>517.2</ele><time>2026-04-05T11:31:38.406Z</time></trkpt><trkpt lat="45.9917002" lon="11.7550108"><ele>516.0</ele><time>2026-04-05T11:31:39.406Z</time></trkpt><trkpt lat="45.9917978" lon="11.7550525"><ele>520.2</ele><time>2026-04-05T11:31:40.408Z</time></trkpt><trkpt lat="45.9918891" lon="11.7550992"><ele>524.4000000000001</ele><time>2026-04-05T11:31:41.407Z</time></trkpt><trkpt lat="45.9919791" lon="11.7551493"><ele>528.6</ele><time>2026-04-05T11:31:42.407Z</time></trkpt><trkpt lat="45.9920708" lon="11.7552312"><ele>532.8000000000001</ele><time>2026-04-05T11:31:43.408Z</time></trkpt><trkpt lat="45.9921419" lon="11.7553065"><ele>537.0</ele><time>2026-04-05T11:31:44.407Z</time></trkpt><trkpt lat="45.9922048" lon="11.7553733"><ele>537.0</ele><time>2026-04-05T11:31:45.408Z</time></trkpt><trkpt lat="45.9922639" lon="11.7554169"><ele>537.0</ele><time>2026-04-05T11:31:46.409Z</time></trkpt><trkpt lat="45.9923713" lon="11.7554028"><ele>537.0</ele><time>2026-04-05T11:31:48.408Z</time></trkpt><trkpt lat="45.9924641" lon="11.7553138"><ele>537.0</ele><time>2026-04-05T11:31:50.408Z</time></trkpt><trkpt lat="45.9924882" lon="11.7551719"><ele>537.0</ele><time>2026-04-05T11:31:52.408Z</time></trkpt><trkpt lat="45.9924712" lon="11.7550562"><ele>537.0</ele><time>2026-04-05T11:31:53.407Z</time></trkpt><trkpt lat="45.9924409" lon="11.7549163"><ele>537.0</ele><time>2026-04-05T11:31:54.408Z</time></trkpt><trkpt lat="45.9924246" lon="11.7547562"><ele>537.0</ele><time>2026-04-05T11:31:55.407Z</time></trkpt><trkpt lat="45.9924189" lon="11.7546036"><ele>537.0</ele><time>2026-04-05T11:31:56.407Z</time></trkpt><trkpt lat="45.9924363" lon="11.7544975"><ele>537.0</ele><time>2026-04-05T11:31:57.408Z</time></trkpt><trkpt lat="45.9925215" lon="11.7543701"><ele>543.2</ele><time>2026-04-05T11:31:59.409Z</time></trkpt><trkpt lat="45.9925963" lon="11.7543304"><ele>549.4000000000001</ele><time>2026-04-05T11:32:00.409Z</time></trkpt><trkpt lat="45.9926922" lon="11.7542835"><ele>555.5999999999999</ele><time>2026-04-05T11:32:01.408Z</time></trkpt><trkpt lat="45.992761" lon="11.7541764"><ele>561.8</ele><time>2026-04-05T11:32:02.407Z</time></trkpt><trkpt lat="45.992791" lon="11.7540701"><ele>568.0</ele><time>2026-04-05T11:32:03.408Z</time></trkpt><trkpt lat="45.9927969" lon="11.7539136"><ele>568.0</ele><time>2026-04-05T11:32:04.407Z</time></trkpt><trkpt lat="45.9928079" lon="11.7537216"><ele>568.0</ele><time>2026-04-05T11:32:05.408Z</time></trkpt><trkpt lat="45.9928184" lon="11.7534978"><ele>568.0</ele><time>2026-04-05T11:32:06.407Z</time></trkpt><trkpt lat="45.9928162" lon="11.7533004"><ele>568.0</ele><time>2026-04-05T11:32:07.408Z</time></trkpt><trkpt lat="45.9927989" lon="11.7531543"><ele>568.0</ele><time>2026-04-05T11:32:08.407Z</time></trkpt><trkpt lat="45.9928624" lon="11.7531257"><ele>568.0</ele><time>2026-04-05T11:32:12.408Z</time></trkpt><trkpt lat="45.9929692" lon="11.7532696"><ele>568.0</ele><time>2026-04-05T11:32:14.407Z</time></trkpt><trkpt lat="45.9930322" lon="11.7534173"><ele>568.0</ele><time>2026-04-05T11:32:15.408Z</time></trkpt><trkpt lat="45.9930825" lon="11.7535387"><ele>568.0</ele><time>2026-04-05T11:32:16.407Z</time></trkpt><trkpt lat="45.9931149" lon="11.7536265"><ele>568.0</ele><time>2026-04-05T11:32:17.408Z</time></trkpt><trkpt lat="45.9931578" lon="11.7537734"><ele>568.0</ele><time>2026-04-05T11:32:19.407Z</time></trkpt><trkpt lat="45.9931644" lon="11.7538721"><ele>568.0</ele><time>2026-04-05T11:32:21.407Z</time></trkpt><trkpt lat="45.9931615" lon="11.7539982"><ele>568.0</ele><time>2026-04-05T11:32:23.408Z</time></trkpt><trkpt lat="45.9931746" lon="11.7541399"><ele>568.0</ele><time>2026-04-05T11:32:25.407Z</time></trkpt><trkpt lat="45.9932242" lon="11.7542987"><ele>567.8333333333334</ele><time>2026-04-05T11:32:27.407Z</time></trkpt><trkpt lat="45.9932519" lon="11.7543937"><ele>567.6666666666667</ele><time>2026-04-05T11:32:28.407Z</time></trkpt><trkpt lat="45.9932874" lon="11.7545408"><ele>567.5</ele><time>2026-04-05T11:32:30.408Z</time></trkpt><trkpt lat="45.9933016" lon="11.7546515"><ele>567.3333333333334</ele><time>2026-04-05T11:32:33.407Z</time></trkpt><trkpt lat="45.99333" lon="11.7547485"><ele>567.1666666666666</ele><time>2026-04-05T11:32:36.408Z</time></trkpt><trkpt lat="45.9933783" lon="11.7548533"><ele>567.0</ele><time>2026-04-05T11:32:38.408Z</time></trkpt><trkpt lat="45.9934625" lon="11.754921"><ele>573.5</ele><time>2026-04-05T11:32:40.407Z</time></trkpt><trkpt lat="45.9935414" lon="11.7549705"><ele>580.0</ele><time>2026-04-05T11:32:41.408Z</time></trkpt><trkpt lat="45.9936032" lon="11.7549977"><ele>586.5</ele><time>2026-04-05T11:32:42.407Z</time></trkpt><trkpt lat="45.9936738" lon="11.7550264"><ele>593.0</ele><time>2026-04-05T11:32:44.408Z</time></trkpt><trkpt lat="45.9935905" lon="11.7550685"><ele>599.5</ele><time>2026-04-05T11:32:48.407Z</time></trkpt><trkpt lat="45.9935713" lon="11.7551788"><ele>606.0</ele><time>2026-04-05T11:32:51.409Z</time></trkpt><trkpt lat="45.9935626" lon="11.7553028"><ele>606.3333333333334</ele><time>2026-04-05T11:32:54.407Z</time></trkpt><trkpt lat="45.993556" lon="11.7554179"><ele>606.6666666666666</ele><time>2026-04-05T11:32:56.408Z</time></trkpt><trkpt lat="45.9935755" lon="11.7555499"><ele>607.0</ele><time>2026-04-05T11:32:58.408Z</time></trkpt><trkpt lat="45.993597" lon="11.7556403"><ele>607.3333333333333</ele><time>2026-04-05T11:32:59.409Z</time></trkpt><trkpt lat="45.9936156" lon="11.755749"><ele>607.6666666666666</ele><time>2026-04-05T11:33:00.408Z</time></trkpt><trkpt lat="45.9936321" lon="11.7558502"><ele>608.0</ele><time>2026-04-05T11:33:01.408Z</time></trkpt><trkpt lat="45.9936567" lon="11.7559646"><ele>608.0</ele><time>2026-04-05T11:33:02.409Z</time></trkpt><trkpt lat="45.993682" lon="11.756081"><ele>608.0</ele><time>2026-04-05T11:33:03.408Z</time></trkpt><trkpt lat="45.993706" lon="11.7561886"><ele>608.0</ele><time>2026-04-05T11:33:04.409Z</time></trkpt><trkpt lat="45.9937336" lon="11.7562957"><ele>608.0</ele><time>2026-04-05T11:33:05.408Z</time></trkpt><trkpt lat="45.9937551" lon="11.7563945"><ele>608.0</ele><time>2026-04-05T11:33:06.409Z</time></trkpt><trkpt lat="45.9937839" lon="11.7564962"><ele>608.0</ele><time>2026-04-05T11:33:07.408Z</time></trkpt><trkpt lat="45.9938123" lon="11.7565996"><ele>608.0</ele><time>2026-04-05T11:33:08.408Z</time></trkpt><trkpt lat="45.993839" lon="11.7567029"><ele>608.0</ele><time>2026-04-05T11:33:09.409Z</time></trkpt><trkpt lat="45.9938643" lon="11.7568016"><ele>608.0</ele><time>2026-04-05T11:33:10.409Z</time></trkpt><trkpt lat="45.9938906" lon="11.7569015"><ele>608.0</ele><time>2026-04-05T11:33:11.409Z</time></trkpt><trkpt lat="45.9939221" lon="11.756999"><ele>608.0</ele><time>2026-04-05T11:33:12.408Z</time></trkpt><trkpt lat="45.9939568" lon="11.7570834"><ele>608.0</ele><time>2026-04-05T11:33:13.408Z</time></trkpt><trkpt lat="45.9940112" lon="11.7572125"><ele>608.0</ele><time>2026-04-05T11:33:15.408Z</time></trkpt><trkpt lat="45.994091" lon="11.757303"><ele>608.0</ele><time>2026-04-05T11:33:17.408Z</time></trkpt><trkpt lat="45.9941542" lon="11.7572299"><ele>608.0</ele><time>2026-04-05T11:33:21.409Z</time></trkpt><trkpt lat="45.9941524" lon="11.7570987"><ele>608.0</ele><time>2026-04-05T11:33:22.409Z</time></trkpt><trkpt lat="45.9941512" lon="11.7568865"><ele>608.0</ele><time>2026-04-05T11:33:23.409Z</time></trkpt><trkpt lat="45.994158" lon="11.7566219"><ele>608.0</ele><time>2026-04-05T11:33:24.409Z</time></trkpt><trkpt lat="45.9941651" lon="11.7564023"><ele>608.0</ele><time>2026-04-05T11:33:25.408Z</time></trkpt><trkpt lat="45.9941768" lon="11.7562316"><ele>608.0</ele><time>2026-04-05T11:33:26.408Z</time></trkpt><trkpt lat="45.9941885" lon="11.7561327"><ele>608.0</ele><time>2026-04-05T11:33:27.409Z</time></trkpt><trkpt lat="45.9942456" lon="11.7560447"><ele>608.0</ele><time>2026-04-05T11:33:29.408Z</time></trkpt><trkpt lat="45.9942777" lon="11.7559214"><ele>613.6666666666666</ele><time>2026-04-05T11:33:31.409Z</time></trkpt><trkpt lat="45.9943108" lon="11.7557678"><ele>619.3333333333333</ele><time>2026-04-05T11:33:33.409Z</time></trkpt><trkpt lat="45.9943642" lon="11.7557188"><ele>625.0</ele><time>2026-04-05T11:33:35.408Z</time></trkpt><trkpt lat="45.994431" lon="11.755677"><ele>630.6666666666666</ele><time>2026-04-05T11:33:37.408Z</time></trkpt><trkpt lat="45.9945255" lon="11.7556693"><ele>636.3333333333334</ele><time>2026-04-05T11:33:40.408Z</time></trkpt><trkpt lat="45.9946166" lon="11.7556751"><ele>642.0</ele><time>2026-04-05T11:33:42.409Z</time></trkpt><trkpt lat="45.9947002" lon="11.7556422"><ele>642.0</ele><time>2026-04-05T11:33:44.409Z</time></trkpt><trkpt lat="45.9946469" lon="11.7557133"><ele>642.0</ele><time>2026-04-05T11:33:50.41Z</time></trkpt><trkpt lat="45.9945983" lon="11.755805"><ele>642.0</ele><time>2026-04-05T11:33:53.409Z</time></trkpt><trkpt lat="45.9945951" lon="11.7559107"><ele>642.0</ele><time>2026-04-05T11:33:55.41Z</time></trkpt><trkpt lat="45.9946031" lon="11.7560454"><ele>642.0</ele><time>2026-04-05T11:33:57.408Z</time></trkpt><trkpt lat="45.9946398" lon="11.756191"><ele>642.0</ele><time>2026-04-05T11:33:59.409Z</time></trkpt><trkpt lat="45.9946772" lon="11.7562799"><ele>642.2</ele><time>2026-04-05T11:34:01.409Z</time></trkpt><trkpt lat="45.9947398" lon="11.7563386"><ele>642.4000000000001</ele><time>2026-04-05T11:34:03.41Z</time></trkpt><trkpt lat="45.9948397" lon="11.756425"><ele>642.5999999999999</ele><time>2026-04-05T11:34:05.409Z</time></trkpt><trkpt lat="45.9949116" lon="11.7565208"><ele>642.8</ele><time>2026-04-05T11:34:07.409Z</time></trkpt><trkpt lat="45.9949549" lon="11.75662"><ele>643.0</ele><time>2026-04-05T11:34:09.409Z</time></trkpt><trkpt lat="45.9949983" lon="11.7567643"><ele>647.6666666666667</ele><time>2026-04-05T11:34:11.409Z</time></trkpt><trkpt lat="45.9950181" lon="11.7568532"><ele>652.3333333333334</ele><time>2026-04-05T11:34:12.409Z</time></trkpt><trkpt lat="45.9950336" lon="11.7569415"><ele>657.0</ele><time>2026-04-05T11:34:13.41Z</time></trkpt><trkpt lat="45.9950593" lon="11.7570529"><ele>661.6666666666666</ele><time>2026-04-05T11:34:14.409Z</time></trkpt><trkpt lat="45.9950936" lon="11.7571703"><ele>666.3333333333333</ele><time>2026-04-05T11:34:15.41Z</time></trkpt><trkpt lat="45.995126" lon="11.7573006"><ele>671.0</ele><time>2026-04-05T11:34:18.409Z</time></trkpt><trkpt lat="45.9951806" lon="11.7574035"><ele>671.0</ele><time>2026-04-05T11:34:20.409Z</time></trkpt><trkpt lat="45.9952365" lon="11.7574817"><ele>671.0</ele><time>2026-04-05T11:34:23.409Z</time></trkpt><trkpt lat="45.9952934" lon="11.7575715"><ele>671.0</ele><time>2026-04-05T11:34:26.409Z</time></trkpt><trkpt lat="45.995349" lon="11.7576193"><ele>671.0</ele><time>2026-04-05T11:34:28.409Z</time></trkpt><trkpt lat="45.9953701" lon="11.7577516"><ele>671.0</ele><time>2026-04-05T11:34:31.41Z</time></trkpt><trkpt lat="45.9953918" lon="11.7578577"><ele>671.0</ele><time>2026-04-05T11:34:33.41Z</time></trkpt><trkpt lat="45.9954468" lon="11.7579885"><ele>668.5999999999999</ele><time>2026-04-05T11:34:35.41Z</time></trkpt><trkpt lat="45.9955009" lon="11.7581572"><ele>666.2</ele><time>2026-04-05T11:34:37.409Z</time></trkpt><trkpt lat="45.9955331" lon="11.7582474"><ele>663.8</ele><time>2026-04-05T11:34:38.409Z</time></trkpt><trkpt lat="45.9955787" lon="11.7583849"><ele>661.4000000000001</ele><time>2026-04-05T11:34:40.409Z</time></trkpt><trkpt lat="45.9955808" lon="11.7585002"><ele>659.0</ele><time>2026-04-05T11:34:43.41Z</time></trkpt><trkpt lat="45.9956234" lon="11.7586299"><ele>656.2</ele><time>2026-04-05T11:34:45.41Z</time></trkpt><trkpt lat="45.9956714" lon="11.7587905"><ele>653.4000000000001</ele><time>2026-04-05T11:34:47.409Z</time></trkpt><trkpt lat="45.9956868" lon="11.7588847"><ele>650.6</ele><time>2026-04-05T11:34:48.411Z</time></trkpt><trkpt lat="45.9957104" lon="11.7589883"><ele>647.8</ele><time>2026-04-05T11:34:49.409Z</time></trkpt><trkpt lat="45.9957407" lon="11.7590965"><ele>645.0</ele><time>2026-04-05T11:34:50.41Z</time></trkpt><trkpt lat="45.995766" lon="11.7592485"><ele>645.0</ele><time>2026-04-05T11:34:52.411Z</time></trkpt><trkpt lat="45.9957664" lon="11.7593448"><ele>645.0</ele><time>2026-04-05T11:34:53.41Z</time></trkpt><trkpt lat="45.9957804" lon="11.7594633"><ele>645.0</ele><time>2026-04-05T11:34:54.409Z</time></trkpt><trkpt lat="45.9957981" lon="11.7595845"><ele>645.0</ele><time>2026-04-05T11:34:55.41Z</time></trkpt><trkpt lat="45.9958219" lon="11.7596946"><ele>645.0</ele><time>2026-04-05T11:34:56.41Z</time></trkpt><trkpt lat="45.9958471" lon="11.7597965"><ele>645.0</ele><time>2026-04-05T11:34:57.41Z</time></trkpt><trkpt lat="45.995865" lon="11.7599023"><ele>648.0</ele><time>2026-04-05T11:34:58.411Z</time></trkpt><trkpt lat="45.9958709" lon="11.7600056"><ele>651.0</ele><time>2026-04-05T11:34:59.41Z</time></trkpt><trkpt lat="45.9958782" lon="11.7601834"><ele>654.0</ele><time>2026-04-05T11:35:01.41Z</time></trkpt><trkpt lat="45.9958867" lon="11.7602803"><ele>657.0</ele><time>2026-04-05T11:35:02.409Z</time></trkpt><trkpt lat="45.995895" lon="11.7604084"><ele>660.0</ele><time>2026-04-05T11:35:03.411Z</time></trkpt><trkpt lat="45.9959049" lon="11.7605483"><ele>660.0</ele><time>2026-04-05T11:35:04.409Z</time></trkpt><trkpt lat="45.9958975" lon="11.7606768"><ele>660.0</ele><time>2026-04-05T11:35:05.41Z</time></trkpt><trkpt lat="45.9958764" lon="11.7607961"><ele>660.0</ele><time>2026-04-05T11:35:06.41Z</time></trkpt><trkpt lat="45.9958521" lon="11.7609158"><ele>660.0</ele><time>2026-04-05T11:35:07.41Z</time></trkpt><trkpt lat="45.9958014" lon="11.7610399"><ele>660.0</ele><time>2026-04-05T11:35:09.41Z</time></trkpt><trkpt lat="45.9957476" lon="11.7610888"><ele>660.0</ele><time>2026-04-05T11:35:11.411Z</time></trkpt><trkpt lat="45.9956556" lon="11.7611149"><ele>653.5</ele><time>2026-04-05T11:35:13.409Z</time></trkpt><trkpt lat="45.9955559" lon="11.7611246"><ele>647.0</ele><time>2026-04-05T11:35:15.409Z</time></trkpt><trkpt lat="45.9954699" lon="11.761145"><ele>640.5</ele><time>2026-04-05T11:35:17.41Z</time></trkpt><trkpt lat="45.9953929" lon="11.7611755"><ele>634.0</ele><time>2026-04-05T11:35:19.411Z</time></trkpt><trkpt lat="45.9952966" lon="11.7612163"><ele>627.5</ele><time>2026-04-05T11:35:21.41Z</time></trkpt><trkpt lat="45.9952288" lon="11.7611895"><ele>621.0</ele><time>2026-04-05T11:35:23.41Z</time></trkpt><trkpt lat="45.9951885" lon="11.7610706"><ele>622.8</ele><time>2026-04-05T11:35:25.41Z</time></trkpt><trkpt lat="45.9951879" lon="11.7609656"><ele>624.6</ele><time>2026-04-05T11:35:26.41Z</time></trkpt><trkpt lat="45.9952014" lon="11.7607821"><ele>626.4</ele><time>2026-04-05T11:35:27.411Z</time></trkpt><trkpt lat="45.995191" lon="11.7606317"><ele>628.2</ele><time>2026-04-05T11:35:28.41Z</time></trkpt><trkpt lat="45.9951777" lon="11.760519"><ele>630.0</ele><time>2026-04-05T11:35:29.41Z</time></trkpt><trkpt lat="45.9951335" lon="11.7603745"><ele>630.0</ele><time>2026-04-05T11:35:31.411Z</time></trkpt><trkpt lat="45.9951025" lon="11.7602953"><ele>630.0</ele><time>2026-04-05T11:35:32.411Z</time></trkpt><trkpt lat="45.9950535" lon="11.7601285"><ele>630.0</ele><time>2026-04-05T11:35:34.41Z</time></trkpt><trkpt lat="45.9950331" lon="11.7600363"><ele>630.0</ele><time>2026-04-05T11:35:35.411Z</time></trkpt><trkpt lat="45.9950075" lon="11.759898"><ele>630.0</ele><time>2026-04-05T11:35:37.411Z</time></trkpt><trkpt lat="45.9949849" lon="11.7597577"><ele>604.0</ele><time>2026-04-05T11:35:39.411Z</time></trkpt><trkpt lat="45.9950201" lon="11.759665"><ele>636.0</ele><time>2026-04-05T11:37:39.411Z</time></trkpt><trkpt lat="45.9950605" lon="11.75959"><ele>636.0</ele><time>2026-04-05T11:42:30.297Z</time></trkpt></trkseg></trk></gpx>